# Wetter Temperatur Luftdruck Luftfeuchtigkeit Sichtweite Windgeschwindigkeit Windrichtung Zeit
1 Drizzle 8 1006 81 6000 7.2 260 20:19 02.04.2020
2 Rain 8 1006 70 10000 6.7 250 19:43 02.04.2020
3 Rain 9 1006 66 10000 10.3 260 19:21 02.04.2020
4 Rain 9 1006 66 10000 10.3 260 19:21 02.04.2020
5 Rain 9 1006 66 10000 10.3 260 18:58 02.04.2020
6 Rain 9 1006 66 10000 10.3 260 18:39 02.04.2020
7 Clouds 9 1007 57 10000 12.9 270 18:20 02.04.2020
8 Clouds 10 1007 57 10000 12.9 270 17:56 02.04.2020
9 Clouds 10 1007 57 10000 12.9 270 17:38 02.04.2020
10 Clouds 10 1007 61 10000 9.8 270 17:18 02.04.2020
11 Clouds 10 1007 61 10000 9.8 270 16:55 02.04.2020
12 Clouds 10 1007 61 10000 9.8 270 16:36 02.04.2020
13 Clouds 10 1008 61 10000 8.2 250 16:18 02.04.2020
14 Clouds 10 1008 61 10000 8.2 250 15:44 02.04.2020
15 Clouds 10 1008 61 10000 8.2 250 15:44 02.04.2020
16 Clouds 10 1008 61 10000 8.2 250 15:44 02.04.2020
17 Clouds 10 1008 57 10000 8.7 250 15:21 02.04.2020
18 Clouds 10 1008 57 10000 8.7 250 14:58 02.04.2020
19 Clouds 10 1008 57 10000 8.7 250 14:39 02.04.2020
20 Clouds 10 1009 57 10000 7.2 250 14:19 02.04.2020
21 Clouds 10 1009 57 10000 7.2 250 13:56 02.04.2020
22 Clouds 10 1009 57 10000 7.2 250 13:38 02.04.2020
23 Clouds 10 1009 57 10000 8.2 250 13:20 02.04.2020
24 Clouds 10 1009 57 10000 8.2 250 12:55 02.04.2020
25 Clouds 10 1009 57 10000 8.2 250 12:37 02.04.2020
26 Clouds 10 1010 61 10000 7.7 250 12:19 02.04.2020
27 Clouds 10 1010 61 10000 7.7 250 11:56 02.04.2020
28 Clouds 9 1010 61 10000 7.7 250 11:37 02.04.2020
29 Clouds 9 1010 61 10000 7.7 250 11:37 02.04.2020
30 Clouds 9 1011 61 10000 7.2 250 11:18 02.04.2020
31 Clouds 9 1011 61 10000 7.2 250 10:54 02.04.2020
32 Clouds 8 1011 61 10000 7.2 250 10:36 02.04.2020
33 Clouds 8 1012 75 10000 7.2 230 10:18 02.04.2020
34 Clouds 7 1011 75 10000 5.7 240 09:43 02.04.2020
35 Clouds 6 1012 86 10000 5.1 240 09:24 02.04.2020
36 Clouds 5 1012 86 10000 5.1 240 08:58 02.04.2020
37 Clouds 5 1012 86 10000 5.1 240 08:40 02.04.2020
38 Clouds 5 1012 86 10000 4.6 240 08:22 02.04.2020
39 Clouds 4 1012 86 10000 4.6 240 07:44 02.04.2020
40 Clouds 4 1012 86 10000 4.1 240 07:20 02.04.2020
41 Clouds 4 1012 86 10000 4.1 240 06:58 02.04.2020
42 Clouds 4 1013 86 10000 3.6 250 06:21 02.04.2020
43 Clouds 5 1013 86 10000 3.6 250 05:44 02.04.2020
44 Clouds 5 1014 86 7000 4.1 260 03:57 02.04.2020
45 Clouds 5 1015 81 7000 4.1 260 01:35 02.04.2020
46 Clouds 5 1016 81 7000 4.6 270 00:48 02.04.2020
47 Clouds 5 1016 81 7000 4.6 260 00:26 02.04.2020
48 Clouds 5 1016 81 7000 4.6 260 23:55 01.04.2020
49 Clouds 6 1016 81 7000 4.6 260 23:37 01.04.2020
50 Clouds 6 1016 81 10000 5.1 260 23:18 01.04.2020
51 Clouds 6 1016 81 10000 5.1 260 22:40 01.04.2020
52 Clouds 6 1016 81 10000 4.6 270 22:22 01.04.2020
53 Clouds 6 1016 81 10000 4.6 270 21:55 01.04.2020
54 Clouds 6 1016 81 10000 4.6 270 21:37 01.04.2020
55 Clouds 6 1017 75 10000 4.6 280 21:18 01.04.2020
56 Clouds 6 1018 81 10000 2.6 270 20:55 01.04.2020
57 Clouds 7 1017 75 10000 4.6 280 20:37 01.04.2020
58 Clouds 7 1017 75 10000 6.7 280 20:18 01.04.2020
59 Clouds 7 1017 75 10000 6.7 280 19:43 01.04.2020
60 Clouds 7 1017 75 10000 7.2 290 19:22 01.04.2020
61 Clouds 7 1017 75 10000 7.2 290 18:59 01.04.2020
62 Clouds 7 1017 75 10000 7.2 290 18:40 01.04.2020
63 Clouds 8 1017 70 10000 7.7 290 18:21 01.04.2020
64 Clouds 8 1017 70 10000 7.7 290 17:55 01.04.2020
65 Clouds 8 1017 70 10000 7.7 290 17:36 01.04.2020
66 Clouds 8 1018 65 10000 7.2 300 17:18 01.04.2020
67 Clouds 8 1018 65 10000 7.2 300 17:18 01.04.2020
68 Clouds 8 1018 65 10000 7.2 300 16:43 01.04.2020
69 Clouds 8 1019 65 10000 7.2 290 16:24 01.04.2020
70 Clouds 8 1019 81 10000 4.1 240 15:59 01.04.2020
71 Clouds 7 1019 65 10000 7.2 290 15:41 01.04.2020
72 Clouds 7 1019 61 10000 6.7 300 15:22 01.04.2020
73 Clouds 8 1019 61 10000 6.7 300 14:58 01.04.2020
74 Clouds 8 1019 61 10000 6.7 300 14:39 01.04.2020
75 Clouds 8 1020 70 10000 6.7 280 14:20 01.04.2020
76 Clouds 7 1020 70 10000 6.7 280 13:58 01.04.2020
77 Clouds 8 1020 70 10000 6.7 280 13:38 01.04.2020
78 Clouds 8 1020 61 10000 6.2 270 13:19 01.04.2020
79 Clouds 8 1020 61 10000 6.2 270 12:57 01.04.2020
80 Clouds 8 1020 61 10000 6.2 270 12:37 01.04.2020
81 Clouds 8 1021 75 10000 7.2 270 12:18 01.04.2020
82 Clouds 8 1021 75 10000 7.2 270 11:56 01.04.2020
83 Clouds 8 1021 75 10000 7.2 270 11:37 01.04.2020
84 Clouds 7 1022 75 10000 5.1 270 11:18 01.04.2020
85 Clouds 7 1021 81 10000 5.1 260 10:38 01.04.2020
86 Clouds 6 1022 81 10000 4.1 250 10:20 01.04.2020
87 Clouds 6 1021 86 10000 4.6 260 09:58 01.04.2020
88 Clouds 5 1021 86 10000 4.6 260 09:39 01.04.2020
89 Clouds 4 1021 86 10000 4.1 250 09:19 01.04.2020
90 Clouds 4 1022 93 7000 2.1 250 08:44 01.04.2020
91 Clouds 3 1022 86 5000 3.1 240 08:19 01.04.2020
92 Clouds 3 1023 78 10000 3.1 250 07:56 01.04.2020
93 Clouds 3 1022 86 5000 3.1 240 07:38 01.04.2020
94 Clouds 2 1022 78 8000 2.1 240 07:18 01.04.2020
95 Clouds 2 1022 78 8000 2.1 240 06:41 01.04.2020
96 Clouds 2 1023 86 8000 3.1 230 06:20 01.04.2020
97 Clouds 2 1024 80 8000 3.6 250 05:24 01.04.2020
98 Clouds 1 1024 74 8000 2.1 230 03:40 01.04.2020
99 Clouds 1 1025 69 8000 2.1 250 02:59 01.04.2020
100 Clouds 1 1026 69 9000 2.6 260 02:31 01.04.2020
101 Clouds 1 1026 69 9000 2.6 260 01:50 01.04.2020
102 Clouds 0 1027 69 8000 2.6 270 01:25 01.04.2020
103 Clouds 0 1027 69 8000 2.6 270 00:47 01.04.2020
104 Clouds 0 1027 64 8000 1.5 270 00:22 01.04.2020
105 Clouds 0 1027 64 8000 1.5 270 23:57 31.03.2020
106 Clouds 1 1027 64 8000 1.5 270 23:38 31.03.2020
107 Clouds 1 1028 64 10000 2.1 310 23:19 31.03.2020
108 Clouds 1 1028 64 10000 2.1 310 22:41 31.03.2020
109 Clouds 2 1029 59 10000 1.5 310 22:21 31.03.2020
110 Clouds 2 1029 59 10000 1.5 310 21:58 31.03.2020
111 Clouds 3 1029 59 10000 1.5 310 21:40 31.03.2020
112 Clouds 3 1029 55 10000 1.5 320 21:21 31.03.2020
113 Clouds 3 1029 55 10000 1.5 320 20:57 31.03.2020
114 Clouds 4 1029 55 10000 1.5 320 20:37 31.03.2020
115 Clouds 4 1029 48 10000 3.1 350 20:19 31.03.2020
116 Clouds 5 1029 48 10000 3.1 350 19:57 31.03.2020
117 Clouds 5 1029 48 10000 3.1 350 19:38 31.03.2020
118 Clouds 6 1030 35 10000 3.1 360 19:19 31.03.2020
119 Clouds 7 1030 35 10000 3.1 360 18:44 31.03.2020
120 Clouds 7 1030 35 10000 3.6 360 18:21 31.03.2020
121 Clouds 7 1030 35 10000 3.6 360 17:58 31.03.2020
122 Clouds 8 1030 35 10000 3.6 360 17:39 31.03.2020
123 Clouds 8 1031 35 10000 4.1 360 17:21 31.03.2020
124 Clouds 8 1031 35 10000 4.1 360 16:57 31.03.2020
125 Clouds 8 1031 35 10000 4.1 360 16:37 31.03.2020
126 Clouds 8 1031 36 10000 3.1 10 16:18 31.03.2020
127 Clouds 8 1031 36 10000 3.1 10 15:56 31.03.2020
128 Clouds 8 1031 36 10000 3.1 10 15:37 31.03.2020
129 Clouds 8 1031 33 10000 2.6 60 15:18 31.03.2020
130 Clear 8 1031 39 10000 4.1 50 14:56 31.03.2020
131 Clouds 8 1031 33 10000 2.6 60 14:37 31.03.2020
132 Clouds 8 1032 35 10000 4.6 60 14:18 31.03.2020
133 Clouds 8 1032 35 10000 4.6 60 13:41 31.03.2020
134 Clouds 7 1032 38 10000 4.6 80 13:19 31.03.2020
135 Clouds 7 1032 38 10000 4.6 80 12:54 31.03.2020
136 Clouds 7 1032 38 10000 4.6 80 12:36 31.03.2020
137 Clouds 7 1032 41 10000 4.6 80 12:18 31.03.2020
138 Clouds 6 1032 41 10000 4.6 80 11:38 31.03.2020
139 Clouds 6 1033 65 10000 4.1 30 11:19 31.03.2020
140 Clouds 6 1033 56 10000 4.6 40 10:57 31.03.2020
141 Clouds 5 1033 65 10000 4.1 30 10:39 31.03.2020
142 Clear 5 1032 64 10000 2.6 50 10:21 31.03.2020
143 Clear 5 1032 64 10000 2.6 50 10:21 31.03.2020
144 Clear 5 1032 55 10000 3.1 30 09:56 31.03.2020
145 Clear 4 1032 64 10000 2.6 50 09:37 31.03.2020
146 Clear 3 1032 69 10000 2.1 60 09:19 31.03.2020
147 Clear 1 1032 74 10000 0.5 10 08:55 31.03.2020
148 Clear 0 1032 84 7000 1 310 08:37 31.03.2020
149 Clear -1 1032 86 9000 1 360 08:18 31.03.2020
150 Clear -2 1032 86 9000 1 360 07:44 31.03.2020
151 Clear -2 1031 79 9000 1 350 07:25 31.03.2020
152 Clear -2 1031 79 9000 1 350 06:59 31.03.2020
153 Clear -2 1031 79 9000 1 350 06:41 31.03.2020
154 Clear -2 1031 79 9000 1 310 05:53 31.03.2020
155 Clear -2 1031 89 10000 2.1 20 05:26 31.03.2020
156 Clear 0 1031 86 9000 2.1 30 02:57 31.03.2020
157 Clear 2 1030 55 9000 3.1 70 01:47 31.03.2020
158 Clear 2 1030 55 10000 5.1 60 01:27 31.03.2020
159 Clear 2 1030 55 10000 5.1 60 00:43 31.03.2020
160 Clear 2 1030 55 10000 4.6 70 00:23 31.03.2020
161 Clear 3 1030 55 10000 4.6 70 23:41 30.03.2020
162 Clouds 3 1029 51 10000 4.6 70 23:20 30.03.2020
163 Clouds 3 1029 51 10000 4.6 70 23:20 30.03.2020
164 Clouds 4 1029 51 10000 4.6 70 22:58 30.03.2020
165 Clouds 4 1029 51 10000 4.6 70 22:58 30.03.2020
166 Clouds 4 1029 51 10000 4.6 70 22:58 30.03.2020
167 Clouds 4 1029 51 10000 4.6 70 22:39 30.03.2020
168 Clouds 4 1028 80 10000 5.7 60 22:20 30.03.2020
169 Clouds 4 1028 80 10000 5.7 60 21:58 30.03.2020
170 Clouds 4 1028 80 10000 5.7 60 21:39 30.03.2020
171 Clouds 5 1027 75 10000 3.1 20 21:20 30.03.2020
172 Clouds 5 1027 75 10000 3.1 20 20:58 30.03.2020
173 Clouds 5 1027 75 10000 3.1 20 20:39 30.03.2020
174 Clouds 5 1026 70 10000 4.6 20 20:20 30.03.2020
175 Clouds 6 1026 70 10000 4.6 20 19:56 30.03.2020
176 Clouds 6 1026 70 10000 4.6 20 19:38 30.03.2020
177 Clouds 6 1026 70 10000 4.1 20 19:20 30.03.2020
178 Clouds 7 1026 70 10000 4.1 20 18:43 30.03.2020
179 Clouds 7 1026 70 10000 6.2 360 18:25 30.03.2020
180 Clouds 7 1026 70 10000 6.2 360 17:58 30.03.2020
181 Clouds 7 1026 70 10000 6.2 360 17:39 30.03.2020
182 Clouds 7 1026 70 10000 6.2 360 17:39 30.03.2020
183 Clouds 8 1025 65 10000 6.7 360 17:20 30.03.2020
184 Clouds 7 1025 65 10000 6.7 360 16:59 30.03.2020
185 Clouds 8 1025 65 10000 6.7 360 16:40 30.03.2020
186 Clouds 8 1026 70 10000 5.7 350 16:20 30.03.2020
187 Clouds 8 1026 70 10000 5.7 350 16:20 30.03.2020
188 Clouds 8 1026 70 10000 5.7 350 16:20 30.03.2020
189 Clouds 8 1026 70 10000 5.7 350 16:20 30.03.2020
190 Clouds 8 1026 70 10000 5.7 350 15:56 30.03.2020
191 Clouds 8 1026 70 10000 5.7 350 15:38 30.03.2020
192 Clouds 8 1026 75 10000 6.7 350 15:20 30.03.2020
193 Drizzle 7 1027 75 10000 5.7 340 14:56 30.03.2020
194 Clouds 7 1026 75 10000 7.7 360 14:37 30.03.2020
195 Clouds 8 1026 87 10000 5.7 330 14:18 30.03.2020
196 Rain 8 1027 75 10000 6.7 330 13:56 30.03.2020
197 Rain 8 1028 70 10000 6.2 330 13:37 30.03.2020
198 Clouds 8 1027 81 10000 7.7 330 13:19 30.03.2020
199 Clouds 8 1027 81 10000 7.7 330 12:44 30.03.2020
200 Clouds 7 1027 75 10000 6.2 320 12:21 30.03.2020
201 Clouds 7 1027 75 10000 6.2 320 12:21 30.03.2020
202 Clouds 7 1027 75 10000 6.2 320 11:57 30.03.2020
203 Clouds 7 1027 75 10000 6.2 320 11:39 30.03.2020
204 Rain 7 1028 81 10000 5.1 310 11:21 30.03.2020
205 Clouds 5 1028 81 10000 4.1 320 10:41 30.03.2020
206 Clouds 5 1028 86 10000 3.1 290 10:23 30.03.2020
207 Clouds 4 1028 86 10000 3.1 290 09:59 30.03.2020
208 Clouds 4 1028 86 10000 3.1 290 09:59 30.03.2020
209 Clouds 4 1028 86 10000 3.1 290 09:40 30.03.2020
210 Clouds 3 1028 86 10000 3.1 280 09:19 30.03.2020
211 Rain 3 1028 86 5000 3.1 250 08:54 30.03.2020
212 Rain 2 1028 86 5000 3.1 250 08:36 30.03.2020
213 Rain 2 1029 83 5000 3.1 250 08:18 30.03.2020
214 Rain 1 1029 83 5000 3.1 250 07:41 30.03.2020
215 Rain 1 1030 80 7000 2.1 250 07:20 30.03.2020
216 Rain 1 1030 80 7000 2.1 250 06:42 30.03.2020
217 Clouds 1 1030 86 7000 2.6 260 06:23 30.03.2020
218 Clouds 0 1030 86 7000 2.6 260 05:39 30.03.2020
219 Clouds 1 1032 86 10000 0.5 0 04:29 30.03.2020
220 Clouds 1 1032 80 8000 1 330 03:53 30.03.2020
221 Clouds 0 1033 69 8000 3.1 290 02:44 30.03.2020
222 Clouds 0 1033 86 9000 1 310 01:55 30.03.2020
223 Clouds 0 1034 64 9000 1.5 360 00:57 30.03.2020
224 Clouds 1 1034 59 9000 2.6 350 00:27 30.03.2020
225 Clear 1 1034 59 9000 2.6 350 23:56 29.03.2020
226 Clear 1 1034 59 9000 2.6 350 23:37 29.03.2020
227 Clear 2 1034 51 10000 4.6 10 23:18 29.03.2020
228 Clear 2 1034 51 10000 4.6 10 22:40 29.03.2020
229 Clear 2 1035 55 9000 5.1 10 22:20 29.03.2020
230 Clear 3 1035 55 9000 5.1 10 21:59 29.03.2020
231 Clear 3 1035 55 9000 5.1 10 21:38 29.03.2020
232 Clear 3 1034 55 9000 6.7 10 21:20 29.03.2020
233 Clear 3 1034 55 9000 6.7 10 20:56 29.03.2020
234 Clear 3 1034 55 9000 6.7 10 20:37 29.03.2020
235 Clear 3 1034 55 9000 6.7 10 20:37 29.03.2020
236 Clear 3 1034 55 9000 6.7 10 20:37 29.03.2020
237 Clear 3 1034 29 10000 5.7 30 20:19 29.03.2020
238 Clear 3 1034 29 10000 5.7 30 20:19 29.03.2020
239 Clear 4 1034 29 10000 5.7 30 19:57 29.03.2020
240 Clear 4 1034 29 10000 5.7 30 19:39 29.03.2020
241 Clear 4 1034 25 10000 7.7 30 19:21 29.03.2020
242 Clear 5 1034 25 10000 7.7 30 18:57 29.03.2020
243 Clear 5 1034 25 10000 7.7 30 18:38 29.03.2020
244 Clouds 5 1034 30 10000 8.2 30 18:19 29.03.2020
245 Clouds 5 1034 30 10000 8.2 30 18:19 29.03.2020
246 Clouds 5 1034 30 10000 8.2 30 17:56 29.03.2020
247 Clouds 5 1034 38 10000 8.7 30 17:38 29.03.2020
248 Clouds 5 1033 32 10000 10.3 30 17:19 29.03.2020
249 Clouds 6 1033 32 10000 10.3 30 16:56 29.03.2020
250 Clouds 6 1033 32 10000 10.3 30 16:38 29.03.2020
251 Clouds 6 1033 32 10000 10.8 40 16:19 29.03.2020
252 Clouds 6 1033 32 10000 10.8 40 15:42 29.03.2020
253 Clouds 6 1033 32 10000 10.8 40 15:42 29.03.2020
254 Clouds 6 1033 41 10000 10.8 30 15:24 29.03.2020
255 Clouds 6 1033 41 10000 10.8 30 14:59 29.03.2020
256 Clouds 6 1033 41 10000 10.8 30 14:40 29.03.2020
257 Clouds 6 1033 41 10000 10.8 30 14:40 29.03.2020
258 Clouds 6 1032 48 9000 11.8 30 14:20 29.03.2020
259 Clouds 6 1032 48 9000 11.8 30 13:58 29.03.2020
260 Clouds 6 1032 48 9000 11.8 30 13:40 29.03.2020
261 Clouds 5 1032 51 8000 10.3 30 13:21 29.03.2020
262 Clouds 5 1032 51 8000 10.3 30 12:57 29.03.2020
263 Clouds 5 1032 51 8000 10.3 30 12:38 29.03.2020
264 Clouds 5 1031 55 9000 10.3 30 12:19 29.03.2020
265 Clouds 5 1031 55 9000 10.3 30 11:55 29.03.2020
266 Clouds 5 1031 55 9000 10.3 30 11:37 29.03.2020
267 Clouds 5 1030 55 9000 9.8 30 11:19 29.03.2020
268 Clouds 5 1030 55 9000 9.8 30 10:38 29.03.2020
269 Clouds 4 1030 56 10000 8.7 20 10:19 29.03.2020
270 Clouds 4 1029 59 8000 10.3 30 09:54 29.03.2020
271 Clouds 4 1029 59 8000 10.3 30 09:36 29.03.2020
272 Clouds 4 1028 69 8000 10.3 30 09:18 29.03.2020
273 Clouds 4 1028 69 8000 10.3 30 08:41 29.03.2020
274 Clouds 4 1027 64 8000 9.8 30 08:22 29.03.2020
275 Clouds 4 1027 64 8000 9.8 30 07:45 29.03.2020
276 Clouds 4 1026 60 8000 8.7 30 07:22 29.03.2020
277 Clouds 4 1026 56 8000 8.2 30 05:59 29.03.2020
278 Clouds 5 1026 65 10000 5.7 10 04:56 29.03.2020
279 Clouds 5 1025 65 8000 7.2 20 03:41 29.03.2020
280 Clouds 5 1025 56 9000 6.7 20 01:57 29.03.2020
281 Clouds 5 1025 56 9000 6.7 20 01:39 29.03.2020
282 Clouds 5 1025 65 8000 6.2 10 01:20 29.03.2020
283 Clouds 5 1025 65 8000 6.2 10 00:40 29.03.2020
284 Clouds 5 1024 70 7000 6.2 360 00:19 29.03.2020
285 Clouds 5 1024 70 7000 6.2 360 23:40 28.03.2020
286 Clouds 5 1024 75 7000 6.7 350 23:22 28.03.2020
287 Clouds 5 1024 75 7000 6.7 350 22:44 28.03.2020
288 Clouds 5 1024 74 7000 6.2 350 22:22 28.03.2020
289 Clouds 5 1024 74 7000 6.2 350 21:57 28.03.2020
290 Clouds 5 1024 74 7000 6.2 350 21:57 28.03.2020
291 Clouds 5 1024 74 7000 6.2 350 21:57 28.03.2020
292 Clouds 5 1024 74 7000 6.2 350 21:39 28.03.2020
293 Clouds 5 1025 65 7000 7.7 350 21:21 28.03.2020
294 Clouds 5 1025 65 7000 7.7 350 20:57 28.03.2020
295 Clouds 5 1025 65 7000 7.7 350 20:38 28.03.2020
296 Clouds 5 1024 70 7000 7.7 350 20:20 28.03.2020
297 Clouds 6 1026 70 10000 5.7 360 19:55 28.03.2020
298 Clouds 6 1024 70 7000 7.7 350 19:36 28.03.2020
299 Clouds 6 1024 70 8000 9.3 350 19:18 28.03.2020
300 Clouds 7 1024 70 8000 9.3 350 18:42 28.03.2020
301 Clouds 7 1024 69 8000 9.8 360 18:21 28.03.2020
302 Clouds 7 1024 69 8000 9.8 360 17:56 28.03.2020
303 Clouds 8 1024 65 8000 8.7 360 17:36 28.03.2020
304 Clear 8 1024 65 8000 8.7 360 17:18 28.03.2020
305 Clear 9 1024 65 8000 8.7 360 16:40 28.03.2020
306 Clear 9 1024 70 8000 8.2 360 16:20 28.03.2020
307 Clear 9 1024 70 8000 8.2 360 15:55 28.03.2020
308 Clear 9 1024 70 8000 8.2 360 15:37 28.03.2020
309 Clear 9 1024 70 8000 8.2 350 15:18 28.03.2020
310 Clear 10 1024 70 8000 8.2 350 14:42 28.03.2020
311 Clear 10 1025 70 8000 6.7 360 14:22 28.03.2020
312 Clear 10 1025 70 8000 6.7 360 13:55 28.03.2020
313 Clear 10 1025 70 8000 6.7 360 13:36 28.03.2020
314 Clear 10 1025 66 8000 6.2 10 13:18 28.03.2020
315 Clear 10 1025 66 8000 6.2 10 12:38 28.03.2020
316 Clear 10 1025 66 7000 6.2 10 12:19 28.03.2020
317 Clear 9 1025 66 7000 6.2 10 11:42 28.03.2020
318 Clear 9 1025 66 7000 6.2 10 11:42 28.03.2020
319 Clear 9 1025 70 7000 6.2 360 11:21 28.03.2020
320 Clear 9 1025 70 7000 6.2 360 10:55 28.03.2020
321 Clear 9 1025 70 7000 6.2 360 10:36 28.03.2020
322 Clear 9 1025 75 6000 5.1 10 10:18 28.03.2020
323 Clear 8 1025 75 6000 5.1 10 09:40 28.03.2020
324 Clear 8 1025 75 10000 4.6 20 09:22 28.03.2020
325 Clear 7 1025 75 6000 4.1 10 08:45 28.03.2020
326 Clear 7 1025 81 9000 4.6 10 08:25 28.03.2020
327 Clear 6 1025 81 8000 3.6 20 07:58 28.03.2020
328 Clear 5 1025 86 6000 3.1 10 07:40 28.03.2020
329 Clear 4 1025 86 5000 2.6 10 06:53 28.03.2020
330 Clear 4 1024 86 5000 4.1 20 06:26 28.03.2020
331 Clear 4 1024 86 5000 4.1 20 05:38 28.03.2020
332 Clear 4 1024 80 6000 3.1 30 05:19 28.03.2020
333 Clear 4 1024 80 6000 3.1 30 04:39 28.03.2020
334 Clear 5 1025 80 6000 2.6 30 02:52 28.03.2020
335 Clear 5 1024 75 7000 4.6 40 01:48 28.03.2020
336 Clear 5 1025 70 7000 5.1 50 01:24 28.03.2020
337 Clear 6 1025 70 7000 5.1 50 00:52 28.03.2020
338 Clear 6 1024 75 10000 4.1 30 00:28 28.03.2020
339 Clear 6 1025 70 7000 5.1 50 23:44 27.03.2020
340 Clear 7 1024 65 7000 4.6 50 23:26 27.03.2020
341 Clear 7 1024 65 7000 4.6 50 22:58 27.03.2020
342 Clear 7 1024 65 7000 4.6 50 22:39 27.03.2020
343 Clear 7 1024 70 7000 6.2 60 22:21 27.03.2020
344 Clear 7 1024 70 7000 6.2 60 21:59 27.03.2020
345 Clear 7 1024 70 7000 6.2 60 21:41 27.03.2020
346 Clear 8 1024 65 10000 7.2 50 21:22 27.03.2020
347 Clear 8 1024 65 10000 7.2 50 20:57 27.03.2020
348 Clear 8 1024 65 10000 7.2 50 20:39 27.03.2020
349 Clear 8 1023 61 10000 6.7 50 20:19 27.03.2020
350 Clear 8 1023 61 10000 6.7 50 20:19 27.03.2020
351 Clear 8 1022 70 10000 6.2 30 19:56 27.03.2020
352 Clear 9 1023 61 10000 6.7 50 19:38 27.03.2020
353 Clear 9 1023 57 10000 6.2 40 19:19 27.03.2020
354 Clear 10 1023 57 10000 6.2 40 18:43 27.03.2020
355 Clear 11 1023 50 10000 6.2 40 18:23 27.03.2020
356 Clear 11 1023 50 10000 6.2 40 17:55 27.03.2020
357 Clear 12 1023 50 10000 6.2 40 17:37 27.03.2020
358 Clear 12 1023 46 10000 7.2 40 17:19 27.03.2020
359 Clear 13 1023 46 10000 7.2 40 16:44 27.03.2020
360 Clear 13 1023 63 10000 6.7 50 16:25 27.03.2020
361 Clear 13 1023 63 10000 6.7 50 16:25 27.03.2020
362 Clear 13 1023 63 10000 6.7 50 16:25 27.03.2020
363 Clear 13 1023 63 10000 6.7 50 15:45 27.03.2020
364 Clear 13 1024 46 10000 6.2 50 15:27 27.03.2020
365 Clear 13 1022 60 0 4.02 1 14:59 27.03.2020
366 Clear 13 1023 56 0 4.02 30 14:40 27.03.2020
367 Clear 13 1023 55 0 3.58 20 14:21 27.03.2020
368 Clear 14 1023 46 0 3.58 27 13:54 27.03.2020
369 Clear 14 1023 45 0 2.68 34 13:36 27.03.2020
370 Clear 10 1024 61 0 7.06 60 13:18 27.03.2020
371 Clear 13 1024 43 0 3.13 46 12:42 27.03.2020
372 Clear 10 1024 61 0 6.92 57 12:19 27.03.2020
373 Clear 10 1024 61 0 6.92 57 11:55 27.03.2020
374 Clear 10 1024 61 0 6.92 57 11:36 27.03.2020
375 Clear 8 1025 63 0 6.18 68 11:18 27.03.2020
376 Clear 8 1025 63 0 6.18 68 10:41 27.03.2020
377 Clear 11 1024 54 0 3.13 18 10:22 27.03.2020
378 Clear 9 1024 57 0 2.68 34 09:59 27.03.2020
379 Clear 9 1024 60 0 2.24 34 09:40 27.03.2020
380 Clear 8 1024 63 0 2.68 39 09:22 27.03.2020
381 Clear 6 1025 69 0 2.24 10 08:59 27.03.2020
382 Clear 6 1025 72 0 2.24 45 08:40 27.03.2020
383 Clear 4 1025 75 0 2.24 22 08:22 27.03.2020
384 Clear 3 1025 77 0 2.68 22 07:57 27.03.2020
385 Clear 3 1025 78 0 2.24 31 07:57 27.03.2020
386 Clear 3 1025 78 0 2.24 33 07:38 27.03.2020
387 Clear 3 1025 79 0 2.24 49 07:20 27.03.2020
388 Clear 3 1025 79 0 1.79 34 06:39 27.03.2020
389 Clear 2 1025 80 0 2.24 64 05:51 27.03.2020
390 Clear 3 1025 75 0 2.24 23 03:34 27.03.2020
391 Clear 3 1025 72 0 1.79 25 01:55 27.03.2020
392 Clear 3 1025 71 0 1.79 53 01:19 27.03.2020
393 Clear 3 1025 70 0 1.34 35 00:41 27.03.2020
394 Clear 3 1025 70 0 1.34 35 00:41 27.03.2020
395 Clear 3 1025 69 0 1.79 31 00:19 27.03.2020
396 Clear 4 1025 68 0 1.79 18 23:40 26.03.2020
397 Clear 4 1025 67 0 1.79 23 23:18 26.03.2020
398 Clear 4 1025 65 0 1.79 25 22:57 26.03.2020
399 Clear 4 1025 64 0 1.34 22 22:36 26.03.2020
400 Clear 4 1025 61 0 1.34 53 22:18 26.03.2020
401 Clear 4 1025 64 0 1.79 22 21:40 26.03.2020
402 Clear 5 1025 64 0 0.89 19 21:21 26.03.2020
403 Clear 5 1025 62 0 1.34 25 20:59 26.03.2020
404 Clear 6 1025 59 0 1.34 27 20:39 26.03.2020
405 Clear 6 1025 55 0 1.34 17 20:21 26.03.2020
406 Clear 7 1025 54 0 1.79 31 19:58 26.03.2020
407 Clear 7 1025 51 0 1.34 19 19:40 26.03.2020
408 Clear 8 1025 46 0 1.79 20 19:21 26.03.2020
409 Clear 8 1024 45 0 2.24 50 18:58 26.03.2020
410 Clear 8 1024 45 0 2.24 49 18:40 26.03.2020
411 Clear 9 1024 43 0 1.79 56 18:21 26.03.2020
412 Clear 9 1024 42 0 2.24 71 17:45 26.03.2020
413 Clear 10 1024 40 0 2.68 47 17:20 26.03.2020
414 Clear 11 1024 35 0 2.68 53 16:57 26.03.2020
415 Clear 11 1024 35 0 2.68 53 16:57 26.03.2020
416 Clear 11 1024 35 0 2.68 57 16:38 26.03.2020
417 Clear 12 1024 37 0 2.68 24 16:19 26.03.2020
418 Clear 12 1024 33 0 3.13 39 15:56 26.03.2020
419 Clear 12 1024 31 0 2.24 34 15:38 26.03.2020
420 Clear 11 1025 32 0 3.13 54 15:18 26.03.2020
421 Clear 11 1025 31 0 3.13 86 14:43 26.03.2020
422 Clear 11 1025 31 0 3.13 41 14:25 26.03.2020
423 Clear 11 1025 35 0 2.24 47 13:56 26.03.2020
424 Clear 11 1025 35 0 2.24 47 13:56 26.03.2020
425 Clear 11 1026 37 0 2.68 33 13:38 26.03.2020
426 Clear 8 1027 54 0 5.71 91 13:20 26.03.2020
427 Clear 10 1026 36 0 3.13 17 12:39 26.03.2020
428 Clear 9 1026 34 0 3.13 68 12:21 26.03.2020
429 Clear 9 1026 35 0 3.13 72 11:56 26.03.2020
430 Clear 9 1026 35 0 3.13 72 11:56 26.03.2020
431 Clear 9 1026 34 0 3.13 103 11:37 26.03.2020
432 Clear 8 1027 35 0 3.58 83 11:19 26.03.2020
433 Clear 8 1027 43 0 2.68 105 10:42 26.03.2020
434 Clear 8 1027 46 0 2.24 65 10:20 26.03.2020
435 Clear 7 1027 47 0 3.13 46 09:55 26.03.2020
436 Clear 7 1027 47 0 3.13 46 09:55 26.03.2020
437 Clear 6 1027 49 0 2.68 93 09:37 26.03.2020
438 Clear 6 1027 49 0 2.24 107 09:19 26.03.2020
439 Clear 4 1027 51 0 2.24 70 08:42 26.03.2020
440 Clear 3 1027 54 0 2.24 67 08:24 26.03.2020
441 Clouds 3 1027 59 0 1.79 46 07:57 26.03.2020
442 Clouds 2 1027 60 0 1.34 31 07:38 26.03.2020
443 Clouds 1 1027 64 0 1.34 34 07:19 26.03.2020
444 Clouds 1 1027 63 0 1.34 34 06:35 26.03.2020
445 Clouds 2 1026 63 0 1.34 35 05:51 26.03.2020
446 Clouds 4 1026 51 0 2.24 91 03:47 26.03.2020
447 Clouds 4 1026 53 0 1.79 136 03:26 26.03.2020
448 Clouds 4 1026 51 0 1.34 106 02:52 26.03.2020
449 Clouds 5 1027 50 0 1.79 112 01:19 26.03.2020
450 Clouds 5 1027 51 0 2.24 122 00:33 26.03.2020
451 Clouds 6 1027 49 0 2.68 82 23:44 25.03.2020
452 Clouds 6 1027 49 0 2.68 82 23:26 25.03.2020
453 Clouds 7 1027 46 0 2.68 91 22:57 25.03.2020
454 Clouds 7 1027 44 0 3.13 102 22:38 25.03.2020
455 Clouds 7 1027 45 0 2.24 70 22:19 25.03.2020
456 Clouds 5 1027 56 0 0.89 56 21:54 25.03.2020
457 Clouds 5 1027 57 0 1.34 47 21:36 25.03.2020
458 Clouds 5 1027 56 0 1.34 58 21:18 25.03.2020
459 Clouds 6 1027 53 0 1.34 41 20:39 25.03.2020
460 Clouds 6 1027 52 0 0.89 56 20:20 25.03.2020
461 Clouds 7 1027 50 0 0.89 60 19:58 25.03.2020
462 Clouds 7 1027 51 0 0.45 57 19:39 25.03.2020
463 Clouds 7 1026 51 0 0.45 54 19:21 25.03.2020
464 Clouds 8 1026 50 0 0.89 63 18:56 25.03.2020
465 Clouds 9 1026 47 0 0.89 42 18:37 25.03.2020
466 Clouds 9 1026 43 0 1.34 105 18:19 25.03.2020
467 Clouds 10 1026 33 0 1.79 72 17:42 25.03.2020
468 Clouds 11 1026 35 0 2.24 60 17:23 25.03.2020
469 Clouds 11 1026 32 0 1.79 102 16:59 25.03.2020
470 Clouds 11 1026 33 0 2.24 50 16:41 25.03.2020
471 Clouds 12 1027 36 0 2.24 32 16:21 25.03.2020
472 Clouds 12 1027 35 0 2.24 47 15:57 25.03.2020
473 Clouds 12 1027 34 0 2.68 71 15:37 25.03.2020
474 Clouds 12 1027 33 0 2.24 47 15:18 25.03.2020
475 Clouds 12 1027 33 0 2.24 47 15:18 25.03.2020
476 Clouds 12 1028 32 0 2.24 112 14:41 25.03.2020
477 Clouds 12 1028 35 0 2.24 45 14:21 25.03.2020
478 Clouds 11 1029 33 0 2.68 79 13:46 25.03.2020
479 Clouds 11 1029 39 0 2.24 11 13:26 25.03.2020
480 Clouds 10 1029 40 0 2.68 54 12:57 25.03.2020
481 Clouds 9 1029 40 0 2.24 60 12:37 25.03.2020
482 Clouds 10 1029 38 0 2.24 66 12:18 25.03.2020
483 Clouds 9 1030 41 0 1.79 66 11:43 25.03.2020
484 Clouds 9 1029 51 0 3.59 119 11:21 25.03.2020
485 Clouds 8 1030 42 0 1.79 126 10:59 25.03.2020
486 Clouds 8 1030 40 0 1.79 126 10:40 25.03.2020
487 Clouds 7 1030 48 0 1.34 96 10:19 25.03.2020
488 Clouds 7 1030 45 0 1.79 131 09:59 25.03.2020
489 Clouds 6 1031 50 0 1.79 93 09:41 25.03.2020
490 Clouds 4 1031 52 0 1.79 128 09:22 25.03.2020
491 Clouds 3 1031 56 0 2.24 101 08:55 25.03.2020
492 Clouds 3 1031 55 0 1.79 114 08:37 25.03.2020
493 Clear 2 1031 60 0 2.24 118 08:18 25.03.2020
494 Clear 0 1030 88 0 3.75 147 07:39 25.03.2020
495 Clear 0 1030 88 0 3.75 147 07:20 25.03.2020
496 Clear 0 1030 88 0 3.75 147 06:47 25.03.2020
497 Clear 0 1030 88 0 3.75 147 06:26 25.03.2020
498 Clear 0 1030 88 0 3.75 147 05:53 25.03.2020
499 Clear 0 1030 88 0 4.66 146 04:59 25.03.2020
500 Clear 0 1030 88 0 4.66 146 04:39 25.03.2020
501 Clear 0 1030 88 0 4.66 146 03:36 25.03.2020
502 Clouds 1 1031 81 0 5.13 146 01:58 25.03.2020
503 Clouds 2 1032 80 0 5.27 150 01:21 25.03.2020
504 Clouds 2 1032 80 0 5.27 150 00:48 25.03.2020
505 Clouds 4 1030 55 0 1.79 120 00:19 25.03.2020
506 Clouds 4 1030 55 0 1.79 120 23:45 24.03.2020
507 Clouds 4 1030 55 0 1.79 120 23:26 24.03.2020
508 Clouds 4 1030 54 0 2.24 123 22:56 24.03.2020
509 Clouds 4 1030 52 0 2.24 126 22:37 24.03.2020
510 Clouds 4 1030 52 0 2.68 127 22:19 24.03.2020
511 Clouds 4 1030 52 0 2.68 127 22:19 24.03.2020
512 Clouds 4 1030 51 0 1.79 109 21:56 24.03.2020
513 Clouds 4 1030 52 0 1.34 114 21:37 24.03.2020
514 Clouds 5 1030 50 0 0.89 111 21:18 24.03.2020
515 Clouds 5 1030 49 0 1.79 108 20:56 24.03.2020
516 Clouds 5 1030 49 0 1.79 123 20:38 24.03.2020
517 Clouds 6 1030 48 0 1.34 110 20:19 24.03.2020
518 Clouds 6 1030 45 0 2.68 97 19:41 24.03.2020
519 Clouds 7 1030 45 0 1.34 114 19:19 24.03.2020
520 Clouds 7 1030 43 0 1.79 137 18:56 24.03.2020
521 Clouds 8 1030 42 0 1.79 118 18:37 24.03.2020
522 Clouds 8 1030 40 0 1.79 338 18:18 24.03.2020
523 Clouds 9 1030 40 0 2.68 338 17:42 24.03.2020
524 Clouds 9 1030 39 0 2.24 338 17:24 24.03.2020
525 Clouds 10 1031 25 10000 5.1 150 16:59 24.03.2020
526 Clouds 10 1031 25 10000 5.1 150 16:41 24.03.2020
527 Clear 10 1030 27 10000 5.7 130 16:23 24.03.2020
528 Clouds 10 1031 25 10000 6.2 150 15:59 24.03.2020
529 Clouds 10 1031 25 10000 6.2 150 15:39 24.03.2020
530 Clear 10 1030 27 10000 5.7 140 15:21 24.03.2020
531 Clouds 10 1032 23 10000 7.2 160 14:43 24.03.2020
532 Clouds 10 1032 23 10000 7.2 160 14:43 24.03.2020
533 Clouds 10 1032 23 10000 7.2 160 14:43 24.03.2020
534 Clear 11 1031 34 0 3.58 153 14:22 24.03.2020
535 Clouds 11 1031 34 0 4.02 170 13:56 24.03.2020
536 Clouds 11 1031 32 0 3.13 146 13:38 24.03.2020
537 Clouds 11 1031 31 0 4.02 177 13:20 24.03.2020
538 Clouds 9 1032 36 0 3.58 154 12:42 24.03.2020
539 Clouds 9 1032 36 0 3.58 338 12:23 24.03.2020
540 Clouds 8 1032 38 0 3.58 134 11:41 24.03.2020
541 Clouds 7 1032 36 10000 5.1 180 11:21 24.03.2020
542 Clouds 7 1033 35 10000 5.1 170 10:59 24.03.2020
543 Clouds 6 1033 35 10000 5.1 170 10:40 24.03.2020
544 Clouds 6 1033 41 10000 5.1 150 10:18 24.03.2020
545 Clouds 5 1034 41 10000 5.7 170 09:46 24.03.2020
546 Clouds 5 1034 41 10000 5.7 170 09:46 24.03.2020
547 Clouds 4 1033 44 10000 4.6 150 09:26 24.03.2020
548 Clouds 3 1033 47 10000 4.6 140 08:57 24.03.2020
549 Clouds 2 1034 47 9000 5.1 160 08:38 24.03.2020
550 Clouds 1 1033 55 10000 4.1 140 08:19 24.03.2020
551 Clouds 0 1034 61 10000 3.6 140 07:44 24.03.2020
552 Clouds -1 1033 63 10000 2.6 120 07:22 24.03.2020
553 Clouds -1 1033 63 10000 2.6 120 07:22 24.03.2020
554 Clouds -1 1033 63 10000 2.6 110 06:42 24.03.2020
555 Clouds -1 1033 63 10000 2.6 110 06:21 24.03.2020
556 Clouds 0 1034 50 10000 3.1 150 04:52 24.03.2020
557 Clouds 1 1033 50 10000 4.1 150 03:41 24.03.2020
558 Clouds 1 1033 47 10000 4.1 160 02:44 24.03.2020
559 Clouds 2 1033 55 10000 3.1 130 00:57 24.03.2020
560 Clouds 2 1033 55 10000 3.1 130 00:28 24.03.2020
561 Clouds 2 1034 40 10000 4.6 150 23:59 23.03.2020
562 Clouds 3 1034 40 10000 4.6 150 23:38 23.03.2020
563 Clear 3 1032 51 10000 4.1 110 23:20 23.03.2020
564 Clear 3 1034 40 10000 4.6 140 22:45 23.03.2020
565 Clear 3 1033 47 10000 4.6 110 22:24 23.03.2020
566 Clear 3 1033 47 10000 4.6 110 21:58 23.03.2020
567 Clouds 3 1035 44 10000 3.1 130 21:40 23.03.2020
568 Clear 4 1033 44 10000 3.6 110 21:20 23.03.2020
569 Clouds 4 1034 41 10000 4.6 130 20:56 23.03.2020
570 Clouds 4 1034 41 10000 4.6 130 20:38 23.03.2020
571 Clear 4 1033 44 10000 3.6 110 20:19 23.03.2020
572 Clouds 5 1035 41 10000 3.6 110 19:44 23.03.2020
573 Clear 5 1033 38 10000 3.1 110 19:24 23.03.2020
574 Clouds 6 1034 35 10000 4.1 130 18:57 23.03.2020
575 Clouds 7 1034 35 10000 4.1 130 18:39 23.03.2020
576 Clear 7 1032 31 10000 4.1 130 18:20 23.03.2020
577 Clear 8 1034 30 10000 5.1 140 17:42 23.03.2020
578 Clear 8 1032 26 10000 5.7 140 17:21 23.03.2020
579 Clear 9 1034 26 10000 6.2 150 16:59 23.03.2020
580 Clear 9 1034 26 10000 6.2 150 16:39 23.03.2020
581 Clear 9 1033 26 10000 5.7 130 16:20 23.03.2020
582 Clear 9 1035 22 10000 5.7 140 15:42 23.03.2020
583 Clear 9 1035 22 10000 5.7 140 15:42 23.03.2020
584 Clear 9 1034 29 10000 6.7 130 15:20 23.03.2020
585 Clear 8 1035 28 10000 6.2 130 14:55 23.03.2020
586 Clear 8 1035 28 10000 6.2 130 14:36 23.03.2020
587 Clear 8 1034 28 10000 6.7 140 14:18 23.03.2020
588 Clear 8 1036 26 10000 6.7 130 13:40 23.03.2020
589 Clear 7 1034 33 10000 5.7 130 13:22 23.03.2020
590 Clear 7 1036 28 10000 6.7 140 12:55 23.03.2020
591 Clear 7 1036 28 10000 6.7 140 12:37 23.03.2020
592 Clear 6 1035 33 10000 5.7 130 12:19 23.03.2020
593 Clear 6 1036 30 10000 6.2 140 11:42 23.03.2020
594 Clear 5 1035 38 10000 5.1 120 11:21 23.03.2020
595 Clear 5 1037 29 10000 6.2 150 10:58 23.03.2020
596 Clear 5 1037 29 10000 6.2 150 10:40 23.03.2020
597 Clear 4 1035 44 10000 5.7 140 10:21 23.03.2020
598 Clear 4 1037 37 10000 5.7 140 09:58 23.03.2020
599 Clear 3 1037 37 10000 5.7 140 09:40 23.03.2020
600 Clear 3 1037 43 10000 5.1 140 09:19 23.03.2020
601 Clear 2 1037 50 10000 4.6 130 08:38 23.03.2020
602 Clear 1 1035 57 10000 3.1 110 08:19 23.03.2020
603 Clear 0 1037 58 10000 3.6 120 07:51 23.03.2020
604 Clear 0 1035 57 10000 3.1 120 07:32 23.03.2020
605 Clear -1 1035 63 10000 3.6 110 06:55 23.03.2020
606 Clear -1 1035 63 10000 3.1 110 06:32 23.03.2020
607 Clear -1 1037 63 10000 3.6 110 05:43 23.03.2020
608 Clear 0 1036 58 10000 3.6 110 03:54 23.03.2020
609 Clear 0 1036 59 10000 3.6 110 02:43 23.03.2020
610 Clear 1 1036 64 10000 3.6 120 01:42 23.03.2020
611 Clear 1 1036 55 10000 3.6 120 00:45 23.03.2020
612 Clear 2 1035 64 10000 3.1 110 00:26 23.03.2020
613 Clear 2 1036 51 10000 4.1 120 23:42 22.03.2020
614 Clear 2 1035 59 10000 3.1 110 23:24 22.03.2020
615 Clear 2 1036 59 10000 3.6 110 22:41 22.03.2020
616 Clear 3 1035 55 10000 3.1 100 22:20 22.03.2020
617 Clear 3 1036 55 10000 3.6 110 21:41 22.03.2020
618 Clear 3 1034 55 10000 3.6 90 21:23 22.03.2020
619 Clear 3 1034 55 10000 3.6 90 20:58 22.03.2020
620 Clear 4 1036 55 10000 4.1 100 20:40 22.03.2020
621 Clear 4 1034 51 10000 3.1 90 20:22 22.03.2020
622 Clear 4 1034 51 10000 3.1 90 19:56 22.03.2020
623 Clear 5 1035 51 10000 4.6 100 19:38 22.03.2020
624 Clear 5 1033 48 10000 4.6 100 19:19 22.03.2020
625 Clear 5 1035 41 10000 5.7 110 18:57 22.03.2020
626 Clear 6 1035 41 10000 5.7 110 18:39 22.03.2020
627 Clear 6 1033 39 10000 6.2 110 18:20 22.03.2020
628 Clear 7 1035 39 10000 5.7 120 17:57 22.03.2020
629 Clear 7 1035 39 10000 5.7 120 17:38 22.03.2020
630 Clear 7 1033 42 10000 6.2 100 17:20 22.03.2020
631 Clear 7 1035 39 10000 6.7 120 16:57 22.03.2020
632 Clear 7 1035 39 10000 6.7 120 16:57 22.03.2020
633 Clear 7 1035 39 10000 6.7 120 16:39 22.03.2020
634 Clear 7 1033 45 10000 7.2 100 16:20 22.03.2020
635 Clear 8 1035 39 10000 7.2 120 15:40 22.03.2020
636 Clear 8 1033 42 10000 7.2 100 15:19 22.03.2020
637 Clear 7 1035 42 10000 8.7 110 14:46 22.03.2020
638 Clear 7 1035 42 10000 8.7 110 14:46 22.03.2020
639 Clear 7 1033 42 10000 6.7 110 14:18 22.03.2020
640 Clear 7 1036 45 10000 8.2 110 13:44 22.03.2020
641 Clear 7 1034 45 10000 7.2 100 13:20 22.03.2020
642 Clear 6 1034 45 10000 7.2 100 12:58 22.03.2020
643 Clear 6 1036 48 10000 8.7 110 12:39 22.03.2020
644 Clear 6 1034 45 10000 6.7 90 12:19 22.03.2020
645 Clear 5 1036 44 9000 9.3 120 11:43 22.03.2020
646 Clear 5 1034 44 10000 7.2 110 11:25 22.03.2020
647 Clear 5 1036 48 10000 9.3 120 10:58 22.03.2020
648 Clear 4 1036 48 10000 9.3 120 10:40 22.03.2020
649 Clear 4 1034 55 10000 7.2 110 10:22 22.03.2020
650 Clear 3 1036 55 9000 7.7 120 09:46 22.03.2020
651 Clear 3 1034 51 10000 8.2 110 09:27 22.03.2020
652 Clear 2 1036 59 9000 6.2 120 08:48 22.03.2020
653 Clear 2 1036 59 9000 6.2 120 08:48 22.03.2020
654 Clear 2 1034 64 10000 5.7 90 08:30 22.03.2020
655 Clear 1 1036 67 10000 4.6 100 07:56 22.03.2020
656 Clear 0 1036 67 10000 4.6 100 07:38 22.03.2020
657 Clear -1 1035 68 10000 3.6 90 06:48 22.03.2020
658 Clear -1 1035 67 10000 5.7 90 05:52 22.03.2020
659 Clear 0 1034 64 10000 5.1 100 04:39 22.03.2020
660 Clear 1 1034 59 10000 3.6 100 01:49 22.03.2020
661 Clear 1 1034 59 10000 4.1 100 00:50 22.03.2020
662 Clear 2 1032 69 10000 5.7 80 00:31 22.03.2020
663 Clear 2 1034 64 9000 4.6 90 23:46 21.03.2020
664 Clear 2 1032 64 10000 5.7 80 23:23 21.03.2020
665 Clear 2 1034 59 10000 5.7 80 22:59 21.03.2020
666 Clear 2 1034 59 10000 5.7 80 22:38 21.03.2020
667 Clear 3 1032 69 10000 4.6 60 22:20 21.03.2020
668 Clear 3 1033 59 10000 5.7 80 21:58 21.03.2020
669 Clear 3 1033 59 10000 5.7 80 21:39 21.03.2020
670 Clear 3 1031 64 10000 4.1 80 21:20 21.03.2020
671 -273 0 0 0 0 0 21:20 21.03.2020
672 Clear 4 1033 55 10000 5.7 80 20:44 21.03.2020
673 Clear 4 1031 60 10000 4.1 80 20:22 21.03.2020
674 Clear 4 1031 60 10000 4.1 80 19:57 21.03.2020
675 Clear 5 1032 55 10000 5.7 80 19:38 21.03.2020
676 Clear 5 1030 56 10000 5.7 90 19:19 21.03.2020
677 Clear 5 1032 56 10000 7.7 80 18:54 21.03.2020
678 Clear 6 1032 56 10000 7.7 80 18:36 21.03.2020
679 Clear 6 1030 52 10000 6.2 80 18:18 21.03.2020
680 Clear 7 1030 48 10000 6.7 80 17:42 21.03.2020
681 Clouds 7 1030 48 10000 6.7 90 17:23 21.03.2020
682 Clear 7 1032 45 10000 8.7 90 16:56 21.03.2020
683 Clear 7 1032 45 10000 8.7 90 16:38 21.03.2020
684 Clear 8 1030 49 10000 6.7 90 16:18 21.03.2020
685 Clear 8 1032 45 10000 9.3 90 15:41 21.03.2020
686 Clouds 8 1030 52 10000 8.2 80 15:23 21.03.2020
687 Clouds 8 1030 52 10000 8.2 80 14:58 21.03.2020
688 Clear 8 1031 49 10000 8.2 80 14:40 21.03.2020
689 Clouds 8 1031 52 10000 8.2 80 14:20 21.03.2020
690 Clouds 7 1031 52 10000 8.2 80 13:59 21.03.2020
691 Clear 7 1033 52 10000 8.2 80 13:40 21.03.2020
692 Clouds 7 1031 63 10000 7.7 70 13:22 21.03.2020
693 Clouds 7 1031 62 10000 7.7 70 12:59 21.03.2020
694 Clouds 7 1031 65 10000 8.2 90 12:38 21.03.2020
695 Clouds 7 1031 62 10000 7.7 70 12:19 21.03.2020
696 Clear 6 1033 60 9000 10.3 80 11:56 21.03.2020
697 Clear 6 1033 60 9000 10.3 80 11:38 21.03.2020
698 Clouds 6 1032 75 10000 6.2 90 11:19 21.03.2020
699 Clear 5 1033 65 10000 8.2 80 10:57 21.03.2020
700 Clear 5 1033 65 10000 8.2 80 10:38 21.03.2020
701 Clouds 5 1032 70 10000 8.2 70 10:19 21.03.2020
702 Clear 5 1033 70 9000 7.7 80 09:56 21.03.2020
703 Clear 5 1033 70 9000 7.7 80 09:37 21.03.2020
704 Clear 4 1032 69 10000 7.2 60 09:19 21.03.2020
705 Clear 3 1033 69 9000 8.2 70 08:44 21.03.2020
706 Clear 3 1032 69 10000 5.1 50 08:25 21.03.2020
707 Clear 2 1032 69 10000 6.2 60 07:47 21.03.2020
708 Clear 1 1032 74 10000 5.1 50 07:28 21.03.2020
709 Clear 1 1032 64 10000 6.2 60 06:48 21.03.2020
710 Clear 1 1031 74 10000 4.6 40 06:29 21.03.2020
711 Clear 1 1032 64 10000 5.7 60 05:48 21.03.2020
712 Clear 1 1031 74 10000 4.1 50 05:18 21.03.2020
713 Clear 2 1031 74 10000 5.7 60 03:32 21.03.2020
714 Clear 2 1032 69 10000 4.6 60 02:35 21.03.2020
715 Clear 3 1032 55 10000 5.7 60 01:40 21.03.2020
716 Clear 3 1031 74 10000 4.6 60 01:20 21.03.2020
717 Clear 4 1032 51 10000 6.7 50 00:38 21.03.2020
718 Clear 4 1032 60 10000 6.2 60 23:59 20.03.2020
719 Clear 4 1032 60 10000 6.2 60 23:41 20.03.2020
720 Clear 4 1031 86 10000 4.1 40 23:20 20.03.2020
721 Clear 4 1031 52 10000 6.2 60 22:43 20.03.2020
722 Clear 5 1030 93 10000 3.1 30 22:24 20.03.2020
723 Clear 5 1031 75 9000 6.2 50 21:58 20.03.2020
724 Clear 5 1031 75 9000 6.2 50 21:39 20.03.2020
725 Clear 5 1030 86 10000 3.1 30 21:19 20.03.2020
726 Clear 5 1030 86 10000 3.1 30 20:57 20.03.2020
727 Clouds 5 1030 86 10000 4.1 20 20:39 20.03.2020
728 Clouds 5 1029 80 10000 3.6 30 20:19 20.03.2020
729 Clouds 5 1029 86 10000 3.6 20 19:46 20.03.2020
730 Clouds 5 1029 75 10000 4.1 30 19:20 20.03.2020
731 Clouds 6 1029 75 10000 4.1 30 18:57 20.03.2020
732 Clouds 6 1029 75 10000 4.1 30 18:38 20.03.2020
733 Clouds 7 1029 70 10000 4.6 10 18:19 20.03.2020
734 Clouds 7 1029 70 10000 5.1 30 17:56 20.03.2020
735 Clouds 7 1029 70 10000 5.1 30 17:37 20.03.2020
736 Clouds 7 1029 70 10000 5.7 20 17:18 20.03.2020
737 Clouds 7 1029 70 10000 4.6 10 16:41 20.03.2020
738 Clouds 7 1029 70 10000 4.6 10 16:41 20.03.2020
739 Clouds 8 1029 70 10000 6.2 30 16:21 20.03.2020
740 Clouds 8 1029 70 10000 5.1 20 15:44 20.03.2020
741 Clouds 8 1029 70 10000 6.2 20 15:23 20.03.2020
742 Clouds 8 1029 70 10000 6.2 20 14:59 20.03.2020
743 Clouds 8 1029 70 10000 6.2 20 14:59 20.03.2020
744 Clouds 8 1029 70 10000 5.7 30 14:41 20.03.2020
745 -273 0 0 0 0 0 14:20 20.03.2020
746 Clouds 8 1029 70 10000 4.6 20 13:48 20.03.2020
747 Clouds 8 1029 65 10000 6.2 40 13:24 20.03.2020
748 Clouds 8 1029 65 10000 6.2 40 13:24 20.03.2020
749 Clouds 8 1029 70 10000 5.1 30 12:58 20.03.2020
750 Clouds 8 1029 70 10000 5.1 30 12:38 20.03.2020
751 Clouds 8 1029 75 10000 5.1 30 12:19 20.03.2020
752 Clouds 8 1029 70 10000 5.7 50 11:39 20.03.2020
753 Clouds 8 1028 75 10000 5.7 50 11:20 20.03.2020
754 Clouds 8 1029 70 10000 6.2 40 10:56 20.03.2020
755 Clouds 8 1029 70 10000 6.2 40 10:38 20.03.2020
756 Clouds 8 1029 70 10000 5.1 40 10:18 20.03.2020
757 Clouds 8 1029 70 10000 5.1 40 10:18 20.03.2020
758 Clouds 8 1029 70 10000 5.1 40 10:18 20.03.2020
759 Rain 7 1028 81 10000 4.6 30 09:45 20.03.2020
760 Clouds 7 1028 81 10000 5.1 40 09:21 20.03.2020
761 Clouds 7 1028 81 10000 5.1 40 08:58 20.03.2020
762 Clouds 7 1028 87 10000 3.1 40 08:39 20.03.2020
763 Clouds 6 1028 87 10000 3.1 20 08:19 20.03.2020
764 Clouds 6 1028 87 10000 2.6 30 07:43 20.03.2020
765 Clouds 6 1027 87 10000 3.6 30 07:25 20.03.2020
766 Clouds 6 1027 87 10000 2.6 50 06:43 20.03.2020
767 Clouds 6 1027 87 10000 3.1 30 06:22 20.03.2020
768 Clouds 6 1027 81 8000 2.1 30 04:48 20.03.2020
769 Clouds 6 1027 87 8000 2.1 30 02:54 20.03.2020
770 Clouds 6 1027 87 8000 1.5 10 01:50 20.03.2020
771 Clouds 6 1027 87 7000 1 30 00:46 20.03.2020
772 Clouds 7 1027 81 10000 2.6 40 00:24 20.03.2020
773 Clouds 7 1027 87 8000 2.1 20 23:42 19.03.2020
774 Clouds 7 1027 87 10000 2.6 40 23:23 19.03.2020
775 Clouds 7 1027 87 7000 2.1 30 22:55 19.03.2020
776 Clouds 7 1027 87 7000 2.1 30 22:37 19.03.2020
777 Clouds 7 1027 81 10000 3.1 30 22:18 19.03.2020
778 Clouds 7 1027 87 10000 3.6 30 21:40 19.03.2020
779 Clouds 7 1027 87 10000 4.1 30 21:20 19.03.2020
780 Clouds 7 1027 81 10000 1.5 20 20:56 19.03.2020
781 Clouds 7 1027 81 10000 1.5 20 20:38 19.03.2020
782 Clouds 7 1027 81 10000 3.6 30 20:19 19.03.2020
783 Clouds 8 1027 81 10000 2.1 30 19:55 19.03.2020
784 Clouds 8 1027 81 10000 2.1 30 19:37 19.03.2020
785 Clouds 8 1026 75 10000 4.1 30 19:18 19.03.2020
786 Clouds 8 1027 75 10000 2.6 30 18:42 19.03.2020
787 Clouds 8 1026 66 10000 3.6 30 18:22 19.03.2020
788 Clouds 8 1027 65 10000 2.6 20 17:58 19.03.2020
789 Clouds 9 1027 65 10000 2.6 20 17:39 19.03.2020
790 Clouds 9 1026 70 10000 3.6 10 17:18 19.03.2020
791 Clouds 9 1027 70 10000 3.1 360 16:43 19.03.2020
792 Clouds 10 1026 61 10000 4.1 30 16:23 19.03.2020
793 Clouds 10 1027 61 10000 3.1 10 15:45 19.03.2020
794 Clouds 10 1027 66 10000 4.1 30 15:26 19.03.2020
795 Clouds 10 1027 66 10000 2.6 20 14:55 19.03.2020
796 Clouds 10 1027 66 10000 2.6 20 14:37 19.03.2020
797 Clouds 10 1027 66 10000 3.6 40 14:19 19.03.2020
798 Clouds 10 1027 70 10000 3.1 10 13:39 19.03.2020
799 Clouds 9 1027 76 10000 3.1 40 13:19 19.03.2020
800 Clouds 9 1027 70 10000 2.1 20 12:55 19.03.2020
801 Clouds 9 1027 70 10000 2.1 20 12:37 19.03.2020
802 Clouds 9 1027 76 10000 2.1 70 12:18 19.03.2020
803 Clouds 9 1027 75 10000 2.1 10 11:41 19.03.2020
804 Clouds 8 1027 75 10000 2.6 20 11:23 19.03.2020
805 Clouds 8 1027 75 10000 3.1 30 10:56 19.03.2020
806 Clouds 8 1027 87 10000 2.1 350 10:36 19.03.2020
807 Clouds 8 1026 87 10000 2.1 70 10:18 19.03.2020
808 Clouds 7 1026 87 10000 0.5 290 09:44 19.03.2020
809 Clouds 7 1026 87 10000 2.1 40 09:25 19.03.2020
810 Clouds 7 1026 93 10000 1 260 08:57 19.03.2020
811 Clouds 7 1026 93 10000 1 260 08:37 19.03.2020
812 Clouds 6 1026 93 10000 2.1 20 08:18 19.03.2020
813 Clouds 6 1025 93 10000 0.5 190 07:42 19.03.2020
814 Clouds 6 1025 100 10000 1.5 30 07:22 19.03.2020
815 Clouds 6 1025 100 9000 2.6 40 06:29 19.03.2020
816 Clouds 6 1024 93 9000 2.1 20 05:25 19.03.2020
817 Rain 6 1024 93 3300 3.1 10 04:51 19.03.2020
818 Mist 7 1024 93 3900 3.1 20 04:22 19.03.2020
819 Clouds 7 1024 100 6000 3.1 20 02:33 19.03.2020
820 Rain 8 1023 93 3000 2.6 10 00:55 19.03.2020
821 Drizzle 9 1023 93 2700 3.6 250 00:20 19.03.2020
822 Rain 9 1023 93 1400 1.5 30 23:45 18.03.2020
823 Mist 10 1023 93 5000 3.6 240 23:26 18.03.2020
824 Mist 10 1023 93 5000 3.6 240 23:26 18.03.2020
825 Rain 10 1023 100 2000 2.1 50 22:43 18.03.2020
826 Drizzle 10 1023 93 4400 4.6 230 22:24 18.03.2020
827 Rain 10 1023 93 1800 3.1 260 21:59 18.03.2020
828 Rain 10 1023 93 1800 3.1 260 21:41 18.03.2020
829 Clouds 10 1023 93 10000 4.6 220 21:21 18.03.2020
830 Clouds 10 1023 93 10000 4.6 220 20:57 18.03.2020
831 Drizzle 10 1023 93 2000 3.1 240 20:38 18.03.2020
832 Clouds 10 1023 93 6000 4.6 220 20:19 18.03.2020
833 Drizzle 10 1023 93 2500 4.6 240 19:55 18.03.2020
834 Drizzle 10 1023 93 2500 4.6 240 19:36 18.03.2020
835 Clouds 10 1023 93 10000 5.1 230 19:18 18.03.2020
836 Drizzle 11 1023 93 2000 4.1 240 18:41 18.03.2020
837 Clouds 11 1023 87 10000 6.2 230 18:20 18.03.2020
838 Drizzle 11 1022 93 3000 4.6 240 17:57 18.03.2020
839 Drizzle 11 1022 93 3000 4.6 240 17:57 18.03.2020
840 Drizzle 11 1022 93 3000 4.6 240 17:39 18.03.2020
841 Drizzle 11 1022 93 4000 5.1 240 17:21 18.03.2020
842 Drizzle 11 1023 87 3000 4.6 240 16:55 18.03.2020
843 Drizzle 11 1023 87 3000 4.6 240 16:37 18.03.2020
844 Drizzle 11 1023 87 3000 5.1 240 16:19 18.03.2020
845 Clouds 11 1023 87 10000 4.6 240 15:45 18.03.2020
846 Clouds 11 1023 81 10000 6.7 230 15:20 18.03.2020
847 Drizzle 12 1023 87 4000 5.7 250 14:45 18.03.2020
848 Drizzle 12 1023 81 4000 6.2 240 14:22 18.03.2020
849 Clouds 12 1023 76 10000 7.2 230 13:59 18.03.2020
850 Clouds 12 1023 81 10000 5.7 240 13:37 18.03.2020
851 Clouds 12 1024 76 10000 8.2 240 13:19 18.03.2020
852 Clouds 12 1024 76 10000 7.2 240 12:41 18.03.2020
853 Clouds 11 1024 76 10000 7.2 240 12:20 18.03.2020
854 Drizzle 11 1023 81 10000 5.1 240 11:40 18.03.2020
855 Clouds 11 1023 71 10000 6.2 240 11:21 18.03.2020
856 Clouds 11 1023 71 10000 5.7 240 10:58 18.03.2020
857 Clouds 11 1023 71 10000 5.7 240 10:39 18.03.2020
858 Clouds 10 1023 76 10000 7.2 230 10:20 18.03.2020
859 Clouds 10 1023 76 10000 7.2 230 09:59 18.03.2020
860 Clouds 10 1023 70 10000 6.7 230 09:39 18.03.2020
861 Clouds 9 1023 66 10000 5.1 230 09:21 18.03.2020
862 Clouds 8 1022 65 10000 5.1 220 08:40 18.03.2020
863 Clouds 8 1023 70 10000 5.7 210 08:21 18.03.2020
864 Clouds 8 1022 65 10000 5.7 220 07:49 18.03.2020
865 Clouds 7 1023 65 10000 6.2 220 07:31 18.03.2020
866 Clouds 7 1022 65 10000 5.7 220 06:54 18.03.2020
867 Clouds 7 1022 65 10000 5.7 220 06:35 18.03.2020
868 Clouds 7 1022 82 10000 5.7 220 05:37 18.03.2020
869 Clouds 7 1023 73 10000 5.7 210 04:32 18.03.2020
870 Clouds 7 1024 61 10000 6.7 220 03:21 18.03.2020
871 Clouds 7 1023 70 9000 6.2 210 02:35 18.03.2020
872 Clouds 8 1024 65 9000 5.7 220 01:42 18.03.2020
873 Clouds 8 1024 65 9000 4.6 230 00:43 18.03.2020
874 Clouds 8 1025 70 10000 6.2 220 00:21 18.03.2020
875 Clouds 8 1025 65 9000 5.1 220 23:42 17.03.2020
876 Clouds 8 1025 70 10000 5.7 210 23:20 17.03.2020
877 Clouds 8 1025 70 9000 4.1 220 22:45 17.03.2020
878 Clouds 8 1026 70 10000 4.6 200 22:26 17.03.2020
879 Clouds 8 1026 70 8000 3.1 220 21:44 17.03.2020
880 Clouds 8 1026 75 10000 3.6 200 21:25 17.03.2020
881 Clouds 8 1026 75 10000 3.6 200 20:58 17.03.2020
882 Clouds 9 1026 66 10000 3.1 230 20:38 17.03.2020
883 Clouds 9 1026 70 10000 4.6 230 20:19 17.03.2020
884 Clouds 10 1026 66 10000 3.6 230 19:42 17.03.2020
885 Clouds 10 1026 66 10000 4.6 230 19:21 17.03.2020
886 Clouds 11 1026 57 10000 5.7 250 18:59 17.03.2020
887 Clouds 11 1026 57 10000 5.7 250 18:40 17.03.2020
888 Clouds 11 1026 57 10000 5.7 240 18:22 17.03.2020
889 Clouds 11 1026 58 10000 6.7 250 17:59 17.03.2020
890 Clouds 11 1026 58 10000 6.7 250 17:39 17.03.2020
891 Clouds 12 1026 58 10000 7.2 240 17:19 17.03.2020
892 Clouds 12 1026 58 10000 6.7 250 16:43 17.03.2020
893 Clouds 12 1026 54 10000 8.7 230 16:19 17.03.2020
894 Clouds 12 1026 54 10000 8.7 230 15:56 17.03.2020
895 Clouds 13 1026 62 10000 7.7 250 15:38 17.03.2020
896 Clouds 12 1026 50 10000 9.8 230 15:18 17.03.2020
897 Clouds 12 1026 62 10000 8.2 230 14:41 17.03.2020
898 Clouds 12 1027 66 10000 8.2 230 14:18 17.03.2020
899 Clouds 11 1026 62 10000 6.7 240 13:41 17.03.2020
900 Clouds 11 1027 62 10000 9.3 230 13:22 17.03.2020
901 Clouds 11 1026 61 10000 6.7 240 12:48 17.03.2020
902 Clouds 11 1027 66 10000 8.2 220 12:26 17.03.2020
903 Clouds 11 1027 66 10000 8.7 230 11:59 17.03.2020
904 Clouds 11 1027 66 10000 8.7 230 11:40 17.03.2020
905 Clouds 10 1026 66 10000 8.2 230 11:22 17.03.2020
906 Clouds 10 1026 70 10000 6.7 240 10:56 17.03.2020
907 Clouds 10 1026 70 10000 6.7 240 10:37 17.03.2020
908 Clouds 9 1026 81 10000 6.2 210 10:18 17.03.2020
909 Clouds 8 1026 81 10000 5.1 220 09:46 17.03.2020
910 Clouds 7 1026 93 9000 5.7 210 09:20 17.03.2020
911 Clouds 7 1026 93 9000 5.7 210 08:59 17.03.2020
912 Clouds 6 1025 93 10000 5.7 210 08:41 17.03.2020
913 Clouds 5 1026 93 6000 5.1 210 08:20 17.03.2020
914 Mist 5 1026 93 5000 4.6 210 07:49 17.03.2020
915 Mist 4 1026 93 5000 4.1 200 07:21 17.03.2020
916 Fog 4 1025 100 300 2.6 220 06:53 17.03.2020
917 Mist 4 1025 93 4300 3.6 200 06:27 17.03.2020
918 Fog 3 1025 93 6000 2.6 210 05:38 17.03.2020
919 Fog 4 1024 100 10000 1 240 03:36 17.03.2020
920 Fog 4 1024 100 10000 1.5 210 02:38 17.03.2020
921 Fog 3 1024 100 10000 1.5 180 01:41 17.03.2020
922 Clear 3 1024 100 9000 1.5 170 01:19 17.03.2020
923 Clouds 4 1025 100 10000 0.5 250 00:19 17.03.2020
924 Clouds 4 1024 93 10000 0.5 220 23:44 16.03.2020
925 Clear 4 1024 100 9000 1 250 23:23 16.03.2020
926 Clouds 5 1024 93 10000 0.5 0 22:40 16.03.2020
927 Clear 5 1023 100 10000 1 140 22:22 16.03.2020
928 Clouds 5 1023 93 10000 2.94 232 21:55 16.03.2020
929 Clouds 6 1023 93 10000 2.94 232 21:36 16.03.2020
930 Clear 6 1023 100 10000 0.5 40 21:18 16.03.2020
931 Clouds 6 1023 86 10000 0.5 20 20:55 16.03.2020
932 Clouds 7 1023 86 10000 0.5 20 20:37 16.03.2020
933 Clear 7 1023 87 10000 1 70 20:18 16.03.2020
934 Clear 7 1023 87 10000 1 70 20:18 16.03.2020
935 Clouds 8 1023 81 10000 0.5 20 19:40 16.03.2020
936 Clear 8 1022 87 10000 0.5 30 19:20 16.03.2020
937 Clouds 9 1022 75 10000 1.5 340 18:41 16.03.2020
938 Clouds 9 1022 76 10000 2.6 320 18:20 16.03.2020
939 Clouds 10 1022 70 10000 3.1 330 17:55 16.03.2020
940 Clouds 10 1022 70 10000 3.1 330 17:36 16.03.2020
941 Clear 11 1021 71 10000 3.1 330 17:18 16.03.2020
942 Clouds 11 1021 66 10000 3.6 280 16:42 16.03.2020
943 Clouds 12 1021 58 10000 3.1 260 16:24 16.03.2020
944 Clouds 12 1021 71 10000 3.1 300 15:44 16.03.2020
945 Clouds 11 1020 62 10000 2.1 290 15:26 16.03.2020
946 Clouds 11 1020 66 10000 3.1 280 14:49 16.03.2020
947 Clouds 11 1020 66 10000 2.6 260 14:27 16.03.2020
948 Clouds 11 1020 66 10000 2.6 260 13:58 16.03.2020
949 Clouds 11 1020 71 10000 4.1 270 13:40 16.03.2020
950 Clouds 11 1019 62 10000 2.6 280 13:21 16.03.2020
951 Clouds 10 1019 76 10000 3.6 310 12:44 16.03.2020
952 Clouds 11 1019 76 10000 3.1 280 12:23 16.03.2020
953 Clouds 10 1019 76 10000 3.1 260 11:46 16.03.2020
954 Clouds 9 1019 81 10000 5.1 290 11:27 16.03.2020
955 Clouds 9 1019 81 10000 5.1 290 11:27 16.03.2020
956 Clouds 9 1018 81 10000 4.1 280 10:56 16.03.2020
957 Clouds 9 1018 81 10000 4.1 280 10:37 16.03.2020
958 Clouds 9 1018 87 10000 2.6 270 10:18 16.03.2020
959 Clouds 8 1017 81 10000 3.1 260 09:42 16.03.2020
960 Clouds 8 1017 93 10000 2.6 240 09:21 16.03.2020
961 Clouds 7 1015 87 10000 2.6 240 08:53 16.03.2020
962 Clouds 7 1016 93 10000 2.6 250 08:25 16.03.2020
963 Clouds 6 1015 87 10000 2.6 260 07:49 16.03.2020
964 Clouds 6 1014 87 10000 2.6 250 07:27 16.03.2020
965 Clouds 6 1014 87 10000 2.6 250 06:54 16.03.2020
966 Clouds 6 1014 100 6000 2.6 240 06:25 16.03.2020
967 Clouds 6 1013 81 10000 3.1 260 05:42 16.03.2020
968 Clouds 8 1011 81 10000 3.1 190 02:44 16.03.2020
969 Clouds 9 1011 81 10000 3.1 200 01:20 16.03.2020
970 Clouds 9 1011 71 10000 3.6 200 00:39 16.03.2020
971 Clouds 10 1011 66 10000 4.1 210 23:48 15.03.2020
972 Rain 10 1011 76 10000 4.6 200 23:20 15.03.2020
973 Clouds 10 1011 71 10000 4.6 220 22:43 15.03.2020
974 Rain 10 1011 76 10000 4.1 210 22:23 15.03.2020
975 Rain 10 1011 76 10000 4.1 210 21:59 15.03.2020
976 Clouds 10 1011 66 10000 5.1 230 21:39 15.03.2020
977 Clouds 10 1011 71 10000 4.6 200 21:19 15.03.2020
978 Clouds 10 1011 62 10000 6.7 220 20:43 15.03.2020
979 Clouds 10 1011 76 10000 4.6 210 20:22 15.03.2020
980 Clouds 10 1011 76 10000 4.6 210 19:58 15.03.2020
981 Clouds 10 1011 66 10000 7.7 220 19:40 15.03.2020
982 Clouds 10 1010 71 10000 6.2 210 19:22 15.03.2020
983 Clouds 11 1010 71 10000 5.7 210 18:57 15.03.2020
984 Clouds 11 1010 71 10000 5.7 210 18:38 15.03.2020
985 Clouds 11 1010 66 10000 8.2 210 18:20 15.03.2020
986 Clouds 11 1010 71 10000 5.7 210 17:42 15.03.2020
987 Clouds 11 1010 71 10000 5.1 210 17:22 15.03.2020
988 Clouds 11 1010 66 10000 7.2 210 16:59 15.03.2020
989 Clouds 11 1010 66 10000 7.2 210 16:41 15.03.2020
990 Clouds 11 1010 71 10000 7.2 220 16:22 15.03.2020
991 Clouds 11 1010 71 10000 7.2 220 15:57 15.03.2020
992 Clouds 11 1010 66 10000 6.2 210 15:38 15.03.2020
993 Clouds 11 1010 76 10000 7.7 210 15:19 15.03.2020
994 Clouds 11 1010 62 10000 7.7 210 14:43 15.03.2020
995 Clouds 12 1010 71 10000 7.7 200 14:24 15.03.2020
996 Clouds 12 1010 62 10000 8.7 200 13:57 15.03.2020
997 Clouds 12 1010 62 10000 8.7 200 13:38 15.03.2020
998 Clouds 12 1010 66 10000 8.2 200 13:19 15.03.2020
999 Clouds 12 1011 66 10000 7.2 200 12:43 15.03.2020
1000 Clouds 12 1011 76 10000 8.2 200 12:25 15.03.2020
1001 Clouds 11 1012 71 10000 6.2 190 11:54 15.03.2020
1002 Clouds 11 1012 71 10000 6.2 190 11:36 15.03.2020
1003 Clouds 11 1012 76 10000 7.7 190 11:18 15.03.2020
1004 Clouds 10 1012 76 10000 6.2 190 10:55 15.03.2020
1005 Clouds 10 1012 76 10000 6.2 190 10:36 15.03.2020
1006 Clouds 9 1012 81 10000 6.7 190 10:18 15.03.2020
1007 Clouds 9 1012 81 10000 6.7 190 09:39 15.03.2020
1008 Clouds 9 1012 81 10000 7.2 190 09:20 15.03.2020
1009 Clouds 8 1012 75 10000 5.7 190 08:42 15.03.2020
1010 Clouds 8 1012 81 10000 7.7 190 08:20 15.03.2020
1011 Clouds 8 1012 75 10000 5.7 190 07:51 15.03.2020
1012 Clouds 8 1012 81 10000 7.2 190 07:29 15.03.2020
1013 Clouds 8 1012 81 10000 6.7 190 06:49 15.03.2020
1014 Clouds 8 1013 75 10000 5.7 190 05:50 15.03.2020
1015 Clouds 8 1012 81 10000 6.7 190 05:18 15.03.2020
1016 Clouds 8 1013 75 10000 6.2 190 04:43 15.03.2020
1017 Clouds 8 1013 81 10000 6.2 190 04:24 15.03.2020
1018 Clouds 8 1014 70 10000 6.7 180 03:38 15.03.2020
1019 Clouds 8 1014 81 10000 6.2 190 02:38 15.03.2020
1020 Clouds 8 1015 70 10000 5.1 180 01:34 15.03.2020
1021 Clouds 7 1016 65 10000 5.7 170 00:46 15.03.2020
1022 Clouds 8 1015 70 10000 6.7 190 00:24 15.03.2020
1023 Clouds 8 1016 65 10000 5.7 160 23:55 14.03.2020
1024 Clouds 8 1016 65 10000 5.7 160 23:37 14.03.2020
1025 Clouds 8 1015 66 10000 5.7 180 23:18 14.03.2020
1026 Clouds 8 1017 65 10000 5.7 160 22:42 14.03.2020
1027 Clouds 8 1016 66 10000 5.7 170 22:23 14.03.2020
1028 Clouds 7 1017 65 10000 5.1 150 21:56 14.03.2020
1029 Clouds 7 1017 65 10000 5.1 150 21:36 14.03.2020
1030 Clouds 8 1017 70 10000 4.1 150 21:18 14.03.2020
1031 Clouds 8 1018 65 10000 4.1 140 20:58 14.03.2020
1032 Clouds 8 1018 65 10000 4.1 140 20:40 14.03.2020
1033 Clouds 8 1017 70 10000 3.6 150 20:19 14.03.2020
1034 Clouds 8 1018 70 10000 4.1 140 19:44 14.03.2020
1035 Clouds 8 1017 66 10000 3.1 150 19:25 14.03.2020
1036 Clouds 8 1018 61 10000 4.1 160 18:56 14.03.2020
1037 Clouds 9 1018 61 10000 4.1 160 18:37 14.03.2020
1038 Clouds 9 1017 61 10000 4.6 150 18:19 14.03.2020
1039 Clouds 10 1018 57 10000 6.2 160 17:39 14.03.2020
1040 Clouds 10 1017 61 10000 4.6 160 17:20 14.03.2020
1041 Clouds 10 1019 53 10000 6.2 160 16:41 14.03.2020
1042 Clouds 10 1018 62 10000 5.7 150 16:23 14.03.2020
1043 Clouds 10 1018 62 10000 5.7 150 16:23 14.03.2020
1044 Clouds 10 1018 62 10000 5.7 150 15:59 14.03.2020
1045 Clouds 10 1018 62 10000 5.7 150 15:27 14.03.2020
1046 Clouds 10 1018 61 10000 6.7 160 14:59 14.03.2020
1047 Clouds 10 1020 57 10000 5.1 150 14:37 14.03.2020
1048 Clouds 10 1019 61 10000 5.1 170 14:19 14.03.2020
1049 Clouds 10 1021 57 10000 5.7 160 13:54 14.03.2020
1050 Clouds 10 1021 57 10000 5.7 160 13:36 14.03.2020
1051 Clouds 9 1020 66 10000 6.2 170 13:18 14.03.2020
1052 Clouds 9 1021 61 10000 4.6 160 12:42 14.03.2020
1053 Clouds 9 1020 70 10000 4.1 160 12:23 14.03.2020
1054 Clouds 8 1022 60 10000 3.6 160 11:43 14.03.2020
1055 Clouds 8 1022 60 10000 3.6 160 11:43 14.03.2020
1056 Clouds 7 1021 75 10000 4.6 150 11:25 14.03.2020
1057 Clouds 6 1022 60 10000 5.1 160 10:47 14.03.2020
1058 Clouds 6 1022 60 10000 5.1 160 10:47 14.03.2020
1059 Clouds 6 1021 75 10000 4.1 130 10:28 14.03.2020
1060 Clouds 5 1021 75 10000 4.1 130 09:59 14.03.2020
1061 Clouds 4 1022 69 10000 3.1 170 09:40 14.03.2020
1062 Clouds 4 1021 74 10000 3.1 130 09:21 14.03.2020
1063 Clouds 2 1022 74 10000 1 160 08:46 14.03.2020
1064 Clouds 2 1022 74 10000 1 160 08:46 14.03.2020
1065 Clouds 1 1021 86 10000 2.6 120 08:26 14.03.2020
1066 Clear 0 1021 77 10000 2.1 120 07:41 14.03.2020
1067 Clear -1 1021 92 10000 2.1 110 07:22 14.03.2020
1068 Fog -1 1021 92 10000 1 0 06:55 14.03.2020
1069 Fog -1 1021 92 10000 1 0 06:36 14.03.2020
1070 Clouds -1 1021 92 10000 0.5 150 04:56 14.03.2020
1071 Clouds -1 1021 92 10000 0.5 180 03:40 14.03.2020
1072 Clouds -1 1021 92 10000 2.1 230 02:53 14.03.2020
1073 Clouds 0 1021 66 10000 1.5 240 01:47 14.03.2020
1074 Clouds 0 1021 80 10000 1 280 00:36 14.03.2020
1075 Clouds 1 1021 74 10000 1 250 23:44 13.03.2020
1076 Clear 1 1021 62 10000 0.5 300 23:24 13.03.2020
1077 Clouds 2 1020 74 10000 1 300 22:46 13.03.2020
1078 Clear 2 1020 66 10000 0.5 300 22:24 13.03.2020
1079 Clouds 3 1019 69 10000 3.1 330 21:42 13.03.2020
1080 Clouds 4 1019 64 10000 4.1 330 21:21 13.03.2020
1081 Clouds 4 1019 64 10000 4.1 330 20:56 13.03.2020
1082 Clouds 4 1019 64 10000 4.1 330 20:37 13.03.2020
1083 Clear 4 1019 69 10000 1.5 280 20:18 13.03.2020
1084 Clouds 5 1018 60 10000 5.1 310 19:42 13.03.2020
1085 Clouds 5 1018 75 10000 3.6 330 19:23 13.03.2020
1086 Clouds 6 1017 60 10000 4.1 320 18:44 13.03.2020
1087 Clouds 6 1017 70 10000 4.6 320 18:25 13.03.2020
1088 Clouds 6 1016 69 10000 6.7 320 17:55 13.03.2020
1089 Clouds 7 1016 69 10000 6.7 320 17:37 13.03.2020
1090 Clouds 7 1017 70 10000 4.6 330 17:18 13.03.2020
1091 Clouds 8 1015 65 10000 7.7 310 16:40 13.03.2020
1092 Clouds 8 1016 70 10000 5.7 310 16:22 13.03.2020
1093 Clouds 8 1014 65 10000 7.2 310 15:55 13.03.2020
1094 Clouds 8 1014 65 10000 7.2 310 15:37 13.03.2020
1095 Clouds 8 1015 66 10000 7.7 310 15:18 13.03.2020
1096 Clouds 9 1013 61 10000 10.3 310 14:41 13.03.2020
1097 Clouds 9 1014 70 10000 7.7 310 14:22 13.03.2020
1098 Clouds 9 1012 66 10000 9.3 300 13:56 13.03.2020
1099 Clouds 9 1012 66 10000 9.3 300 13:38 13.03.2020
1100 Rain 9 1014 66 10000 8.2 300 13:18 13.03.2020
1101 Clouds 9 1013 66 10000 6.2 300 12:40 13.03.2020
1102 Clouds 9 1012 70 10000 7.7 300 12:22 13.03.2020
1103 Clouds 8 1009 70 10000 9.3 300 11:57 13.03.2020
1104 Clouds 8 1009 70 10000 9.3 300 11:39 13.03.2020
1105 Clouds 8 1011 81 10000 9.3 310 11:21 13.03.2020
1106 Rain 7 1008 81 8000 9.3 290 10:47 13.03.2020
1107 Clouds 7 1010 81 10000 6.7 270 10:27 13.03.2020
1108 Rain 7 1006 81 8000 10.3 280 09:57 13.03.2020
1109 Rain 7 1006 81 8000 10.3 280 09:39 13.03.2020
1110 Clouds 7 1008 81 10000 7.7 270 09:20 13.03.2020
1111 Rain 6 1004 87 8000 13.4 270 08:45 13.03.2020
1112 Clouds 6 1007 87 10000 7.7 260 08:22 13.03.2020
1113 Rain 6 1003 86 9000 9.8 250 07:49 13.03.2020
1114 Rain 5 1005 93 7000 9.8 250 07:28 13.03.2020
1115 Rain 5 1003 86 9000 9.8 250 06:50 13.03.2020
1116 Drizzle 5 1005 81 5000 10.3 250 06:32 13.03.2020
1117 Clouds 5 1003 75 10000 10.8 250 05:54 13.03.2020
1118 Rain 5 1005 86 10000 8.2 250 05:22 13.03.2020
1119 Clouds 5 1003 70 10000 8.2 240 04:37 13.03.2020
1120 Rain 6 1004 70 10000 8.7 240 03:37 13.03.2020
1121 Clouds 6 1004 81 10000 7.2 230 01:47 13.03.2020
1122 Clouds 6 1005 75 10000 9.8 240 01:19 13.03.2020
1123 Clouds 6 1006 75 10000 8.7 240 00:53 13.03.2020
1124 Clouds 6 1006 75 10000 9.8 230 00:24 13.03.2020
1125 Rain 6 1005 75 10000 6.7 220 23:55 12.03.2020
1126 Clouds 6 1006 81 10000 8.2 220 23:28 12.03.2020
1127 Clouds 5 1005 80 10000 5.7 220 22:57 12.03.2020
1128 Clouds 5 1005 80 10000 5.7 220 22:39 12.03.2020
1129 Rain 5 1006 80 10000 6.7 220 22:21 12.03.2020
1130 Clouds 5 1005 86 10000 4.6 220 21:45 12.03.2020
1131 Rain 5 1006 80 10000 5.7 220 21:27 12.03.2020
1132 Clouds 5 1005 80 10000 4.6 230 20:57 12.03.2020
1133 Clouds 5 1005 80 10000 4.6 230 20:38 12.03.2020
1134 Clouds 5 1006 75 10000 7.2 230 20:19 12.03.2020
1135 Rain 5 1006 80 10000 7.7 240 19:42 12.03.2020
1136 Clouds 5 1006 80 10000 4.1 240 19:20 12.03.2020
1137 Clouds 5 1005 70 10000 7.2 240 18:45 12.03.2020
1138 Clouds 5 1005 70 10000 7.2 240 18:45 12.03.2020
1139 Clouds 6 1005 61 10000 7.2 240 18:25 12.03.2020
1140 Clouds 6 1005 72 10000 7.2 250 17:57 12.03.2020
1141 Clouds 6 1005 72 10000 7.2 250 17:39 12.03.2020
1142 Rain 8 1006 61 10000 9.3 240 17:20 12.03.2020
1143 Clouds 8 1006 70 10000 9.8 260 16:58 12.03.2020
1144 Clouds 9 1006 70 10000 9.8 260 16:38 12.03.2020
1145 Clouds 9 1007 61 10000 11.3 240 16:19 12.03.2020
1146 Clouds 9 1007 61 10000 11.8 240 15:45 12.03.2020
1147 Clouds 9 1007 53 10000 11.3 250 15:27 12.03.2020
1148 Clouds 9 1006 49 10000 11.8 260 14:43 12.03.2020
1149 Clouds 9 1007 70 10000 11.3 250 14:24 12.03.2020
1150 Clouds 9 1007 66 10000 11.3 250 13:57 12.03.2020
1151 Clouds 8 1006 61 10000 13.4 270 13:37 12.03.2020
1152 Clouds 9 1006 49 10000 14.4 270 13:19 12.03.2020
1153 Clouds 8 1005 52 10000 17.5 270 12:41 12.03.2020
1154 Clouds 8 1007 63 10000 11.8 250 12:22 12.03.2020
1155 Clouds 8 1004 52 10000 17 270 11:58 12.03.2020
1156 Clouds 8 1004 52 10000 17 270 11:39 12.03.2020
1157 Clouds 8 1006 63 10000 11.8 260 11:20 12.03.2020
1158 Clouds 8 1005 56 10000 12.3 260 10:59 12.03.2020
1159 Clouds 7 1003 70 8000 12.3 270 10:41 12.03.2020
1160 Rain 7 1002 70 10000 13.9 270 10:22 12.03.2020
1161 Clouds 7 1002 65 5000 14.4 260 09:48 12.03.2020
1162 Clouds 7 1004 63 10000 12.9 260 09:28 12.03.2020
1163 Clouds 7 1003 63 10000 10.3 260 09:28 12.03.2020
1164 Rain 7 1000 56 10000 15.4 270 08:55 12.03.2020
1165 Rain 7 1000 56 10000 15.4 270 08:37 12.03.2020
1166 Clouds 7 1002 56 10000 12.3 260 08:18 12.03.2020
1167 Clouds 7 999 65 10000 13.9 270 07:46 12.03.2020
1168 Clouds 7 998 61 10000 13.9 270 07:21 12.03.2020
1169 Clouds 9 997 66 10000 10.8 250 05:59 12.03.2020
1170 Rain 10 999 71 10000 12.9 240 05:27 12.03.2020
1171 Clouds 10 999 81 10000 8.2 230 02:54 12.03.2020
1172 Clouds 11 1000 81 10000 7.7 240 01:43 12.03.2020
1173 Clouds 11 1001 93 10000 10.3 240 01:21 12.03.2020
1174 Clouds 10 1001 76 10000 7.2 240 00:42 12.03.2020
1175 Clouds 10 1002 81 10000 7.7 230 23:57 11.03.2020
1176 Drizzle 10 1003 81 10000 8.7 240 23:28 11.03.2020
1177 Clouds 11 1003 81 10000 6.7 230 22:59 11.03.2020
1178 Clouds 11 1003 81 10000 6.7 230 22:39 11.03.2020
1179 Clouds 11 1004 81 10000 7.2 230 22:21 11.03.2020
1180 Clouds 11 1004 81 10000 8.7 230 21:58 11.03.2020
1181 Clouds 11 1004 81 10000 6.7 220 21:39 11.03.2020
1182 Clouds 10 1005 87 10000 7.7 220 21:21 11.03.2020
1183 Clouds 10 1005 76 10000 4.6 240 20:56 11.03.2020
1184 Clouds 10 1005 76 10000 4.6 240 20:37 11.03.2020
1185 Clouds 10 1006 81 10000 5.7 220 20:19 11.03.2020
1186 Clouds 11 1006 71 10000 6.2 240 19:42 11.03.2020
1187 Clouds 11 1007 81 10000 7.2 230 19:24 11.03.2020
1188 Clouds 11 1006 71 10000 3.1 220 18:57 11.03.2020
1189 Clouds 11 1006 71 10000 3.1 220 18:38 11.03.2020
1190 Clouds 11 1007 76 10000 6.7 240 18:19 11.03.2020
1191 Clouds 11 1007 62 10000 4.6 240 17:55 11.03.2020
1192 Clouds 12 1007 62 10000 4.6 240 17:37 11.03.2020
1193 Clouds 12 1008 71 10000 8.2 230 17:19 11.03.2020
1194 Clouds 12 1008 66 10000 7.2 230 16:44 11.03.2020
1195 Clouds 12 1008 62 10000 7.7 240 16:20 11.03.2020
1196 Clouds 12 1008 58 10000 8.2 240 15:44 11.03.2020
1197 Clouds 12 1009 58 10000 8.7 240 15:23 11.03.2020
1198 Clouds 12 1009 62 10000 6.2 240 14:56 11.03.2020
1199 Clouds 12 1009 62 10000 6.2 240 14:38 11.03.2020
1200 Clouds 12 1009 62 10000 5.7 260 14:19 11.03.2020
1201 Clouds 12 1009 58 10000 7.7 250 13:44 11.03.2020
1202 Clouds 12 1009 58 10000 7.7 240 13:25 11.03.2020
1203 Clouds 12 1009 58 10000 7.7 240 12:58 11.03.2020
1204 Clouds 12 1009 62 10000 7.2 250 12:39 11.03.2020
1205 Clouds 12 1009 66 10000 4.1 280 12:19 11.03.2020
1206 Clouds 12 1009 71 10000 5.1 260 11:42 11.03.2020
1207 Clouds 11 1009 66 10000 4.6 270 11:23 11.03.2020
1208 Clouds 11 1008 66 10000 7.2 260 10:56 11.03.2020
1209 Clouds 11 1008 66 10000 7.2 260 10:37 11.03.2020
1210 Clouds 10 1008 76 10000 5.7 250 10:18 11.03.2020
1211 Clouds 10 1007 66 10000 4.6 250 09:42 11.03.2020
1212 Clouds 9 1008 87 10000 4.1 230 09:24 11.03.2020
1213 Clouds 8 1007 81 10000 3.6 250 08:45 11.03.2020
1214 Clouds 8 1007 93 10000 3.1 220 08:27 11.03.2020
1215 Clouds 7 1007 93 10000 3.1 220 07:58 11.03.2020
1216 Clouds 7 1006 87 10000 4.1 250 07:38 11.03.2020
1217 Clouds 7 1007 87 10000 3.1 240 07:18 11.03.2020
1218 Clouds 8 1006 75 10000 4.6 260 06:37 11.03.2020
1219 Clouds 7 1005 81 10000 5.7 260 05:34 11.03.2020
1220 Clouds 7 1005 81 10000 3.6 260 04:18 11.03.2020
1221 Clouds 8 1005 76 10000 5.1 270 02:19 11.03.2020
1222 Clouds 9 1004 76 10000 7.2 280 01:27 11.03.2020
1223 Clouds 9 1001 76 10000 11.8 280 00:45 11.03.2020
1224 Clouds 10 1000 76 10000 12.3 270 23:58 10.03.2020
1225 Clouds 10 1000 76 10000 12.3 270 23:39 10.03.2020
1226 Clouds 10 1001 81 10000 8.2 260 23:20 10.03.2020
1227 Clouds 10 999 81 10000 10.3 270 22:38 10.03.2020
1228 Clouds 10 1001 87 10000 7.7 250 22:20 10.03.2020
1229 Clouds 10 1001 87 10000 7.7 250 21:57 10.03.2020
1230 Clouds 10 1001 87 10000 7.7 250 21:57 10.03.2020
1231 Clouds 10 998 81 10000 10.8 270 21:38 10.03.2020
1232 Drizzle 11 1000 87 10000 8.7 260 21:20 10.03.2020
1233 Drizzle 11 1000 87 10000 8.7 260 20:58 10.03.2020
1234 Drizzle 11 997 87 5000 12.9 280 20:40 10.03.2020
1235 Drizzle 11 999 100 3300 9.8 260 20:18 10.03.2020
1236 Drizzle 11 996 100 3000 8.7 250 19:56 10.03.2020
1237 Drizzle 11 996 100 3000 8.7 250 19:37 10.03.2020
1238 Drizzle 11 996 93 3000 9.3 250 19:19 10.03.2020
1239 Clouds 11 996 87 8000 7.7 250 18:44 10.03.2020
1240 Clouds 11 998 87 10000 8.7 240 18:26 10.03.2020
1241 Drizzle 11 996 93 5000 8.7 240 17:57 10.03.2020
1242 Drizzle 11 996 93 5000 8.7 240 17:39 10.03.2020
1243 Clouds 11 998 93 10000 9.3 240 17:21 10.03.2020
1244 Drizzle 11 997 93 3500 8.7 250 16:39 10.03.2020
1245 Clouds 11 998 93 10000 9.3 240 16:19 10.03.2020
1246 Clouds 11 998 93 10000 9.3 240 15:57 10.03.2020
1247 Drizzle 11 997 93 4500 7.7 240 15:39 10.03.2020
1248 Drizzle 11 998 93 10000 9.3 240 15:19 10.03.2020
1249 Drizzle 11 997 93 4000 8.2 240 14:54 10.03.2020
1250 Drizzle 11 997 93 4000 8.2 240 14:36 10.03.2020
1251 Rain 11 999 93 8000 9.3 240 14:18 10.03.2020
1252 Drizzle 11 998 93 2500 6.7 240 13:42 10.03.2020
1253 Drizzle 11 998 93 2500 6.7 240 13:24 10.03.2020
1254 Drizzle 11 998 87 3500 7.7 250 12:42 10.03.2020
1255 Drizzle 11 999 93 10000 7.7 240 12:21 10.03.2020
1256 Clouds 11 998 87 10000 7.2 250 11:59 10.03.2020
1257 Clouds 11 998 87 10000 7.2 250 11:41 10.03.2020
1258 Drizzle 11 999 93 5000 7.2 240 11:22 10.03.2020
1259 Clouds 10 998 93 9000 7.7 260 10:54 10.03.2020
1260 Clouds 10 998 93 9000 7.7 260 10:36 10.03.2020
1261 Clouds 10 999 87 10000 7.7 250 10:18 10.03.2020
1262 Drizzle 10 998 100 6000 4.6 240 09:42 10.03.2020
1263 Clouds 9 999 93 10000 6.7 250 09:19 10.03.2020
1264 Drizzle 9 997 93 4000 7.7 220 08:53 10.03.2020
1265 Drizzle 9 997 93 4000 7.7 220 08:34 10.03.2020
1266 Drizzle 8 997 93 4500 6.7 200 07:53 10.03.2020
1267 Drizzle 7 997 93 4500 6.7 200 07:34 10.03.2020
1268 Drizzle 7 998 93 4300 7.2 210 06:57 10.03.2020
1269 Drizzle 6 998 93 4500 7.2 200 06:37 10.03.2020
1270 Rain 6 999 93 4500 8.7 190 05:42 10.03.2020
1271 Rain 6 1001 87 5000 7.2 190 04:59 10.03.2020
1272 Rain 6 1000 93 5000 8.2 190 04:29 10.03.2020
1273 Rain 6 1003 87 6000 8.2 200 02:58 10.03.2020
1274 Drizzle 7 1005 87 10000 7.2 200 01:32 10.03.2020
1275 Clouds 7 1007 87 10000 5.1 200 00:50 10.03.2020
1276 Clouds 6 1008 81 10000 6.2 190 00:28 10.03.2020
1277 Clouds 6 1008 87 10000 5.1 200 23:42 09.03.2020
1278 Clouds 6 1009 87 10000 5.1 190 23:22 09.03.2020
1279 Clouds 6 1009 87 10000 5.1 190 23:22 09.03.2020
1280 Clouds 6 1010 87 10000 4.1 210 22:57 09.03.2020
1281 Clouds 6 1010 87 10000 4.1 210 22:38 09.03.2020
1282 Clouds 6 1010 87 10000 4.6 200 22:19 09.03.2020
1283 Clouds 6 1010 87 10000 3.6 210 21:44 09.03.2020
1284 Clouds 6 1011 93 10000 4.6 210 21:22 09.03.2020
1285 Clouds 6 1011 93 10000 4.6 210 20:58 09.03.2020
1286 Clouds 7 1011 81 10000 4.6 240 20:40 09.03.2020
1287 Clouds 6 1011 93 10000 4.6 220 20:22 09.03.2020
1288 Clouds 7 1011 87 10000 3.1 230 19:59 09.03.2020
1289 Clouds 7 1011 87 10000 3.1 230 19:41 09.03.2020
1290 Clouds 7 1011 87 10000 5.1 230 19:18 09.03.2020
1291 Clouds 7 1011 75 10000 3.1 240 18:55 09.03.2020
1292 Clouds 7 1011 75 10000 3.1 240 18:37 09.03.2020
1293 Clouds 7 1011 87 10000 5.1 250 18:18 09.03.2020
1294 Clouds 8 1010 75 10000 2.6 230 17:55 09.03.2020
1295 Clouds 8 1010 75 10000 2.6 230 17:37 09.03.2020
1296 Clouds 9 1010 70 10000 4.1 260 17:19 09.03.2020
1297 Clouds 9 1010 70 10000 4.1 260 16:56 09.03.2020
1298 Clouds 9 1010 70 10000 4.1 260 16:37 09.03.2020
1299 Clouds 9 1010 66 10000 6.2 260 16:19 09.03.2020
1300 Clouds 9 1010 66 10000 6.2 260 15:55 09.03.2020
1301 Clouds 9 1010 66 10000 6.2 260 15:37 09.03.2020
1302 Clouds 10 1010 81 10000 4.1 260 15:18 09.03.2020
1303 Clouds 9 1010 70 10000 4.6 240 14:39 09.03.2020
1304 Clouds 10 1010 75 10000 3.6 270 14:20 09.03.2020
1305 Clouds 10 1010 76 10000 5.7 250 13:59 09.03.2020
1306 Clouds 9 1010 81 10000 4.6 290 13:39 09.03.2020
1307 Clouds 9 1010 66 10000 7.2 230 13:21 09.03.2020
1308 Clouds 9 1009 70 10000 7.7 270 12:59 09.03.2020
1309 Clouds 9 1009 70 10000 7.7 270 12:39 09.03.2020
1310 Clouds 9 1010 71 10000 7.7 230 12:19 09.03.2020
1311 Clouds 9 1009 76 10000 5.7 250 11:40 09.03.2020
1312 Clouds 9 1009 76 10000 6.2 230 11:20 09.03.2020
1313 Clouds 9 1008 81 10000 4.6 250 10:58 09.03.2020
1314 Clouds 9 1008 81 10000 4.6 250 10:40 09.03.2020
1315 Clouds 8 1009 87 10000 5.1 230 10:19 09.03.2020
1316 Clouds 8 1008 93 10000 5.1 230 09:43 09.03.2020
1317 Clouds 7 1008 93 10000 4.6 220 09:24 09.03.2020
1318 Drizzle 7 1007 93 10000 4.6 230 08:55 09.03.2020
1319 Drizzle 7 1007 93 10000 4.6 230 08:37 09.03.2020
1320 Clouds 7 1007 100 10000 4.6 220 08:18 09.03.2020
1321 Clouds 6 1006 93 10000 3.6 230 07:39 09.03.2020
1322 Clouds 7 1006 87 10000 3.1 230 07:21 09.03.2020
1323 Clouds 6 1006 87 10000 2.6 220 06:43 09.03.2020
1324 Clouds 6 1006 100 10000 4.6 220 06:23 09.03.2020
1325 Clouds 7 1006 87 10000 3.1 230 05:46 09.03.2020
1326 Clouds 7 1005 93 9000 3.1 220 05:00 09.03.2020
1327 Clouds 7 1005 93 9000 3.1 220 04:40 09.03.2020
1328 Clouds 7 1005 93 10000 2.1 240 04:21 09.03.2020
1329 Clouds 7 1005 87 10000 3.6 220 02:58 09.03.2020
1330 Clouds 7 1005 93 10000 4.6 220 01:18 09.03.2020
1331 Clouds 7 1005 87 8000 4.1 200 00:37 09.03.2020
1332 Drizzle 7 1005 93 10000 5.1 220 00:19 09.03.2020
1333 Clouds 8 1005 93 8000 3.6 180 23:42 08.03.2020
1334 Clouds 8 1005 93 10000 4.1 190 23:21 08.03.2020
1335 Rain 8 1006 87 9000 4.1 200 22:55 08.03.2020
1336 Rain 8 1006 87 9000 4.1 200 22:55 08.03.2020
1337 Rain 8 1006 87 9000 4.1 200 22:37 08.03.2020
1338 Clouds 8 1005 87 10000 4.6 190 22:18 08.03.2020
1339 Rain 8 1006 87 9000 4.6 190 21:42 08.03.2020
1340 Clouds 9 1006 87 10000 4.1 190 21:23 08.03.2020
1341 Clouds 9 1006 87 10000 4.1 190 21:23 08.03.2020
1342 Clouds 9 1006 87 10000 4.1 190 20:59 08.03.2020
1343 Clouds 9 1006 87 10000 4.1 190 20:39 08.03.2020
1344 Rain 9 1006 87 10000 5.1 190 20:21 08.03.2020
1345 Clouds 9 1007 87 10000 5.1 200 19:54 08.03.2020
1346 Clouds 9 1007 87 10000 5.1 200 19:36 08.03.2020
1347 Clouds 9 1007 87 10000 5.1 200 19:18 08.03.2020
1348 Rain 9 1006 87 10000 4.6 200 18:40 08.03.2020
1349 Clouds 9 1006 87 10000 5.7 200 18:22 08.03.2020
1350 Clouds 9 1006 87 10000 6.2 200 17:56 08.03.2020
1351 Clouds 9 1007 87 10000 6.7 210 17:37 08.03.2020
1352 Clouds 9 1007 87 10000 7.2 210 17:18 08.03.2020
1353 Clouds 9 1007 87 10000 7.2 210 16:43 08.03.2020
1354 Clouds 9 1006 93 10000 7.2 210 16:25 08.03.2020
1355 Drizzle 9 1006 93 10000 6.7 200 15:56 08.03.2020
1356 Drizzle 9 1007 81 10000 7.2 210 15:37 08.03.2020
1357 Clouds 9 1007 87 10000 6.7 200 15:19 08.03.2020
1358 Rain 9 1007 81 10000 9.8 210 14:40 08.03.2020
1359 Drizzle 9 1007 87 10000 6.7 200 14:21 08.03.2020
1360 Drizzle 9 1007 87 10000 6.7 200 14:21 08.03.2020
1361 Drizzle 9 1007 87 10000 6.7 200 13:57 08.03.2020
1362 Clouds 9 1007 81 10000 8.7 210 13:38 08.03.2020
1363 Clouds 9 1007 81 10000 8.2 200 13:19 08.03.2020
1364 Clouds 9 1007 76 10000 9.3 210 12:41 08.03.2020
1365 Clouds 9 1007 81 10000 7.7 200 12:21 08.03.2020
1366 Clouds 9 1007 81 10000 8.2 200 11:55 08.03.2020
1367 Clouds 9 1007 76 10000 8.7 210 11:37 08.03.2020
1368 Clouds 9 1008 76 10000 10.8 210 11:19 08.03.2020
1369 Clouds 9 1008 76 10000 10.8 210 10:41 08.03.2020
1370 Clouds 9 1008 76 10000 8.2 200 10:23 08.03.2020
1371 Clouds 9 1008 70 10000 9.8 210 09:43 08.03.2020
1372 Clouds 8 1008 81 10000 8.2 200 09:24 08.03.2020
1373 Clouds 8 1009 81 10000 7.2 200 08:54 08.03.2020
1374 Clouds 8 1009 81 10000 7.2 200 08:36 08.03.2020
1375 Clouds 8 1009 87 10000 7.7 200 08:18 08.03.2020
1376 Clouds 7 1009 87 10000 6.7 190 07:41 08.03.2020
1377 Clouds 7 1009 87 10000 6.7 200 07:22 08.03.2020
1378 Clouds 7 1009 81 10000 6.7 190 06:42 08.03.2020
1379 Clouds 7 1009 81 10000 6.7 190 06:22 08.03.2020
1380 Clouds 7 1010 87 10000 6.2 190 05:28 08.03.2020
1381 Clouds 8 1011 75 10000 6.7 210 03:51 08.03.2020
1382 Clouds 8 1012 81 10000 7.2 200 02:29 08.03.2020
1383 Clouds 8 1013 70 10000 6.2 210 01:23 08.03.2020
1384 Clouds 8 1013 70 10000 6.2 210 00:49 08.03.2020
1385 Clouds 8 1013 81 10000 6.2 200 00:26 08.03.2020
1386 Clouds 8 1014 65 10000 6.2 210 23:44 07.03.2020
1387 Clouds 8 1014 75 10000 6.2 200 23:23 07.03.2020
1388 Clouds 8 1014 70 10000 4.6 200 22:41 07.03.2020
1389 Clouds 8 1015 75 10000 6.2 210 22:22 07.03.2020
1390 Clouds 8 1015 65 10000 4.6 210 21:50 07.03.2020
1391 Clouds 8 1015 75 10000 5.1 200 21:29 07.03.2020
1392 Clouds 8 1015 65 10000 3.6 190 20:57 07.03.2020
1393 Clouds 8 1015 65 10000 3.6 190 20:39 07.03.2020
1394 Clouds 8 1015 65 10000 6.2 220 20:19 07.03.2020
1395 Clouds 8 1015 65 10000 6.2 220 20:19 07.03.2020
1396 Clouds 8 1015 65 10000 3.6 200 19:41 07.03.2020
1397 Clouds 8 1016 70 10000 5.7 230 19:22 07.03.2020
1398 Clouds 8 1015 65 10000 2.6 200 18:47 07.03.2020
1399 Clouds 8 1015 66 10000 7.2 230 18:28 07.03.2020
1400 Clouds 9 1015 57 10000 3.1 230 17:59 07.03.2020
1401 Clouds 9 1015 57 10000 3.1 230 17:41 07.03.2020
1402 Clouds 9 1015 61 10000 6.2 230 17:19 07.03.2020
1403 Clouds 9 1015 57 10000 4.1 240 16:56 07.03.2020
1404 Clouds 9 1015 57 10000 4.1 240 16:38 07.03.2020
1405 Clouds 10 1015 61 10000 5.7 240 16:19 07.03.2020
1406 Clouds 9 1015 57 10000 5.1 260 15:41 07.03.2020
1407 Clouds 10 1015 53 10000 6.2 250 15:22 07.03.2020
1408 Clouds 10 1015 73 10000 5.7 260 14:59 07.03.2020
1409 Clouds 9 1015 73 10000 5.7 260 14:41 07.03.2020
1410 Clouds 9 1016 57 10000 6.2 240 14:23 07.03.2020
1411 Clouds 9 1015 74 10000 6.2 260 13:42 07.03.2020
1412 Clouds 9 1016 66 10000 5.1 240 13:21 07.03.2020
1413 Clouds 9 1015 75 10000 5.7 270 12:59 07.03.2020
1414 Clouds 9 1015 75 10000 5.7 270 12:38 07.03.2020
1415 Clouds 8 1016 61 10000 4.1 270 12:19 07.03.2020
1416 Clouds 8 1015 75 10000 5.7 280 11:44 07.03.2020
1417 Clouds 8 1015 70 10000 4.1 270 11:24 07.03.2020
1418 Clouds 7 1014 70 10000 4.1 290 10:59 07.03.2020
1419 Clouds 7 1014 70 10000 4.1 290 10:38 07.03.2020
1420 Clouds 6 1015 81 10000 3.6 270 10:19 07.03.2020
1421 Clouds 6 1014 86 10000 2.1 280 09:41 07.03.2020
1422 Clear 5 1014 86 10000 2.6 260 09:20 07.03.2020
1423 Clouds 4 1013 86 10000 2.6 240 08:59 07.03.2020
1424 Clouds 3 1013 86 10000 2.6 240 08:41 07.03.2020
1425 Fog 3 1012 93 10000 1.5 250 08:20 07.03.2020
1426 Fog 3 1012 93 10000 1.5 250 07:47 07.03.2020
1427 Clouds 3 1013 93 10000 2.1 260 07:22 07.03.2020
1428 Clear 3 1013 91 0 2.24 251 06:54 07.03.2020
1429 Clouds 3 1011 86 10000 3.1 290 06:29 07.03.2020
1430 Clouds 4 1011 86 10000 3.1 290 05:45 07.03.2020
1431 Clouds 4 1010 86 10000 2.6 310 04:34 07.03.2020
1432 Clouds 5 1008 86 10000 2.6 320 02:46 07.03.2020
1433 Clouds 5 1008 86 10000 3.1 320 02:23 07.03.2020
1434 Clouds 5 1008 80 10000 4.1 310 01:23 07.03.2020
1435 Clouds 5 1007 93 10000 3.6 320 00:38 07.03.2020
1436 Clouds 5 1008 86 10000 4.6 310 00:19 07.03.2020
1437 Clouds 5 1006 93 10000 3.6 330 23:43 06.03.2020
1438 Clouds 5 1007 86 10000 3.1 300 23:24 06.03.2020
1439 Rain 5 1005 86 10000 2.6 330 22:47 06.03.2020
1440 Rain 5 1004 93 10000 3.1 360 22:21 06.03.2020
1441 Rain 5 1004 93 10000 3.1 360 21:54 06.03.2020
1442 Rain 5 1004 93 10000 3.1 360 21:36 06.03.2020
1443 Clouds 5 1005 93 8000 3.6 310 21:18 06.03.2020
1444 Drizzle 5 1003 86 7000 3.6 360 20:37 06.03.2020
1445 Rain 5 1004 93 8000 4.6 320 20:19 06.03.2020
1446 Drizzle 5 1002 86 6000 5.1 10 19:44 06.03.2020
1447 Drizzle 5 1003 93 8000 5.1 330 19:26 06.03.2020
1448 Drizzle 5 1001 86 5000 5.7 10 18:44 06.03.2020
1449 Drizzle 5 1002 81 7000 4.6 330 18:21 06.03.2020
1450 Drizzle 5 1000 86 6000 5.7 10 17:59 06.03.2020
1451 Drizzle 5 1000 86 6000 5.7 10 17:41 06.03.2020
1452 Drizzle 5 1000 87 10000 5.1 340 17:22 06.03.2020
1453 Drizzle 5 999 86 6000 5.7 20 16:59 06.03.2020
1454 Drizzle 5 999 86 6000 5.7 20 16:40 06.03.2020
1455 Drizzle 5 999 86 6000 5.7 20 16:40 06.03.2020
1456 Drizzle 5 999 86 10000 4.6 360 16:20 06.03.2020
1457 Drizzle 5 998 86 6000 6.2 10 15:44 06.03.2020
1458 Rain 5 998 81 10000 5.7 360 15:24 06.03.2020
1459 Drizzle 5 997 86 6000 6.7 20 14:55 06.03.2020
1460 Drizzle 5 997 86 6000 6.7 20 14:37 06.03.2020
1461 Drizzle 5 998 81 9000 5.7 10 14:18 06.03.2020
1462 Drizzle 5 996 86 6000 6.7 20 13:42 06.03.2020
1463 Clouds 5 997 81 10000 6.2 10 13:21 06.03.2020
1464 Drizzle 5 995 86 5000 7.7 20 12:56 06.03.2020
1465 Drizzle 5 995 86 5000 7.7 20 12:37 06.03.2020
1466 Drizzle 5 995 81 10000 6.2 10 12:19 06.03.2020
1467 Rain 5 995 86 5000 8.7 30 11:57 06.03.2020
1468 Rain 5 995 86 5000 8.7 30 11:38 06.03.2020
1469 Rain 5 995 86 5000 8.7 30 11:38 06.03.2020
1470 Drizzle 5 995 86 10000 5.7 20 11:19 06.03.2020
1471 Rain 5 994 86 7000 7.7 30 10:39 06.03.2020
1472 Drizzle 5 994 86 10000 6.7 10 10:20 06.03.2020
1473 Rain 5 993 86 6000 8.2 30 09:55 06.03.2020
1474 Rain 5 993 86 6000 8.2 30 09:37 06.03.2020
1475 Clouds 5 993 86 8000 6.2 10 09:19 06.03.2020
1476 Clouds 5 993 93 8000 5.1 20 08:43 06.03.2020
1477 Clouds 5 992 86 8000 5.1 20 08:25 06.03.2020
1478 Rain 5 992 86 7000 7.7 50 07:57 06.03.2020
1479 Rain 5 992 86 7000 7.7 50 07:38 06.03.2020
1480 Drizzle 5 992 86 7000 6.2 50 06:58 06.03.2020
1481 Drizzle 5 992 86 7000 6.2 50 06:39 06.03.2020
1482 Drizzle 5 991 86 9000 5.7 40 05:46 06.03.2020
1483 Drizzle 5 990 86 10000 5.7 40 05:27 06.03.2020
1484 Drizzle 5 990 86 10000 6.2 50 04:57 06.03.2020
1485 Clouds 6 991 75 10000 7.2 70 02:37 06.03.2020
1486 Clouds 6 991 75 10000 6.2 60 01:40 06.03.2020
1487 Clouds 6 990 81 10000 6.7 50 01:22 06.03.2020
1488 Clouds 6 991 75 10000 6.2 70 00:37 06.03.2020
1489 Drizzle 6 990 81 10000 6.7 60 00:18 06.03.2020
1490 Clouds 6 992 75 10000 6.2 70 23:42 05.03.2020
1491 Clouds 6 990 75 10000 6.2 50 23:19 05.03.2020
1492 Clouds 6 992 75 10000 6.7 70 22:40 05.03.2020
1493 Clouds 6 991 81 10000 5.1 50 22:22 05.03.2020
1494 Clouds 6 991 81 10000 5.1 50 22:22 05.03.2020
1495 Clouds 6 993 70 10000 6.7 70 21:58 05.03.2020
1496 Clouds 6 993 70 10000 6.7 70 21:39 05.03.2020
1497 Drizzle 6 992 81 7000 6.2 80 21:21 05.03.2020
1498 Clouds 7 994 70 10000 6.2 80 20:59 05.03.2020
1499 Clouds 7 994 70 10000 6.2 80 20:40 05.03.2020
1500 Clouds 7 992 75 10000 5.7 60 20:20 05.03.2020
1501 Clouds 7 994 75 10000 7.2 70 19:58 05.03.2020
1502 Clouds 7 994 75 10000 7.2 70 19:39 05.03.2020
1503 Clouds 7 992 75 10000 6.2 70 19:19 05.03.2020
1504 Clouds 7 994 75 10000 6.2 80 18:57 05.03.2020
1505 Clouds 7 994 75 10000 6.2 80 18:37 05.03.2020
1506 Clouds 7 994 75 10000 6.2 80 18:37 05.03.2020
1507 Clouds 7 993 75 10000 5.7 70 18:18 05.03.2020
1508 Clouds 7 994 65 10000 5.1 90 17:54 05.03.2020
1509 Clouds 8 994 65 10000 5.1 90 17:36 05.03.2020
1510 Clouds 8 993 70 10000 5.1 80 17:18 05.03.2020
1511 Clouds 8 995 65 10000 5.7 90 16:41 05.03.2020
1512 Clouds 8 993 70 10000 6.2 80 16:22 05.03.2020
1513 Clouds 8 996 65 10000 6.2 90 15:54 05.03.2020
1514 Clouds 8 996 65 10000 6.2 90 15:36 05.03.2020
1515 Clouds 8 995 75 10000 5.7 80 15:18 05.03.2020
1516 Clouds 8 997 65 10000 6.7 100 14:41 05.03.2020
1517 Clouds 8 996 75 10000 6.2 80 14:22 05.03.2020
1518 Clouds 8 998 70 10000 5.7 100 13:57 05.03.2020
1519 Clouds 8 998 70 10000 5.7 100 13:39 05.03.2020
1520 Clouds 8 997 70 10000 5.1 80 13:20 05.03.2020
1521 Clouds 8 999 65 10000 5.1 120 12:55 05.03.2020
1522 Clouds 8 999 65 10000 5.1 120 12:36 05.03.2020
1523 Clouds 8 998 75 10000 4.1 100 12:18 05.03.2020
1524 Clouds 7 1000 75 10000 4.6 110 11:55 05.03.2020
1525 Clouds 7 1000 75 10000 4.6 110 11:36 05.03.2020
1526 Clouds 7 999 81 10000 4.1 80 11:18 05.03.2020
1527 Clouds 6 1001 93 9000 2.1 120 10:55 05.03.2020
1528 Clouds 6 1001 93 9000 2.1 120 10:37 05.03.2020
1529 Clouds 5 1002 93 6000 2.6 100 10:19 05.03.2020
1530 Mist 4 1002 93 2000 2.1 90 09:40 05.03.2020
1531 Mist 3 1002 86 1600 2.1 80 09:22 05.03.2020
1532 Fog 2 1002 86 900 2.1 90 08:43 05.03.2020
1533 Fog 1 1002 88 600 2.1 100 08:24 05.03.2020
1534 Fog 1 1003 100 150 0.5 120 07:45 05.03.2020
1535 Mist 0 1002 89 3400 2.6 70 07:22 05.03.2020
1536 Fog 1 1003 89 150 2.1 90 06:46 05.03.2020
1537 Clouds 1 1002 89 7000 2.1 90 06:21 05.03.2020
1538 Fog 1 1004 89 400 2.1 70 05:39 05.03.2020
1539 Fog 1 1004 100 600 1.5 80 04:33 05.03.2020
1540 Fog 1 1005 100 400 1 110 03:59 05.03.2020
1541 Clouds 0 1005 86 6000 1 120 03:19 05.03.2020
1542 Fog 1 1006 87 50 1 150 01:46 05.03.2020
1543 Fog 1 1007 86 50 1 170 01:20 05.03.2020
1544 Mist 1 1007 86 3800 1 160 00:25 05.03.2020
1545 Fog 2 1007 93 1500 2.6 200 23:42 04.03.2020
1546 Fog 2 1008 93 1000 1.5 200 23:22 04.03.2020
1547 Fog 2 1008 93 1000 1.5 200 22:58 04.03.2020
1548 Fog 2 1008 93 1000 1.5 200 22:39 04.03.2020
1549 Fog 2 1008 93 1000 1.5 200 22:19 04.03.2020
1550 Fog 2 1008 93 10000 1 190 21:57 04.03.2020
1551 Fog 2 1008 93 10000 1 190 21:39 04.03.2020
1552 Mist 3 1008 100 1600 0.5 210 21:20 04.03.2020
1553 Clouds 3 1008 86 10000 1.5 230 20:54 04.03.2020
1554 Clouds 3 1008 86 10000 1.5 230 20:36 04.03.2020
1555 Clouds 4 1008 100 10000 0.5 210 20:18 04.03.2020
1556 Clouds 4 1008 86 10000 2.6 250 19:42 04.03.2020
1557 Clouds 4 1008 93 10000 1 0 19:23 04.03.2020
1558 Clouds 5 1008 87 10000 3.1 280 18:55 04.03.2020
1559 Clouds 6 1008 87 10000 3.1 280 18:36 04.03.2020
1560 Clouds 6 1008 70 10000 3.1 270 18:18 04.03.2020
1561 Clouds 7 1008 81 10000 5.1 290 17:55 04.03.2020
1562 Clouds 7 1008 81 10000 5.1 290 17:37 04.03.2020
1563 Rain 8 1008 70 10000 4.1 250 17:18 04.03.2020
1564 Clouds 8 1007 75 10000 4.6 290 16:42 04.03.2020
1565 Clouds 8 1008 75 10000 4.6 280 16:24 04.03.2020
1566 Clouds 8 1007 70 10000 6.7 280 15:57 04.03.2020
1567 Clouds 8 1007 70 10000 6.7 280 15:39 04.03.2020
1568 Drizzle 8 1008 81 10000 3.6 270 15:19 04.03.2020
1569 Clouds 8 1007 66 10000 6.7 270 14:54 04.03.2020
1570 Clouds 8 1007 66 10000 6.7 270 14:36 04.03.2020
1571 Clouds 8 1008 75 10000 4.6 300 14:18 04.03.2020
1572 Clouds 8 1007 75 10000 4.6 250 13:54 04.03.2020
1573 Clouds 8 1007 75 10000 4.6 250 13:36 04.03.2020
1574 Clouds 8 1008 81 9000 4.1 260 13:18 04.03.2020
1575 Clouds 8 1008 87 8000 4.6 260 12:41 04.03.2020
1576 Clouds 8 1008 81 10000 4.6 260 12:23 04.03.2020
1577 Clouds 8 1008 81 10000 4.6 260 12:23 04.03.2020
1578 Clouds 8 1008 81 10000 4.6 250 11:55 04.03.2020
1579 Clouds 7 1008 87 10000 5.1 230 11:37 04.03.2020
1580 Clouds 7 1008 87 10000 5.1 230 11:19 04.03.2020
1581 Clouds 6 1008 93 6000 3.1 230 10:45 04.03.2020
1582 Mist 6 1008 93 3500 3.1 210 10:25 04.03.2020
1583 Mist 5 1008 100 4000 3.6 230 09:58 04.03.2020
1584 Mist 5 1008 93 3700 4.1 210 09:40 04.03.2020
1585 Mist 4 1008 100 4200 3.6 210 09:20 04.03.2020
1586 Mist 3 1008 100 3900 3.6 210 08:43 04.03.2020
1587 Mist 3 1007 93 3600 2.6 220 08:24 04.03.2020
1588 Mist 3 1007 100 3900 4.1 220 07:48 04.03.2020
1589 Mist 3 1007 100 4500 3.1 200 07:30 04.03.2020
1590 Clouds 3 1007 89 7000 1.5 210 06:54 04.03.2020
1591 Clouds 3 1007 89 7000 1.5 210 06:54 04.03.2020
1592 Mist 3 1007 93 5000 3.1 210 06:27 04.03.2020
1593 Mist 3 1007 93 5000 2.6 210 05:59 04.03.2020
1594 Mist 3 1007 93 5000 2.6 210 05:41 04.03.2020
1595 Clouds 2 1006 93 9000 2.6 200 04:19 04.03.2020
1596 Clouds 2 1006 86 10000 2.6 220 03:38 04.03.2020
1597 Clouds 2 1006 93 10000 1.5 220 02:59 04.03.2020
1598 Clouds 2 1006 93 10000 1.5 220 02:37 04.03.2020
1599 Clear 2 1006 100 10000 3.1 210 02:18 04.03.2020
1600 Clouds 3 1006 93 10000 3.1 210 01:50 04.03.2020
1601 Clouds 3 1005 86 10000 2.6 220 00:44 04.03.2020
1602 Clouds 3 1006 93 10000 3.1 210 00:24 04.03.2020
1603 Clouds 3 1005 86 10000 2.6 250 23:45 03.03.2020
1604 Clouds 3 1005 86 10000 3.1 210 23:27 03.03.2020
1605 Clouds 3 1005 93 10000 2.6 200 22:57 03.03.2020
1606 Clouds 3 1005 93 10000 2.6 200 22:39 03.03.2020
1607 Clouds 3 1005 93 10000 2.1 230 22:19 03.03.2020
1608 Clouds 3 1005 93 10000 1.5 190 21:56 03.03.2020
1609 Clouds 3 1005 93 10000 1.5 190 21:37 03.03.2020
1610 Clouds 3 1004 86 10000 3.6 200 21:18 03.03.2020
1611 Clouds 3 1004 93 10000 3.1 200 20:41 03.03.2020
1612 Rain 3 1004 93 10000 1.5 210 20:21 03.03.2020
1613 Clouds 4 1004 93 10000 2.1 200 19:59 03.03.2020
1614 Clouds 4 1004 93 10000 2.1 200 19:37 03.03.2020
1615 Clouds 5 1003 80 10000 1.5 250 19:19 03.03.2020
1616 Clouds 5 1003 86 10000 3.1 200 18:59 03.03.2020
1617 Clouds 5 1003 86 10000 3.1 200 18:41 03.03.2020
1618 Clouds 6 1002 70 10000 3.6 260 18:21 03.03.2020
1619 Clouds 6 1002 80 10000 3.6 210 17:57 03.03.2020
1620 Clouds 7 1002 80 10000 3.6 210 17:39 03.03.2020
1621 Clouds 7 1001 70 10000 3.6 250 17:21 03.03.2020
1622 Clouds 7 1001 80 10000 2.6 230 16:57 03.03.2020
1623 Clouds 7 1001 80 10000 2.6 230 16:37 03.03.2020
1624 Clouds 7 1001 75 10000 4.6 230 16:19 03.03.2020
1625 Clouds 7 1001 75 10000 7.7 240 15:45 03.03.2020
1626 Clouds 7 1000 70 10000 6.7 220 15:23 03.03.2020
1627 Clouds 7 1000 75 10000 5.1 320 14:58 03.03.2020
1628 Clouds 7 1000 75 10000 5.1 320 14:40 03.03.2020
1629 Clouds 8 1000 65 10000 5.1 290 14:19 03.03.2020
1630 Clouds 8 1000 74 10000 6.2 270 13:57 03.03.2020
1631 Clouds 8 1000 74 10000 6.2 270 13:39 03.03.2020
1632 Clouds 8 1000 70 10000 7.2 230 13:19 03.03.2020
1633 Clouds 8 999 65 10000 7.2 270 12:47 03.03.2020
1634 Clouds 8 999 70 10000 5.1 230 12:25 03.03.2020
1635 Clouds 8 999 75 10000 4.6 250 11:57 03.03.2020
1636 Clouds 7 999 75 10000 4.6 250 11:37 03.03.2020
1637 Clear 7 999 75 10000 5.1 240 11:18 03.03.2020
1638 Clouds 7 998 81 10000 3.6 250 10:56 03.03.2020
1639 Clouds 6 998 81 10000 3.6 250 10:37 03.03.2020
1640 Clear 6 999 86 10000 4.1 230 10:18 03.03.2020
1641 Clouds 5 998 93 10000 3.6 230 09:44 03.03.2020
1642 Clear 4 998 93 10000 3.6 210 09:22 03.03.2020
1643 Clouds 3 998 93 10000 1.5 240 08:57 03.03.2020
1644 Clouds 3 998 93 10000 1.5 240 08:39 03.03.2020
1645 Clouds 2 998 100 8000 4.1 210 08:20 03.03.2020
1646 Clouds 2 997 93 10000 2.6 250 07:43 03.03.2020
1647 Clouds 2 997 83 10000 3.1 210 07:20 03.03.2020
1648 Clouds 2 996 93 10000 2.1 250 06:43 03.03.2020
1649 Clouds 2 997 100 10000 2.6 200 06:23 03.03.2020
1650 Clouds 2 996 86 10000 3.1 270 05:47 03.03.2020
1651 Clouds 2 996 84 10000 2.6 230 05:19 03.03.2020
1652 Clouds 3 995 100 10000 3.1 250 04:25 03.03.2020
1653 Drizzle 5 993 93 7000 3.1 300 01:40 03.03.2020
1654 Clouds 5 993 100 9000 3.6 280 00:49 03.03.2020
1655 Clouds 5 992 100 6000 3.1 280 00:27 03.03.2020
1656 Drizzle 5 991 93 7000 1 270 23:59 02.03.2020
1657 Drizzle 5 991 93 7000 1 270 23:40 02.03.2020
1658 Rain 5 992 93 8000 2.6 280 23:22 02.03.2020
1659 Drizzle 5 991 93 7000 2.6 180 22:55 02.03.2020
1660 Drizzle 6 991 93 7000 2.6 180 22:37 02.03.2020
1661 Drizzle 6 991 93 7000 2.1 180 22:18 02.03.2020
1662 Drizzle 6 991 93 7000 1.5 250 21:42 02.03.2020
1663 Rain 6 991 93 5000 2.1 280 21:23 02.03.2020
1664 Drizzle 6 991 93 7000 0.5 330 20:58 02.03.2020
1665 Drizzle 6 991 93 7000 0.5 330 20:58 02.03.2020
1666 Drizzle 6 991 93 7000 0.5 330 20:40 02.03.2020
1667 Drizzle 6 990 100 2000 0.5 130 20:20 02.03.2020
1668 Drizzle 6 991 93 8000 1 70 19:57 02.03.2020
1669 Drizzle 6 991 93 8000 1 70 19:38 02.03.2020
1670 Drizzle 6 990 100 3900 0.5 130 19:20 02.03.2020
1671 Clouds 6 990 93 10000 1 10 18:54 02.03.2020
1672 Clouds 6 990 93 10000 1 10 18:36 02.03.2020
1673 Rain 6 989 100 6000 0.5 130 18:18 02.03.2020
1674 Clouds 7 989 87 10000 1 20 17:54 02.03.2020
1675 Clouds 7 989 87 10000 1 20 17:36 02.03.2020
1676 Rain 7 988 93 9000 1.5 170 17:18 02.03.2020
1677 Clouds 7 989 81 10000 1 0 16:39 02.03.2020
1678 Clouds 7 988 87 10000 3.1 150 16:20 02.03.2020
1679 Clouds 7 989 81 10000 3.6 170 15:45 02.03.2020
1680 Clouds 7 988 87 10000 4.1 170 15:21 02.03.2020
1681 Drizzle 7 989 70 10000 5.7 160 14:57 02.03.2020
1682 Drizzle 7 989 70 10000 5.7 160 14:37 02.03.2020
1683 Clouds 7 988 93 10000 3.6 150 14:19 02.03.2020
1684 Clouds 7 989 70 10000 3.6 170 13:44 02.03.2020
1685 Clouds 7 989 87 10000 5.1 160 13:20 02.03.2020
1686 Clouds 7 990 75 10000 5.1 190 12:59 02.03.2020
1687 Clouds 7 990 75 10000 5.1 190 12:40 02.03.2020
1688 Clouds 7 989 75 10000 6.2 180 12:18 02.03.2020
1689 Clouds 6 990 81 10000 5.1 180 11:38 02.03.2020
1690 Clouds 6 989 81 10000 4.6 170 11:19 02.03.2020
1691 Clouds 6 989 81 10000 4.6 170 10:55 02.03.2020
1692 Clouds 5 990 86 10000 4.6 180 10:37 02.03.2020
1693 Clouds 5 989 86 10000 4.6 170 10:18 02.03.2020
1694 Clouds 4 990 93 10000 4.1 170 09:49 02.03.2020
1695 Clouds 4 990 93 10000 4.1 170 09:49 02.03.2020
1696 Clouds 4 990 86 10000 4.1 180 09:30 02.03.2020
1697 Clouds 3 989 86 10000 4.6 180 08:49 02.03.2020
1698 Clouds 3 989 93 10000 4.6 180 08:23 02.03.2020
1699 Clouds 3 989 93 10000 3.6 170 07:52 02.03.2020
1700 Clouds 3 989 93 10000 3.6 180 07:32 02.03.2020
1701 Clouds 2 990 93 10000 3.1 200 06:51 02.03.2020
1702 Clouds 2 990 93 10000 4.6 190 06:26 02.03.2020
1703 Clouds 3 990 93 10000 5.1 200 05:26 02.03.2020
1704 Clouds 3 990 86 10000 3.1 200 03:57 02.03.2020
1705 Clouds 3 989 86 10000 4.1 190 03:19 02.03.2020
1706 Clouds 3 990 86 10000 4.1 190 02:30 02.03.2020
1707 Clouds 3 990 83 10000 2.6 180 01:40 02.03.2020
1708 Clouds 3 990 86 10000 3.1 190 01:22 02.03.2020
1709 Clouds 3 990 86 10000 3.1 190 00:22 02.03.2020
1710 Clouds 3 990 86 10000 2.1 190 23:56 01.03.2020
1711 Clouds 4 990 86 10000 2.1 190 23:37 01.03.2020
1712 Clouds 4 990 80 10000 3.1 200 23:18 01.03.2020
1713 Clouds 4 990 86 10000 2.1 190 22:38 01.03.2020
1714 Clouds 4 990 86 10000 3.1 190 22:19 01.03.2020
1715 Clouds 4 990 86 10000 2.1 180 21:43 01.03.2020
1716 Clouds 4 990 86 10000 3.1 200 21:25 01.03.2020
1717 Clouds 5 990 80 10000 3.1 200 20:59 01.03.2020
1718 Clouds 5 990 80 10000 3.1 200 20:41 01.03.2020
1719 Rain 5 990 86 10000 3.1 210 20:22 01.03.2020
1720 Clouds 5 990 70 10000 4.1 220 19:43 01.03.2020
1721 Rain 5 990 80 10000 4.1 200 19:24 01.03.2020
1722 Clouds 6 990 65 10000 7.7 220 18:59 01.03.2020
1723 Clouds 6 990 65 10000 7.7 220 18:40 01.03.2020
1724 Clouds 6 990 81 10000 6.2 210 18:19 01.03.2020
1725 Clouds 6 989 78 10000 7.7 240 17:57 01.03.2020
1726 Clouds 7 989 78 10000 7.7 240 17:39 01.03.2020
1727 Clouds 7 989 65 10000 9.3 220 17:20 01.03.2020
1728 Clouds 8 989 65 10000 7.7 240 16:57 01.03.2020
1729 Clouds 8 989 65 10000 7.7 240 16:38 01.03.2020
1730 Clouds 9 989 57 10000 12.3 220 16:18 01.03.2020
1731 Clouds 9 989 57 10000 8.7 240 15:56 01.03.2020
1732 Clouds 9 989 57 10000 8.7 240 15:38 01.03.2020
1733 Clouds 9 989 57 10000 10.3 230 15:19 01.03.2020
1734 Clouds 9 989 57 10000 10.3 230 14:56 01.03.2020
1735 Clouds 9 989 57 10000 10.3 230 14:38 01.03.2020
1736 Clouds 8 989 65 10000 10.8 240 14:20 01.03.2020
1737 Clouds 8 989 65 10000 12.9 230 13:55 01.03.2020
1738 Rain 8 989 65 10000 10.8 240 13:37 01.03.2020
1739 Clouds 8 989 65 10000 12.9 220 13:18 01.03.2020
1740 Rain 8 989 65 10000 8.7 230 12:42 01.03.2020
1741 Rain 8 989 65 10000 8.7 230 12:42 01.03.2020
1742 Clouds 8 989 70 10000 12.9 220 12:21 01.03.2020
1743 Clouds 8 988 70 10000 10.3 220 11:43 01.03.2020
1744 Clouds 7 988 75 10000 12.9 220 11:25 01.03.2020
1745 Clouds 7 988 70 10000 9.3 220 10:58 01.03.2020
1746 Clouds 7 988 70 10000 9.3 220 10:38 01.03.2020
1747 Clouds 7 988 75 10000 11.3 210 10:20 01.03.2020
1748 Clouds 7 988 70 10000 8.2 220 09:59 01.03.2020
1749 Clouds 6 988 70 10000 8.2 220 09:41 01.03.2020
1750 Clouds 6 988 75 10000 9.8 210 09:21 01.03.2020
1751 Clouds 6 988 70 10000 7.7 210 08:43 01.03.2020
1752 Clouds 5 988 80 10000 9.3 210 08:25 01.03.2020
1753 Clouds 5 988 75 10000 8.7 210 07:45 01.03.2020
1754 Clouds 5 988 80 10000 9.3 210 07:24 01.03.2020
1755 Clouds 5 988 75 10000 9.8 210 06:58 01.03.2020
1756 Clouds 5 988 75 10000 9.8 210 06:40 01.03.2020
1757 Rain 5 987 75 10000 11.3 220 04:40 01.03.2020
1758 Clouds 5 988 81 10000 9.3 210 02:58 01.03.2020
1759 Clouds 5 988 75 10000 10.3 210 02:18 01.03.2020
1760 Clouds 5 988 73 10000 8.2 220 01:36 01.03.2020
1761 Clouds 5 988 70 10000 8.7 220 00:48 01.03.2020
1762 Clouds 5 988 75 10000 10.8 220 00:25 01.03.2020
1763 Clouds 6 988 70 10000 8.2 220 23:58 29.02.2020
1764 Clouds 6 988 70 10000 8.2 220 23:40 29.02.2020
1765 Clouds 6 988 70 10000 11.3 220 23:21 29.02.2020
1766 Clouds 6 988 70 10000 8.2 220 22:37 29.02.2020
1767 Clouds 6 988 70 10000 8.7 210 22:19 29.02.2020
1768 Clouds 6 988 70 10000 6.7 220 21:39 29.02.2020
1769 Clear 6 988 70 10000 9.3 210 21:19 29.02.2020
1770 Clouds 6 987 75 10000 7.2 230 20:41 29.02.2020
1771 Rain 6 987 75 10000 8.7 220 20:20 29.02.2020
1772 Clouds 6 986 75 10000 7.7 230 19:55 29.02.2020
1773 Clouds 6 986 75 10000 7.7 230 19:36 29.02.2020
1774 Clouds 6 986 81 10000 10.3 230 19:18 29.02.2020
1775 Clouds 7 985 81 10000 9.3 250 18:42 29.02.2020
1776 Clouds 7 984 81 10000 11.3 260 18:22 29.02.2020
1777 Clouds 7 983 81 10000 13.9 260 17:56 29.02.2020
1778 Clouds 7 983 81 10000 13.9 260 17:37 29.02.2020
1779 Clouds 7 984 87 10000 11.3 250 17:19 29.02.2020
1780 Clouds 9 980 58 10000 10.3 190 16:44 29.02.2020
1781 Rain 11 981 76 10000 9.3 190 16:19 29.02.2020
1782 Rain 11 982 62 10000 8.2 180 15:57 29.02.2020
1783 Rain 12 982 62 10000 8.2 180 15:37 29.02.2020
1784 Drizzle 12 981 71 10000 9.3 190 15:19 29.02.2020
1785 Clouds 13 984 58 10000 8.7 190 14:40 29.02.2020
1786 Rain 13 983 62 10000 9.8 180 14:22 29.02.2020
1787 Clouds 13 985 58 10000 7.2 180 13:46 29.02.2020
1788 Clouds 13 985 66 10000 8.2 180 13:27 29.02.2020
1789 Clouds 13 986 66 10000 7.2 180 12:57 29.02.2020
1790 Clouds 12 986 66 10000 7.2 180 12:38 29.02.2020
1791 Clouds 12 986 66 10000 7.2 170 12:20 29.02.2020
1792 Clouds 11 988 71 10000 7.7 200 11:45 29.02.2020
1793 Clouds 11 987 76 10000 7.2 180 11:26 29.02.2020
1794 Clouds 11 989 81 10000 9.3 210 10:55 29.02.2020
1795 Clouds 10 989 81 10000 9.3 210 10:36 29.02.2020
1796 Clouds 10 989 81 10000 8.2 210 10:18 29.02.2020
1797 Clouds 10 990 81 10000 8.2 210 09:46 29.02.2020
1798 Clouds 9 990 81 10000 7.2 190 09:18 29.02.2020
1799 Clouds 9 990 93 10000 7.2 210 08:40 29.02.2020
1800 Rain 9 990 93 8000 6.7 220 08:21 29.02.2020
1801 Rain 9 991 93 4500 7.2 210 07:53 29.02.2020
1802 Rain 9 991 93 4500 7.2 210 07:53 29.02.2020
1803 Rain 9 991 93 3000 5.1 200 07:25 29.02.2020
1804 Rain 9 991 93 3000 5.1 200 06:56 29.02.2020
1805 Clouds 9 992 93 10000 7.7 210 06:30 29.02.2020
1806 Rain 9 992 93 4000 6.2 210 05:54 29.02.2020
1807 Rain 8 992 93 4000 6.2 210 05:33 29.02.2020
1808 Drizzle 8 993 93 5000 7.2 210 04:25 29.02.2020
1809 Rain 7 994 93 3000 6.7 210 03:37 29.02.2020
1810 Rain 7 994 100 4300 6.7 200 03:18 29.02.2020
1811 Rain 6 995 100 7000 7.2 200 02:32 29.02.2020
1812 Drizzle 4 997 93 7000 7.2 200 00:54 29.02.2020
1813 Rain 4 998 92 6000 7.7 160 00:36 29.02.2020
1814 Snow 3 1000 92 6000 6.7 150 23:42 28.02.2020
1815 Snow 2 1001 92 3000 6.2 160 23:24 28.02.2020
1816 Rain 2 1001 93 8000 8.7 160 22:54 28.02.2020
1817 Rain 1 1001 93 8000 8.7 160 22:36 28.02.2020
1818 Snow 1 1000 94 9000 7.7 160 22:18 28.02.2020
1819 Rain 2 1003 86 8000 10.3 180 21:41 28.02.2020
1820 Snow 2 1002 100 5000 6.7 160 21:20 28.02.2020
1821 Rain 3 1004 65 10000 8.2 170 20:40 28.02.2020
1822 Snow 4 1004 93 4500 10.3 170 20:22 28.02.2020
1823 Clouds 4 1006 76 10000 6.2 180 19:59 28.02.2020
1824 Clouds 5 1006 76 10000 6.2 180 19:39 28.02.2020
1825 Clouds 5 1005 75 10000 6.7 170 19:21 28.02.2020
1826 Clouds 5 1007 75 10000 5.7 180 18:57 28.02.2020
1827 Clouds 5 1007 75 10000 5.7 180 18:38 28.02.2020
1828 Clouds 5 1007 70 10000 5.7 170 18:20 28.02.2020
1829 Clouds 6 1009 70 10000 4.6 190 17:41 28.02.2020
1830 Clouds 6 1009 70 10000 5.1 180 17:22 28.02.2020
1831 Clouds 6 1010 70 10000 5.1 210 16:46 28.02.2020
1832 Clouds 6 1010 70 10000 5.7 200 16:20 28.02.2020
1833 Clouds 7 1011 75 10000 5.7 230 15:59 28.02.2020
1834 Clouds 7 1011 75 10000 5.7 230 15:40 28.02.2020
1835 Clouds 7 1011 70 10000 7.7 210 15:20 28.02.2020
1836 Clouds 7 1011 65 10000 6.2 230 14:57 28.02.2020
1837 Clouds 7 1011 65 10000 6.2 230 14:39 28.02.2020
1838 Clouds 7 1012 75 10000 6.7 210 14:18 28.02.2020
1839 Clouds 7 1012 65 10000 6.7 260 13:54 28.02.2020
1840 Clouds 7 1012 65 10000 6.7 260 13:36 28.02.2020
1841 Clouds 7 1013 75 10000 8.2 220 13:18 28.02.2020
1842 Clouds 7 1012 70 10000 6.7 260 12:41 28.02.2020
1843 Clouds 7 1013 75 10000 7.2 230 12:22 28.02.2020
1844 Clouds 6 1012 65 10000 6.2 250 11:43 28.02.2020
1845 Clouds 6 1013 75 10000 5.7 230 11:24 28.02.2020
1846 Clouds 6 1012 75 10000 5.7 260 10:59 28.02.2020
1847 Clouds 6 1012 75 10000 5.7 260 10:40 28.02.2020
1848 Clouds 5 1013 86 10000 4.6 230 10:20 28.02.2020
1849 Clouds 4 1012 80 10000 4.6 250 09:47 28.02.2020
1850 Clouds 4 1013 93 10000 4.1 220 09:21 28.02.2020
1851 Clouds 3 1011 86 10000 3.1 250 08:57 28.02.2020
1852 Clouds 3 1011 86 10000 3.1 250 08:37 28.02.2020
1853 Clouds 2 1012 81 10000 3.6 230 08:19 28.02.2020
1854 Clouds 2 1011 93 10000 4.1 240 07:40 28.02.2020
1855 Clear 2 1012 81 10000 3.1 250 07:21 28.02.2020
1856 Clouds 2 1010 86 10000 2.6 240 06:45 28.02.2020
1857 Clear 2 1011 81 10000 3.6 220 06:24 28.02.2020
1858 Clouds 2 1008 86 10000 3.1 250 04:45 28.02.2020
1859 Clear 2 1009 79 10000 2.6 240 04:18 28.02.2020
1860 Clouds 3 1006 80 10000 3.6 260 02:46 28.02.2020
1861 Drizzle 2 1008 93 10000 3.1 270 02:27 28.02.2020
1862 Rain 3 1007 76 10000 3.6 260 01:23 28.02.2020
1863 Clouds 2 1005 76 10000 3.6 260 00:28 28.02.2020
1864 Clouds 2 1003 86 10000 4.1 290 23:42 27.02.2020
1865 Rain 3 1004 86 10000 5.1 290 23:21 27.02.2020
1866 Clouds 2 1002 86 10000 3.6 240 22:46 27.02.2020
1867 Clouds 2 1003 93 10000 3.6 250 22:27 27.02.2020
1868 Rain 2 1001 86 10000 3.6 250 21:59 27.02.2020
1869 Rain 2 1001 86 10000 3.6 250 21:41 27.02.2020
1870 Clouds 2 1002 100 10000 4.1 260 21:19 27.02.2020
1871 Clouds 2 1000 86 10000 2.1 240 20:58 27.02.2020
1872 Clouds 2 1000 86 10000 2.1 240 20:39 27.02.2020
1873 Drizzle 2 1001 100 7000 2.6 260 20:21 27.02.2020
1874 Drizzle 2 999 93 10000 2.6 260 19:56 27.02.2020
1875 Drizzle 2 999 93 10000 2.6 260 19:37 27.02.2020
1876 Drizzle 2 999 93 10000 2.6 260 19:37 27.02.2020
1877 Drizzle 2 999 93 10000 2.6 260 19:19 27.02.2020
1878 Rain 3 999 93 10000 2.6 270 18:42 27.02.2020
1879 Drizzle 3 998 93 10000 2.1 270 18:24 27.02.2020
1880 Clouds 3 997 80 10000 1.5 240 17:58 27.02.2020
1881 Clouds 3 997 80 10000 1.5 240 17:40 27.02.2020
1882 Drizzle 3 997 93 9000 2.6 250 17:19 27.02.2020
1883 Clouds 4 996 70 10000 2.1 230 16:58 27.02.2020
1884 Clouds 4 996 70 10000 2.1 230 16:39 27.02.2020
1885 Clouds 4 996 86 10000 2.1 220 16:19 27.02.2020
1886 Clouds 4 996 80 10000 2.1 210 15:57 27.02.2020
1887 Clouds 4 996 80 10000 2.1 210 15:37 27.02.2020
1888 Drizzle 4 996 93 10000 3.1 210 15:18 27.02.2020
1889 Clouds 4 997 80 10000 2.6 220 14:56 27.02.2020
1890 Clouds 4 997 80 10000 2.6 220 14:37 27.02.2020
1891 Clouds 4 996 86 10000 3.6 180 14:18 27.02.2020
1892 Clouds 4 998 86 10000 1.5 140 13:42 27.02.2020
1893 -273 0 0 0 0 0 13:21 27.02.2020
1894 Rain 4 998 80 8000 4.6 200 12:48 27.02.2020
1895 Clouds 3 998 93 10000 5.7 200 12:25 27.02.2020
1896 Clouds 3 999 86 10000 4.1 200 11:59 27.02.2020
1897 Clouds 3 999 86 10000 4.1 200 11:41 27.02.2020
1898 Clouds 3 998 86 10000 4.1 180 11:21 27.02.2020
1899 Clouds 3 999 93 10000 3.1 200 10:43 27.02.2020
1900 Clouds 2 999 93 10000 3.6 190 10:23 27.02.2020
1901 Clouds 2 1000 78 10000 3.6 200 09:48 27.02.2020
1902 Clouds 2 1000 78 10000 4.1 190 09:29 27.02.2020
1903 Clouds 1 1000 78 10000 4.1 220 08:58 27.02.2020
1904 Clouds 1 1000 78 10000 4.1 220 08:40 27.02.2020
1905 Clouds 1 1000 78 10000 4.1 200 08:22 27.02.2020
1906 Clouds 1 1000 78 10000 3.1 210 07:44 27.02.2020
1907 Snow 1 1001 78 10000 4.1 200 07:25 27.02.2020
1908 Clouds 1 1001 78 10000 4.6 230 06:46 27.02.2020
1909 Clouds 1 1001 78 10000 3.6 230 05:43 27.02.2020
1910 Clouds 2 1001 93 10000 3.6 220 03:40 27.02.2020
1911 Clouds 2 1002 86 10000 4.6 290 02:21 27.02.2020
1912 Rain 2 1001 93 10000 3.1 250 00:45 27.02.2020
1913 Clouds 2 1001 93 10000 2.6 230 00:26 27.02.2020
1914 Clouds 3 1001 93 10000 2.6 230 23:40 26.02.2020
1915 Clouds 3 1001 93 10000 2.6 230 23:40 26.02.2020
1916 Clouds 3 1002 93 10000 2.1 260 23:19 26.02.2020
1917 Clouds 3 1001 86 10000 3.1 240 22:57 26.02.2020
1918 Clouds 3 1001 86 10000 3.1 240 22:39 26.02.2020
1919 Clouds 3 1001 86 10000 3.1 240 22:39 26.02.2020
1920 Clouds 3 1002 93 10000 3.1 250 22:20 26.02.2020
1921 Rain 3 1000 86 10000 3.1 260 21:56 26.02.2020
1922 Rain 3 1000 86 10000 3.1 260 21:37 26.02.2020
1923 Clouds 3 1002 93 10000 4.1 250 21:18 26.02.2020
1924 Clouds 3 1000 86 10000 4.1 250 20:55 26.02.2020
1925 Clouds 3 1000 86 10000 4.1 250 20:36 26.02.2020
1926 Clouds 3 1000 86 10000 4.1 250 20:36 26.02.2020
1927 Clouds 3 1001 86 10000 3.6 260 20:18 26.02.2020
1928 Clouds 3 1000 80 10000 2.6 250 19:45 26.02.2020
1929 Clouds 3 1000 86 10000 3.6 260 19:21 26.02.2020
1930 Clouds 3 1000 86 10000 3.6 260 19:21 26.02.2020
1931 Clouds 4 999 80 10000 5.7 270 18:58 26.02.2020
1932 Clouds 4 999 80 10000 5.7 270 18:40 26.02.2020
1933 Rain 4 999 80 10000 3.6 270 18:22 26.02.2020
1934 Clouds 4 998 86 10000 3.6 280 17:56 26.02.2020
1935 Clouds 4 998 86 10000 3.6 280 17:37 26.02.2020
1936 Clouds 5 999 86 10000 3.1 280 17:18 26.02.2020
1937 Clouds 5 997 80 10000 5.7 300 16:43 26.02.2020
1938 Clouds 5 998 80 10000 4.6 290 16:22 26.02.2020
1939 Clouds 5 996 75 10000 5.7 290 15:56 26.02.2020
1940 Clouds 5 996 75 10000 5.7 290 15:37 26.02.2020
1941 Rain 5 997 86 10000 4.1 280 15:18 26.02.2020
1942 Clouds 5 995 75 10000 5.1 300 14:42 26.02.2020
1943 Clouds 5 996 86 10000 4.1 280 14:22 26.02.2020
1944 Clouds 5 995 75 10000 7.2 290 13:43 26.02.2020
1945 Clouds 5 995 75 10000 5.1 270 13:22 26.02.2020
1946 Clouds 5 994 86 10000 3.1 300 12:42 26.02.2020
1947 Clouds 5 994 86 10000 3.1 300 12:42 26.02.2020
1948 Clouds 4 995 86 10000 4.6 280 12:23 26.02.2020
1949 Clouds 5 994 86 10000 4.6 280 11:59 26.02.2020
1950 Clouds 5 994 86 10000 4.6 280 11:41 26.02.2020
1951 Clouds 5 994 81 10000 5.1 260 11:22 26.02.2020
1952 Clouds 5 994 81 10000 5.1 260 11:22 26.02.2020
1953 Clouds 5 993 86 10000 4.1 270 10:56 26.02.2020
1954 Clouds 5 993 86 10000 4.1 270 10:38 26.02.2020
1955 Rain 5 993 86 10000 3.6 250 10:20 26.02.2020
1956 Rain 5 993 86 10000 3.6 250 10:20 26.02.2020
1957 Clouds 3 992 86 10000 3.6 260 09:41 26.02.2020
1958 Rain 3 992 93 10000 3.6 250 09:21 26.02.2020
1959 Clouds 2 991 93 10000 2.1 250 08:55 26.02.2020
1960 Clouds 2 991 93 10000 2.1 250 08:36 26.02.2020
1961 Clouds 2 992 93 10000 3.1 250 08:18 26.02.2020
1962 Rain 2 990 83 7000 2.1 250 07:42 26.02.2020
1963 Clouds 2 991 100 10000 2.6 250 07:23 26.02.2020
1964 Clouds 2 990 100 10000 2.1 250 06:50 26.02.2020
1965 Clouds 2 991 100 10000 1.5 240 06:31 26.02.2020
1966 Clouds 2 990 83 10000 1.5 240 05:49 26.02.2020
1967 Clouds 2 990 100 10000 2.6 260 05:20 26.02.2020
1968 Clouds 2 990 93 10000 3.1 230 03:57 26.02.2020
1969 Drizzle 3 991 93 3000 4.6 230 02:21 26.02.2020
1970 Rain 3 990 86 10000 3.1 250 01:40 26.02.2020
1971 Clouds 3 990 86 10000 3.6 240 00:48 26.02.2020
1972 Clouds 3 991 93 10000 3.1 230 00:22 26.02.2020
1973 Clouds 3 991 93 10000 3.1 230 00:22 26.02.2020
1974 Clouds 3 991 93 10000 3.1 230 23:45 25.02.2020
1975 Clouds 3 991 93 10000 3.1 220 23:26 25.02.2020
1976 Clouds 3 991 86 10000 3.6 240 22:59 25.02.2020
1977 Clouds 3 991 86 10000 3.6 240 22:41 25.02.2020
1978 Clouds 3 992 86 10000 3.6 230 22:19 25.02.2020
1979 Clouds 3 992 86 10000 4.6 240 21:55 25.02.2020
1980 Clouds 3 992 86 10000 4.6 240 21:36 25.02.2020
1981 Clouds 3 993 86 10000 3.6 260 21:18 25.02.2020
1982 Clouds 4 992 86 10000 5.1 240 20:54 25.02.2020
1983 Clouds 3 992 86 10000 5.1 240 20:36 25.02.2020
1984 Clouds 4 993 86 10000 3.1 240 20:18 25.02.2020
1985 Clouds 4 992 93 10000 3.6 250 19:40 25.02.2020
1986 Clouds 4 993 86 10000 4.1 240 19:19 25.02.2020
1987 Clouds 4 993 86 10000 6.2 260 18:42 25.02.2020
1988 Clouds 4 993 80 10000 5.1 260 18:22 25.02.2020
1989 Clouds 4 993 93 10000 8.7 270 17:59 25.02.2020
1990 Clouds 4 993 93 10000 8.7 270 17:38 25.02.2020
1991 Clouds 5 993 86 9000 11.3 280 17:20 25.02.2020
1992 Clouds 5 993 70 10000 9.8 260 16:59 25.02.2020
1993 Clouds 6 993 70 10000 9.8 260 16:40 25.02.2020
1994 Clouds 6 993 70 10000 9.8 260 16:40 25.02.2020
1995 Clouds 6 994 75 10000 7.7 250 16:22 25.02.2020
1996 Clouds 6 993 81 10000 13.9 270 15:59 25.02.2020
1997 Clouds 6 993 81 10000 13.9 270 15:41 25.02.2020
1998 Clouds 7 994 70 10000 9.3 250 15:19 25.02.2020
1999 Rain 7 993 65 10000 12.3 270 14:58 25.02.2020
2000 Rain 7 993 65 10000 12.3 270 14:38 25.02.2020
2001 Clouds 7 995 75 10000 8.2 260 14:18 25.02.2020
2002 Clouds 7 993 65 10000 11.3 260 13:56 25.02.2020
2003 Clouds 7 993 65 10000 11.3 260 13:38 25.02.2020
2004 Clouds 7 995 75 10000 10.3 250 13:19 25.02.2020
2005 Clouds 6 993 75 10000 12.3 260 12:42 25.02.2020
2006 Clouds 7 995 70 10000 11.3 250 12:23 25.02.2020
2007 Clouds 7 993 65 10000 10.8 260 11:58 25.02.2020
2008 Clouds 7 993 65 10000 10.8 260 11:39 25.02.2020
2009 Clouds 7 995 81 10000 8.7 250 11:19 25.02.2020
2010 Clouds 7 993 70 10000 11.3 250 10:59 25.02.2020
2011 Clouds 6 993 70 10000 11.3 250 10:40 25.02.2020
2012 Rain 6 996 80 6000 8.7 270 10:22 25.02.2020
2013 Clouds 6 993 75 10000 8.7 250 09:42 25.02.2020
2014 Clouds 6 993 75 10000 8.7 250 09:42 25.02.2020
2015 Clouds 6 995 75 10000 8.7 250 09:22 25.02.2020
2016 Clouds 6 994 75 10000 8.2 250 08:56 25.02.2020
2017 Clouds 6 994 75 10000 8.2 250 08:37 25.02.2020
2018 Clouds 6 996 75 10000 7.7 250 08:19 25.02.2020
2019 Rain 6 994 75 10000 8.2 250 07:41 25.02.2020
2020 Clouds 6 996 75 10000 8.2 250 07:20 25.02.2020
2021 Clouds 6 994 70 10000 9.8 250 06:41 25.02.2020
2022 Clouds 6 995 75 10000 9.8 250 05:39 25.02.2020
2023 Clouds 6 995 75 10000 10.3 260 03:54 25.02.2020
2024 Clouds 7 997 70 10000 8.2 260 02:31 25.02.2020
2025 Drizzle 8 995 81 10000 9.3 250 00:57 25.02.2020
2026 Clouds 9 996 87 10000 11.3 240 00:30 25.02.2020
2027 Clouds 10 995 87 10000 8.2 240 23:46 24.02.2020
2028 Clouds 10 997 87 10000 11.8 240 23:28 24.02.2020
2029 Drizzle 10 996 87 10000 8.7 240 22:56 24.02.2020
2030 Drizzle 10 996 87 10000 8.7 240 22:36 24.02.2020
2031 Clouds 10 997 87 10000 11.3 240 22:18 24.02.2020
2032 Drizzle 10 996 87 10000 7.2 240 21:54 24.02.2020
2033 Drizzle 10 996 87 10000 7.2 240 21:36 24.02.2020
2034 Clouds 10 998 87 10000 11.3 240 21:18 24.02.2020
2035 Clouds 10 996 87 10000 9.3 240 20:41 24.02.2020
2036 Clouds 9 998 87 10000 10.8 240 20:20 24.02.2020
2037 Clouds 9 998 87 10000 11.3 240 19:59 24.02.2020
2038 Clouds 9 998 87 10000 11.3 240 19:40 24.02.2020
2039 Drizzle 9 999 93 3400 10.3 240 19:22 24.02.2020
2040 Clouds 9 999 93 10000 10.3 240 18:58 24.02.2020
2041 Clouds 8 999 93 10000 10.3 240 18:39 24.02.2020
2042 Rain 8 999 93 6000 9.8 240 18:21 24.02.2020
2043 Rain 8 999 93 10000 9.3 240 17:54 24.02.2020
2044 Rain 7 1000 100 6000 7.7 220 17:36 24.02.2020
2045 Rain 7 1000 100 6000 7.7 220 17:18 24.02.2020
2046 Rain 6 1000 100 8000 6.7 190 16:54 24.02.2020
2047 Rain 5 1002 100 5000 4.1 140 16:36 24.02.2020
2048 Rain 5 1001 100 8000 6.7 180 16:18 24.02.2020
2049 Rain 5 1003 100 9000 5.7 170 15:54 24.02.2020
2050 Rain 4 1004 93 8000 5.7 160 15:36 24.02.2020
2051 Rain 4 1004 93 8000 5.7 160 15:18 24.02.2020
2052 Snow 3 1008 94 1300 4.1 140 14:40 24.02.2020
2053 -273 0 0 0 0 0 14:21 24.02.2020
2054 Rain 4 1007 93 4100 5.1 160 14:21 24.02.2020
2055 Snow 4 1010 86 6000 6.2 160 13:58 24.02.2020
2056 Snow 3 1010 86 6000 6.2 160 13:39 24.02.2020
2057 Snow 3 1010 86 6000 6.2 160 13:39 24.02.2020
2058 Snow 4 1011 86 6000 6.7 180 13:20 24.02.2020
2059 Drizzle 4 1012 86 7000 5.7 180 12:57 24.02.2020
2060 Drizzle 4 1012 86 7000 5.7 180 12:38 24.02.2020
2061 Rain 4 1012 86 10000 4.1 160 12:20 24.02.2020
2062 Clouds 5 1014 86 10000 4.6 180 11:46 24.02.2020
2063 Drizzle 5 1014 80 10000 6.2 180 11:28 24.02.2020
2064 Clouds 5 1016 86 10000 3.1 200 10:47 24.02.2020
2065 Clouds 5 1016 86 10000 4.1 190 10:29 24.02.2020
2066 Clouds 4 1017 86 10000 3.6 210 09:55 24.02.2020
2067 Clouds 4 1017 86 10000 3.6 210 09:37 24.02.2020
2068 Clouds 4 1018 93 10000 4.1 190 09:18 24.02.2020
2069 Clouds 4 1018 93 10000 3.1 230 08:47 24.02.2020
2070 Rain 4 1019 93 10000 3.6 200 08:28 24.02.2020
2071 Clouds 4 1019 93 10000 2.1 240 07:48 24.02.2020
2072 Clouds 4 1019 93 10000 2.6 200 07:28 24.02.2020
2073 Clouds 4 1019 86 10000 3.6 250 06:37 24.02.2020
2074 Clouds 4 1020 100 10000 3.1 230 06:18 24.02.2020
2075 Clouds 4 1020 93 10000 3.6 230 05:30 24.02.2020
2076 Clouds 4 1019 81 10000 6.2 270 04:42 24.02.2020
2077 Clouds 5 1018 81 10000 8.2 270 02:56 24.02.2020
2078 Clouds 5 1017 75 10000 7.7 280 01:50 24.02.2020
2079 Clouds 5 1019 80 10000 4.6 260 01:28 24.02.2020
2080 Clouds 5 1017 75 10000 7.7 280 00:36 24.02.2020
2081 Clouds 5 1018 80 10000 4.6 260 00:18 24.02.2020
2082 Clouds 5 1016 75 10000 8.2 290 23:42 23.02.2020
2083 Clouds 5 1018 80 10000 4.6 270 23:20 23.02.2020
2084 Clouds 5 1015 76 10000 10.8 290 22:58 23.02.2020
2085 Clouds 5 1015 76 10000 10.8 290 22:40 23.02.2020
2086 Clouds 5 1017 75 10000 6.2 280 22:20 23.02.2020
2087 Clouds 5 1013 70 10000 9.3 290 21:46 23.02.2020
2088 Clouds 5 1015 70 10000 7.2 290 21:20 23.02.2020
2089 Clouds 5 1012 80 10000 9.3 300 20:58 23.02.2020
2090 Clouds 5 1014 75 10000 6.7 280 20:40 23.02.2020
2091 Clouds 5 1010 80 10000 9.8 280 20:22 23.02.2020
2092 Clouds 5 1010 80 10000 9.8 280 19:59 23.02.2020
2093 Clouds 5 1010 80 10000 9.8 280 19:40 23.02.2020
2094 Rain 5 1012 81 10000 6.7 270 19:19 23.02.2020
2095 Clouds 5 1009 86 10000 7.2 280 18:59 23.02.2020
2096 Clouds 5 1009 86 10000 7.2 280 18:38 23.02.2020
2097 Clouds 5 1010 93 10000 5.1 290 18:19 23.02.2020
2098 Drizzle 5 1007 86 8000 8.7 310 17:58 23.02.2020
2099 Drizzle 5 1007 86 8000 8.7 310 17:39 23.02.2020
2100 Drizzle 5 1008 87 6000 10.8 310 17:21 23.02.2020
2101 Drizzle 6 1004 93 3500 7.2 310 16:56 23.02.2020
2102 Drizzle 6 1004 93 3500 7.2 310 16:36 23.02.2020
2103 Drizzle 7 1005 87 6000 7.2 280 16:18 23.02.2020
2104 Drizzle 7 1002 93 3500 5.1 290 15:40 23.02.2020
2105 Clouds 7 1003 93 10000 8.7 300 15:21 23.02.2020
2106 Drizzle 8 1001 93 3500 3.1 260 14:59 23.02.2020
2107 Drizzle 8 1001 93 3500 3.1 260 14:59 23.02.2020
2108 Drizzle 8 1001 93 3500 3.1 260 14:41 23.02.2020
2109 Clouds 8 1001 100 10000 5.1 250 14:23 23.02.2020
2110 Rain 7 1002 93 4000 1.5 250 13:58 23.02.2020
2111 Rain 7 1002 93 4000 1.5 250 13:39 23.02.2020
2112 Rain 6 1002 93 5000 2.6 240 13:21 23.02.2020
2113 Rain 5 1003 93 10000 2.1 230 12:44 23.02.2020
2114 Rain 5 1003 93 6000 1.5 130 12:24 23.02.2020
2115 Rain 5 1004 93 10000 3.6 230 11:59 23.02.2020
2116 Rain 5 1004 93 10000 3.6 230 11:38 23.02.2020
2117 Rain 5 1004 100 10000 2.1 140 11:20 23.02.2020
2118 Rain 5 1005 93 9000 4.6 220 10:56 23.02.2020
2119 Rain 5 1005 93 9000 4.6 220 10:38 23.02.2020
2120 Rain 5 1006 93 9000 4.1 220 10:20 23.02.2020
2121 Rain 5 1007 93 9000 3.6 230 09:54 23.02.2020
2122 Rain 5 1007 93 9000 3.6 230 09:36 23.02.2020
2123 Rain 5 1008 93 6000 4.1 220 09:18 23.02.2020
2124 Rain 6 1009 93 9000 4.1 230 08:42 23.02.2020
2125 Rain 6 1010 93 10000 5.7 240 08:23 23.02.2020
2126 Rain 6 1010 93 6000 6.2 240 07:41 23.02.2020
2127 Rain 6 1011 93 10000 5.1 220 07:18 23.02.2020
2128 Drizzle 6 1013 93 8000 4.6 240 06:19 23.02.2020
2129 Clouds 7 1013 75 10000 9.8 260 04:49 23.02.2020
2130 Squall 8 1013 70 10000 10.3 260 03:52 23.02.2020
2131 Clouds 8 1015 75 10000 7.7 250 02:38 23.02.2020
2132 Clouds 8 1015 70 10000 6.2 240 01:27 23.02.2020
2133 Clouds 7 1014 65 10000 11.3 270 00:58 23.02.2020
2134 Clouds 8 1014 65 10000 11.3 270 00:37 23.02.2020
2135 Clouds 8 1016 61 10000 6.2 260 00:18 23.02.2020
2136 Clouds 8 1013 79 10000 15.4 270 23:42 22.02.2020
2137 Rain 8 1015 70 10000 8.7 260 23:20 22.02.2020
2138 Clouds 8 1013 65 10000 11.3 260 22:44 22.02.2020
2139 Clouds 8 1015 66 10000 9.3 260 22:19 22.02.2020
2140 Clouds 9 1012 70 10000 10.8 270 21:43 22.02.2020
2141 Rain 9 1014 70 10000 7.7 260 21:25 22.02.2020
2142 Rain 9 1015 76 10000 8.2 250 20:58 22.02.2020
2143 Rain 9 1015 76 10000 8.2 250 20:39 22.02.2020
2144 Clouds 9 1014 70 10000 9.3 250 20:21 22.02.2020
2145 Clouds 9 1012 66 10000 8.2 270 19:42 22.02.2020
2146 Rain 9 1014 71 10000 8.2 250 19:23 22.02.2020
2147 Clouds 9 1012 66 10000 12.9 270 18:55 22.02.2020
2148 Clouds 9 1012 66 10000 12.9 270 18:37 22.02.2020
2149 Clouds 9 1013 66 10000 8.7 260 18:18 22.02.2020
2150 Clouds 9 1011 66 10000 12.9 270 17:44 22.02.2020
2151 Rain 9 1012 71 10000 8.7 260 17:25 22.02.2020
2152 Clouds 9 1010 66 10000 13.9 270 16:59 22.02.2020
2153 Clouds 9 1010 66 10000 13.9 270 16:40 22.02.2020
2154 Clouds 9 1012 81 10000 8.2 250 16:20 22.02.2020
2155 Clouds 9 1012 81 10000 8.2 260 15:55 22.02.2020
2156 Rain 9 1011 81 10000 9.3 260 15:37 22.02.2020
2157 Rain 9 1011 81 10000 9.3 260 15:19 22.02.2020
2158 Clouds 9 1009 81 10000 11.3 260 14:41 22.02.2020
2159 Rain 9 1010 87 3800 9.3 250 14:21 22.02.2020
2160 Rain 9 1010 87 3800 9.3 250 14:21 22.02.2020
2161 Drizzle 9 1008 93 2500 9.8 250 13:43 22.02.2020
2162 Clouds 9 1010 87 6000 13.4 240 13:20 22.02.2020
2163 Drizzle 9 1008 93 2500 10.3 240 12:59 22.02.2020
2164 Drizzle 9 1008 93 2500 10.3 240 12:39 22.02.2020
2165 Mist 9 1010 87 4400 12.3 230 12:20 22.02.2020
2166 Clouds 8 1010 87 6000 13.4 230 11:44 22.02.2020
2167 Mist 8 1010 87 4400 12.9 230 11:26 22.02.2020
2168 Clouds 8 1008 81 10000 11.8 230 10:55 22.02.2020
2169 Clouds 8 1008 81 10000 11.8 230 10:37 22.02.2020
2170 Clouds 8 1010 93 10000 11.8 230 10:18 22.02.2020
2171 Rain 7 1008 87 9000 11.3 230 09:55 22.02.2020
2172 Rain 7 1008 87 9000 11.3 230 09:37 22.02.2020
2173 Clouds 7 1011 87 10000 12.3 220 09:18 22.02.2020
2174 Rain 7 1009 87 8000 9.3 230 08:44 22.02.2020
2175 Rain 7 1011 87 9000 11.8 220 08:25 22.02.2020
2176 Rain 7 1010 93 6000 10.8 230 07:43 22.02.2020
2177 Drizzle 7 1010 87 10000 11.3 220 07:18 22.02.2020
2178 Drizzle 7 1010 81 10000 10.3 230 06:46 22.02.2020
2179 Clouds 8 1011 75 10000 10.8 230 05:44 22.02.2020
2180 Squall 8 1011 76 10000 9.8 230 04:29 22.02.2020
2181 Clouds 9 1013 81 10000 9.8 230 02:43 22.02.2020
2182 Clouds 8 1015 81 10000 9.3 230 01:57 22.02.2020
2183 Clouds 8 1015 81 10000 9.3 230 01:39 22.02.2020
2184 Clouds 8 1016 81 10000 10.3 220 01:21 22.02.2020
2185 Clouds 8 1015 81 10000 10.3 230 00:39 22.02.2020
2186 Clouds 8 1016 81 10000 10.8 220 00:19 22.02.2020
2187 Clouds 8 1015 81 10000 9.8 230 23:41 21.02.2020
2188 Clouds 8 1017 81 10000 10.3 220 23:20 21.02.2020
2189 Drizzle 8 1016 81 10000 9.3 230 22:43 21.02.2020
2190 Clouds 8 1018 81 10000 10.8 220 22:25 21.02.2020
2191 Drizzle 8 1017 87 10000 8.2 230 21:57 21.02.2020
2192 Clouds 8 1018 87 10000 10.8 220 21:37 21.02.2020
2193 Clouds 8 1018 87 10000 10.8 220 21:19 21.02.2020
2194 Rain 8 1017 87 10000 7.2 230 20:47 21.02.2020
2195 Drizzle 7 1018 93 10000 9.3 220 20:27 21.02.2020
2196 Rain 7 1018 87 9000 7.7 230 19:41 21.02.2020
2197 Drizzle 8 1019 81 10000 10.3 230 19:23 21.02.2020
2198 Rain 8 1018 87 9000 7.7 240 18:55 21.02.2020
2199 Rain 8 1018 87 9000 7.7 240 18:55 21.02.2020
2200 Rain 8 1018 87 9000 7.7 240 18:36 21.02.2020
2201 Clouds 8 1019 75 10000 12.3 230 18:18 21.02.2020
2202 Rain 8 1018 81 9000 8.2 230 17:40 21.02.2020
2203 Rain 8 1018 81 9000 7.2 230 17:21 21.02.2020
2204 Clouds 8 1018 70 10000 8.7 230 16:57 21.02.2020
2205 Clouds 8 1018 70 10000 8.7 230 16:39 21.02.2020
2206 Clouds 8 1018 70 10000 8.7 230 16:39 21.02.2020
2207 Clouds 8 1019 70 10000 11.3 230 16:20 21.02.2020
2208 Clouds 8 1018 75 10000 9.3 230 15:45 21.02.2020
2209 Clouds 8 1020 75 10000 10.8 230 15:19 21.02.2020
2210 Clouds 8 1020 75 10000 10.8 230 15:19 21.02.2020
2211 Clouds 8 1020 75 10000 10.8 230 15:19 21.02.2020
2212 Rain 8 1019 75 10000 8.7 230 14:59 21.02.2020
2213 Rain 8 1019 75 10000 8.7 230 14:41 21.02.2020
2214 Clouds 8 1019 70 10000 7.2 230 14:19 21.02.2020
2215 Clouds 8 1019 70 10000 6.7 230 13:42 21.02.2020
2216 Clouds 8 1020 75 10000 9.8 240 13:24 21.02.2020
2217 Clouds 8 1019 70 10000 9.3 240 12:54 21.02.2020
2218 Clouds 8 1019 70 10000 9.3 240 12:36 21.02.2020
2219 Clouds 8 1019 75 10000 7.7 240 12:18 21.02.2020
2220 Clouds 8 1019 75 10000 7.7 240 12:18 21.02.2020
2221 Clouds 7 1019 75 10000 8.2 250 11:40 21.02.2020
2222 Clouds 7 1020 75 10000 7.2 240 11:21 21.02.2020
2223 Clouds 7 1019 81 10000 7.2 250 10:57 21.02.2020
2224 Clouds 7 1019 81 10000 7.2 250 10:38 21.02.2020
2225 Clouds 6 1020 81 10000 7.2 240 10:19 21.02.2020
2226 Clouds 6 1019 81 10000 7.2 250 09:57 21.02.2020
2227 Clouds 6 1019 81 10000 7.2 250 09:37 21.02.2020
2228 Clouds 6 1019 81 10000 7.2 250 09:37 21.02.2020
2229 Clouds 6 1020 80 10000 6.2 230 09:19 21.02.2020
2230 Clouds 5 1018 81 10000 6.2 250 08:42 21.02.2020
2231 Rain 5 1019 86 10000 5.1 240 08:22 21.02.2020
2232 Clouds 5 1017 75 10000 8.2 270 07:59 21.02.2020
2233 Clouds 5 1017 75 10000 8.2 270 07:40 21.02.2020
2234 Clouds 5 1018 80 10000 5.7 250 07:19 21.02.2020
2235 Clouds 6 1016 75 10000 9.3 270 06:52 21.02.2020
2236 Clouds 6 1017 75 10000 6.7 260 06:31 21.02.2020
2237 Clouds 6 1015 75 10000 7.7 270 05:50 21.02.2020
2238 Clouds 6 1014 75 10000 9.3 270 04:38 21.02.2020
2239 Clouds 6 1015 75 10000 7.2 260 04:19 21.02.2020
2240 Clouds 5 1013 80 10000 6.7 280 03:42 21.02.2020
2241 Clouds 5 1012 74 10000 9.3 280 02:58 21.02.2020
2242 Clouds 5 1012 75 10000 7.2 270 01:25 21.02.2020
2243 Clouds 5 1009 70 10000 8.7 290 00:46 21.02.2020
2244 Clouds 5 1010 80 10000 6.7 260 00:24 21.02.2020
2245 Clouds 5 1010 80 10000 6.7 260 00:24 21.02.2020
2246 Rain 5 1007 86 10000 9.3 300 23:46 20.02.2020
2247 Clouds 5 1009 86 10000 6.2 260 23:26 20.02.2020
2248 Clouds 5 1008 86 10000 6.2 280 23:00 20.02.2020
2249 Clouds 5 1008 86 10000 6.2 280 22:39 20.02.2020
2250 Clouds 5 1006 81 10000 5.7 270 22:21 20.02.2020
2251 Clouds 5 1006 81 10000 5.7 270 22:21 20.02.2020
2252 Clouds 5 1006 81 10000 5.7 270 22:21 20.02.2020
2253 Rain 5 1005 86 10000 8.7 300 21:57 20.02.2020
2254 Rain 5 1005 86 10000 8.7 300 21:37 20.02.2020
2255 Rain 5 1003 93 7000 11.3 290 21:19 20.02.2020
2256 Rain 6 1004 87 10000 9.3 280 20:56 20.02.2020
2257 Rain 6 1004 93 9000 7.7 260 20:38 20.02.2020
2258 Rain 7 1004 93 9000 7.7 260 20:19 20.02.2020
2259 Rain 7 1002 87 7000 8.7 210 19:58 20.02.2020
2260 Rain 8 1002 87 7000 8.7 210 19:40 20.02.2020
2261 Rain 8 1003 93 9000 8.7 200 19:22 20.02.2020
2262 Rain 8 1003 76 10000 8.7 210 18:40 20.02.2020
2263 Drizzle 9 1003 81 10000 8.7 200 18:21 20.02.2020
2264 Clouds 9 1004 76 10000 8.2 210 17:58 20.02.2020
2265 Clouds 9 1004 76 10000 8.2 210 17:39 20.02.2020
2266 Clouds 9 1004 76 10000 8.2 210 17:38 20.02.2020
2267 Drizzle 9 1005 81 10000 9.3 200 17:19 20.02.2020
2268 Drizzle 9 1005 76 10000 9.3 210 16:56 20.02.2020
2269 Drizzle 9 1005 76 10000 9.3 210 16:38 20.02.2020
2270 Clouds 9 1006 81 10000 9.8 210 16:18 20.02.2020
2271 Drizzle 9 1006 76 10000 7.7 210 15:42 20.02.2020
2272 Clouds 10 1007 76 10000 10.8 220 15:22 20.02.2020
2273 Clouds 10 1007 81 10000 7.7 220 14:58 20.02.2020
2274 Clouds 10 1007 81 10000 7.7 220 14:40 20.02.2020
2275 Clouds 10 1007 76 10000 11.3 210 14:21 20.02.2020
2276 Drizzle 9 1008 81 8000 7.7 210 13:55 20.02.2020
2277 Drizzle 9 1008 81 8000 7.7 210 13:37 20.02.2020
2278 Clouds 9 1009 81 10000 10.3 210 13:18 20.02.2020
2279 Clouds 9 1009 81 10000 10.3 210 13:18 20.02.2020
2280 Clouds 9 1009 76 10000 10.3 210 12:42 20.02.2020
2281 Clouds 9 1009 87 10000 8.7 210 12:21 20.02.2020
2282 Clouds 9 1010 87 10000 7.2 210 11:58 20.02.2020
2283 Clouds 8 1010 87 10000 7.2 210 11:39 20.02.2020
2284 Clouds 8 1010 93 10000 8.2 210 11:21 20.02.2020
2285 Clouds 8 1010 87 8000 7.7 220 10:56 20.02.2020
2286 Clouds 8 1010 87 8000 7.7 220 10:38 20.02.2020
2287 Clouds 8 1011 93 10000 8.7 220 10:19 20.02.2020
2288 Drizzle 8 1010 93 4000 7.2 210 09:39 20.02.2020
2289 Drizzle 7 1011 93 4000 7.2 210 09:21 20.02.2020
2290 Drizzle 7 1011 93 5000 6.7 210 08:44 20.02.2020
2291 Drizzle 7 1011 93 3000 6.7 210 08:24 20.02.2020
2292 Drizzle 7 1011 93 4000 6.7 210 07:55 20.02.2020
2293 Drizzle 7 1011 93 4000 6.7 210 07:37 20.02.2020
2294 Drizzle 7 1011 100 2800 7.2 210 07:19 20.02.2020
2295 Drizzle 7 1011 93 5000 5.7 210 06:43 20.02.2020
2296 Clouds 7 1012 93 7000 6.2 210 06:19 20.02.2020
2297 Drizzle 6 1012 93 6000 6.7 200 05:42 20.02.2020
2298 Drizzle 6 1012 93 6000 5.7 190 04:49 20.02.2020
2299 Drizzle 5 1013 86 7000 5.1 200 03:47 20.02.2020
2300 Drizzle 5 1014 100 6000 5.7 190 02:48 20.02.2020
2301 Drizzle 5 1015 80 10000 5.1 210 01:33 20.02.2020
2302 Drizzle 5 1015 93 8000 5.7 200 00:54 20.02.2020
2303 Drizzle 5 1016 86 10000 4.6 200 00:25 20.02.2020
2304 Clouds 4 1016 86 10000 3.6 210 23:48 19.02.2020
2305 Clouds 4 1016 80 10000 5.1 200 23:21 19.02.2020
2306 Clouds 4 1016 86 10000 3.6 220 22:44 19.02.2020
2307 Clouds 4 1017 86 10000 4.6 190 22:25 19.02.2020
2308 Clouds 4 1017 86 10000 2.6 220 21:59 19.02.2020
2309 Clouds 4 1017 86 10000 2.6 220 21:40 19.02.2020
2310 Clouds 4 1017 86 10000 3.6 190 21:19 19.02.2020
2311 Clouds 4 1017 80 10000 4.6 240 20:58 19.02.2020
2312 Clouds 4 1017 80 10000 4.6 240 20:39 19.02.2020
2313 Clouds 4 1017 86 10000 4.6 220 20:20 19.02.2020
2314 Clouds 4 1017 80 10000 5.1 250 19:58 19.02.2020
2315 Clouds 4 1017 80 10000 5.1 250 19:38 19.02.2020
2316 Clouds 5 1018 80 10000 5.1 230 19:20 19.02.2020
2317 Clouds 5 1016 70 10000 7.2 260 18:58 19.02.2020
2318 Clouds 5 1016 70 10000 7.2 260 18:40 19.02.2020
2319 Clouds 5 1017 75 10000 5.1 250 18:21 19.02.2020
2320 Clouds 6 1016 75 10000 8.7 270 17:57 19.02.2020
2321 Clouds 6 1016 75 10000 8.7 270 17:39 19.02.2020
2322 Clouds 6 1017 75 10000 6.2 260 17:18 19.02.2020
2323 Clouds 6 1015 81 10000 9.3 270 16:43 19.02.2020
2324 Clouds 7 1016 70 10000 6.7 270 16:19 19.02.2020
2325 Clouds 7 1016 70 10000 7.7 270 15:57 19.02.2020
2326 Clouds 7 1016 75 10000 6.7 270 15:38 19.02.2020
2327 Clouds 7 1016 75 10000 6.7 270 15:19 19.02.2020
2328 Clouds 7 1016 81 10000 7.7 260 14:41 19.02.2020
2329 Clouds 7 1016 75 10000 6.2 260 14:23 19.02.2020
2330 Clouds 7 1013 70 10000 12.3 270 13:55 19.02.2020
2331 Clouds 7 1013 70 10000 12.3 270 13:37 19.02.2020
2332 Clouds 7 1013 81 10000 9.3 280 13:18 19.02.2020
2333 Clouds 6 1012 75 10000 10.8 280 12:39 19.02.2020
2334 Clouds 6 1012 75 10000 10.8 280 12:39 19.02.2020
2335 Clouds 6 1014 75 10000 8.2 260 12:19 19.02.2020
2336 Clouds 6 1014 75 10000 8.2 260 12:19 19.02.2020
2337 Clouds 6 1012 75 10000 7.7 280 11:55 19.02.2020
2338 Clouds 6 1012 75 10000 7.7 280 11:37 19.02.2020
2339 Clouds 6 1013 70 10000 8.2 260 11:18 19.02.2020
2340 Clouds 6 1011 80 10000 7.7 290 10:56 19.02.2020
2341 Clouds 6 1011 80 10000 7.7 290 10:36 19.02.2020
2342 Rain 5 1011 80 8000 7.2 270 10:18 19.02.2020
2343 Clouds 5 1010 81 10000 6.7 260 09:54 19.02.2020
2344 Clouds 5 1010 81 10000 6.7 260 09:36 19.02.2020
2345 Rain 5 1012 80 10000 5.1 270 09:18 19.02.2020
2346 Clouds 4 1010 80 10000 7.7 270 08:42 19.02.2020
2347 Clouds 4 1010 80 10000 7.7 270 08:42 19.02.2020
2348 Rain 4 1011 80 10000 4.6 250 08:23 19.02.2020
2349 Clouds 4 1009 80 10000 5.1 290 07:41 19.02.2020
2350 Rain 4 1010 80 10000 5.7 270 07:20 19.02.2020
2351 Clouds 4 1008 75 8000 7.2 280 06:47 19.02.2020
2352 Clouds 5 1010 80 10000 5.1 260 06:19 19.02.2020
2353 Clouds 5 1008 93 10000 4.1 230 04:18 19.02.2020
2354 Drizzle 4 1007 93 10000 4.6 240 02:52 19.02.2020
2355 Clouds 5 1009 93 10000 5.7 230 02:29 19.02.2020
2356 Rain 5 1009 93 10000 7.7 260 01:23 19.02.2020
2357 Clouds 6 1007 81 10000 8.2 210 00:47 19.02.2020
2358 Rain 7 1008 87 10000 9.8 210 00:29 19.02.2020
2359 Drizzle 7 1009 93 9000 6.2 220 23:42 18.02.2020
2360 Clouds 7 1010 87 10000 9.3 210 23:20 18.02.2020
2361 Clouds 7 1010 81 10000 7.2 220 22:57 18.02.2020
2362 Clouds 7 1010 81 10000 7.2 220 22:39 18.02.2020
2363 Rain 7 1011 87 9000 7.7 210 22:19 18.02.2020
2364 Drizzle 7 1011 81 10000 6.7 220 21:55 18.02.2020
2365 Drizzle 7 1011 81 10000 6.7 220 21:55 18.02.2020
2366 Drizzle 7 1011 81 10000 6.7 220 21:37 18.02.2020
2367 Clouds 7 1012 75 10000 9.8 220 21:18 18.02.2020
2368 Clouds 7 1012 75 10000 9.8 220 21:18 18.02.2020
2369 Drizzle 7 1012 81 10000 6.2 230 20:56 18.02.2020
2370 Drizzle 7 1012 81 10000 6.2 230 20:56 18.02.2020
2371 Drizzle 7 1012 81 10000 6.2 230 20:56 18.02.2020
2372 Drizzle 7 1012 81 10000 6.2 230 20:38 18.02.2020
2373 Drizzle 7 1012 81 10000 6.2 230 20:38 18.02.2020
2374 Clouds 7 1013 75 10000 8.7 220 20:19 18.02.2020
2375 Rain 7 1013 81 10000 6.7 230 19:42 18.02.2020
2376 Clouds 7 1014 81 10000 9.3 230 19:20 18.02.2020
2377 Rain 7 1013 75 8000 6.7 240 18:59 18.02.2020
2378 Rain 7 1013 75 8000 6.7 240 18:41 18.02.2020
2379 Rain 7 1014 81 8000 9.3 230 18:20 18.02.2020
2380 Clouds 7 1014 65 10000 6.2 240 17:56 18.02.2020
2381 Clouds 7 1014 65 10000 6.2 240 17:37 18.02.2020
2382 Clouds 8 1015 70 10000 9.3 240 17:18 18.02.2020
2383 Clouds 8 1014 61 10000 7.7 240 16:39 18.02.2020
2384 Clouds 8 1015 70 10000 10.3 240 16:19 18.02.2020
2385 Clouds 8 1014 61 10000 9.3 250 15:41 18.02.2020
2386 Clouds 8 1016 65 10000 9.3 240 15:20 18.02.2020
2387 Clouds 8 1015 65 10000 8.7 250 14:57 18.02.2020
2388 Clouds 8 1015 65 10000 8.7 250 14:39 18.02.2020
2389 Clouds 8 1016 66 10000 9.3 240 14:20 18.02.2020
2390 Clouds 7 1015 70 10000 8.2 250 13:56 18.02.2020
2391 Clouds 7 1015 70 10000 8.2 250 13:37 18.02.2020
2392 Clouds 7 1016 70 10000 9.8 250 13:19 18.02.2020
2393 Clouds 7 1015 70 10000 7.7 250 12:42 18.02.2020
2394 Drizzle 7 1016 81 6000 7.7 250 12:23 18.02.2020
2395 Clouds 7 1015 70 10000 8.7 250 11:55 18.02.2020
2396 Clouds 7 1015 70 10000 8.7 250 11:37 18.02.2020
2397 Clouds 7 1016 70 10000 8.7 240 11:18 18.02.2020
2398 Clouds 7 1014 75 10000 7.7 250 10:42 18.02.2020
2399 Clouds 7 1016 70 10000 8.7 240 10:22 18.02.2020
2400 Clouds 6 1014 75 10000 8.2 250 09:56 18.02.2020
2401 Clouds 6 1014 75 10000 8.2 250 09:56 18.02.2020
2402 Clouds 6 1014 75 10000 8.2 250 09:38 18.02.2020
2403 Clouds 6 1015 75 10000 8.2 240 09:19 18.02.2020
2404 Clouds 6 1015 75 10000 8.2 250 08:55 18.02.2020
2405 Clouds 6 1013 80 10000 8.7 250 08:37 18.02.2020
2406 Clouds 6 1014 70 10000 8.2 240 08:18 18.02.2020
2407 Rain 5 1013 80 8000 10.3 260 07:45 18.02.2020
2408 Clouds 5 1014 75 10000 7.7 240 07:25 18.02.2020
2409 Clouds 5 1012 75 10000 7.2 240 06:50 18.02.2020
2410 Clouds 5 1013 80 10000 7.7 250 06:28 18.02.2020
2411 Rain 5 1012 75 10000 8.7 260 05:47 18.02.2020
2412 Rain 6 1013 80 10000 7.2 250 05:18 18.02.2020
2413 Clouds 7 1011 81 10000 6.7 250 03:41 18.02.2020
2414 Clouds 7 1011 87 10000 6.7 240 02:58 18.02.2020
2415 Clouds 7 1011 87 10000 6.2 240 01:25 18.02.2020
2416 Clouds 7 1009 87 10000 4.6 230 00:40 18.02.2020
2417 Clouds 7 1010 81 10000 6.7 240 00:18 18.02.2020
2418 Clouds 7 1009 87 10000 6.2 250 23:39 17.02.2020
2419 Clouds 7 1010 87 10000 7.2 230 23:19 17.02.2020
2420 Clouds 7 1009 87 10000 5.7 230 22:58 17.02.2020
2421 Clouds 7 1009 87 10000 5.7 230 22:39 17.02.2020
2422 Clouds 7 1009 87 10000 7.7 230 22:18 17.02.2020
2423 Clouds 7 1008 81 10000 6.7 240 21:39 17.02.2020
2424 Clouds 7 1008 81 10000 6.2 240 21:19 17.02.2020
2425 Clouds 7 1008 81 10000 6.7 230 20:55 17.02.2020
2426 Clouds 7 1008 81 10000 6.7 230 20:37 17.02.2020
2427 Clouds 7 1009 87 10000 6.2 220 20:19 17.02.2020
2428 Rain 7 1008 81 10000 5.7 230 19:43 17.02.2020
2429 Rain 7 1008 87 7000 9.3 240 19:22 17.02.2020
2430 Rain 7 1008 87 7000 9.3 240 19:22 17.02.2020
2431 Clouds 7 1008 70 10000 7.2 240 18:58 17.02.2020
2432 Clouds 8 1008 70 10000 7.2 240 18:36 17.02.2020
2433 Clouds 8 1008 75 10000 8.7 240 18:18 17.02.2020
2434 Clouds 8 1007 70 10000 6.2 240 17:54 17.02.2020
2435 Clouds 8 1007 70 10000 6.2 240 17:36 17.02.2020
2436 Clouds 8 1007 70 10000 9.8 240 17:18 17.02.2020
2437 Clouds 8 1007 70 10000 8.7 240 16:42 17.02.2020
2438 Rain 8 1007 70 10000 9.3 230 16:22 17.02.2020
2439 Clouds 8 1006 75 10000 9.3 230 15:57 17.02.2020
2440 Clouds 8 1006 75 10000 9.3 230 15:39 17.02.2020
2441 Rain 8 1007 75 10000 10.3 230 15:21 17.02.2020
2442 Rain 8 1006 70 10000 8.2 230 14:44 17.02.2020
2443 Clouds 9 1007 70 10000 11.3 220 14:25 17.02.2020
2444 Rain 9 1007 70 10000 12.3 220 13:58 17.02.2020
2445 Rain 9 1007 70 10000 12.3 220 13:39 17.02.2020
2446 Clouds 9 1007 71 10000 11.8 220 13:19 17.02.2020
2447 Clouds 9 1006 66 10000 11.3 230 12:47 17.02.2020
2448 Clouds 9 1007 76 10000 11.8 220 12:26 17.02.2020
2449 Clouds 9 1006 66 10000 9.8 230 11:59 17.02.2020
2450 Clouds 9 1006 66 10000 9.8 230 11:40 17.02.2020
2451 Clouds 9 1006 66 10000 11.3 230 11:21 17.02.2020
2452 Clouds 8 1006 70 10000 9.3 230 10:55 17.02.2020
2453 Clouds 8 1006 70 10000 9.3 230 10:37 17.02.2020
2454 Clouds 8 1006 75 10000 11.3 220 10:19 17.02.2020
2455 Clouds 7 1006 65 10000 8.2 220 09:42 17.02.2020
2456 Clouds 7 1006 65 10000 8.2 220 09:42 17.02.2020
2457 Clear 7 1006 75 10000 9.8 210 09:23 17.02.2020
2458 Clouds 7 1005 65 10000 8.2 230 08:59 17.02.2020
2459 Clouds 7 1005 65 10000 8.2 230 08:41 17.02.2020
2460 Clear 6 1006 70 10000 9.8 210 08:21 17.02.2020
2461 Clear 6 1006 70 10000 9.8 210 08:21 17.02.2020
2462 Clouds 6 1005 65 10000 8.2 240 07:54 17.02.2020
2463 Clouds 7 1005 75 10000 10.8 230 07:26 17.02.2020
2464 Clouds 7 1004 65 10000 10.3 240 06:56 17.02.2020
2465 Clouds 7 1004 65 10000 10.3 240 06:36 17.02.2020
2466 Clouds 7 1004 65 10000 10.3 240 05:59 17.02.2020
2467 Clouds 7 1004 65 10000 10.3 240 05:38 17.02.2020
2468 Clouds 8 1001 70 10000 10.3 240 03:53 17.02.2020
2469 Clouds 8 1001 75 10000 11.3 240 02:19 17.02.2020
2470 Clouds 8 999 75 10000 8.2 240 00:59 17.02.2020
2471 Clouds 8 998 81 10000 8.2 240 00:25 17.02.2020
2472 Clouds 8 998 81 10000 8.2 240 23:56 16.02.2020
2473 Clouds 8 998 81 10000 8.2 240 23:36 16.02.2020
2474 Clouds 8 998 87 10000 10.8 230 23:18 16.02.2020
2475 Clouds 8 997 87 10000 8.7 240 22:54 16.02.2020
2476 Clouds 8 997 87 10000 8.7 240 22:36 16.02.2020
2477 Clouds 8 997 87 10000 10.8 240 22:18 16.02.2020
2478 Clouds 8 996 87 10000 9.3 230 21:42 16.02.2020
2479 Rain 8 995 87 10000 7.2 230 21:24 16.02.2020
2480 Rain 8 995 87 5000 7.2 240 20:58 16.02.2020
2481 Rain 8 995 87 5000 7.2 240 20:40 16.02.2020
2482 Rain 8 995 87 5000 7.2 240 20:40 16.02.2020
2483 Rain 8 995 87 5000 7.2 240 20:40 16.02.2020
2484 Rain 8 995 87 5000 7.2 240 20:40 16.02.2020
2485 Rain 8 995 93 7000 6.7 230 20:22 16.02.2020
2486 Rain 8 994 93 5000 11.8 280 19:59 16.02.2020
2487 Rain 8 994 93 5000 11.8 280 19:40 16.02.2020
2488 Rain 8 993 93 5000 9.8 290 19:19 16.02.2020
2489 Rain 8 992 93 3000 8.7 290 18:59 16.02.2020
2490 Rain 9 992 93 3000 8.7 290 18:40 16.02.2020
2491 Rain 9 992 100 6000 7.7 290 18:22 16.02.2020
2492 Clouds 11 990 76 10000 8.7 220 17:44 16.02.2020
2493 Clouds 12 990 93 10000 5.7 230 17:20 16.02.2020
2494 Rain 12 992 93 3000 5.1 260 16:57 16.02.2020
2495 Rain 12 992 93 3000 5.1 260 16:39 16.02.2020
2496 Rain 12 993 93 4200 3.1 240 16:21 16.02.2020
2497 Drizzle 12 994 93 3700 7.7 260 15:56 16.02.2020
2498 Drizzle 11 994 93 3700 7.7 260 15:37 16.02.2020
2499 Drizzle 12 994 93 3700 9.8 270 15:18 16.02.2020
2500 Drizzle 13 994 82 7000 10.3 210 14:39 16.02.2020
2501 Clouds 13 994 82 10000 11.3 210 14:21 16.02.2020
2502 Drizzle 13 994 82 10000 10.8 220 13:46 16.02.2020
2503 Clouds 13 995 82 10000 14.4 210 13:24 16.02.2020
2504 Drizzle 13 995 82 10000 12.3 220 12:55 16.02.2020
2505 Drizzle 13 995 82 10000 12.3 220 12:36 16.02.2020
2506 Drizzle 13 995 87 6000 13.9 210 12:18 16.02.2020
2507 Drizzle 12 995 87 9000 12.3 210 11:39 16.02.2020
2508 Drizzle 12 995 87 4400 13.9 210 11:18 16.02.2020
2509 Drizzle 12 995 87 10000 12.9 210 10:56 16.02.2020
2510 Drizzle 12 995 87 10000 12.9 210 10:38 16.02.2020
2511 Drizzle 12 995 87 10000 12.9 210 10:38 16.02.2020
2512 Rain 12 995 93 6000 12.9 200 10:20 16.02.2020
2513 Rain 12 995 87 10000 13.4 210 09:56 16.02.2020
2514 Rain 12 995 87 10000 13.4 210 09:37 16.02.2020
2515 Rain 12 996 93 7000 11.8 200 09:19 16.02.2020
2516 Clouds 12 996 81 10000 13.4 210 08:46 16.02.2020
2517 Clouds 12 996 87 10000 13.9 200 08:22 16.02.2020
2518 Clouds 12 996 87 10000 13.9 200 08:22 16.02.2020
2519 Clouds 12 996 87 10000 13.9 200 08:22 16.02.2020
2520 Clouds 12 997 87 10000 11.8 200 07:56 16.02.2020
2521 Rain 12 997 81 10000 12.3 190 07:34 16.02.2020
2522 Rain 12 997 76 10000 12.3 200 06:36 16.02.2020
2523 Rain 12 998 71 10000 10.3 210 05:37 16.02.2020
2524 Clouds 13 1000 76 10000 11.8 210 04:30 16.02.2020
2525 Clouds 13 1001 66 10000 11.8 210 02:37 16.02.2020
2526 Clouds 12 1002 66 10000 10.3 220 01:57 16.02.2020
2527 Clouds 12 1002 66 10000 10.3 220 01:37 16.02.2020
2528 Clouds 12 1002 71 10000 11.3 200 01:19 16.02.2020
2529 Clouds 12 1002 62 10000 11.8 210 00:41 16.02.2020
2530 Clouds 12 1002 71 10000 12.9 200 00:21 16.02.2020
2531 Clouds 12 1002 62 10000 12.3 210 23:43 15.02.2020
2532 Clouds 12 1002 66 10000 11.3 200 23:24 15.02.2020
2533 Clouds 12 1003 66 10000 10.8 190 22:57 15.02.2020
2534 Clouds 12 1003 66 10000 10.8 190 22:39 15.02.2020
2535 Rain 11 1003 66 10000 11.8 190 22:19 15.02.2020
2536 Clouds 11 1004 66 10000 9.8 190 21:43 15.02.2020
2537 Rain 11 1005 76 10000 10.3 190 21:24 15.02.2020
2538 Rain 11 1005 76 10000 9.3 190 20:58 15.02.2020
2539 Rain 11 1006 66 10000 8.7 200 20:37 15.02.2020
2540 Drizzle 11 1007 71 10000 10.3 190 20:19 15.02.2020
2541 Clouds 12 1007 66 10000 7.2 200 19:42 15.02.2020
2542 Clouds 11 1007 71 10000 8.7 190 19:22 15.02.2020
2543 Clouds 11 1008 76 10000 6.7 190 18:43 15.02.2020
2544 Clouds 12 1008 76 10000 9.3 190 18:22 15.02.2020
2545 Clouds 11 1009 76 10000 6.7 190 17:57 15.02.2020
2546 Clouds 11 1009 76 10000 6.7 190 17:57 15.02.2020
2547 Clouds 11 1009 76 10000 6.7 190 17:37 15.02.2020
2548 Clouds 12 1009 76 10000 7.7 180 17:19 15.02.2020
2549 Clouds 12 1010 71 10000 6.2 200 16:42 15.02.2020
2550 Clouds 11 1010 76 10000 8.7 190 16:24 15.02.2020
2551 Clouds 11 1011 76 10000 6.7 200 15:58 15.02.2020
2552 Clouds 12 1011 76 10000 6.7 200 15:40 15.02.2020
2553 Clouds 11 1011 76 10000 8.2 190 15:21 15.02.2020
2554 Clouds 11 1012 81 10000 7.2 210 14:44 15.02.2020
2555 Clouds 11 1012 81 10000 7.7 200 14:19 15.02.2020
2556 Clouds 10 1013 87 10000 7.7 200 13:56 15.02.2020
2557 Clouds 10 1013 87 10000 7.7 200 13:37 15.02.2020
2558 Clouds 10 1013 81 10000 7.7 200 13:19 15.02.2020
2559 Clouds 9 1013 87 10000 7.7 200 12:42 15.02.2020
2560 Clouds 9 1013 87 10000 7.7 190 12:23 15.02.2020
2561 Clouds 9 1014 81 10000 6.7 200 11:52 15.02.2020
2562 Clouds 9 1014 81 10000 6.7 200 11:33 15.02.2020
2563 Clouds 9 1015 87 10000 5.7 200 10:57 15.02.2020
2564 Clouds 8 1015 87 10000 5.7 200 10:38 15.02.2020
2565 Clouds 8 1015 87 10000 8.2 200 10:20 15.02.2020
2566 Drizzle 8 1015 93 3000 5.7 200 09:44 15.02.2020
2567 Drizzle 8 1015 87 4000 5.7 200 09:25 15.02.2020
2568 Clouds 7 1016 81 10000 5.1 200 08:45 15.02.2020
2569 Clouds 7 1015 87 10000 6.2 200 08:26 15.02.2020
2570 Clouds 7 1016 81 10000 6.2 200 07:59 15.02.2020
2571 Clouds 7 1016 81 10000 6.2 200 07:59 15.02.2020
2572 Clouds 7 1016 81 10000 6.2 200 07:39 15.02.2020
2573 Clouds 7 1016 87 10000 5.7 190 07:20 15.02.2020
2574 Clouds 7 1016 81 10000 5.1 210 06:37 15.02.2020
2575 Clouds 7 1016 81 10000 6.2 210 05:56 15.02.2020
2576 Clouds 7 1017 81 10000 5.7 210 04:49 15.02.2020
2577 Clouds 7 1017 81 10000 6.7 190 04:21 15.02.2020
2578 Clouds 7 1017 81 10000 5.7 200 02:58 15.02.2020
2579 Clouds 7 1018 87 10000 5.7 200 02:24 15.02.2020
2580 Clouds 7 1018 75 10000 5.1 200 01:50 15.02.2020
2581 Clouds 7 1018 81 10000 6.7 200 01:31 15.02.2020
2582 Clouds 6 1018 81 10000 6.2 200 00:28 15.02.2020
2583 Clouds 6 1019 81 10000 5.7 200 23:47 14.02.2020
2584 Clouds 6 1018 81 10000 6.7 190 23:21 14.02.2020
2585 Clouds 6 1019 80 10000 4.6 190 22:58 14.02.2020
2586 Clouds 6 1019 80 10000 4.6 190 22:40 14.02.2020
2587 Clouds 6 1019 81 10000 6.7 190 22:21 14.02.2020
2588 Clouds 6 1020 80 10000 4.6 180 21:49 14.02.2020
2589 Clouds 6 1019 81 10000 5.1 190 21:30 14.02.2020
2590 Clouds 6 1020 80 10000 4.1 200 20:48 14.02.2020
2591 Clouds 6 1020 81 10000 4.6 180 20:21 14.02.2020
2592 Clouds 6 1020 75 10000 5.1 220 19:59 14.02.2020
2593 Clouds 6 1020 75 10000 5.1 220 19:41 14.02.2020
2594 Clouds 6 1020 75 10000 5.1 220 19:41 14.02.2020
2595 Clouds 6 1020 75 10000 5.1 220 19:41 14.02.2020
2596 Clouds 6 1020 75 10000 5.1 220 19:41 14.02.2020
2597 Clouds 6 1020 81 10000 3.6 180 19:23 14.02.2020
2598 Clouds 6 1020 75 10000 3.6 210 18:57 14.02.2020
2599 Clouds 6 1020 75 10000 3.6 210 18:39 14.02.2020
2600 Clouds 6 1020 81 10000 3.6 200 18:20 14.02.2020
2601 Clouds 6 1020 75 10000 3.1 220 17:44 14.02.2020
2602 Clouds 6 1019 81 10000 5.1 230 17:22 14.02.2020
2603 Clouds 7 1019 75 10000 2.6 210 16:59 14.02.2020
2604 Clouds 6 1019 75 10000 2.6 210 16:40 14.02.2020
2605 Clouds 7 1019 75 10000 4.6 220 16:22 14.02.2020
2606 Clouds 7 1019 70 10000 4.1 270 15:56 14.02.2020
2607 Clouds 7 1019 70 10000 4.1 270 15:38 14.02.2020
2608 Clouds 7 1019 75 10000 4.1 230 15:20 14.02.2020
2609 Clouds 7 1019 70 10000 3.6 260 14:58 14.02.2020
2610 Clouds 7 1019 70 10000 3.6 260 14:40 14.02.2020
2611 Clouds 7 1019 75 10000 3.1 260 14:22 14.02.2020
2612 Clouds 7 1019 75 10000 3.1 260 14:22 14.02.2020
2613 Clouds 7 1019 70 10000 2.6 260 13:55 14.02.2020
2614 Clouds 7 1019 70 10000 2.6 260 13:37 14.02.2020
2615 Clouds 7 1019 75 10000 1.5 240 13:19 14.02.2020
2616 Clouds 6 1018 70 10000 1.5 280 12:56 14.02.2020
2617 Clouds 6 1018 70 10000 1.5 280 12:56 14.02.2020
2618 Clouds 6 1018 70 10000 1.5 280 12:38 14.02.2020
2619 Clouds 6 1018 70 10000 1.5 280 12:38 14.02.2020
2620 Clouds 6 1018 75 10000 2.6 300 12:19 14.02.2020
2621 Clouds 6 1017 80 10000 1.5 340 11:55 14.02.2020
2622 Clouds 6 1017 80 10000 1.5 340 11:36 14.02.2020
2623 Clouds 6 1017 75 10000 1.5 310 11:18 14.02.2020
2624 Clouds 6 1016 80 10000 2.1 310 10:41 14.02.2020
2625 Clouds 5 1016 93 10000 1.5 300 10:22 14.02.2020
2626 Clouds 5 1015 93 10000 2.1 300 09:45 14.02.2020
2627 Clouds 5 1015 93 10000 1.5 350 09:24 14.02.2020
2628 Clouds 4 1013 93 9000 2.6 40 08:57 14.02.2020
2629 Clouds 5 1013 93 9000 2.6 40 08:39 14.02.2020
2630 Clouds 5 1013 93 9000 2.6 30 08:21 14.02.2020
2631 Clouds 5 1012 93 9000 3.1 10 07:49 14.02.2020
2632 Clouds 5 1012 93 10000 2.6 270 07:29 14.02.2020
2633 Rain 5 1010 100 5000 4.1 330 06:39 14.02.2020
2634 Clouds 5 1010 93 10000 2.1 250 06:20 14.02.2020
2635 Clouds 5 1008 93 10000 2.1 250 05:29 14.02.2020
2636 Mist 5 1006 93 3500 3.1 270 03:49 14.02.2020
2637 Mist 5 1005 93 2000 2.6 280 02:58 14.02.2020
2638 Mist 5 1004 100 5000 2.1 270 01:57 14.02.2020
2639 Mist 5 1002 93 5000 1 210 00:52 14.02.2020
2640 Mist 5 1002 100 3400 2.6 260 00:31 14.02.2020
2641 Clouds 5 1001 93 6000 1 170 23:59 13.02.2020
2642 Clouds 5 1001 93 6000 1 170 23:41 13.02.2020
2643 Mist 5 1000 100 3200 2.1 210 23:19 13.02.2020
2644 Clouds 5 999 93 6000 2.6 180 22:40 13.02.2020
2645 Drizzle 5 999 93 4900 1.5 200 22:19 13.02.2020
2646 Drizzle 5 999 100 6000 1.5 150 21:58 13.02.2020
2647 Drizzle 5 999 100 6000 1.5 150 21:40 13.02.2020
2648 Clouds 5 997 93 10000 2.6 180 21:20 13.02.2020
2649 Clouds 5 998 100 8000 1.5 140 20:43 13.02.2020
2650 Drizzle 5 996 93 8000 2.6 150 20:23 13.02.2020
2651 Clouds 5 997 93 10000 2.1 150 19:58 13.02.2020
2652 Clouds 5 997 93 10000 2.1 150 19:40 13.02.2020
2653 Clouds 5 996 93 10000 3.1 160 19:21 13.02.2020
2654 Clouds 5 996 86 10000 3.6 160 18:59 13.02.2020
2655 Clouds 5 996 86 10000 3.6 160 18:41 13.02.2020
2656 Rain 5 995 100 10000 3.1 160 18:22 13.02.2020
2657 Clouds 4 996 93 10000 4.6 160 17:58 13.02.2020
2658 Clouds 4 996 93 10000 4.6 160 17:37 13.02.2020
2659 Clouds 4 995 93 10000 4.1 160 17:19 13.02.2020
2660 Snow 4 996 86 10000 5.7 160 16:55 13.02.2020
2661 Snow 4 996 86 10000 5.7 160 16:36 13.02.2020
2662 Snow 4 996 86 10000 5.7 160 16:36 13.02.2020
2663 Clouds 4 994 93 10000 4.6 170 16:18 13.02.2020
2664 Snow 4 997 93 9000 6.7 150 15:55 13.02.2020
2665 Snow 3 997 93 9000 6.7 150 15:36 13.02.2020
2666 Clouds 3 995 93 10000 5.7 160 15:18 13.02.2020
2667 Snow 3 998 93 9000 8.2 150 14:55 13.02.2020
2668 Snow 3 998 93 9000 8.2 150 14:37 13.02.2020
2669 Rain 3 996 93 9000 7.7 150 14:18 13.02.2020
2670 Rain 3 997 93 8000 6.2 140 13:41 13.02.2020
2671 Rain 3 997 93 10000 6.2 140 13:18 13.02.2020
2672 Rain 3 1001 86 10000 5.7 150 12:54 13.02.2020
2673 Rain 4 1001 86 10000 5.7 150 12:36 13.02.2020
2674 Rain 4 999 93 10000 6.2 140 12:18 13.02.2020
2675 Rain 4 1003 93 10000 5.1 160 11:43 13.02.2020
2676 Drizzle 4 1001 86 10000 6.2 150 11:19 13.02.2020
2677 Rain 4 1004 86 8000 4.6 150 10:46 13.02.2020
2678 Rain 3 1004 86 4000 4.6 160 10:27 13.02.2020
2679 Drizzle 3 1004 86 10000 4.6 160 09:51 13.02.2020
2680 Clouds 3 1004 80 10000 4.6 150 09:26 13.02.2020
2681 Clouds 3 1006 86 10000 4.1 160 08:54 13.02.2020
2682 Clouds 3 1006 86 10000 4.1 160 08:36 13.02.2020
2683 Clouds 3 1005 86 10000 4.6 150 08:18 13.02.2020
2684 Clouds 2 1006 86 10000 4.6 170 07:38 13.02.2020
2685 Clouds 2 1007 86 10000 4.1 170 07:20 13.02.2020
2686 Clouds 2 1009 91 10000 3.1 190 06:44 13.02.2020
2687 Clouds 2 1009 86 10000 4.1 180 06:18 13.02.2020
2688 Clouds 2 1009 93 10000 3.6 190 05:30 13.02.2020
2689 Clouds 1 1010 84 10000 4.1 200 04:25 13.02.2020
2690 Clouds 2 1010 84 10000 3.6 210 03:51 13.02.2020
2691 Clouds 2 1011 84 10000 4.6 200 03:20 13.02.2020
2692 Clouds 2 1011 84 10000 3.6 220 02:50 13.02.2020
2693 Rain 2 1011 79 10000 4.1 210 02:19 13.02.2020
2694 Clouds 3 1012 78 10000 5.1 200 01:32 13.02.2020
2695 Clouds 3 1011 78 10000 5.1 240 00:39 13.02.2020
2696 Clouds 3 1012 78 10000 6.2 220 00:21 13.02.2020
2697 Clouds 3 1011 78 10000 6.2 250 23:39 12.02.2020
2698 Rain 3 1012 75 10000 5.7 240 23:21 12.02.2020
2699 Clouds 4 1010 75 10000 6.2 250 22:45 12.02.2020
2700 Clouds 4 1012 75 10000 5.7 240 22:26 12.02.2020
2701 Clouds 4 1010 80 10000 7.2 250 21:58 12.02.2020
2702 Clouds 4 1010 80 10000 7.2 250 21:40 12.02.2020
2703 Rain 4 1012 75 10000 5.7 250 21:19 12.02.2020
2704 Clouds 4 1010 75 10000 7.2 250 20:57 12.02.2020
2705 Clouds 4 1010 75 10000 7.2 250 20:39 12.02.2020
2706 Rain 4 1011 73 10000 5.7 250 20:19 12.02.2020
2707 Clouds 4 1009 75 10000 8.7 250 19:55 12.02.2020
2708 Clouds 4 1009 75 10000 8.7 250 19:36 12.02.2020
2709 Clouds 4 1009 75 10000 8.7 250 19:36 12.02.2020
2710 Clouds 5 1011 70 10000 6.7 260 19:18 12.02.2020
2711 Clouds 5 1009 75 10000 9.8 250 18:45 12.02.2020
2712 Rain 5 1011 73 10000 7.7 250 18:19 12.02.2020
2713 Clouds 5 1008 73 10000 8.2 250 17:43 12.02.2020
2714 Clouds 5 1008 73 10000 8.2 250 17:43 12.02.2020
2715 Rain 5 1008 70 10000 10.3 260 17:21 12.02.2020
2716 Clouds 5 1007 70 10000 12.3 260 16:59 12.02.2020
2717 Clouds 6 1007 68 10000 12.3 260 16:40 12.02.2020
2718 Clouds 6 1009 70 10000 9.3 260 16:20 12.02.2020
2719 Clouds 6 1006 70 10000 11.8 260 15:43 12.02.2020
2720 Clouds 6 1009 70 10000 10.8 260 15:24 12.02.2020
2721 Clouds 6 1006 68 10000 14.4 270 14:59 12.02.2020
2722 Clouds 6 1006 70 10000 14.4 270 14:41 12.02.2020
2723 Clouds 6 1008 70 10000 9.3 260 14:21 12.02.2020
2724 Clouds 6 1005 70 10000 13.4 260 13:58 12.02.2020
2725 Clouds 6 1005 70 10000 13.4 260 13:40 12.02.2020
2726 Clouds 6 1008 70 10000 9.8 260 13:20 12.02.2020
2727 Clouds 6 1005 75 10000 11.8 260 12:57 12.02.2020
2728 Clouds 6 1005 75 10000 11.8 260 12:57 12.02.2020
2729 Clouds 6 1005 75 10000 11.8 260 12:38 12.02.2020
2730 Clouds 6 1007 70 10000 8.2 260 12:18 12.02.2020
2731 Clouds 5 1004 75 10000 11.3 260 11:58 12.02.2020
2732 Clouds 5 1004 75 10000 11.3 260 11:39 12.02.2020
2733 Clouds 5 1006 70 10000 9.3 250 11:20 12.02.2020
2734 Clouds 5 1003 80 10000 11.8 260 10:56 12.02.2020
2735 Clouds 5 1003 80 10000 11.8 260 10:38 12.02.2020
2736 Clouds 5 1006 75 10000 9.3 250 10:20 12.02.2020
2737 Clouds 5 1006 75 10000 9.3 250 10:20 12.02.2020
2738 Clouds 5 1005 71 10000 9.8 250 09:42 12.02.2020
2739 Clouds 5 1005 71 10000 9.8 250 09:42 12.02.2020
2740 Clouds 4 1005 71 10000 9.3 260 09:24 12.02.2020
2741 Clouds 4 1005 71 10000 9.3 260 09:24 12.02.2020
2742 Clouds 4 1002 80 10000 10.3 250 08:58 12.02.2020
2743 Clouds 4 1002 80 10000 10.3 250 08:38 12.02.2020
2744 Clouds 4 1001 70 10000 10.8 250 08:20 12.02.2020
2745 Clouds 4 1001 70 10000 10.8 250 08:20 12.02.2020
2746 Clouds 4 1001 70 10000 10.8 250 08:20 12.02.2020
2747 Clouds 4 1001 80 10000 7.7 250 07:47 12.02.2020
2748 Clouds 4 1001 80 10000 7.7 250 07:47 12.02.2020
2749 Clouds 4 1001 70 7000 10.8 250 07:24 12.02.2020
2750 Clouds 4 1001 80 10000 9.8 250 06:59 12.02.2020
2751 Clouds 4 1001 80 10000 9.8 250 06:41 12.02.2020
2752 Rain 4 1003 70 10000 9.3 250 06:18 12.02.2020
2753 Drizzle 4 1003 70 10000 10.3 250 05:21 12.02.2020
2754 Clouds 4 1000 71 10000 10.3 250 04:42 12.02.2020
2755 Clouds 4 1000 71 6000 8.7 250 03:57 12.02.2020
2756 Clouds 4 1002 65 10000 10.3 250 03:28 12.02.2020
2757 Rain 4 1000 71 6000 10.3 260 02:44 12.02.2020
2758 Clouds 4 1002 71 10000 8.2 250 02:25 12.02.2020
2759 Clouds 4 1000 69 8000 11.3 260 01:34 12.02.2020
2760 Clouds 4 999 67 8000 12.9 260 00:41 12.02.2020
2761 Clouds 5 1002 65 10000 10.3 250 00:22 12.02.2020
2762 Clouds 4 999 67 8000 9.8 260 23:49 11.02.2020
2763 Clouds 5 1001 65 10000 9.8 260 23:31 11.02.2020
2764 Clouds 5 998 80 6000 9.8 260 22:58 11.02.2020
2765 Clouds 4 998 80 6000 9.8 260 22:40 11.02.2020
2766 Clouds 5 1001 67 10000 8.7 260 22:20 11.02.2020
2767 Thunderstorm 4 998 80 6000 10.8 260 21:57 11.02.2020
2768 Thunderstorm 4 998 80 6000 10.8 260 21:39 11.02.2020
2769 Clouds 4 998 67 8000 13.9 270 21:19 11.02.2020
2770 Clouds 4 998 67 10000 8.7 250 20:59 11.02.2020
2771 Clouds 4 998 67 10000 8.7 250 20:39 11.02.2020
2772 Clouds 4 1000 65 10000 10.3 260 20:19 11.02.2020
2773 Clouds 4 998 65 10000 10.3 260 19:58 11.02.2020
2774 Clouds 4 998 65 10000 10.3 260 19:40 11.02.2020
2775 Clouds 4 1000 65 10000 8.2 250 19:22 11.02.2020
2776 Clouds 4 998 65 8000 9.3 260 18:46 11.02.2020
2777 Clouds 4 1000 65 10000 10.3 270 18:28 11.02.2020
2778 Clouds 4 997 65 10000 11.8 260 17:59 11.02.2020
2779 Clouds 4 997 65 10000 11.8 260 17:40 11.02.2020
2780 Drizzle 5 999 70 4800 13.9 270 17:20 11.02.2020
2781 Clouds 5 996 70 10000 14.4 260 16:58 11.02.2020
2782 Clouds 5 996 70 10000 14.4 260 16:58 11.02.2020
2783 Clouds 5 996 70 10000 14.4 260 16:40 11.02.2020
2784 Drizzle 5 999 70 10000 10.3 260 16:22 11.02.2020
2785 Clouds 5 995 75 10000 13.4 260 15:59 11.02.2020
2786 Clouds 6 995 75 10000 13.4 260 15:41 11.02.2020
2787 Drizzle 5 998 75 10000 10.3 260 15:21 11.02.2020
2788 Rain 5 994 86 7000 11.8 260 14:43 11.02.2020
2789 Rain 5 994 86 7000 11.8 260 14:43 11.02.2020
2790 Clouds 5 997 75 10000 11.3 250 14:19 11.02.2020
2791 Rain 5 994 80 4000 10.8 250 13:58 11.02.2020
2792 Rain 4 994 80 4000 10.8 250 13:39 11.02.2020
2793 Rain 4 997 86 8000 9.8 250 13:20 11.02.2020
2794 Rain 4 993 80 4000 11.8 250 12:57 11.02.2020
2795 Rain 4 993 80 4000 11.8 250 12:39 11.02.2020
2796 Rain 4 996 93 6000 10.8 240 12:20 11.02.2020
2797 Clouds 4 993 70 10000 11.8 250 11:41 11.02.2020
2798 Drizzle 4 996 86 9000 11.8 250 11:20 11.02.2020
2799 Clouds 5 992 70 10000 13.4 250 10:57 11.02.2020
2800 Clouds 5 992 70 10000 13.4 250 10:38 11.02.2020
2801 Clouds 5 995 70 10000 12.3 250 10:20 11.02.2020
2802 Rain 5 991 75 9000 13.9 250 09:55 11.02.2020
2803 Rain 5 991 75 9000 13.9 250 09:37 11.02.2020
2804 Clouds 5 994 75 10000 9.8 250 09:19 11.02.2020
2805 Rain 5 991 80 8000 12.9 250 08:44 11.02.2020
2806 Drizzle 5 994 86 3600 12.3 250 08:23 11.02.2020
2807 Clouds 5 990 75 10000 12.9 250 07:48 11.02.2020
2808 Clouds 5 993 75 6000 11.3 250 07:26 11.02.2020
2809 Rain 5 989 75 10000 11.8 250 06:44 11.02.2020
2810 Drizzle 5 993 75 8000 10.3 250 06:22 11.02.2020
2811 Clouds 5 989 75 10000 11.8 250 05:58 11.02.2020
2812 Clouds 5 992 75 10000 10.8 250 05:25 11.02.2020
2813 Clouds 5 989 80 10000 10.8 250 04:52 11.02.2020
2814 Clouds 4 991 72 10000 11.3 250 03:26 11.02.2020
2815 Clouds 4 989 72 10000 8.7 260 02:33 11.02.2020
2816 Clouds 4 988 86 9000 9.3 270 01:39 11.02.2020
2817 Rain 4 988 80 7000 8.7 250 00:43 11.02.2020
2818 Drizzle 3 989 86 10000 7.2 240 00:22 11.02.2020
2819 Clouds 3 987 93 10000 5.7 240 23:40 10.02.2020
2820 Rain 3 989 93 10000 6.7 230 23:20 10.02.2020
2821 Clouds 2 987 93 10000 5.1 220 22:43 10.02.2020
2822 Clouds 2 988 100 10000 3.1 220 22:21 10.02.2020
2823 Rain 2 987 93 10000 4.1 230 21:58 10.02.2020
2824 Rain 2 987 93 10000 4.1 230 21:40 10.02.2020
2825 Rain 2 988 100 10000 2.6 210 21:22 10.02.2020
2826 Rain 3 988 70 7000 9.8 230 20:55 10.02.2020
2827 Rain 3 988 70 7000 9.8 230 20:37 10.02.2020
2828 Thunderstorm 4 989 93 4000 6.7 200 20:19 10.02.2020
2829 Clouds 5 989 75 10000 4.6 230 19:57 10.02.2020
2830 Clouds 6 989 75 10000 4.6 230 19:36 10.02.2020
2831 Rain 6 990 70 10000 9.3 220 19:18 10.02.2020
2832 Clouds 7 991 74 10000 6.2 240 18:55 10.02.2020
2833 Clouds 7 991 74 10000 6.2 240 18:37 10.02.2020
2834 Clouds 7 992 70 10000 8.2 230 18:18 10.02.2020
2835 Clouds 7 992 74 10000 8.2 250 17:54 10.02.2020
2836 Clouds 7 992 74 10000 8.2 250 17:36 10.02.2020
2837 Rain 7 993 65 10000 9.8 240 17:18 10.02.2020
2838 Clouds 7 992 70 10000 9.8 250 16:41 10.02.2020
2839 Clouds 7 992 70 10000 9.8 250 16:41 10.02.2020
2840 Clouds 7 994 61 10000 11.3 250 16:20 10.02.2020
2841 Clouds 7 992 70 10000 14.9 260 15:59 10.02.2020
2842 Clouds 7 992 70 10000 14.9 260 15:59 10.02.2020
2843 Clouds 7 992 70 10000 14.9 260 15:41 10.02.2020
2844 Clouds 7 994 61 10000 12.9 260 15:22 10.02.2020
2845 Clouds 7 991 65 10000 14.9 260 14:58 10.02.2020
2846 Clouds 7 991 65 10000 14.9 260 14:39 10.02.2020
2847 Clouds 7 993 70 10000 12.9 250 14:19 10.02.2020
2848 Clouds 7 993 70 10000 12.9 250 14:19 10.02.2020
2849 Squall 7 990 65 10000 15.4 270 13:55 10.02.2020
2850 Squall 7 990 65 10000 15.4 270 13:37 10.02.2020
2851 Clouds 7 993 61 10000 11.8 260 13:18 10.02.2020
2852 Clouds 7 992 70 10000 12.3 260 12:43 10.02.2020
2853 Clouds 7 992 65 10000 11.3 260 12:24 10.02.2020
2854 Rain 7 991 70 10000 11.3 260 11:54 10.02.2020
2855 Clouds 7 990 70 10000 12.9 260 11:36 10.02.2020
2856 Clouds 7 988 70 10000 16.5 270 11:18 10.02.2020
2857 Clouds 7 986 70 10000 15.9 270 10:44 10.02.2020
2858 Clouds 7 989 70 10000 11.8 270 10:26 10.02.2020
2859 Clouds 7 985 75 10000 13.4 270 09:45 10.02.2020
2860 Rain 7 984 70 6000 17.5 270 09:24 10.02.2020
2861 Clouds 7 984 75 10000 12.9 270 08:45 10.02.2020
2862 Clouds 7 985 75 10000 11.8 260 08:22 10.02.2020
2863 Clouds 7 982 70 10000 14.9 270 07:58 10.02.2020
2864 Clouds 8 982 70 10000 14.9 270 07:38 10.02.2020
2865 Clouds 8 981 81 10000 11.8 270 06:59 10.02.2020
2866 Rain 8 981 81 9000 10.8 260 05:52 10.02.2020
2867 Clouds 9 982 76 10000 11.3 240 04:26 10.02.2020
2868 Drizzle 8 982 76 10000 11.3 250 03:31 10.02.2020
2869 Rain 9 980 81 10000 9.8 250 02:54 10.02.2020
2870 Rain 8 979 76 7000 15.9 260 01:38 10.02.2020
2871 Rain 9 978 87 8000 9.3 240 00:48 10.02.2020
2872 Rain 9 979 87 4000 9.8 240 00:30 10.02.2020
2873 Clouds 10 979 76 10000 8.2 230 23:55 09.02.2020
2874 Clouds 10 979 76 10000 8.2 230 23:36 09.02.2020
2875 Clouds 10 981 76 10000 11.8 230 23:18 09.02.2020
2876 Rain 9 980 76 10000 8.7 240 22:39 09.02.2020
2877 Drizzle 9 981 81 10000 15.4 220 22:20 09.02.2020
2878 Thunderstorm 10 980 76 10000 10.3 230 21:42 09.02.2020
2879 Rain 9 981 100 4500 8.2 250 21:23 09.02.2020
2880 Rain 10 982 93 3700 17 220 20:48 09.02.2020
2881 Rain 11 982 93 8000 15.4 220 20:28 09.02.2020
2882 Rain 11 982 93 5000 15.4 210 19:58 09.02.2020
2883 Rain 11 982 93 5000 15.4 210 19:39 09.02.2020
2884 Drizzle 11 983 87 10000 15.4 210 19:21 09.02.2020
2885 Rain 10 983 81 5000 14.4 210 18:57 09.02.2020
2886 Rain 10 983 81 5000 14.4 210 18:38 09.02.2020
2887 Rain 10 985 93 5000 14.9 200 18:20 09.02.2020
2888 Rain 10 985 81 9000 13.9 210 17:42 09.02.2020
2889 Rain 10 987 81 10000 13.9 200 17:23 09.02.2020
2890 Rain 10 988 71 9000 14.9 210 16:56 09.02.2020
2891 Rain 11 988 71 9000 14.9 210 16:38 09.02.2020
2892 Drizzle 11 989 76 10000 15.4 200 16:18 09.02.2020
2893 Clouds 11 988 66 10000 17 210 15:56 09.02.2020
2894 Clouds 11 988 66 10000 17 210 15:38 09.02.2020
2895 Clouds 11 990 71 10000 14.9 200 15:19 09.02.2020
2896 Clouds 11 991 62 10000 16.5 210 14:42 09.02.2020
2897 Clouds 11 993 66 10000 15.4 200 14:23 09.02.2020
2898 Clouds 11 992 57 10000 14.4 210 13:55 09.02.2020
2899 Clouds 10 992 57 10000 14.4 210 13:36 09.02.2020
2900 Clouds 10 995 71 10000 15.4 200 13:18 09.02.2020
2901 Clouds 10 995 66 10000 13.4 200 12:42 09.02.2020
2902 Clouds 10 997 66 10000 14.9 200 12:20 09.02.2020
2903 Clouds 10 997 66 10000 14.9 200 12:20 09.02.2020
2904 Clouds 10 998 61 10000 13.4 200 11:57 09.02.2020
2905 Clouds 9 998 61 10000 13.4 200 11:38 09.02.2020
2906 Drizzle 9 999 70 10000 12.9 200 11:18 09.02.2020
2907 Drizzle 9 999 70 10000 12.9 200 11:18 09.02.2020
2908 Drizzle 9 1001 70 10000 11.8 200 10:42 09.02.2020
2909 Drizzle 9 1002 70 10000 12.3 200 10:23 09.02.2020
2910 Drizzle 8 1003 70 10000 10.3 200 09:57 09.02.2020
2911 Drizzle 9 1003 70 10000 10.3 200 09:38 09.02.2020
2912 Drizzle 9 1003 70 10000 10.3 200 09:38 09.02.2020
2913 Rain 8 1004 76 10000 11.3 190 09:19 09.02.2020
2914 Drizzle 8 1005 76 10000 10.3 210 08:40 09.02.2020
2915 Rain 8 1005 81 10000 9.8 200 08:22 09.02.2020
2916 Clouds 8 1006 76 10000 9.8 210 07:51 09.02.2020
2917 Clouds 8 1007 81 10000 9.8 200 07:26 09.02.2020
2918 Clouds 8 1008 81 10000 9.8 200 06:37 09.02.2020
2919 Clouds 8 1009 81 10000 7.7 190 05:55 09.02.2020
2920 Clouds 8 1009 81 10000 7.7 190 05:33 09.02.2020
2921 Clouds 8 1011 87 10000 7.7 210 04:49 09.02.2020
2922 Clouds 8 1013 81 10000 7.7 210 02:58 09.02.2020
2923 Clouds 8 1013 81 10000 7.7 210 02:38 09.02.2020
2924 Clouds 7 1014 87 10000 6.7 210 01:40 09.02.2020
2925 Clouds 7 1014 93 9000 5.7 200 01:19 09.02.2020
2926 Clouds 7 1015 93 6000 5.1 200 00:31 09.02.2020
2927 Clouds 7 1015 87 9000 4.1 210 23:55 08.02.2020
2928 Clouds 7 1015 87 9000 4.1 210 23:37 08.02.2020
2929 Clouds 7 1016 93 7000 5.1 200 23:18 08.02.2020
2930 Clouds 7 1017 87 10000 4.6 210 22:40 08.02.2020
2931 Clouds 7 1017 93 6000 5.1 210 22:21 08.02.2020
2932 Clouds 7 1017 93 9000 3.6 220 21:54 08.02.2020
2933 Clouds 7 1017 93 9000 3.6 220 21:36 08.02.2020
2934 Clouds 7 1017 93 9000 4.6 210 21:18 08.02.2020
2935 Clouds 7 1017 87 9000 3.1 240 20:54 08.02.2020
2936 Clouds 7 1017 87 9000 3.1 240 20:36 08.02.2020
2937 Rain 7 1017 100 10000 4.1 210 20:18 08.02.2020
2938 Mist 8 1016 93 5000 4.1 240 19:40 08.02.2020
2939 Rain 7 1017 100 9000 3.1 200 19:20 08.02.2020
2940 Drizzle 8 1016 87 4500 3.6 210 18:58 08.02.2020
2941 Drizzle 8 1016 87 4500 3.6 210 18:39 08.02.2020
2942 Drizzle 8 1017 93 9000 5.1 230 18:21 08.02.2020
2943 Drizzle 8 1016 81 7000 3.6 200 17:42 08.02.2020
2944 Drizzle 8 1016 100 2700 5.1 200 17:21 08.02.2020
2945 Clouds 8 1016 75 10000 4.1 190 16:56 08.02.2020
2946 Clouds 8 1016 75 10000 4.1 190 16:37 08.02.2020
2947 Drizzle 8 1016 93 3400 4.6 200 16:18 08.02.2020
2948 Clouds 9 1016 70 10000 3.6 200 15:40 08.02.2020
2949 Clouds 9 1016 87 10000 3.6 190 15:19 08.02.2020
2950 Clouds 9 1016 70 10000 5.1 190 14:55 08.02.2020
2951 Clouds 9 1016 70 10000 5.1 190 14:36 08.02.2020
2952 Clouds 9 1016 76 10000 4.6 190 14:18 08.02.2020
2953 Clouds 9 1017 70 10000 5.7 210 13:41 08.02.2020
2954 Clouds 9 1017 76 10000 6.2 200 13:23 08.02.2020
2955 Clouds 9 1017 70 10000 4.1 190 12:50 08.02.2020
2956 Clouds 8 1017 75 10000 5.7 190 12:25 08.02.2020
2957 Clouds 8 1017 70 10000 4.6 190 11:59 08.02.2020
2958 Clouds 7 1018 75 10000 4.6 190 11:40 08.02.2020
2959 Clouds 7 1017 81 10000 4.6 190 11:21 08.02.2020
2960 Clouds 5 1018 82 10000 3.6 180 10:43 08.02.2020
2961 Clouds 5 1017 80 10000 3.6 190 10:24 08.02.2020
2962 Clouds 4 1018 74 10000 5.1 190 09:53 08.02.2020
2963 Clouds 3 1017 82 10000 3.6 160 09:30 08.02.2020
2964 Clouds 3 1017 82 10000 4.1 180 08:59 08.02.2020
2965 Clouds 3 1018 74 10000 5.1 180 08:39 08.02.2020
2966 Clouds 3 1017 77 10000 4.1 170 08:21 08.02.2020
2967 Clouds 3 1017 77 10000 4.1 170 07:50 08.02.2020
2968 Clouds 2 1017 74 10000 3.6 170 07:31 08.02.2020
2969 Clouds 2 1018 80 10000 3.6 160 06:33 08.02.2020
2970 Clouds 2 1018 80 10000 3.6 170 05:57 08.02.2020
2971 Clouds 2 1018 80 10000 5.1 170 05:32 08.02.2020
2972 Clouds 2 1019 86 10000 3.6 170 04:51 08.02.2020
2973 Clouds 2 1019 86 10000 3.6 170 03:57 08.02.2020
2974 Clouds 2 1020 80 10000 4.6 160 02:58 08.02.2020
2975 Clouds 2 1019 80 10000 3.6 160 02:28 08.02.2020
2976 Clear 2 1020 80 10000 4.1 150 01:28 08.02.2020
2977 Clear 3 1021 78 10000 3.6 160 00:46 08.02.2020
2978 Clear 3 1020 78 10000 3.6 150 00:24 08.02.2020
2979 Clear 3 1021 86 10000 4.6 150 23:57 07.02.2020
2980 Clear 3 1021 86 10000 4.6 150 23:38 07.02.2020
2981 Clear 3 1020 80 10000 4.6 150 23:19 07.02.2020
2982 Clear 4 1022 80 10000 4.6 140 22:41 07.02.2020
2983 Clear 4 1021 80 10000 3.6 150 22:19 07.02.2020
2984 Clear 4 1021 80 10000 3.6 150 22:19 07.02.2020
2985 Clouds 4 1022 80 10000 3.6 140 21:57 07.02.2020
2986 Clouds 4 1022 80 10000 3.6 140 21:39 07.02.2020
2987 Clear 4 1021 75 10000 4.6 150 21:19 07.02.2020
2988 Clear 4 1023 80 10000 3.1 140 20:39 07.02.2020
2989 Clear 5 1022 75 10000 4.1 130 20:19 07.02.2020
2990 Clear 5 1022 75 10000 4.1 130 20:19 07.02.2020
2991 Clear 5 1023 80 10000 3.6 140 19:55 07.02.2020
2992 Clear 5 1023 80 10000 3.6 140 19:36 07.02.2020
2993 Clear 5 1022 70 10000 4.6 130 19:18 07.02.2020
2994 Clear 5 1024 80 10000 3.6 130 18:43 07.02.2020
2995 Clear 6 1023 70 10000 4.1 140 18:25 07.02.2020
2996 Clouds 6 1024 75 10000 4.1 150 17:55 07.02.2020
2997 Clouds 6 1024 75 10000 4.1 150 17:37 07.02.2020
2998 Clear 6 1023 70 10000 4.6 130 17:19 07.02.2020
2999 Clouds 7 1025 75 10000 4.1 140 16:43 07.02.2020
3000 Clear 7 1023 61 10000 4.6 140 16:23 07.02.2020
3001 Clear 7 1024 65 10000 5.1 140 15:54 07.02.2020
3002 Clear 8 1024 65 10000 4.6 140 15:28 07.02.2020
3003 Clear 8 1025 65 10000 4.6 140 14:56 07.02.2020
3004 Clouds 8 1026 70 10000 5.7 170 14:38 07.02.2020
3005 Clouds 8 1026 70 10000 5.7 170 14:38 07.02.2020
3006 Clear 7 1025 65 10000 5.7 130 14:19 07.02.2020
3007 Clouds 7 1027 75 10000 5.1 170 13:56 07.02.2020
3008 Clouds 7 1027 75 10000 5.1 170 13:38 07.02.2020
3009 Clouds 7 1026 65 10000 4.6 120 13:19 07.02.2020
3010 Clouds 6 1028 70 10000 5.1 160 12:42 07.02.2020
3011 Clouds 6 1028 70 10000 5.1 160 12:42 07.02.2020
3012 Clouds 6 1027 70 10000 4.6 130 12:23 07.02.2020
3013 Clouds 6 1027 70 10000 4.6 130 12:23 07.02.2020
3014 Clouds 6 1027 70 10000 4.6 130 12:23 07.02.2020
3015 Clouds 6 1028 70 10000 4.1 160 11:45 07.02.2020
3016 Clouds 6 1028 75 10000 3.1 130 11:24 07.02.2020
3017 Clouds 6 1029 70 10000 3.1 160 10:59 07.02.2020
3018 Clouds 6 1029 70 10000 3.1 160 10:39 07.02.2020
3019 Clouds 5 1028 75 10000 2.1 120 10:20 07.02.2020
3020 Clouds 5 1029 75 10000 3.1 150 09:45 07.02.2020
3021 Clouds 5 1028 75 10000 2.1 130 09:25 07.02.2020
3022 Clouds 5 1029 75 10000 2.6 160 08:57 07.02.2020
3023 Clouds 5 1029 75 10000 2.6 160 08:37 07.02.2020
3024 Clouds 5 1028 75 10000 2.6 140 08:19 07.02.2020
3025 Clouds 5 1029 80 10000 2.1 160 07:40 07.02.2020
3026 Clouds 5 1029 75 10000 1.5 140 07:19 07.02.2020
3027 Clouds 5 1029 80 10000 1 150 06:43 07.02.2020
3028 Clouds 5 1029 75 10000 1.5 150 06:22 07.02.2020
3029 Clouds 5 1029 80 10000 0.5 0 05:43 07.02.2020
3030 Clouds 5 1029 86 10000 0.5 0 03:58 07.02.2020
3031 Clouds 5 1030 86 10000 0.5 200 02:32 07.02.2020
3032 Clouds 5 1030 86 10000 1 220 01:34 07.02.2020
3033 Clouds 5 1030 80 10000 1 230 00:39 07.02.2020
3034 Clouds 5 1030 75 10000 0.5 0 23:57 06.02.2020
3035 Clouds 6 1030 75 10000 0.5 0 23:37 06.02.2020
3036 Clouds 6 1030 86 10000 2.1 230 23:18 06.02.2020
3037 Clouds 6 1030 75 10000 2.1 260 22:43 06.02.2020
3038 Clouds 6 1030 81 10000 1.5 230 22:24 06.02.2020
3039 Clouds 6 1030 81 10000 2.1 280 21:38 06.02.2020
3040 Clouds 6 1030 75 10000 1 340 21:19 06.02.2020
3041 Clouds 6 1030 81 10000 2.1 260 20:58 06.02.2020
3042 Clouds 6 1030 81 10000 2.1 260 20:39 06.02.2020
3043 Clouds 6 1030 75 10000 1.5 270 20:19 06.02.2020
3044 Clouds 6 1030 87 10000 1.5 260 19:59 06.02.2020
3045 Clouds 6 1030 87 10000 1.5 260 19:40 06.02.2020
3046 Clouds 6 1030 87 10000 1.5 250 19:22 06.02.2020
3047 Clouds 6 1029 87 10000 2.1 270 18:58 06.02.2020
3048 Clouds 6 1029 87 10000 2.1 270 18:39 06.02.2020
3049 Clouds 6 1030 87 10000 1.5 260 18:20 06.02.2020
3050 Clouds 7 1029 81 10000 3.1 270 17:44 06.02.2020
3051 Clouds 7 1029 81 10000 3.1 270 17:44 06.02.2020
3052 Clouds 7 1030 81 10000 2.1 250 17:21 06.02.2020
3053 Clouds 7 1029 81 10000 3.1 280 16:59 06.02.2020
3054 Clouds 7 1029 81 10000 3.1 280 16:40 06.02.2020
3055 Clouds 7 1030 75 10000 1.5 260 16:22 06.02.2020
3056 Clouds 7 1029 81 10000 3.6 280 15:42 06.02.2020
3057 Clouds 7 1030 75 10000 2.6 250 15:22 06.02.2020
3058 Clouds 7 1029 87 10000 4.1 270 14:50 06.02.2020
3059 Clouds 7 1029 81 10000 4.1 270 14:28 06.02.2020
3060 Clouds 7 1029 81 10000 4.1 270 13:58 06.02.2020
3061 Clouds 7 1029 81 10000 4.1 270 13:40 06.02.2020
3062 Clouds 7 1030 81 10000 2.6 280 13:19 06.02.2020
3063 Clouds 7 1030 87 10000 3.6 250 12:44 06.02.2020
3064 Clouds 7 1030 81 10000 3.6 270 12:19 06.02.2020
3065 Clouds 7 1030 81 10000 3.6 270 12:19 06.02.2020
3066 Clouds 7 1030 81 10000 2.1 250 11:57 06.02.2020
3067 Clouds 6 1030 81 10000 2.1 250 11:39 06.02.2020
3068 Clouds 6 1030 81 10000 3.6 250 11:19 06.02.2020
3069 Clouds 6 1030 81 10000 3.1 260 10:56 06.02.2020
3070 Clouds 6 1030 81 10000 3.1 260 10:38 06.02.2020
3071 Clouds 5 1030 93 10000 2.6 230 10:19 06.02.2020
3072 Clouds 5 1030 93 10000 2.6 230 10:19 06.02.2020
3073 Clouds 5 1029 86 10000 3.1 240 09:56 06.02.2020
3074 Clouds 5 1029 86 10000 3.1 240 09:36 06.02.2020
3075 Clouds 5 1030 93 10000 3.1 230 09:18 06.02.2020
3076 Clouds 5 1029 93 10000 3.6 250 08:41 06.02.2020
3077 Clouds 5 1030 93 10000 2.1 240 08:22 06.02.2020
3078 Clouds 5 1029 86 10000 3.1 260 07:47 06.02.2020
3079 Clouds 4 1030 93 10000 2.6 260 07:25 06.02.2020
3080 Clouds 4 1030 93 10000 3.1 230 06:22 06.02.2020
3081 Clouds 4 1030 93 10000 3.1 230 06:22 06.02.2020
3082 Clouds 4 1029 93 10000 3.1 250 05:56 06.02.2020
3083 Clouds 4 1030 93 10000 3.6 260 04:24 06.02.2020
3084 Clouds 3 1031 86 10000 2.1 240 03:20 06.02.2020
3085 Clouds 3 1032 100 10000 3.6 230 02:29 06.02.2020
3086 Clouds 3 1031 86 10000 2.1 230 01:35 06.02.2020
3087 Clouds 3 1031 93 10000 3.1 230 00:58 06.02.2020
3088 Clouds 3 1032 100 10000 4.1 230 00:26 06.02.2020
3089 Clouds 3 1032 100 10000 4.1 230 00:26 06.02.2020
3090 Clouds 3 1032 86 10000 3.1 250 23:45 05.02.2020
3091 Clouds 3 1033 93 10000 3.1 230 23:25 05.02.2020
3092 Clouds 3 1032 80 10000 3.6 260 22:58 05.02.2020
3093 Clouds 3 1032 80 10000 3.6 260 22:39 05.02.2020
3094 Clouds 3 1033 93 10000 3.1 240 22:21 05.02.2020
3095 Clouds 3 1033 93 10000 3.1 240 22:21 05.02.2020
3096 Clouds 4 1032 80 10000 3.1 250 21:42 05.02.2020
3097 Clouds 4 1034 93 10000 3.1 230 21:24 05.02.2020
3098 Clouds 4 1033 86 10000 3.1 250 20:59 05.02.2020
3099 Clouds 4 1033 86 10000 3.1 250 20:38 05.02.2020
3100 Clouds 4 1033 93 10000 3.1 230 20:19 05.02.2020
3101 Clouds 4 1033 75 10000 2.6 250 19:57 05.02.2020
3102 Clouds 4 1033 75 10000 2.6 250 19:38 05.02.2020
3103 Clouds 4 1034 86 10000 2.6 240 19:19 05.02.2020
3104 Clouds 4 1034 86 10000 2.6 240 19:19 05.02.2020
3105 Clouds 4 1033 75 10000 2.6 250 18:45 05.02.2020
3106 Clouds 5 1034 80 10000 2.6 250 18:22 05.02.2020
3107 Clouds 5 1033 84 10000 4.6 270 17:59 05.02.2020
3108 Clouds 6 1033 84 10000 4.6 270 17:37 05.02.2020
3109 Clouds 6 1034 70 10000 3.1 260 17:18 05.02.2020
3110 Clouds 6 1033 70 10000 5.1 280 16:56 05.02.2020
3111 Clouds 6 1033 70 10000 5.1 280 16:37 05.02.2020
3112 Clouds 6 1034 65 10000 4.6 260 16:18 05.02.2020
3113 Clouds 7 1033 65 10000 5.1 270 15:42 05.02.2020
3114 Clouds 7 1034 70 10000 3.6 270 15:19 05.02.2020
3115 Clouds 7 1034 65 10000 5.1 260 14:56 05.02.2020
3116 Clouds 7 1034 65 10000 5.1 260 14:37 05.02.2020
3117 Clouds 7 1035 70 10000 4.1 250 14:19 05.02.2020
3118 Clouds 7 1034 65 10000 3.6 270 13:42 05.02.2020
3119 Clouds 7 1035 70 10000 3.1 250 13:22 05.02.2020
3120 Clear 7 1034 70 10000 3.6 250 12:44 05.02.2020
3121 Clear 6 1035 81 10000 2.1 220 12:25 05.02.2020
3122 Clouds 6 1034 80 10000 2.6 270 11:59 05.02.2020
3123 Clouds 5 1034 80 10000 2.6 270 11:41 05.02.2020
3124 Clouds 4 1035 86 10000 1.5 240 11:22 05.02.2020
3125 Clear 3 1034 74 10000 1.5 260 10:44 05.02.2020
3126 Clear 3 1034 71 8000 1.5 230 10:26 05.02.2020
3127 Clear 1 1034 71 10000 1.5 230 09:59 05.02.2020
3128 Clear 1 1034 71 10000 1.5 230 09:39 05.02.2020
3129 Clear 0 1034 100 7000 0.5 190 09:21 05.02.2020
3130 Clear -1 1033 71 10000 2.6 280 08:46 05.02.2020
3131 Mist -1 1033 100 3700 1 0 08:25 05.02.2020
3132 Clouds -1 1032 92 10000 1.5 280 07:57 05.02.2020
3133 Clouds -1 1032 92 10000 1.5 280 07:37 05.02.2020
3134 Mist -1 1033 92 1700 0.5 260 07:18 05.02.2020
3135 Clouds -1 1031 86 10000 1.5 10 06:39 05.02.2020
3136 Clouds 0 1032 100 8000 2.1 240 06:20 05.02.2020
3137 Clear 1 1031 100 9000 2.1 230 05:20 05.02.2020
3138 Clear 1 1030 78 10000 2.1 350 04:54 05.02.2020
3139 Clear 2 1029 74 10000 2.1 10 03:58 05.02.2020
3140 Clouds 3 1028 74 10000 2.6 360 02:42 05.02.2020
3141 Clouds 4 1028 80 10000 3.1 330 02:20 05.02.2020
3142 Clouds 4 1027 75 10000 3.6 330 01:25 05.02.2020
3143 Clouds 5 1026 75 10000 4.1 350 00:22 05.02.2020
3144 Clouds 6 1024 70 10000 4.6 340 23:40 04.02.2020
3145 Clouds 6 1024 87 10000 3.6 330 23:20 04.02.2020
3146 Clouds 6 1023 70 10000 5.7 350 22:57 04.02.2020
3147 Clouds 6 1023 70 10000 5.7 350 22:39 04.02.2020
3148 Clouds 6 1022 70 10000 5.7 350 22:20 04.02.2020
3149 Clouds 5 1021 75 10000 6.2 340 21:55 04.02.2020
3150 Clouds 5 1021 75 10000 6.2 340 21:37 04.02.2020
3151 Clouds 5 1022 93 10000 3.1 320 21:18 04.02.2020
3152 Clouds 5 1022 93 10000 3.1 320 21:18 04.02.2020
3153 Clouds 5 1020 75 10000 5.1 350 20:54 04.02.2020
3154 Clouds 5 1020 75 10000 5.1 350 20:36 04.02.2020
3155 Clouds 5 1020 93 10000 3.1 330 20:18 04.02.2020
3156 Clouds 5 1019 81 10000 5.7 330 19:42 04.02.2020
3157 Clear 5 1019 86 10000 3.1 310 19:24 04.02.2020
3158 Clouds 5 1017 81 10000 4.1 310 18:59 04.02.2020
3159 Clouds 5 1017 81 10000 4.1 310 18:59 04.02.2020
3160 Clouds 5 1017 81 10000 4.1 310 18:39 04.02.2020
3161 Clouds 5 1017 86 10000 3.6 310 18:20 04.02.2020
3162 Clouds 5 1015 80 10000 3.6 300 17:54 04.02.2020
3163 Clouds 6 1015 80 10000 3.6 300 17:36 04.02.2020
3164 Clouds 6 1015 81 10000 3.1 310 17:18 04.02.2020
3165 Clouds 6 1013 81 10000 5.1 330 16:38 04.02.2020
3166 Clouds 7 1013 75 10000 4.1 290 16:20 04.02.2020
3167 Clouds 7 1012 70 10000 5.1 320 15:56 04.02.2020
3168 Clouds 7 1012 70 10000 5.1 320 15:56 04.02.2020
3169 Clouds 7 1012 70 10000 5.1 320 15:56 04.02.2020
3170 Clouds 7 1012 70 10000 5.1 320 15:38 04.02.2020
3171 Clouds 7 1012 75 10000 4.6 300 15:20 04.02.2020
3172 Clouds 7 1012 75 10000 4.6 300 15:20 04.02.2020
3173 Clouds 7 1011 70 10000 4.6 310 14:45 04.02.2020
3174 Clear 7 1011 75 10000 4.6 290 14:26 04.02.2020
3175 Clouds 7 1009 70 10000 5.7 290 13:59 04.02.2020
3176 Clouds 6 1009 70 10000 5.7 290 13:40 04.02.2020
3177 Clouds 6 1010 70 10000 6.7 280 13:22 04.02.2020
3178 Clouds 6 1009 70 10000 5.1 270 12:57 04.02.2020
3179 Clouds 6 1009 70 10000 5.1 270 12:37 04.02.2020
3180 Clouds 6 1010 75 10000 4.1 280 12:19 04.02.2020
3181 Clouds 6 1008 75 10000 4.1 300 11:55 04.02.2020
3182 Clouds 6 1008 75 10000 4.1 300 11:36 04.02.2020
3183 Clouds 5 1009 80 10000 5.1 290 11:18 04.02.2020
3184 Clouds 6 1007 80 10000 5.7 300 10:44 04.02.2020
3185 Clouds 5 1006 86 10000 7.7 290 10:24 04.02.2020
3186 Clouds 4 1006 86 10000 6.2 280 09:56 04.02.2020
3187 Clouds 4 1006 86 10000 6.2 280 09:37 04.02.2020
3188 Clouds 4 1007 80 10000 5.1 260 09:19 04.02.2020
3189 Clouds 4 1005 80 10000 4.1 280 08:44 04.02.2020
3190 Clouds 4 1006 80 10000 4.6 260 08:26 04.02.2020
3191 Clouds 5 1004 75 8000 5.7 280 07:50 04.02.2020
3192 Clouds 4 1004 75 5000 4.6 280 07:24 04.02.2020
3193 Clouds 5 1003 75 10000 5.1 270 06:48 04.02.2020
3194 Clouds 5 1005 80 10000 4.1 260 06:30 04.02.2020
3195 Drizzle 5 1004 75 10000 5.1 270 05:29 04.02.2020
3196 Clouds 5 1004 80 10000 3.6 260 04:27 04.02.2020
3197 Clouds 5 1002 75 10000 5.1 280 03:43 04.02.2020
3198 Clouds 5 1004 80 10000 3.1 260 03:25 04.02.2020
3199 Clouds 5 1002 80 10000 3.6 270 02:34 04.02.2020
3200 Clouds 5 1002 75 10000 3.6 270 01:57 04.02.2020
3201 Clouds 5 1002 75 10000 3.6 270 01:39 04.02.2020
3202 Clouds 6 1003 75 10000 4.1 290 00:52 04.02.2020
3203 Clouds 6 1004 81 10000 4.1 270 00:23 04.02.2020
3204 Clouds 6 1003 81 10000 4.6 260 23:48 03.02.2020
3205 Rain 6 1004 81 10000 3.6 260 23:28 03.02.2020
3206 Clouds 6 1004 81 10000 3.1 250 22:58 03.02.2020
3207 Clouds 6 1004 81 10000 3.1 250 22:38 03.02.2020
3208 Clouds 6 1005 75 10000 4.1 260 22:19 03.02.2020
3209 Clouds 6 1005 81 10000 4.1 250 21:41 03.02.2020
3210 Clouds 7 1006 75 10000 3.6 250 21:20 03.02.2020
3211 Clouds 7 1006 81 10000 4.6 250 20:55 03.02.2020
3212 Clouds 7 1006 81 10000 4.6 250 20:37 03.02.2020
3213 Clouds 7 1007 81 10000 3.6 250 20:18 03.02.2020
3214 Clouds 7 1007 75 10000 6.7 260 19:41 03.02.2020
3215 Clouds 7 1008 75 10000 5.1 250 19:22 03.02.2020
3216 Clouds 7 1007 75 10000 8.7 270 18:57 03.02.2020
3217 Clouds 7 1007 75 10000 8.7 270 18:39 03.02.2020
3218 Clouds 8 1008 75 10000 6.7 260 18:21 03.02.2020
3219 Clouds 8 1007 75 10000 9.8 270 17:57 03.02.2020
3220 Clouds 8 1007 75 10000 9.8 270 17:38 03.02.2020
3221 Clouds 8 1008 81 10000 6.2 260 17:19 03.02.2020
3222 Clouds 8 1007 75 10000 10.8 270 16:40 03.02.2020
3223 Clouds 9 1009 76 10000 9.3 260 16:21 03.02.2020
3224 Clouds 9 1007 76 10000 11.3 270 15:57 03.02.2020
3225 Clouds 9 1007 76 10000 11.3 270 15:39 03.02.2020
3226 Clouds 9 1009 71 10000 7.7 270 15:19 03.02.2020
3227 Clouds 9 1007 81 10000 10.3 270 14:57 03.02.2020
3228 Clouds 9 1007 81 10000 10.3 270 14:38 03.02.2020
3229 Clouds 9 1009 76 10000 8.7 260 14:19 03.02.2020
3230 Clouds 9 1007 81 10000 9.8 270 13:42 03.02.2020
3231 Clouds 9 1007 81 10000 9.8 270 13:21 03.02.2020
3232 Clouds 9 1007 81 10000 9.8 270 12:58 03.02.2020
3233 Clouds 9 1007 81 10000 9.8 270 12:39 03.02.2020
3234 Clouds 9 1008 81 10000 8.7 260 12:21 03.02.2020
3235 Clouds 9 1007 87 10000 9.8 270 11:55 03.02.2020
3236 Clouds 9 1007 87 10000 9.8 270 11:36 03.02.2020
3237 Clouds 9 1008 87 10000 6.7 260 11:18 03.02.2020
3238 Rain 9 1006 87 10000 8.2 260 10:40 03.02.2020
3239 Clouds 9 1006 87 10000 8.2 260 10:22 03.02.2020
3240 Rain 9 1006 93 8000 8.2 260 09:48 03.02.2020
3241 Clouds 9 1007 87 9000 7.7 260 09:24 03.02.2020
3242 Clouds 9 1005 87 10000 6.7 260 08:56 03.02.2020
3243 Clouds 9 1005 87 10000 6.7 260 08:56 03.02.2020
3244 Clouds 9 1005 87 10000 6.7 260 08:37 03.02.2020
3245 Clouds 9 1006 87 9000 6.7 250 08:19 03.02.2020
3246 Clouds 9 1004 81 10000 8.7 260 07:40 03.02.2020
3247 Clouds 9 1006 87 9000 7.2 250 07:21 03.02.2020
3248 Clouds 9 1004 81 8000 8.7 260 06:51 03.02.2020
3249 Clouds 9 1006 87 9000 7.2 260 06:30 03.02.2020
3250 Clouds 9 1004 93 6000 5.7 290 05:37 03.02.2020
3251 Rain 8 1004 93 5000 8.7 270 05:18 03.02.2020
3252 Clouds 8 1005 87 9000 8.2 250 04:30 03.02.2020
3253 Clouds 8 1005 93 10000 6.2 240 02:37 03.02.2020
3254 Clouds 8 1005 93 10000 6.2 240 02:18 03.02.2020
3255 Clouds 7 1005 93 10000 3.1 240 00:48 03.02.2020
3256 Clouds 7 1005 93 10000 4.6 250 00:25 03.02.2020
3257 Clouds 7 1005 93 6000 4.1 260 23:39 02.02.2020
3258 Clouds 6 1006 93 10000 3.6 240 23:21 02.02.2020
3259 Drizzle 7 1005 93 3700 1.5 200 22:58 02.02.2020
3260 Drizzle 6 1005 93 3700 1.5 200 22:39 02.02.2020
3261 Clouds 7 1006 87 10000 4.6 260 22:21 02.02.2020
3262 Clouds 7 1006 87 10000 4.6 260 22:21 02.02.2020
3263 Drizzle 7 1005 93 4000 1.5 190 21:57 02.02.2020
3264 Drizzle 7 1005 93 4000 1.5 190 21:38 02.02.2020
3265 Clouds 7 1006 93 10000 5.7 260 21:20 02.02.2020
3266 Drizzle 7 1005 93 4000 0.5 160 20:57 02.02.2020
3267 Drizzle 7 1005 93 4000 0.5 160 20:38 02.02.2020
3268 Clouds 7 1005 93 10000 4.1 260 20:20 02.02.2020
3269 Drizzle 7 1005 93 5000 0.5 250 19:56 02.02.2020
3270 Drizzle 7 1005 93 5000 0.5 250 19:38 02.02.2020
3271 Drizzle 7 1005 93 5000 0.5 250 19:38 02.02.2020
3272 Mist 7 1004 93 2300 0.5 190 19:19 02.02.2020
3273 Drizzle 7 1004 93 6000 1 210 18:55 02.02.2020
3274 Drizzle 6 1004 93 6000 1 210 18:36 02.02.2020
3275 Drizzle 6 1004 100 2400 0.5 170 18:18 02.02.2020
3276 Drizzle 6 1004 100 8000 1.5 240 17:56 02.02.2020
3277 Drizzle 6 1004 100 8000 1.5 240 17:37 02.02.2020
3278 Drizzle 7 1003 93 2400 1 170 17:18 02.02.2020
3279 Drizzle 6 1003 93 8000 2.1 210 16:56 02.02.2020
3280 Drizzle 7 1003 93 8000 2.1 210 16:37 02.02.2020
3281 Drizzle 7 1003 93 2600 1 0 16:18 02.02.2020
3282 Clouds 7 1003 87 10000 2.1 220 15:54 02.02.2020
3283 Clouds 7 1003 87 10000 2.1 220 15:36 02.02.2020
3284 Clouds 7 1003 87 10000 2.6 200 15:18 02.02.2020
3285 Clouds 7 1003 87 10000 2.1 260 14:41 02.02.2020
3286 Clouds 7 1003 93 10000 3.6 200 14:19 02.02.2020
3287 Clouds 7 1004 87 10000 4.1 240 13:58 02.02.2020
3288 Clouds 7 1004 87 10000 4.1 240 13:39 02.02.2020
3289 Clouds 7 1004 93 10000 3.6 210 13:20 02.02.2020
3290 Clouds 7 1004 93 10000 2.1 220 12:56 02.02.2020
3291 Clouds 7 1004 93 10000 2.1 220 12:37 02.02.2020
3292 Drizzle 7 1005 100 6000 3.1 200 12:18 02.02.2020
3293 Rain 7 1005 93 10000 2.6 230 11:41 02.02.2020
3294 Rain 7 1005 100 7000 3.1 210 11:19 02.02.2020
3295 Rain 7 1006 93 7000 4.1 220 10:57 02.02.2020
3296 Rain 7 1006 93 7000 4.1 220 10:57 02.02.2020
3297 Drizzle 7 1006 93 9000 5.1 210 10:38 02.02.2020
3298 Drizzle 7 1006 93 9000 5.1 210 10:20 02.02.2020
3299 Clouds 7 1006 93 10000 2.1 230 09:57 02.02.2020
3300 Clouds 7 1006 93 10000 2.1 230 09:38 02.02.2020
3301 Clouds 7 1006 93 10000 2.1 230 09:38 02.02.2020
3302 Clouds 7 1006 93 10000 3.1 230 09:20 02.02.2020
3303 Clouds 7 1005 93 10000 2.6 250 08:44 02.02.2020
3304 Clouds 7 1006 93 10000 2.6 240 08:25 02.02.2020
3305 Clouds 7 1005 87 10000 4.1 270 07:47 02.02.2020
3306 Clouds 7 1006 93 10000 3.1 260 07:29 02.02.2020
3307 Clouds 7 1005 93 10000 4.1 260 06:46 02.02.2020
3308 Clouds 7 1006 87 10000 6.2 250 06:28 02.02.2020
3309 Clouds 8 1005 87 10000 5.1 270 05:49 02.02.2020
3310 Clouds 8 1004 93 8000 6.7 290 04:58 02.02.2020
3311 Clouds 8 1004 93 8000 6.7 290 04:58 02.02.2020
3312 Drizzle 8 1004 87 4000 8.2 260 03:40 02.02.2020
3313 Drizzle 8 1003 87 4000 8.7 260 02:42 02.02.2020
3314 Rain 8 1002 81 8000 11.3 260 01:57 02.02.2020
3315 Rain 8 1002 81 8000 11.3 260 01:35 02.02.2020
3316 Rain 8 1002 81 8000 11.8 260 00:45 02.02.2020
3317 Clouds 8 1001 70 10000 10.3 260 00:24 02.02.2020
3318 Clouds 9 1001 70 10000 8.7 250 23:55 01.02.2020
3319 Clouds 9 1001 70 10000 8.7 250 23:36 01.02.2020
3320 Clouds 9 1003 70 10000 8.2 250 23:18 01.02.2020
3321 Clouds 9 1000 66 10000 11.8 260 22:42 01.02.2020
3322 Clouds 9 1002 70 10000 9.3 250 22:18 01.02.2020
3323 Clouds 9 1000 70 10000 9.8 250 21:40 01.02.2020
3324 Clouds 9 1002 70 10000 9.3 250 21:19 01.02.2020
3325 Clouds 9 999 70 10000 8.7 250 20:55 01.02.2020
3326 Clouds 9 999 70 10000 8.7 250 20:36 01.02.2020
3327 Clouds 9 1001 70 10000 9.3 240 20:18 01.02.2020
3328 Clouds 9 999 70 10000 8.2 250 19:54 01.02.2020
3329 Clouds 9 999 70 10000 8.2 250 19:36 01.02.2020
3330 Clouds 9 1000 76 10000 7.7 240 19:18 01.02.2020
3331 Clouds 9 999 76 10000 8.2 260 18:55 01.02.2020
3332 Clouds 9 999 76 10000 8.2 260 18:36 01.02.2020
3333 Clouds 9 1000 76 10000 7.7 240 18:18 01.02.2020
3334 Clouds 9 998 71 10000 8.2 260 17:45 01.02.2020
3335 Clouds 10 1000 71 10000 9.3 250 17:21 01.02.2020
3336 Clouds 10 998 71 10000 9.8 260 16:59 01.02.2020
3337 Clouds 10 998 71 10000 9.8 260 16:39 01.02.2020
3338 Clouds 10 999 76 10000 9.3 250 16:20 01.02.2020
3339 Clouds 10 997 76 10000 8.2 250 15:46 01.02.2020
3340 Clouds 11 999 76 10000 9.3 250 15:27 01.02.2020
3341 Clouds 11 997 76 10000 7.2 260 14:58 01.02.2020
3342 Clouds 11 997 76 10000 7.2 260 14:39 01.02.2020
3343 Clouds 11 998 81 10000 8.7 250 14:20 01.02.2020
3344 Clouds 11 997 81 10000 7.7 250 13:45 01.02.2020
3345 Clouds 11 999 81 10000 8.2 250 13:21 01.02.2020
3346 Clouds 11 997 81 10000 6.2 250 12:44 01.02.2020
3347 Clouds 11 998 87 10000 8.2 240 12:26 01.02.2020
3348 Clouds 11 997 87 10000 6.2 230 11:58 01.02.2020
3349 Clouds 11 997 87 10000 6.2 230 11:38 01.02.2020
3350 Clouds 11 998 87 10000 7.2 240 11:19 01.02.2020
3351 Clouds 11 997 87 10000 7.2 240 10:57 01.02.2020
3352 Clouds 11 997 87 10000 7.2 240 10:38 01.02.2020
3353 Clouds 11 998 87 10000 7.2 230 10:20 01.02.2020
3354 Clouds 11 998 87 10000 7.2 240 09:57 01.02.2020
3355 Clouds 11 998 87 10000 7.2 240 09:38 01.02.2020
3356 Clouds 11 999 87 10000 8.2 240 09:19 01.02.2020
3357 Clouds 11 998 87 10000 6.7 240 08:41 01.02.2020
3358 Clouds 11 998 87 10000 7.2 240 07:48 01.02.2020
3359 Clouds 11 999 93 10000 9.8 230 07:26 01.02.2020
3360 Drizzle 11 998 93 5000 7.7 240 06:55 01.02.2020
3361 Drizzle 11 998 93 5000 7.7 240 06:55 01.02.2020
3362 Drizzle 11 998 93 5000 7.7 240 06:32 01.02.2020
3363 Drizzle 11 999 93 5000 6.7 240 05:52 01.02.2020
3364 Drizzle 11 1000 93 5000 8.7 240 03:53 01.02.2020
3365 Rain 11 1001 93 10000 11.3 220 03:21 01.02.2020
3366 Drizzle 11 1000 93 4500 8.2 240 02:46 01.02.2020
3367 Drizzle 11 1001 93 9000 9.3 230 02:26 01.02.2020
3368 Drizzle 11 1000 93 3000 8.2 240 01:54 01.02.2020
3369 Drizzle 11 1000 93 4000 7.7 230 01:31 01.02.2020
3370 Drizzle 11 1001 93 3000 7.7 240 00:30 01.02.2020
3371 Clouds 12 1001 81 10000 7.7 230 23:43 31.01.2020
3372 Clouds 11 1002 93 6000 10.3 230 23:20 31.01.2020
3373 Clouds 12 1001 87 10000 9.3 230 22:59 31.01.2020
3374 Clouds 12 1001 87 10000 9.3 230 22:41 31.01.2020
3375 Clouds 12 1003 87 10000 10.3 230 22:22 31.01.2020
3376 Clouds 11 1002 87 10000 9.3 240 21:59 31.01.2020
3377 Clouds 11 1002 87 10000 9.3 240 21:39 31.01.2020
3378 Drizzle 11 1003 93 10000 10.8 230 21:20 31.01.2020
3379 Clouds 11 1002 87 10000 8.2 230 20:57 31.01.2020
3380 Clouds 11 1002 87 10000 8.2 230 20:38 31.01.2020
3381 Clouds 11 1003 93 10000 7.7 230 20:20 31.01.2020
3382 Clouds 11 1003 93 10000 7.7 230 19:56 31.01.2020
3383 Clouds 10 1003 93 10000 7.7 230 19:38 31.01.2020
3384 Clouds 10 1004 87 10000 7.7 230 19:19 31.01.2020
3385 Clouds 10 1003 93 7000 7.7 240 18:45 31.01.2020
3386 Clouds 10 1004 93 10000 9.3 230 18:27 31.01.2020
3387 Rain 10 1003 87 5000 7.7 240 17:56 31.01.2020
3388 Rain 10 1003 87 5000 7.7 240 17:38 31.01.2020
3389 Rain 10 1004 93 10000 9.8 230 17:19 31.01.2020
3390 Clouds 10 1003 87 10000 7.2 240 16:56 31.01.2020
3391 Clouds 10 1003 87 10000 7.2 240 16:37 31.01.2020
3392 Clouds 10 1004 93 10000 9.8 230 16:18 31.01.2020
3393 Clouds 10 1003 81 10000 8.2 240 15:41 31.01.2020
3394 Clouds 10 1004 87 10000 11.8 230 15:21 31.01.2020
3395 Clouds 10 1003 81 10000 9.3 230 14:59 31.01.2020
3396 Clouds 10 1003 81 10000 9.3 230 14:40 31.01.2020
3397 Clouds 10 1004 87 10000 12.3 230 14:20 31.01.2020
3398 Clouds 10 1003 81 10000 8.2 230 13:45 31.01.2020
3399 Clouds 10 1005 87 10000 10.3 230 13:27 31.01.2020
3400 Clouds 10 1004 81 10000 7.7 240 12:54 31.01.2020
3401 Clouds 10 1004 81 10000 7.7 240 12:36 31.01.2020
3402 Clouds 10 1005 87 10000 8.2 230 12:18 31.01.2020
3403 Clouds 10 1004 87 10000 5.7 230 11:41 31.01.2020
3404 Clouds 9 1005 87 10000 7.2 230 11:23 31.01.2020
3405 Clouds 9 1004 81 10000 6.7 250 10:58 31.01.2020
3406 Clouds 9 1004 81 10000 6.7 250 10:38 31.01.2020
3407 Clouds 9 1005 93 10000 7.2 230 10:20 31.01.2020
3408 Clouds 8 1004 81 10000 5.1 240 09:55 31.01.2020
3409 Clouds 8 1004 81 10000 5.1 240 09:37 31.01.2020
3410 Clouds 8 1004 81 10000 5.1 240 09:37 31.01.2020
3411 Clouds 8 1005 93 10000 6.2 230 09:18 31.01.2020
3412 Clouds 8 1003 81 10000 5.7 260 08:49 31.01.2020
3413 Clouds 8 1003 81 10000 6.7 260 08:24 31.01.2020
3414 Clouds 8 1002 87 10000 6.7 260 07:52 31.01.2020
3415 Clouds 8 1003 87 10000 5.7 250 07:24 31.01.2020
3416 Clouds 8 1003 87 10000 5.7 250 07:24 31.01.2020
3417 Clouds 8 1001 81 10000 7.2 280 06:42 31.01.2020
3418 Clouds 8 1000 87 10000 8.2 270 05:58 31.01.2020
3419 Clouds 8 1000 87 10000 8.2 270 05:40 31.01.2020
3420 Clouds 9 999 87 10000 9.8 280 04:47 31.01.2020
3421 Clouds 10 997 87 10000 11.3 280 02:58 31.01.2020
3422 Clouds 10 996 87 10000 11.3 270 01:33 31.01.2020
3423 Clouds 10 995 87 10000 11.3 270 00:44 31.01.2020
3424 Clouds 10 995 87 8000 9.3 260 00:25 31.01.2020
3425 Drizzle 10 994 87 4000 10.3 260 23:53 30.01.2020
3426 Rain 10 996 93 2400 10.3 250 23:24 30.01.2020
3427 Drizzle 9 994 93 4000 7.2 230 22:56 30.01.2020
3428 Drizzle 9 994 93 4000 7.2 230 22:36 30.01.2020
3429 Drizzle 9 995 100 3200 10.8 220 22:18 30.01.2020
3430 Drizzle 9 995 93 6000 8.7 220 21:43 30.01.2020
3431 Drizzle 9 996 93 2600 8.7 210 21:20 30.01.2020
3432 Clouds 9 996 81 10000 9.3 220 20:59 30.01.2020
3433 Clouds 8 996 81 10000 9.3 220 20:39 30.01.2020
3434 Mist 8 997 100 3500 8.2 210 20:21 30.01.2020
3435 Mist 8 997 100 3500 8.2 210 20:21 30.01.2020
3436 Clouds 9 997 81 10000 7.7 210 19:56 30.01.2020
3437 Clouds 9 997 81 10000 7.7 210 19:38 30.01.2020
3438 Clouds 9 998 87 10000 7.7 200 19:18 30.01.2020
3439 Clouds 8 998 81 10000 6.7 210 18:40 30.01.2020
3440 Clouds 8 999 81 10000 7.2 200 18:21 30.01.2020
3441 Clouds 8 999 81 10000 7.2 200 18:21 30.01.2020
3442 Clouds 8 999 87 10000 5.7 200 17:56 30.01.2020
3443 Clouds 8 999 87 10000 5.7 200 17:37 30.01.2020
3444 Clouds 9 1000 81 10000 6.7 200 17:18 30.01.2020
3445 Clouds 9 1001 76 10000 5.7 230 16:56 30.01.2020
3446 Clouds 9 1001 76 10000 5.7 230 16:56 30.01.2020
3447 Clouds 9 1001 76 10000 5.7 230 16:37 30.01.2020
3448 Clouds 9 1002 81 10000 6.7 210 16:19 30.01.2020
3449 Clouds 9 1002 76 10000 7.7 240 15:43 30.01.2020
3450 Clouds 9 1002 81 10000 7.7 210 15:19 30.01.2020
3451 Clouds 9 1002 81 10000 6.2 230 14:50 30.01.2020
3452 Clouds 9 1004 81 10000 8.2 220 14:27 30.01.2020
3453 Clouds 9 1004 81 10000 7.7 240 13:57 30.01.2020
3454 Clouds 9 1004 81 10000 7.7 240 13:37 30.01.2020
3455 Clouds 9 1004 81 10000 7.2 240 13:19 30.01.2020
3456 Clouds 8 1004 81 10000 6.7 230 12:43 30.01.2020
3457 Clouds 8 1005 87 10000 8.2 230 12:24 30.01.2020
3458 Clouds 8 1004 81 10000 6.7 250 11:58 30.01.2020
3459 Clouds 8 1004 81 10000 6.7 250 11:40 30.01.2020
3460 Clouds 8 1005 87 10000 8.2 230 11:21 30.01.2020
3461 Clouds 8 1004 81 10000 6.7 250 10:42 30.01.2020
3462 Clouds 8 1006 81 10000 7.2 230 10:24 30.01.2020
3463 Clouds 8 1005 81 10000 8.2 250 09:56 30.01.2020
3464 Clouds 8 1005 81 10000 8.2 250 09:37 30.01.2020
3465 Clouds 8 1006 81 10000 7.7 240 09:19 30.01.2020
3466 Clouds 8 1004 93 10000 6.7 250 08:42 30.01.2020
3467 Clouds 8 1005 81 10000 7.7 240 08:22 30.01.2020
3468 Drizzle 8 1004 81 10000 7.7 250 07:52 30.01.2020
3469 Drizzle 8 1004 81 10000 7.7 250 07:52 30.01.2020
3470 Drizzle 8 1004 81 10000 7.7 250 07:32 30.01.2020
3471 Drizzle 7 1003 87 8000 8.2 240 06:47 30.01.2020
3472 Clouds 7 1005 87 10000 8.2 240 06:29 30.01.2020
3473 Rain 7 1004 87 10000 7.7 250 05:47 30.01.2020
3474 Drizzle 7 1005 93 10000 9.3 240 05:25 30.01.2020
3475 Clouds 7 1004 87 10000 7.7 240 03:56 30.01.2020
3476 Clouds 7 1004 87 10000 7.7 240 03:37 30.01.2020
3477 Clouds 6 1004 87 10000 8.7 240 02:48 30.01.2020
3478 Rain 5 1005 86 10000 6.7 230 00:54 30.01.2020
3479 Drizzle 5 1006 86 10000 6.7 210 00:23 30.01.2020
3480 Clouds 5 1005 86 10000 6.2 230 23:49 29.01.2020
3481 Clouds 5 1007 86 10000 5.7 210 23:23 29.01.2020
3482 Clouds 4 1006 86 10000 6.2 240 22:59 29.01.2020
3483 Clouds 4 1006 86 10000 6.2 240 22:59 29.01.2020
3484 Clouds 4 1006 86 10000 6.2 240 22:39 29.01.2020
3485 Clouds 4 1007 93 10000 6.2 210 22:19 29.01.2020
3486 Clouds 4 1006 86 10000 4.6 230 21:59 29.01.2020
3487 Clouds 4 1006 86 10000 4.6 230 21:40 29.01.2020
3488 Clouds 4 1007 86 10000 5.1 210 21:20 29.01.2020
3489 Clouds 4 1006 86 10000 5.7 240 20:59 29.01.2020
3490 Clouds 4 1006 86 10000 5.7 240 20:40 29.01.2020
3491 Rain 4 1007 86 10000 4.6 230 20:21 29.01.2020
3492 Rain 4 1007 86 10000 4.6 230 20:21 29.01.2020
3493 Clouds 4 1005 86 10000 4.6 240 19:57 29.01.2020
3494 Clouds 4 1005 86 10000 4.6 240 19:38 29.01.2020
3495 Clouds 4 1007 86 10000 4.1 240 19:20 29.01.2020
3496 Clouds 4 1005 80 10000 4.6 240 18:56 29.01.2020
3497 Clouds 4 1005 80 10000 4.6 240 18:37 29.01.2020
3498 Clouds 4 1006 86 10000 4.6 250 18:18 29.01.2020
3499 Clouds 5 1004 80 10000 6.2 270 17:40 29.01.2020
3500 Clouds 5 1005 80 10000 6.2 250 17:22 29.01.2020
3501 Rain 5 1003 75 10000 7.2 270 16:54 29.01.2020
3502 Rain 5 1003 75 10000 7.2 270 16:36 29.01.2020
3503 Rain 5 1004 80 2900 9.3 260 16:18 29.01.2020
3504 Clouds 6 1002 75 10000 9.3 270 15:39 29.01.2020
3505 Clouds 6 1001 81 10000 8.7 270 15:20 29.01.2020
3506 Clouds 6 1001 81 10000 8.7 270 14:46 29.01.2020
3507 Clouds 6 1001 81 10000 8.7 270 14:46 29.01.2020
3508 Clouds 6 1002 75 10000 8.2 270 14:23 29.01.2020
3509 Rain 6 1000 86 8000 6.7 290 13:57 29.01.2020
3510 Rain 5 1000 86 8000 6.7 290 13:39 29.01.2020
3511 Drizzle 6 1002 86 10000 4.1 270 13:21 29.01.2020
3512 Rain 5 1000 86 6000 5.1 310 12:56 29.01.2020
3513 Rain 5 1000 86 6000 5.1 310 12:37 29.01.2020
3514 Rain 5 999 86 8000 7.2 270 12:19 29.01.2020
3515 Rain 5 999 86 10000 8.2 260 11:47 29.01.2020
3516 Rain 5 1000 93 10000 6.2 260 11:24 29.01.2020
3517 Drizzle 5 1000 86 10000 5.7 250 10:56 29.01.2020
3518 Clouds 5 998 80 10000 8.7 250 10:37 29.01.2020
3519 Clouds 5 998 80 10000 8.7 250 10:19 29.01.2020
3520 Rain 5 999 86 10000 7.7 250 09:40 29.01.2020
3521 Rain 5 999 86 10000 7.7 250 09:21 29.01.2020
3522 Clouds 5 996 80 10000 7.7 250 08:57 29.01.2020
3523 Clouds 5 996 80 10000 7.7 250 08:39 29.01.2020
3524 Clouds 5 998 80 10000 9.3 250 08:20 29.01.2020
3525 Clouds 5 996 80 10000 8.2 250 07:45 29.01.2020
3526 Clouds 5 997 75 10000 7.7 250 07:24 29.01.2020
3527 Clouds 5 995 86 10000 7.2 250 06:55 29.01.2020
3528 Clouds 5 995 86 10000 7.2 250 06:37 29.01.2020
3529 Clouds 5 997 75 10000 7.7 260 06:18 29.01.2020
3530 Clouds 5 995 86 10000 8.2 250 05:44 29.01.2020
3531 Clouds 5 996 81 10000 6.7 250 05:25 29.01.2020
3532 Clouds 5 994 86 10000 6.7 250 04:37 29.01.2020
3533 Rain 4 994 86 8000 5.7 240 03:49 29.01.2020
3534 Clouds 4 994 86 10000 5.7 240 02:33 29.01.2020
3535 Rain 4 993 86 10000 6.2 230 00:43 29.01.2020
3536 Rain 4 994 86 10000 6.2 230 00:25 29.01.2020
3537 Clouds 4 993 86 10000 6.2 240 23:58 28.01.2020
3538 Clouds 4 993 86 10000 6.2 240 23:37 28.01.2020
3539 Clouds 3 994 86 10000 1.5 230 23:18 28.01.2020
3540 Clouds 3 993 86 10000 6.7 250 22:41 28.01.2020
3541 Drizzle 3 994 86 10000 3.1 240 22:21 28.01.2020
3542 Clouds 3 992 80 10000 7.7 250 21:54 28.01.2020
3543 Clouds 3 992 80 10000 7.7 250 21:36 28.01.2020
3544 Clouds 3 994 86 10000 4.6 240 21:18 28.01.2020
3545 Clouds 3 992 80 10000 7.2 250 20:42 28.01.2020
3546 Clouds 4 994 86 10000 5.1 250 20:23 28.01.2020
3547 Clouds 4 991 80 10000 8.2 260 19:55 28.01.2020
3548 Clouds 4 993 80 10000 5.7 250 19:36 28.01.2020
3549 Clouds 4 993 80 10000 5.7 250 19:18 28.01.2020
3550 Clouds 4 993 80 10000 7.2 260 18:41 28.01.2020
3551 Rain 4 992 86 10000 5.7 250 18:22 28.01.2020
3552 Rain 4 989 86 10000 11.3 260 17:59 28.01.2020
3553 Rain 4 989 86 10000 11.3 260 17:39 28.01.2020
3554 Rain 4 988 86 10000 12.3 270 17:21 28.01.2020
3555 Snow 4 988 93 10000 12.9 270 16:56 28.01.2020
3556 Snow 4 988 93 10000 12.9 270 16:37 28.01.2020
3557 Clouds 4 990 80 10000 7.7 260 16:19 28.01.2020
3558 Clouds 4 989 80 10000 7.2 260 15:44 28.01.2020
3559 Clouds 4 988 93 10000 5.7 250 15:19 28.01.2020
3560 Clouds 3 986 88 2500 5.1 240 14:57 28.01.2020
3561 Clouds 3 986 88 2500 5.1 240 14:39 28.01.2020
3562 Clouds 3 986 88 2500 5.1 240 14:39 28.01.2020
3563 Snow 3 988 93 3700 8.7 260 14:18 28.01.2020
3564 Rain 3 985 93 10000 7.2 230 13:41 28.01.2020
3565 Rain 3 986 93 4600 8.7 250 13:23 28.01.2020
3566 Rain 4 985 87 5000 4.6 210 12:43 28.01.2020
3567 Drizzle 4 986 93 10000 6.2 240 12:24 28.01.2020
3568 Rain 5 985 87 10000 3.6 200 11:58 28.01.2020
3569 Rain 5 985 87 10000 3.6 200 11:39 28.01.2020
3570 Clouds 6 985 87 10000 5.7 190 11:20 28.01.2020
3571 Clouds 6 986 87 10000 4.1 200 10:42 28.01.2020
3572 Clouds 5 985 93 10000 4.6 200 10:24 28.01.2020
3573 Clouds 5 986 86 10000 4.1 200 09:58 28.01.2020
3574 Clouds 5 986 86 10000 4.1 200 09:38 28.01.2020
3575 Clouds 5 986 81 10000 4.6 210 09:19 28.01.2020
3576 Clouds 5 987 87 10000 5.7 220 08:44 28.01.2020
3577 Clouds 5 987 93 10000 5.7 200 08:25 28.01.2020
3578 Clouds 6 987 87 10000 5.7 220 07:42 28.01.2020
3579 Clouds 6 987 87 10000 8.2 220 07:23 28.01.2020
3580 Rain 6 987 87 10000 5.7 220 06:44 28.01.2020
3581 Clouds 6 988 93 10000 7.7 210 06:23 28.01.2020
3582 Clouds 6 988 87 10000 5.7 220 05:37 28.01.2020
3583 Drizzle 6 988 93 6000 6.2 210 05:19 28.01.2020
3584 Drizzle 6 988 93 8000 6.2 160 03:46 28.01.2020
3585 Drizzle 6 989 93 8000 5.1 150 02:44 28.01.2020
3586 Drizzle 6 989 93 10000 5.1 160 02:25 28.01.2020
3587 Drizzle 6 991 93 8000 5.1 150 01:53 28.01.2020
3588 Drizzle 6 993 93 8000 4.6 150 01:20 28.01.2020
3589 Drizzle 6 993 93 8000 4.6 150 00:43 28.01.2020
3590 Rain 6 992 93 10000 4.6 150 00:19 28.01.2020
3591 Clouds 7 995 93 8000 3.1 160 23:43 27.01.2020
3592 Clouds 7 996 93 8000 3.6 160 23:19 27.01.2020
3593 Clouds 7 996 93 10000 4.1 170 22:45 27.01.2020
3594 Clouds 7 996 93 10000 4.1 170 22:20 27.01.2020
3595 Clouds 7 996 93 10000 4.1 170 22:20 27.01.2020
3596 Clouds 7 996 93 10000 4.1 170 22:20 27.01.2020
3597 Clouds 7 997 93 10000 3.6 170 21:57 27.01.2020
3598 Clouds 7 997 93 10000 3.6 170 21:57 27.01.2020
3599 Clouds 7 997 93 10000 3.6 170 21:39 27.01.2020
3600 Clouds 7 997 93 10000 4.1 170 21:19 27.01.2020
3601 Clouds 7 999 93 10000 3.6 180 20:57 27.01.2020
3602 Clouds 7 999 93 10000 3.6 180 20:38 27.01.2020
3603 Clouds 7 998 93 10000 3.6 170 20:19 27.01.2020
3604 Clouds 7 1000 93 10000 3.1 180 19:56 27.01.2020
3605 Clouds 7 1000 93 10000 3.1 180 19:38 27.01.2020
3606 Clouds 7 999 93 10000 3.6 170 19:19 27.01.2020
3607 Clouds 8 1000 93 10000 3.1 180 18:40 27.01.2020
3608 Clouds 8 1000 93 10000 3.6 190 18:21 27.01.2020
3609 Clouds 8 1001 93 10000 3.6 180 17:58 27.01.2020
3610 Clouds 8 1001 93 10000 3.6 180 17:38 27.01.2020
3611 Clouds 8 1001 93 10000 4.1 180 17:19 27.01.2020
3612 Clouds 8 1001 87 10000 3.1 190 16:56 27.01.2020
3613 Clouds 9 1001 87 10000 3.1 190 16:37 27.01.2020
3614 Clouds 9 1002 87 10000 3.1 200 16:19 27.01.2020
3615 Clouds 9 1002 81 10000 5.1 200 15:41 27.01.2020
3616 Clouds 9 1002 87 10000 4.1 190 15:20 27.01.2020
3617 Clouds 9 1003 87 10000 6.2 210 14:59 27.01.2020
3618 Clouds 9 1003 87 10000 6.2 210 14:40 27.01.2020
3619 Clouds 9 1003 87 10000 5.7 210 14:21 27.01.2020
3620 Clouds 9 1003 87 10000 5.1 210 13:46 27.01.2020
3621 Clouds 9 1003 87 10000 5.7 210 13:24 27.01.2020
3622 Clouds 9 1004 87 10000 5.1 210 12:58 27.01.2020
3623 Rain 9 1004 93 10000 5.7 200 12:39 27.01.2020
3624 Clouds 8 1004 87 10000 6.2 210 12:21 27.01.2020
3625 Clouds 8 1004 93 10000 5.1 210 11:43 27.01.2020
3626 Clouds 8 1004 93 10000 5.1 210 11:43 27.01.2020
3627 Clouds 8 1004 100 10000 5.7 200 11:22 27.01.2020
3628 Clouds 8 1005 87 10000 4.6 200 10:57 27.01.2020
3629 Clouds 8 1005 87 10000 4.6 200 10:39 27.01.2020
3630 Clouds 8 1005 87 10000 4.6 200 10:20 27.01.2020
3631 Clouds 8 1005 87 10000 5.1 220 09:40 27.01.2020
3632 Clouds 8 1005 93 9000 4.6 200 09:19 27.01.2020
3633 Clouds 8 1005 93 10000 5.1 210 08:57 27.01.2020
3634 Clouds 7 1005 93 10000 5.1 210 08:39 27.01.2020
3635 Clouds 7 1005 93 10000 5.7 200 08:19 27.01.2020
3636 Drizzle 7 1005 93 6000 5.7 210 07:47 27.01.2020
3637 Drizzle 7 1005 93 6000 5.7 210 07:47 27.01.2020
3638 Clouds 7 1005 100 10000 6.2 200 07:29 27.01.2020
3639 Drizzle 7 1005 93 4500 5.7 210 06:39 27.01.2020
3640 Drizzle 7 1006 100 4500 5.1 190 05:51 27.01.2020
3641 Drizzle 7 1006 93 9000 7.2 200 05:18 27.01.2020
3642 Drizzle 6 1007 93 6000 5.7 190 03:36 27.01.2020
3643 Clouds 7 1009 87 10000 4.1 190 01:57 27.01.2020
3644 Clouds 7 1008 87 10000 6.2 190 01:28 27.01.2020
3645 Clouds 7 1008 87 10000 6.2 190 01:28 27.01.2020
3646 Clouds 6 1009 87 10000 5.1 180 00:42 27.01.2020
3647 Clouds 6 1009 87 10000 5.1 180 00:22 27.01.2020
3648 Clouds 6 1009 87 10000 5.1 180 00:22 27.01.2020
3649 Clouds 6 1010 93 10000 3.6 180 23:58 26.01.2020
3650 Clouds 6 1010 93 10000 3.6 180 23:39 26.01.2020
3651 Clouds 6 1010 93 10000 4.1 180 23:18 26.01.2020
3652 Clouds 6 1011 93 9000 3.6 180 22:39 26.01.2020
3653 Clouds 6 1010 87 10000 4.6 190 22:20 26.01.2020
3654 Clouds 6 1011 93 9000 3.6 180 21:58 26.01.2020
3655 Clouds 6 1011 93 9000 3.6 180 21:40 26.01.2020
3656 Clouds 5 1011 93 8000 4.1 180 21:21 26.01.2020
3657 Clouds 5 1011 86 8000 4.1 180 20:58 26.01.2020
3658 Clouds 5 1011 86 8000 4.1 180 20:39 26.01.2020
3659 Clear 5 1011 93 7000 3.6 170 20:20 26.01.2020
3660 Clouds 5 1012 93 8000 2.6 180 19:59 26.01.2020
3661 Clouds 5 1012 93 8000 2.6 180 19:39 26.01.2020
3662 Clouds 5 1012 93 8000 2.6 180 19:39 26.01.2020
3663 Clouds 5 1011 93 7000 3.6 170 19:21 26.01.2020
3664 Clouds 5 1012 93 8000 2.6 180 18:58 26.01.2020
3665 Clouds 5 1012 93 8000 2.6 180 18:39 26.01.2020
3666 Clear 5 1012 93 7000 2.6 160 18:21 26.01.2020
3667 Clouds 5 1012 93 8000 3.1 170 17:57 26.01.2020
3668 Clouds 5 1012 93 8000 3.1 170 17:38 26.01.2020
3669 Clear 5 1012 93 8000 2.6 190 17:18 26.01.2020
3670 Clear 5 1012 93 8000 2.6 190 17:18 26.01.2020
3671 Clouds 5 1013 86 9000 3.6 170 16:57 26.01.2020
3672 Clouds 5 1013 86 9000 3.6 170 16:39 26.01.2020
3673 Clear 6 1012 87 8000 3.1 180 16:20 26.01.2020
3674 Clear 6 1012 87 8000 3.1 180 16:20 26.01.2020
3675 Clouds 6 1013 86 9000 4.1 190 15:46 26.01.2020
3676 Clouds 6 1013 86 8000 4.1 180 15:22 26.01.2020
3677 Clouds 6 1013 86 8000 4.1 180 14:58 26.01.2020
3678 Clouds 6 1013 86 8000 4.1 180 14:39 26.01.2020
3679 Clouds 5 1014 86 8000 3.6 180 14:19 26.01.2020
3680 Clouds 5 1014 93 7000 3.6 170 13:42 26.01.2020
3681 Clouds 4 1014 93 6000 4.1 170 13:20 26.01.2020
3682 Clouds 4 1014 94 0 2.68 172 12:57 26.01.2020
3683 Clouds 4 1014 95 0 2.68 338 12:39 26.01.2020
3684 Mist 3 1015 93 1600 4.6 170 12:21 26.01.2020
3685 Mist 3 1015 93 1600 4.6 170 12:21 26.01.2020
3686 Clouds 3 1015 95 0 2.68 177 11:57 26.01.2020
3687 Clouds 3 1015 95 0 2.68 177 11:57 26.01.2020
3688 Clouds 3 1015 95 0 2.68 146 11:38 26.01.2020
3689 Fog 2 1016 83 300 5.1 170 11:18 26.01.2020
3690 Mist 2 1015 100 1600 3.6 150 10:58 26.01.2020
3691 Mist 2 1015 100 1600 3.6 150 10:38 26.01.2020
3692 Mist 1 1015 100 1600 3.6 150 10:20 26.01.2020
3693 Fog 1 1015 100 800 4.1 160 09:57 26.01.2020
3694 Fog 1 1015 100 600 4.1 160 09:39 26.01.2020
3695 Fog 1 1015 100 600 4.1 160 09:20 26.01.2020
3696 Mist 1 1016 83 3000 4.6 170 08:43 26.01.2020
3697 Fog 1 1015 100 900 4.1 150 08:22 26.01.2020
3698 Mist 1 1016 78 5000 3.6 170 07:56 26.01.2020
3699 Mist 1 1016 78 5000 3.6 170 07:38 26.01.2020
3700 Fog 1 1016 100 750 4.6 160 07:20 26.01.2020
3701 Mist 1 1016 100 1700 4.1 160 06:30 26.01.2020
3702 Mist 1 1017 78 2300 3.6 160 05:31 26.01.2020
3703 Clouds 1 1017 93 7000 3.1 190 04:45 26.01.2020
3704 Clouds 2 1017 81 7000 3.1 190 02:42 26.01.2020
3705 Clouds 2 1018 86 7000 4.1 180 01:48 26.01.2020
3706 Mist 2 1018 93 4100 3.6 180 01:24 26.01.2020
3707 Clouds 2 1018 93 6000 3.6 190 00:48 26.01.2020
3708 Mist 2 1019 93 4200 4.1 190 00:29 26.01.2020
3709 Clouds 2 1019 93 6000 3.6 210 23:41 25.01.2020
3710 Clouds 2 1019 93 6000 3.6 210 23:22 25.01.2020
3711 Clouds 2 1019 93 6000 3.6 210 22:59 25.01.2020
3712 Clouds 2 1019 93 6000 3.6 210 22:40 25.01.2020
3713 Clouds 2 1017 91 0 0.45 242 22:19 25.01.2020
3714 Clouds 2 1019 91 0 2.24 174 21:57 25.01.2020
3715 Mist 2 1019 93 5000 3.6 200 21:38 25.01.2020
3716 Mist 2 1019 93 5000 3.6 200 21:38 25.01.2020
3717 Mist 2 1019 93 5000 3.6 200 21:20 25.01.2020
3718 Clouds 2 1019 85 0 5.22 203 20:44 25.01.2020
3719 Mist 2 1019 93 4500 4.1 210 20:44 25.01.2020
3720 Mist 2 1019 93 4500 4.1 210 20:25 25.01.2020
3721 Mist 2 1019 93 4500 4.1 210 20:25 25.01.2020
3722 Clouds 3 1019 82 0 4.89 197 19:56 25.01.2020
3723 Clouds 2 1019 91 0 2.24 185 19:37 25.01.2020
3724 Clouds 3 1019 91 0 2.24 338 19:18 25.01.2020
3725 Mist 3 1019 86 4500 3.6 210 18:43 25.01.2020
3726 Mist 3 1019 86 4500 3.6 210 18:22 25.01.2020
3727 Mist 3 1019 86 4500 3.6 210 17:58 25.01.2020
3728 Mist 3 1019 86 4500 3.6 210 17:38 25.01.2020
3729 Mist 3 1019 93 4500 3.6 220 17:19 25.01.2020
3730 Mist 3 1019 93 4500 3.6 220 16:56 25.01.2020
3731 Mist 3 1019 93 4500 3.6 220 16:36 25.01.2020
3732 Mist 3 1020 93 4000 3.6 220 16:18 25.01.2020
3733 Mist 3 1020 93 3800 4.1 210 15:42 25.01.2020
3734 Mist 3 1020 93 3800 4.1 210 15:23 25.01.2020
3735 Mist 3 1020 93 3800 4.1 210 14:46 25.01.2020
3736 Drizzle 3 1020 93 3500 4.1 220 14:19 25.01.2020
3737 Drizzle 3 1020 93 3500 4.1 220 13:57 25.01.2020
3738 Drizzle 3 1020 93 3500 4.1 220 13:39 25.01.2020
3739 Drizzle 3 1021 93 3500 3.6 220 13:18 25.01.2020
3740 Drizzle 3 1021 93 3500 4.1 220 12:42 25.01.2020
3741 Drizzle 3 1021 93 3500 4.1 220 12:21 25.01.2020
3742 Drizzle 3 1021 93 3500 4.1 220 11:45 25.01.2020
3743 Mist 3 1021 93 3200 4.6 200 11:21 25.01.2020
3744 Drizzle 3 1020 93 3000 3.6 220 10:58 25.01.2020
3745 Drizzle 3 1020 93 3000 3.6 220 10:40 25.01.2020
3746 Mist 3 1020 93 2800 5.1 200 10:20 25.01.2020
3747 Drizzle 3 1020 93 2500 3.6 220 09:41 25.01.2020
3748 Mist 3 1020 93 3000 4.6 200 09:22 25.01.2020
3749 Drizzle 3 1020 93 3000 2.6 230 08:44 25.01.2020
3750 Mist 3 1020 93 2800 5.1 200 08:22 25.01.2020
3751 Drizzle 3 1020 93 3500 2.6 220 07:49 25.01.2020
3752 Drizzle 3 1019 93 3000 2.6 230 06:51 25.01.2020
3753 Drizzle 3 1019 93 3000 2.6 230 06:51 25.01.2020
3754 Mist 3 1020 93 2400 3.6 210 06:27 25.01.2020
3755 Drizzle 3 1019 93 3000 2.6 220 05:46 25.01.2020
3756 Drizzle 3 1020 93 3000 3.1 230 04:50 25.01.2020
3757 Drizzle 3 1020 93 3000 2.6 230 03:51 25.01.2020
3758 Drizzle 3 1020 93 2500 3.1 230 02:57 25.01.2020
3759 Drizzle 3 1021 100 2200 3.6 210 02:18 25.01.2020
3760 Drizzle 3 1020 93 3500 3.6 230 01:43 25.01.2020
3761 Mist 3 1020 93 3500 4.1 220 00:44 25.01.2020
3762 Mist 3 1021 93 2800 3.6 210 00:26 25.01.2020
3763 Mist 3 1021 93 3500 3.6 220 23:58 24.01.2020
3764 Mist 3 1021 93 3500 3.6 220 23:40 24.01.2020
3765 Mist 3 1021 93 2700 4.6 210 23:22 24.01.2020
3766 Mist 3 1021 93 3500 4.1 220 22:44 24.01.2020
3767 Mist 3 1021 93 3100 4.6 210 22:25 24.01.2020
3768 Mist 3 1021 93 2000 3.6 220 21:43 24.01.2020
3769 Mist 3 1021 93 3200 4.6 210 21:21 24.01.2020
3770 Mist 3 1021 93 2000 3.6 230 20:59 24.01.2020
3771 Mist 3 1021 93 2000 3.6 230 20:40 24.01.2020
3772 Mist 3 1021 93 3400 4.1 210 20:21 24.01.2020
3773 Mist 3 1021 93 2000 3.6 220 19:57 24.01.2020
3774 Mist 3 1021 93 2000 3.6 220 19:38 24.01.2020
3775 Mist 3 1021 93 4500 3.6 210 19:20 24.01.2020
3776 Drizzle 3 1021 93 1800 3.6 220 18:43 24.01.2020
3777 Mist 3 1021 93 4800 4.1 210 18:24 24.01.2020
3778 Drizzle 3 1021 93 50 2.6 230 17:56 24.01.2020
3779 Drizzle 3 1021 93 50 2.6 230 17:38 24.01.2020
3780 Mist 3 1021 86 3800 3.6 220 17:18 24.01.2020
3781 Mist 3 1021 93 2200 3.1 220 16:39 24.01.2020
3782 Mist 3 1021 93 3500 3.1 220 16:21 24.01.2020
3783 Drizzle 3 1021 93 2000 4.1 230 15:43 24.01.2020
3784 Mist 3 1021 93 3000 4.6 220 15:23 24.01.2020
3785 Mist 3 1021 93 2500 3.6 220 14:59 24.01.2020
3786 Mist 3 1021 93 2500 3.6 220 14:40 24.01.2020
3787 Mist 3 1021 93 3100 4.6 210 14:22 24.01.2020
3788 Mist 3 1021 93 2500 4.6 220 13:43 24.01.2020
3789 Mist 3 1021 93 2500 4.6 230 13:23 24.01.2020
3790 Mist 3 1022 93 3000 4.1 240 12:45 24.01.2020
3791 Mist 2 1023 93 3200 4.6 210 12:23 24.01.2020
3792 Mist 2 1022 93 2000 3.6 220 11:58 24.01.2020
3793 Mist 2 1022 93 2000 3.6 220 11:39 24.01.2020
3794 Mist 2 1022 93 2000 3.6 230 11:18 24.01.2020
3795 Mist 2 1022 100 1500 3.6 210 10:43 24.01.2020
3796 Mist 2 1022 100 1500 2.6 220 10:21 24.01.2020
3797 Mist 2 1022 93 3000 3.1 210 09:56 24.01.2020
3798 Mist 2 1022 93 3000 3.1 210 09:37 24.01.2020
3799 Mist 2 1023 93 1500 2.6 240 09:18 24.01.2020
3800 Mist 2 1023 100 1500 2.1 240 08:40 24.01.2020
3801 Mist 2 1022 100 2000 4.1 210 08:19 24.01.2020
3802 Mist 2 1022 100 2000 2.6 220 07:49 24.01.2020
3803 Mist 2 1023 100 1600 3.6 220 07:28 24.01.2020
3804 Mist 2 1022 100 1500 2.6 230 06:46 24.01.2020
3805 Mist 2 1023 93 1300 3.6 200 06:28 24.01.2020
3806 Drizzle 2 1022 100 800 3.1 200 05:57 24.01.2020
3807 Fog 2 1023 100 700 3.6 200 04:52 24.01.2020
3808 Mist 2 1024 93 1200 3.6 210 02:53 24.01.2020
3809 Mist 2 1025 100 1900 2.6 170 02:23 24.01.2020
3810 Mist 2 1025 100 3500 2.6 210 01:40 24.01.2020
3811 Mist 2 1026 100 1700 2.1 180 01:19 24.01.2020
3812 Mist 2 1026 100 3200 2.6 220 00:20 24.01.2020
3813 Mist 2 1026 100 3500 3.1 230 23:48 23.01.2020
3814 Mist 2 1027 100 2200 2.1 220 23:30 23.01.2020
3815 Mist 2 1027 93 3500 2.6 220 22:59 23.01.2020
3816 Mist 2 1027 93 3500 2.6 220 22:37 23.01.2020
3817 Mist 2 1027 100 1300 2.1 210 22:19 23.01.2020
3818 Clouds 2 1027 93 7000 2.1 220 21:57 23.01.2020
3819 Clouds 3 1027 93 7000 2.1 220 21:38 23.01.2020
3820 Fog 3 1028 100 900 2.1 220 21:20 23.01.2020
3821 Clouds 3 1028 93 7000 2.6 240 20:58 23.01.2020
3822 Clouds 3 1028 93 7000 2.6 240 20:38 23.01.2020
3823 Fog 3 1028 100 900 3.1 180 20:19 23.01.2020
3824 Clouds 3 1028 93 8000 2.6 220 19:54 23.01.2020
3825 Clouds 3 1028 93 8000 2.6 220 19:36 23.01.2020
3826 Mist 3 1028 100 1600 2.1 170 19:18 23.01.2020
3827 Clouds 3 1028 93 10000 2.6 220 18:42 23.01.2020
3828 Clouds 4 1029 93 6000 1.5 180 18:20 23.01.2020
3829 Clouds 4 1029 93 10000 2.1 220 17:58 23.01.2020
3830 Clouds 4 1029 93 10000 2.1 220 17:40 23.01.2020
3831 Clouds 4 1029 93 10000 1.5 180 17:20 23.01.2020
3832 Clouds 4 1029 93 10000 2.6 230 16:56 23.01.2020
3833 Clouds 4 1029 93 10000 2.6 230 16:36 23.01.2020
3834 Clouds 4 1029 93 10000 2.6 200 16:18 23.01.2020
3835 Clouds 4 1029 86 10000 3.6 250 15:54 23.01.2020
3836 Clouds 4 1029 86 10000 3.6 250 15:36 23.01.2020
3837 Clouds 4 1030 93 10000 2.1 220 15:18 23.01.2020
3838 Clouds 4 1030 93 10000 2.1 220 15:18 23.01.2020
3839 Clouds 4 1030 93 10000 2.6 240 14:54 23.01.2020
3840 Clouds 4 1030 93 10000 2.6 240 14:36 23.01.2020
3841 Clouds 4 1031 93 10000 3.1 240 14:18 23.01.2020
3842 Clouds 4 1031 100 10000 2.1 220 13:39 23.01.2020
3843 Clouds 4 1031 100 10000 2.1 220 13:39 23.01.2020
3844 Clouds 4 1032 93 7000 2.1 210 13:20 23.01.2020
3845 Fog 3 1032 93 800 2.1 220 12:47 23.01.2020
3846 Fog 3 1033 100 200 1.5 200 12:25 23.01.2020
3847 Fog 3 1033 93 200 1.5 170 11:59 23.01.2020
3848 Fog 2 1033 93 200 1.5 170 11:39 23.01.2020
3849 Fog 2 1033 93 200 1 160 11:19 23.01.2020
3850 Fog 1 1033 87 200 1.5 0 10:45 23.01.2020
3851 Mist 1 1033 100 5000 1 0 10:23 23.01.2020
3852 Fog 1 1034 100 200 1 190 09:59 23.01.2020
3853 Fog 1 1034 100 200 1 190 09:39 23.01.2020
3854 Mist 1 1034 90 2500 1 140 09:20 23.01.2020
3855 Fog 1 1034 100 200 1 230 08:43 23.01.2020
3856 Fog 1 1034 87 500 0.5 170 08:24 23.01.2020
3857 Fog 0 1034 100 500 0.5 230 07:49 23.01.2020
3858 Fog 0 1034 85 250 1 190 07:27 23.01.2020
3859 Fog 0 1034 100 400 1 0 06:54 23.01.2020
3860 Fog 0 1034 85 500 0.5 160 06:24 23.01.2020
3861 Fog 0 1034 100 300 1 260 05:59 23.01.2020
3862 Fog 1 1035 86 300 1 250 04:24 23.01.2020
3863 Fog 1 1035 86 500 1 230 02:48 23.01.2020
3864 Fog 1 1035 87 500 1.5 210 01:50 23.01.2020
3865 Fog 1 1035 88 600 1.5 270 00:41 23.01.2020
3866 Fog 2 1036 88 400 0.5 250 00:20 23.01.2020
3867 Fog 2 1035 100 10000 1 260 23:45 22.01.2020
3868 Fog 2 1036 88 350 0.5 250 23:27 22.01.2020
3869 Fog 3 1035 100 10000 1.5 320 22:43 22.01.2020
3870 Fog 3 1036 90 550 1 250 22:24 22.01.2020
3871 Fog 3 1035 93 10000 1.5 290 21:58 22.01.2020
3872 Fog 3 1035 93 10000 1.5 290 21:36 22.01.2020
3873 Fog 3 1035 93 10000 1.5 290 21:36 22.01.2020
3874 Clouds 4 1035 93 10000 1.5 310 21:18 22.01.2020
3875 Clouds 4 1035 93 10000 1.5 310 20:42 22.01.2020
3876 Clouds 5 1035 86 10000 2.1 300 20:23 22.01.2020
3877 Clouds 5 1035 86 10000 2.1 300 19:59 22.01.2020
3878 Clouds 5 1035 86 10000 2.1 300 19:41 22.01.2020
3879 Clouds 5 1035 87 10000 1.5 320 19:20 22.01.2020
3880 Clouds 5 1035 87 10000 1.5 320 18:58 22.01.2020
3881 Clouds 6 1035 87 10000 1.5 320 18:39 22.01.2020
3882 Clouds 6 1035 93 10000 1.5 290 18:21 22.01.2020
3883 Clouds 6 1034 87 10000 2.6 300 17:57 22.01.2020
3884 Clouds 6 1034 87 10000 2.6 300 17:57 22.01.2020
3885 Clouds 6 1034 87 10000 2.6 300 17:39 22.01.2020
3886 Clouds 6 1034 87 10000 2.6 300 17:39 22.01.2020
3887 Clouds 7 1035 87 10000 2.6 330 17:19 22.01.2020
3888 Clouds 7 1034 81 10000 4.1 330 16:55 22.01.2020
3889 Clouds 7 1034 81 10000 4.1 330 16:55 22.01.2020
3890 Clouds 7 1034 81 10000 4.1 330 16:37 22.01.2020
3891 Clouds 7 1035 87 10000 2.1 350 16:18 22.01.2020
3892 Clouds 8 1034 75 10000 5.1 330 15:41 22.01.2020
3893 Clouds 8 1034 75 10000 5.1 340 15:23 22.01.2020
3894 Clouds 8 1034 75 10000 5.1 340 14:59 22.01.2020
3895 Clouds 8 1034 75 10000 5.1 340 14:38 22.01.2020
3896 Clouds 8 1035 87 10000 3.6 320 14:20 22.01.2020
3897 Clouds 8 1035 75 10000 5.1 340 13:56 22.01.2020
3898 Clouds 8 1035 75 10000 5.1 340 13:37 22.01.2020
3899 Clouds 8 1035 87 10000 3.6 310 13:19 22.01.2020
3900 Clouds 8 1034 81 10000 3.6 320 12:56 22.01.2020
3901 Clouds 8 1034 81 10000 3.6 320 12:56 22.01.2020
3902 Clouds 8 1034 81 10000 3.6 320 12:38 22.01.2020
3903 Clouds 8 1034 87 10000 3.1 320 12:19 22.01.2020
3904 Clouds 7 1034 87 10000 3.1 320 11:56 22.01.2020
3905 Clouds 7 1034 87 10000 3.1 320 11:38 22.01.2020
3906 Clouds 7 1035 87 10000 4.1 330 11:19 22.01.2020
3907 Clouds 7 1035 87 10000 4.1 330 11:19 22.01.2020
3908 Clouds 7 1034 93 10000 2.6 310 10:45 22.01.2020
3909 Mist 7 1035 100 3600 2.1 290 10:21 22.01.2020
3910 Clouds 7 1034 93 10000 2.6 320 09:58 22.01.2020
3911 Clouds 7 1034 93 10000 2.6 320 09:40 22.01.2020
3912 Clouds 6 1034 93 8000 4.1 330 09:21 22.01.2020
3913 Drizzle 6 1034 93 5000 3.6 310 08:55 22.01.2020
3914 Drizzle 6 1034 93 5000 3.6 310 08:37 22.01.2020
3915 Drizzle 6 1033 93 4000 3.1 320 08:19 22.01.2020
3916 Drizzle 6 1033 100 1600 2.6 300 07:44 22.01.2020
3917 Drizzle 6 1033 100 1600 4.1 290 07:26 22.01.2020
3918 Drizzle 5 1033 100 2500 4.1 280 06:36 22.01.2020
3919 Drizzle 5 1033 100 1500 4.1 280 05:57 22.01.2020
3920 Drizzle 4 1034 93 3000 4.6 260 04:26 22.01.2020
3921 Mist 4 1034 93 3000 4.1 250 03:27 22.01.2020
3922 Mist 4 1035 86 4500 4.1 250 02:48 22.01.2020
3923 Clouds 4 1036 86 9000 3.6 250 00:48 22.01.2020
3924 Mist 4 1037 100 1900 4.1 230 00:28 22.01.2020
3925 Clouds 4 1036 86 9000 3.6 250 23:59 21.01.2020
3926 Clouds 4 1036 86 9000 3.6 250 23:37 21.01.2020
3927 Mist 4 1037 100 2300 4.1 220 23:19 21.01.2020
3928 Clouds 4 1036 86 10000 2.6 240 22:42 21.01.2020
3929 Mist 4 1037 93 1200 3.6 230 22:23 21.01.2020
3930 Clouds 4 1037 81 10000 3.1 260 21:58 21.01.2020
3931 Clouds 4 1037 81 10000 3.1 260 21:39 21.01.2020
3932 Mist 4 1037 100 3200 4.1 230 21:21 21.01.2020
3933 Clouds 4 1037 86 10000 3.6 250 20:57 21.01.2020
3934 Clouds 5 1037 86 10000 3.6 250 20:39 21.01.2020
3935 Mist 5 1038 100 3100 2.6 240 20:20 21.01.2020
3936 Clouds 5 1037 86 10000 5.1 270 19:58 21.01.2020
3937 Clouds 5 1037 86 10000 5.1 270 19:39 21.01.2020
3938 Mist 5 1038 100 3400 4.6 240 19:21 21.01.2020
3939 Clouds 4 1037 86 10000 4.6 260 18:57 21.01.2020
3940 Clouds 5 1037 86 10000 4.6 260 18:39 21.01.2020
3941 Clouds 5 1037 86 10000 4.6 260 18:39 21.01.2020
3942 Mist 5 1038 100 3200 3.1 230 18:20 21.01.2020
3943 Clouds 5 1037 86 10000 4.1 260 17:56 21.01.2020
3944 Clouds 5 1037 86 10000 4.1 260 17:38 21.01.2020
3945 Mist 5 1038 93 4300 4.1 220 17:18 21.01.2020
3946 Clouds 5 1037 86 7000 4.6 220 16:38 21.01.2020
3947 Mist 6 1039 87 5000 3.6 240 16:19 21.01.2020
3948 Mist 6 1038 86 5000 4.1 230 15:59 21.01.2020
3949 Mist 6 1038 86 5000 4.1 230 15:38 21.01.2020
3950 Clouds 6 1039 87 9000 4.1 250 15:19 21.01.2020
3951 Mist 6 1039 93 4500 4.1 250 14:40 21.01.2020
3952 Clear 6 1039 81 9000 4.6 230 14:21 21.01.2020
3953 Clouds 6 1040 87 8000 4.1 240 13:55 21.01.2020
3954 Mist 5 1039 93 3000 4.1 250 13:37 21.01.2020
3955 Clouds 5 1040 93 6000 4.1 230 13:18 21.01.2020
3956 Mist 4 1040 93 4000 4.6 250 12:42 21.01.2020
3957 Mist 4 1040 93 4000 5.7 260 12:24 21.01.2020
3958 Mist 4 1040 93 4000 4.1 260 11:56 21.01.2020
3959 Mist 4 1040 93 4000 4.1 260 11:38 21.01.2020
3960 Clouds 3 1041 93 6000 4.6 240 11:19 21.01.2020
3961 Mist 3 1040 93 4500 5.7 260 10:43 21.01.2020
3962 Mist 2 1041 93 4200 3.1 210 10:23 21.01.2020
3963 Mist 2 1040 93 4000 4.6 250 09:56 21.01.2020
3964 Mist 2 1040 93 4000 4.6 250 09:38 21.01.2020
3965 Mist 2 1040 89 3200 2.6 230 09:20 21.01.2020
3966 Mist 2 1040 93 4000 6.2 240 08:44 21.01.2020
3967 Mist 2 1041 100 2700 4.6 230 08:26 21.01.2020
3968 Mist 3 1040 100 2500 5.1 230 07:43 21.01.2020
3969 Mist 3 1041 100 2600 5.1 210 07:25 21.01.2020
3970 Mist 3 1040 100 2000 4.6 240 06:58 21.01.2020
3971 Mist 3 1040 100 2000 4.6 240 06:38 21.01.2020
3972 Mist 3 1041 100 2300 4.6 220 06:20 21.01.2020
3973 Mist 3 1040 93 1800 5.1 240 05:40 21.01.2020
3974 Mist 3 1040 100 4000 4.1 230 04:38 21.01.2020
3975 Mist 3 1042 100 3700 4.1 200 02:29 21.01.2020
3976 Clouds 3 1042 93 10000 3.6 210 01:36 21.01.2020
3977 Clouds 3 1042 93 10000 3.1 230 00:52 21.01.2020
3978 Clear 3 1043 100 7000 4.6 210 00:29 21.01.2020
3979 Clouds 3 1042 93 8000 3.6 220 23:56 20.01.2020
3980 Clouds 3 1042 93 8000 3.6 220 23:36 20.01.2020
3981 Clouds 3 1042 93 8000 3.6 220 23:36 20.01.2020
3982 Clear 3 1043 100 6000 3.6 210 23:18 20.01.2020
3983 Clouds 3 1043 100 8000 2.6 230 22:55 20.01.2020
3984 Clouds 3 1043 100 8000 2.6 230 22:36 20.01.2020
3985 Clear 4 1044 100 6000 3.6 210 22:18 20.01.2020
3986 Clouds 4 1043 93 10000 3.1 230 21:55 20.01.2020
3987 Clouds 4 1043 93 10000 3.1 230 21:36 20.01.2020
3988 Clear 4 1044 100 7000 3.6 220 21:18 20.01.2020
3989 Clouds 4 1044 93 10000 3.1 240 20:54 20.01.2020
3990 Clouds 4 1044 93 10000 3.1 240 20:36 20.01.2020
3991 Clouds 4 1044 93 10000 3.6 210 20:18 20.01.2020
3992 Clouds 4 1044 93 10000 3.1 210 19:54 20.01.2020
3993 Clouds 4 1044 93 10000 3.1 210 19:36 20.01.2020
3994 Clouds 5 1044 93 10000 3.1 210 19:18 20.01.2020
3995 Clouds 5 1044 86 10000 2.1 230 18:42 20.01.2020
3996 Clouds 5 1044 93 10000 3.6 220 18:21 20.01.2020
3997 Clouds 6 1044 93 10000 3.1 240 17:39 20.01.2020
3998 Clouds 6 1044 87 10000 3.1 230 17:19 20.01.2020
3999 Clouds 6 1044 81 10000 3.1 240 16:55 20.01.2020
4000 Clouds 7 1044 81 10000 3.1 240 16:36 20.01.2020
4001 Clouds 7 1045 87 10000 4.1 230 16:18 20.01.2020
4002 Clouds 7 1044 81 10000 3.6 250 15:41 20.01.2020
4003 Clouds 7 1045 87 10000 3.6 230 15:22 20.01.2020
4004 Clouds 7 1045 81 10000 4.6 230 14:59 20.01.2020
4005 Clouds 7 1045 81 10000 4.6 230 14:41 20.01.2020
4006 Clouds 7 1046 87 10000 4.1 230 14:21 20.01.2020
4007 Clouds 7 1045 93 10000 3.6 230 13:57 20.01.2020
4008 Clouds 6 1045 93 10000 3.6 230 13:38 20.01.2020
4009 Clouds 6 1046 93 10000 3.6 220 13:20 20.01.2020
4010 Clouds 6 1046 87 10000 3.6 230 12:44 20.01.2020
4011 Clouds 6 1046 93 10000 3.1 210 12:25 20.01.2020
4012 Clouds 5 1046 93 10000 3.1 210 12:25 20.01.2020
4013 Clouds 5 1046 93 10000 2.1 240 11:56 20.01.2020
4014 Clouds 5 1046 93 10000 2.1 240 11:37 20.01.2020
4015 Clouds 5 1046 93 10000 2.6 230 11:19 20.01.2020
4016 Clouds 4 1046 93 10000 2.1 240 10:47 20.01.2020
4017 Clouds 4 1046 100 9000 2.1 240 10:21 20.01.2020
4018 Clouds 4 1046 93 10000 2.1 230 09:42 20.01.2020
4019 Clouds 4 1046 100 8000 2.1 210 09:24 20.01.2020
4020 Clouds 3 1045 100 9000 2.1 240 08:59 20.01.2020
4021 Clouds 3 1045 100 9000 2.1 240 08:39 20.01.2020
4022 Clouds 3 1046 100 6000 3.1 230 08:20 20.01.2020
4023 Clouds 3 1045 100 8000 1.5 200 07:42 20.01.2020
4024 Fog 3 1045 93 6000 2.1 250 07:22 20.01.2020
4025 Fog 3 1045 93 6000 2.1 250 06:45 20.01.2020
4026 Fog 3 1045 100 6000 2.1 260 06:25 20.01.2020
4027 Fog 2 1045 100 6000 2.1 260 05:41 20.01.2020
4028 Mist 2 1045 85 3800 1.5 200 05:21 20.01.2020
4029 Mist 2 1045 100 5000 2.6 220 04:33 20.01.2020
4030 Fog 2 1045 93 3000 1.5 260 02:55 20.01.2020
4031 Fog 2 1045 100 1600 2.6 250 01:42 20.01.2020
4032 Fog 2 1045 100 2000 2.1 240 01:23 20.01.2020
4033 Fog 2 1045 93 10000 1 250 00:43 20.01.2020
4034 Mist 3 1045 85 2900 1 270 00:22 20.01.2020
4035 Clouds 3 1044 100 10000 1.5 310 23:39 19.01.2020
4036 Clear 4 1044 93 10000 2.6 320 23:19 19.01.2020
4037 Clear 4 1044 93 10000 2.6 320 22:56 19.01.2020
4038 Clear 4 1044 93 10000 2.6 320 22:38 19.01.2020
4039 Clear 4 1044 93 10000 2.6 320 22:38 19.01.2020
4040 Clouds 4 1044 93 7000 1.5 290 22:19 19.01.2020
4041 Clouds 4 1043 93 10000 2.1 340 21:56 19.01.2020
4042 Clouds 4 1043 93 10000 2.1 340 21:38 19.01.2020
4043 Clouds 4 1044 93 10000 2.1 280 21:20 19.01.2020
4044 Clouds 4 1042 93 10000 2.1 330 20:57 19.01.2020
4045 Clouds 4 1042 93 10000 2.1 330 20:38 19.01.2020
4046 Clouds 4 1043 93 9000 1.5 280 20:20 19.01.2020
4047 Clouds 5 1042 86 10000 3.1 320 19:57 19.01.2020
4048 Clouds 5 1042 86 10000 3.1 320 19:38 19.01.2020
4049 Clouds 5 1043 86 10000 1 300 19:20 19.01.2020
4050 Clouds 5 1041 93 10000 2.6 310 18:56 19.01.2020
4051 Clouds 5 1041 93 10000 2.6 310 18:38 19.01.2020
4052 Clouds 5 1042 93 10000 1.5 300 18:20 19.01.2020
4053 Clouds 6 1041 87 10000 2.6 310 17:58 19.01.2020
4054 Clouds 6 1041 87 10000 2.6 310 17:40 19.01.2020
4055 Clouds 6 1041 81 10000 2.6 310 17:21 19.01.2020
4056 Clear 6 1041 87 10000 2.1 320 16:59 19.01.2020
4057 Clouds 6 1040 81 10000 3.6 330 16:39 19.01.2020
4058 Clouds 7 1040 81 10000 3.6 320 16:21 19.01.2020
4059 Clouds 7 1039 75 10000 5.1 320 15:58 19.01.2020
4060 Clouds 7 1039 75 10000 5.1 320 15:38 19.01.2020
4061 Clouds 8 1039 70 10000 4.6 340 15:20 19.01.2020
4062 Clouds 8 1038 70 10000 5.1 340 14:58 19.01.2020
4063 Clouds 8 1038 70 10000 5.1 340 14:39 19.01.2020
4064 Clouds 8 1039 70 10000 5.7 340 14:18 19.01.2020
4065 Clouds 8 1037 70 10000 6.2 350 13:57 19.01.2020
4066 Clouds 8 1037 70 10000 6.2 350 13:38 19.01.2020
4067 Clouds 8 1039 75 10000 2.6 320 13:19 19.01.2020
4068 Clouds 7 1037 65 10000 4.1 350 12:55 19.01.2020
4069 Clouds 7 1037 65 10000 4.1 350 12:37 19.01.2020
4070 Clouds 7 1037 65 10000 4.1 350 12:37 19.01.2020
4071 Clouds 7 1038 81 10000 3.1 310 12:19 19.01.2020
4072 Clouds 6 1036 75 10000 3.1 340 11:42 19.01.2020
4073 Rain 6 1037 80 10000 3.6 10 11:21 19.01.2020
4074 Clouds 5 1035 81 10000 2.6 320 10:57 19.01.2020
4075 Clouds 5 1035 81 10000 2.6 320 10:39 19.01.2020
4076 Clouds 5 1035 81 10000 2.6 320 10:39 19.01.2020
4077 Clouds 5 1036 93 10000 2.1 300 10:19 19.01.2020
4078 Clouds 4 1034 93 10000 1 300 09:56 19.01.2020
4079 Clouds 4 1034 93 10000 1 300 09:56 19.01.2020
4080 Clouds 4 1034 93 10000 1 300 09:56 19.01.2020
4081 Clouds 4 1034 93 10000 1 300 09:56 19.01.2020
4082 Clouds 4 1034 93 10000 1 300 09:56 19.01.2020
4083 Clouds 4 1034 93 10000 1 300 09:37 19.01.2020
4084 Clouds 4 1035 93 10000 2.1 340 09:19 19.01.2020
4085 Rain 4 1033 86 10000 5.1 320 08:52 19.01.2020
4086 Clouds 3 1033 93 10000 1.5 300 08:30 19.01.2020
4087 Clouds 3 1032 86 10000 4.6 10 07:46 19.01.2020
4088 Clouds 3 1032 86 10000 2.1 340 07:27 19.01.2020
4089 Clouds 3 1030 93 10000 2.1 300 06:54 19.01.2020
4090 Rain 3 1031 86 10000 2.6 310 06:21 19.01.2020
4091 Clouds 2 1028 93 10000 3.6 270 03:51 19.01.2020
4092 Rain 2 1028 100 10000 2.1 250 02:28 19.01.2020
4093 Clouds 3 1027 93 10000 2.6 240 01:38 19.01.2020
4094 Clouds 3 1028 86 10000 3.1 270 01:18 19.01.2020
4095 Clouds 3 1028 86 10000 3.1 270 01:18 19.01.2020
4096 Clouds 3 1026 86 10000 3.1 250 00:41 19.01.2020
4097 Clouds 3 1026 80 10000 3.6 270 00:19 19.01.2020
4098 Clouds 3 1026 80 10000 3.6 270 23:45 18.01.2020
4099 Rain 3 1027 93 5000 1.5 0 23:25 18.01.2020
4100 Clouds 3 1025 86 10000 4.1 260 22:58 18.01.2020
4101 Clouds 3 1025 86 10000 4.1 260 22:40 18.01.2020
4102 Rain 3 1025 86 7000 3.1 250 22:21 18.01.2020
4103 Clouds 3 1025 86 10000 3.6 290 21:58 18.01.2020
4104 Clouds 3 1025 86 10000 3.6 290 21:38 18.01.2020
4105 Rain 4 1024 86 10000 2.6 330 21:20 18.01.2020
4106 Rain 3 1024 86 10000 2.6 330 20:56 18.01.2020
4107 Rain 3 1024 86 10000 2.6 330 20:38 18.01.2020
4108 Clouds 3 1025 93 10000 3.6 240 20:18 18.01.2020
4109 Clouds 4 1023 86 10000 2.6 280 19:43 18.01.2020
4110 Rain 4 1025 86 5000 3.1 310 19:24 18.01.2020
4111 Clouds 4 1023 93 10000 2.6 230 18:43 18.01.2020
4112 Rain 4 1024 80 10000 3.6 310 18:25 18.01.2020
4113 Rain 4 1024 80 10000 3.6 310 18:25 18.01.2020
4114 Clouds 4 1022 80 10000 3.1 270 17:59 18.01.2020
4115 Clouds 4 1022 80 10000 3.1 270 17:40 18.01.2020
4116 Clouds 4 1023 80 10000 3.1 260 17:20 18.01.2020
4117 Clouds 5 1021 80 10000 3.1 270 16:57 18.01.2020
4118 Clouds 5 1021 80 10000 3.1 270 16:38 18.01.2020
4119 Clouds 5 1022 81 10000 3.6 250 16:19 18.01.2020
4120 Clouds 5 1022 81 10000 3.6 250 16:19 18.01.2020
4121 Clouds 5 1021 86 10000 2.1 250 15:47 18.01.2020
4122 Clouds 5 1021 86 10000 2.1 250 15:47 18.01.2020
4123 Clouds 5 1020 86 10000 4.6 240 15:26 18.01.2020
4124 Clouds 6 1020 86 10000 4.6 240 15:00 18.01.2020
4125 Clouds 6 1020 86 10000 4.6 240 14:41 18.01.2020
4126 Clouds 6 1020 86 10000 4.1 240 14:19 18.01.2020
4127 Rain 6 1020 86 10000 4.6 240 13:57 18.01.2020
4128 Rain 6 1020 86 10000 4.6 240 13:36 18.01.2020
4129 Rain 6 1020 86 10000 4.6 240 13:36 18.01.2020
4130 Clouds 6 1021 81 10000 5.7 260 13:18 18.01.2020
4131 Rain 6 1020 93 10000 5.7 250 12:43 18.01.2020
4132 Clouds 6 1021 81 10000 6.7 240 12:22 18.01.2020
4133 Rain 5 1019 86 8000 5.7 240 11:58 18.01.2020
4134 Rain 5 1019 86 8000 5.7 240 11:40 18.01.2020
4135 Clouds 5 1020 93 10000 5.1 210 11:20 18.01.2020
4136 Rain 4 1019 93 4500 5.1 250 10:43 18.01.2020
4137 Rain 4 1019 93 7000 4.6 230 10:22 18.01.2020
4138 Clouds 4 1018 86 10000 5.1 220 09:57 18.01.2020
4139 Clouds 4 1018 86 10000 5.1 220 09:39 18.01.2020
4140 Clouds 3 1019 93 10000 5.7 210 09:19 18.01.2020
4141 Clouds 3 1017 93 10000 5.1 230 08:42 18.01.2020
4142 Clouds 3 1018 93 10000 5.7 210 08:20 18.01.2020
4143 Clouds 4 1017 93 10000 5.1 220 07:59 18.01.2020
4144 Clouds 3 1017 93 10000 5.1 220 07:39 18.01.2020
4145 Clouds 3 1018 93 10000 6.2 220 07:18 18.01.2020
4146 Clouds 3 1017 86 10000 5.7 220 06:44 18.01.2020
4147 Clouds 4 1016 86 10000 5.1 220 05:52 18.01.2020
4148 Clouds 4 1017 86 10000 5.7 210 04:25 18.01.2020
4149 Clouds 4 1015 80 10000 6.7 240 02:49 18.01.2020
4150 Rain 5 1014 81 10000 7.7 250 01:40 18.01.2020
4151 Rain 6 1014 87 4500 8.2 250 00:39 18.01.2020
4152 Clouds 6 1014 86 10000 8.2 250 00:20 18.01.2020
4153 Clouds 6 1013 81 10000 8.2 240 23:59 17.01.2020
4154 Clouds 6 1013 81 10000 8.2 240 23:40 17.01.2020
4155 Clouds 6 1014 87 10000 8.2 250 23:18 17.01.2020
4156 Clouds 7 1012 81 10000 6.7 230 22:42 17.01.2020
4157 Clouds 7 1013 81 10000 8.7 220 22:20 17.01.2020
4158 Clouds 7 1012 87 10000 6.2 230 21:57 17.01.2020
4159 Clouds 7 1012 87 10000 6.2 230 21:38 17.01.2020
4160 Clouds 7 1012 87 10000 6.2 230 21:38 17.01.2020
4161 Clouds 8 1012 81 10000 9.3 230 21:20 17.01.2020
4162 Clouds 8 1012 87 10000 3.6 210 20:55 17.01.2020
4163 Clouds 8 1012 87 10000 3.6 210 20:36 17.01.2020
4164 Clouds 8 1012 93 10000 6.2 210 20:18 17.01.2020
4165 Clouds 8 1012 93 10000 6.2 210 20:18 17.01.2020
4166 Clouds 8 1012 87 8000 4.6 220 19:54 17.01.2020
4167 Clouds 8 1012 87 8000 4.6 220 19:54 17.01.2020
4168 Clouds 8 1012 87 8000 4.6 220 19:36 17.01.2020
4169 Clouds 8 1012 93 10000 5.1 210 19:18 17.01.2020
4170 Drizzle 8 1011 93 7000 4.1 220 18:44 17.01.2020
4171 Clouds 8 1011 93 10000 5.7 210 18:26 17.01.2020
4172 Drizzle 8 1011 93 7000 4.1 210 17:56 17.01.2020
4173 Drizzle 8 1011 93 7000 4.1 210 17:38 17.01.2020
4174 Clouds 8 1011 93 10000 5.1 200 17:20 17.01.2020
4175 Drizzle 9 1011 87 7000 4.6 220 16:42 17.01.2020
4176 Drizzle 9 1011 87 7000 4.6 220 16:42 17.01.2020
4177 Clouds 9 1011 93 10000 5.1 200 16:20 17.01.2020
4178 Drizzle 9 1011 81 10000 4.6 210 15:49 17.01.2020
4179 Drizzle 9 1011 93 8000 5.1 200 15:28 17.01.2020
4180 Drizzle 9 1011 81 6000 4.6 220 14:59 17.01.2020
4181 Drizzle 9 1011 81 6000 4.6 220 14:40 17.01.2020
4182 -273 0 0 0 0 0 14:22 17.01.2020
4183 Clouds 9 1012 71 10000 4.6 200 13:42 17.01.2020
4184 Clouds 9 1012 87 10000 5.1 210 13:22 17.01.2020
4185 Clouds 9 1012 71 10000 4.6 200 12:46 17.01.2020
4186 Clouds 9 1012 81 10000 4.6 200 12:23 17.01.2020
4187 Clouds 9 1013 76 10000 4.6 190 11:41 17.01.2020
4188 Clouds 9 1013 76 10000 4.6 190 11:41 17.01.2020
4189 Clouds 9 1012 76 10000 5.1 180 11:20 17.01.2020
4190 Clouds 9 1013 70 10000 6.7 180 10:56 17.01.2020
4191 Clouds 9 1013 70 10000 6.7 180 10:38 17.01.2020
4192 Clouds 8 1012 76 10000 5.7 180 10:20 17.01.2020
4193 Clouds 8 1013 81 10000 4.6 160 09:44 17.01.2020
4194 Clouds 7 1012 81 10000 4.6 170 09:21 17.01.2020
4195 Clouds 7 1013 81 10000 3.6 170 08:58 17.01.2020
4196 Clouds 7 1013 81 10000 3.6 170 08:40 17.01.2020
4197 Clouds 7 1013 81 10000 3.6 160 08:21 17.01.2020
4198 Clouds 7 1013 81 10000 4.1 140 07:46 17.01.2020
4199 Clouds 7 1013 81 10000 3.1 160 07:28 17.01.2020
4200 Clouds 7 1014 81 10000 4.6 170 06:55 17.01.2020
4201 Clouds 7 1014 81 10000 4.6 170 06:35 17.01.2020
4202 Clouds 8 1014 76 10000 5.1 170 05:19 17.01.2020
4203 Clouds 7 1016 81 10000 3.6 170 03:38 17.01.2020
4204 Clouds 8 1017 81 10000 5.1 170 02:42 17.01.2020
4205 Clouds 7 1018 81 10000 4.6 170 01:45 17.01.2020
4206 Clouds 7 1018 81 10000 4.6 170 01:27 17.01.2020
4207 Clouds 8 1018 81 10000 4.6 170 00:43 17.01.2020
4208 Clouds 7 1019 81 10000 4.6 170 00:19 17.01.2020
4209 Clouds 7 1017 81 10000 5.7 160 23:41 16.01.2020
4210 Clouds 7 1017 81 10000 5.7 160 23:23 16.01.2020
4211 Clouds 7 1019 81 10000 5.1 160 22:43 16.01.2020
4212 -273 0 0 0 0 0 22:22 16.01.2020
4213 Clouds 7 1020 81 10000 4.1 160 21:57 16.01.2020
4214 Clouds 7 1020 81 10000 4.1 160 21:39 16.01.2020
4215 Clouds 7 1019 81 10000 5.1 160 21:19 16.01.2020
4216 Clouds 7 1021 81 10000 4.6 160 20:59 16.01.2020
4217 Clouds 7 1021 81 10000 4.6 160 20:39 16.01.2020
4218 Clouds 7 1020 81 10000 5.1 160 20:20 16.01.2020
4219 Clouds 7 1021 87 10000 3.6 150 19:57 16.01.2020
4220 Clouds 7 1021 87 10000 3.6 150 19:39 16.01.2020
4221 Clouds 7 1020 87 10000 4.6 150 19:20 16.01.2020
4222 Clouds 7 1022 81 10000 3.6 150 18:56 16.01.2020
4223 Clouds 7 1022 81 10000 3.6 150 18:37 16.01.2020
4224 Clouds 7 1020 81 10000 4.1 150 18:18 16.01.2020
4225 Clouds 7 1020 81 10000 4.1 150 18:18 16.01.2020
4226 Clouds 7 1020 81 10000 4.1 150 18:18 16.01.2020
4227 Clouds 7 1022 81 10000 3.1 150 17:56 16.01.2020
4228 Clouds 7 1022 81 10000 3.1 150 17:38 16.01.2020
4229 Clouds 7 1021 87 10000 3.6 150 17:20 16.01.2020
4230 Clouds 8 1022 87 10000 3.1 150 16:40 16.01.2020
4231 Clouds 8 1021 81 10000 3.6 150 16:21 16.01.2020
4232 Clouds 8 1023 81 10000 4.1 170 15:57 16.01.2020
4233 Clouds 8 1023 81 10000 4.1 170 15:38 16.01.2020
4234 Clouds 9 1022 81 10000 4.1 160 15:20 16.01.2020
4235 Clouds 9 1023 81 10000 3.6 180 14:42 16.01.2020
4236 Clouds 8 1023 87 10000 3.6 160 14:24 16.01.2020
4237 Clouds 8 1024 87 10000 4.1 190 13:55 16.01.2020
4238 Clouds 8 1024 87 10000 4.1 190 13:37 16.01.2020
4239 Clouds 7 1023 87 10000 3.6 170 13:19 16.01.2020
4240 Clouds 7 1024 87 10000 3.6 200 12:41 16.01.2020
4241 Clouds 6 1024 93 10000 3.6 170 12:21 16.01.2020
4242 Clouds 6 1025 87 10000 5.1 200 11:43 16.01.2020
4243 Clouds 6 1024 93 8000 3.1 160 11:24 16.01.2020
4244 Clouds 5 1025 93 8000 4.1 200 10:59 16.01.2020
4245 Clouds 5 1025 93 8000 4.1 200 10:38 16.01.2020
4246 Mist 5 1024 93 5000 4.1 190 10:20 16.01.2020
4247 Clouds 5 1024 93 6000 4.6 210 09:56 16.01.2020
4248 Clouds 4 1024 93 6000 4.6 210 09:37 16.01.2020
4249 Mist 4 1024 100 4300 4.6 200 09:18 16.01.2020
4250 Clouds 5 1024 93 6000 5.7 220 08:44 16.01.2020
4251 Clouds 5 1023 93 6000 5.1 220 08:23 16.01.2020
4252 Clouds 5 1023 93 8000 5.7 210 07:44 16.01.2020
4253 Clouds 4 1023 93 6000 4.6 200 07:25 16.01.2020
4254 Clouds 5 1022 93 8000 5.1 210 06:59 16.01.2020
4255 Clouds 5 1022 93 8000 5.1 210 06:37 16.01.2020
4256 Clouds 5 1022 93 8000 4.6 220 05:58 16.01.2020
4257 Clouds 5 1022 93 8000 4.6 220 05:39 16.01.2020
4258 Clouds 5 1021 93 8000 4.1 220 04:37 16.01.2020
4259 Clouds 5 1021 93 8000 4.1 220 04:37 16.01.2020
4260 Clear 5 1020 100 8000 4.6 210 03:28 16.01.2020
4261 Clouds 6 1019 87 10000 4.1 220 02:36 16.01.2020
4262 Clouds 6 1018 87 10000 5.7 230 00:53 16.01.2020
4263 Clouds 5 1018 93 10000 5.7 210 00:24 16.01.2020
4264 Clouds 6 1017 87 10000 5.7 230 23:48 15.01.2020
4265 Clouds 6 1017 93 10000 5.7 220 23:23 15.01.2020
4266 Clouds 6 1016 87 10000 4.6 230 22:57 15.01.2020
4267 Clouds 6 1016 87 10000 4.6 230 22:39 15.01.2020
4268 Clouds 6 1016 93 10000 5.1 210 22:19 15.01.2020
4269 Clouds 6 1014 87 10000 4.6 230 21:57 15.01.2020
4270 Clouds 6 1014 87 10000 4.6 230 21:38 15.01.2020
4271 Clouds 6 1014 93 10000 5.1 220 21:20 15.01.2020
4272 Clouds 6 1013 87 10000 4.1 230 20:58 15.01.2020
4273 Clouds 6 1013 87 10000 4.1 230 20:58 15.01.2020
4274 Clouds 6 1013 87 10000 4.1 230 20:40 15.01.2020
4275 Rain 6 1013 93 10000 5.7 220 20:20 15.01.2020
4276 Clouds 6 1012 87 10000 2.6 250 19:55 15.01.2020
4277 Clouds 7 1012 87 10000 2.6 250 19:37 15.01.2020
4278 Rain 7 1012 93 10000 4.6 220 19:19 15.01.2020
4279 Rain 7 1010 87 10000 5.7 280 18:57 15.01.2020
4280 Rain 7 1010 87 10000 5.7 280 18:38 15.01.2020
4281 Drizzle 7 1010 93 10000 3.1 260 18:20 15.01.2020
4282 Drizzle 7 1010 93 10000 3.1 260 18:20 15.01.2020
4283 Rain 8 1008 81 7000 8.7 230 17:58 15.01.2020
4284 Rain 8 1008 81 7000 8.7 230 17:40 15.01.2020
4285 Rain 8 1007 81 7000 8.7 230 17:21 15.01.2020
4286 Rain 9 1007 76 7000 10.8 230 16:55 15.01.2020
4287 Rain 9 1007 76 7000 10.8 230 16:55 15.01.2020
4288 Rain 10 1007 76 7000 10.8 230 16:36 15.01.2020
4289 Drizzle 10 1006 81 10000 11.8 210 16:18 15.01.2020
4290 Clouds 11 1006 71 10000 8.7 220 15:42 15.01.2020
4291 Clouds 11 1006 81 10000 8.2 210 15:20 15.01.2020
4292 Rain 10 1005 62 9000 11.3 220 14:55 15.01.2020
4293 Drizzle 10 1006 81 6000 8.2 210 14:37 15.01.2020
4294 Drizzle 11 1006 81 6000 8.2 210 14:18 15.01.2020
4295 Clouds 11 1005 62 10000 9.8 210 13:41 15.01.2020
4296 Rain 11 1005 71 10000 7.2 190 13:23 15.01.2020
4297 Clouds 12 1005 62 10000 9.3 210 12:55 15.01.2020
4298 Clouds 12 1005 62 10000 9.3 210 12:55 15.01.2020
4299 Clouds 12 1005 62 10000 9.3 210 12:37 15.01.2020
4300 Clouds 12 1005 66 10000 9.3 200 12:18 15.01.2020
4301 Clouds 12 1005 62 10000 10.8 210 11:38 15.01.2020
4302 Clouds 12 1005 66 10000 10.3 200 11:20 15.01.2020
4303 Clouds 11 1005 66 10000 10.3 210 10:58 15.01.2020
4304 Clouds 11 1005 66 10000 10.3 210 10:40 15.01.2020
4305 Clouds 12 1004 66 10000 9.3 200 10:21 15.01.2020
4306 Clouds 11 1004 71 10000 9.8 210 09:41 15.01.2020
4307 Clouds 11 1004 71 10000 9.3 200 09:21 15.01.2020
4308 Clouds 11 1003 66 10000 10.3 210 08:45 15.01.2020
4309 Clouds 11 1003 76 10000 10.8 200 08:26 15.01.2020
4310 Clouds 11 1003 71 10000 10.3 220 07:56 15.01.2020
4311 Clouds 12 1003 71 10000 10.3 220 07:33 15.01.2020
4312 Clouds 12 1003 71 10000 11.3 210 06:54 15.01.2020
4313 Rain 12 1002 76 10000 10.8 200 06:32 15.01.2020
4314 Clouds 11 1002 76 10000 9.3 210 05:43 15.01.2020
4315 Rain 11 1002 87 8000 9.8 220 03:35 15.01.2020
4316 Rain 11 1002 81 10000 11.3 220 01:50 15.01.2020
4317 Clouds 11 1002 93 10000 10.8 210 01:22 15.01.2020
4318 Clouds 12 1001 76 10000 12.3 210 00:44 15.01.2020
4319 Clouds 12 1001 76 10000 12.3 210 00:25 15.01.2020
4320 Clouds 12 1001 76 10000 10.8 210 23:47 14.01.2020
4321 Clouds 12 1000 81 10000 10.8 200 23:29 14.01.2020
4322 Clouds 12 1000 76 10000 12.3 210 22:59 14.01.2020
4323 Clouds 12 1000 76 10000 12.3 210 22:40 14.01.2020
4324 Clouds 12 1000 81 10000 11.8 200 22:19 14.01.2020
4325 Clouds 12 1000 81 10000 11.8 210 21:58 14.01.2020
4326 Clouds 12 1000 81 10000 11.8 210 21:39 14.01.2020
4327 Clouds 12 999 76 10000 12.3 210 21:20 14.01.2020
4328 Clouds 11 1000 76 10000 11.3 210 20:56 14.01.2020
4329 Clouds 11 1000 76 10000 11.3 210 20:38 14.01.2020
4330 Clouds 11 1000 81 10000 9.3 200 20:19 14.01.2020
4331 Clouds 11 1000 81 10000 9.3 200 19:55 14.01.2020
4332 Clouds 11 1000 81 10000 9.3 200 19:37 14.01.2020
4333 Clouds 10 1000 81 10000 10.3 200 19:18 14.01.2020
4334 Clouds 10 1000 87 10000 9.8 190 18:41 14.01.2020
4335 Drizzle 10 1001 93 8000 6.7 190 18:21 14.01.2020
4336 Drizzle 10 1001 93 8000 6.7 190 17:59 14.01.2020
4337 Drizzle 9 1001 93 8000 6.7 190 17:37 14.01.2020
4338 Clouds 10 1001 87 10000 9.3 190 17:19 14.01.2020
4339 Drizzle 9 1002 87 9000 6.2 200 16:55 14.01.2020
4340 Drizzle 9 1002 87 9000 6.2 200 16:37 14.01.2020
4341 Rain 9 1001 87 10000 8.2 190 16:19 14.01.2020
4342 Clouds 9 1002 81 10000 7.2 210 15:42 14.01.2020
4343 Drizzle 10 1002 87 10000 6.2 200 15:19 14.01.2020
4344 Drizzle 10 1002 87 10000 6.2 200 15:19 14.01.2020
4345 Clouds 10 1002 81 10000 6.7 210 14:47 14.01.2020
4346 Clouds 10 1002 87 10000 6.2 200 14:23 14.01.2020
4347 Clouds 10 1002 81 10000 7.2 220 13:59 14.01.2020
4348 Clouds 10 1002 81 10000 7.2 220 13:40 14.01.2020
4349 Clouds 10 1002 81 10000 6.7 220 13:19 14.01.2020
4350 Clouds 9 1003 87 10000 6.7 220 12:42 14.01.2020
4351 Clouds 9 1003 87 10000 6.7 210 12:24 14.01.2020
4352 Clouds 9 1002 87 10000 5.7 230 11:58 14.01.2020
4353 Clouds 9 1002 87 10000 5.7 230 11:40 14.01.2020
4354 Clouds 9 1002 87 10000 7.2 220 11:22 14.01.2020
4355 Clouds 9 1001 93 10000 5.1 230 10:56 14.01.2020
4356 Clouds 9 1001 93 10000 5.1 230 10:37 14.01.2020
4357 Clouds 8 1001 87 10000 8.7 220 10:19 14.01.2020
4358 Drizzle 8 1001 93 8000 6.2 240 09:43 14.01.2020
4359 Drizzle 8 1001 93 4000 7.7 250 09:24 14.01.2020
4360 Rain 8 1000 93 4700 8.2 250 08:59 14.01.2020
4361 Drizzle 9 999 87 6000 9.8 220 08:40 14.01.2020
4362 Rain 9 999 93 6000 9.8 210 08:21 14.01.2020
4363 Drizzle 9 999 93 7000 10.3 200 07:51 14.01.2020
4364 Rain 9 999 93 3900 9.3 200 07:24 14.01.2020
4365 Drizzle 9 999 93 5000 8.2 200 06:43 14.01.2020
4366 Drizzle 9 999 93 5000 8.2 190 05:59 14.01.2020
4367 Drizzle 9 1000 87 7000 6.7 190 04:51 14.01.2020
4368 Rain 9 1000 81 10000 8.7 180 03:47 14.01.2020
4369 Clouds 9 1001 81 10000 7.7 180 02:40 14.01.2020
4370 Clouds 9 1002 81 10000 9.3 180 01:31 14.01.2020
4371 Clouds 9 1004 81 10000 8.2 180 00:48 14.01.2020
4372 Clouds 8 1003 81 10000 9.3 180 00:26 14.01.2020
4373 Clouds 8 1005 81 10000 8.7 180 23:47 13.01.2020
4374 Clouds 8 1004 81 10000 8.2 180 23:19 13.01.2020
4375 Clouds 8 1006 81 10000 7.7 180 22:59 13.01.2020
4376 Clouds 8 1006 81 10000 7.7 180 22:40 13.01.2020
4377 Clouds 7 1005 81 10000 8.2 170 22:20 13.01.2020
4378 Clouds 7 1007 81 10000 7.2 180 21:56 13.01.2020
4379 Clouds 7 1007 81 10000 7.2 180 21:37 13.01.2020
4380 Clouds 7 1006 81 10000 8.2 180 21:18 13.01.2020
4381 Clouds 7 1008 87 10000 6.7 170 20:58 13.01.2020
4382 Clouds 7 1008 87 10000 6.7 170 20:40 13.01.2020
4383 Clouds 7 1008 81 10000 7.2 170 20:22 13.01.2020
4384 Clouds 6 1010 81 10000 5.7 170 19:58 13.01.2020
4385 Clouds 6 1010 81 10000 5.7 170 19:39 13.01.2020
4386 Clouds 6 1009 87 10000 5.7 170 19:20 13.01.2020
4387 Clouds 6 1011 81 10000 4.6 170 18:56 13.01.2020
4388 Clouds 6 1011 81 10000 4.6 170 18:37 13.01.2020
4389 Clouds 6 1011 81 10000 4.6 170 18:37 13.01.2020
4390 Clouds 6 1010 87 10000 4.6 160 18:18 13.01.2020
4391 Clouds 6 1012 81 10000 4.6 190 17:43 13.01.2020
4392 Clouds 6 1011 87 10000 4.6 160 17:24 13.01.2020
4393 Clouds 6 1011 87 10000 4.6 160 17:24 13.01.2020
4394 Clouds 6 1013 81 10000 4.1 200 16:57 13.01.2020
4395 Clouds 6 1013 81 10000 4.1 200 16:38 13.01.2020
4396 Clouds 7 1013 81 10000 4.1 200 16:20 13.01.2020
4397 Clouds 7 1013 86 0 3.13 192 15:44 13.01.2020
4398 Clouds 7 1013 86 0 3.13 174 15:24 13.01.2020
4399 Clouds 7 1014 86 0 3.13 338 14:59 13.01.2020
4400 Clouds 8 1014 86 0 3.13 165 14:40 13.01.2020
4401 Clouds 8 1014 86 0 3.58 227 14:22 13.01.2020
4402 Clouds 7 1012 86 0 1.34 141 13:56 13.01.2020
4403 Clouds 7 1015 87 0 3.58 170 13:37 13.01.2020
4404 Clouds 7 1013 85 0 0.45 249 13:19 13.01.2020
4405 Clouds 7 1017 87 9000 5.7 210 12:43 13.01.2020
4406 Clouds 7 1017 87 9000 5.7 210 12:23 13.01.2020
4407 Clouds 7 1017 87 9000 5.7 210 12:23 13.01.2020
4408 Clouds 7 1017 87 9000 5.7 210 11:58 13.01.2020
4409 Clouds 7 1017 87 9000 5.7 210 11:38 13.01.2020
4410 Clouds 7 1017 87 9000 5.7 210 11:38 13.01.2020
4411 Clouds 7 1017 87 7000 4.1 180 11:19 13.01.2020
4412 Clouds 6 1017 93 8000 4.1 220 10:56 13.01.2020
4413 Clouds 6 1017 93 8000 4.1 220 10:38 13.01.2020
4414 Clouds 6 1017 93 9000 5.1 210 10:19 13.01.2020
4415 Clouds 6 1017 93 7000 3.6 220 09:44 13.01.2020
4416 Clouds 6 1017 93 6000 3.6 220 09:26 13.01.2020
4417 Mist 6 1017 93 5000 4.1 220 08:59 13.01.2020
4418 Mist 6 1017 93 5000 4.1 220 08:38 13.01.2020
4419 Clouds 6 1017 100 6000 5.1 210 08:19 13.01.2020
4420 Clouds 6 1017 100 6000 4.1 210 07:45 13.01.2020
4421 Mist 6 1017 93 5000 5.1 210 07:27 13.01.2020
4422 Clouds 6 1017 93 10000 3.1 200 06:39 13.01.2020
4423 Clouds 5 1017 93 10000 3.1 210 05:57 13.01.2020
4424 Clouds 5 1018 100 10000 4.1 210 05:19 13.01.2020
4425 Clouds 4 1018 93 10000 3.6 210 03:47 13.01.2020
4426 Clouds 4 1019 93 10000 3.1 230 02:51 13.01.2020
4427 Clouds 4 1019 100 10000 3.1 210 02:31 13.01.2020
4428 Clouds 4 1018 93 10000 4.1 240 01:47 13.01.2020
4429 Clouds 5 1018 87 10000 4.1 240 00:59 13.01.2020
4430 Clouds 5 1018 87 10000 4.1 240 00:39 13.01.2020
4431 Clouds 5 1019 100 10000 3.1 220 00:19 13.01.2020
4432 Clouds 6 1018 87 10000 8.2 270 23:41 12.01.2020
4433 Clouds 6 1019 93 10000 4.1 230 23:23 12.01.2020
4434 Rain 7 1017 87 7000 7.7 280 22:57 12.01.2020
4435 Rain 7 1017 87 7000 7.7 280 22:39 12.01.2020
4436 Clouds 7 1018 87 10000 4.6 260 22:21 12.01.2020
4437 Clouds 7 1016 93 10000 8.7 280 21:55 12.01.2020
4438 Clouds 7 1016 93 10000 8.7 280 21:37 12.01.2020
4439 Clouds 7 1017 87 10000 6.2 260 21:19 12.01.2020
4440 Drizzle 7 1014 81 7000 7.7 260 20:56 12.01.2020
4441 Drizzle 7 1014 81 7000 7.7 260 20:37 12.01.2020
4442 Clouds 7 1014 81 10000 8.7 250 20:19 12.01.2020
4443 Clouds 8 1013 87 10000 7.2 240 19:55 12.01.2020
4444 Clouds 8 1013 87 10000 7.2 240 19:37 12.01.2020
4445 Clouds 8 1015 81 10000 8.7 260 19:18 12.01.2020
4446 Clouds 8 1013 93 10000 5.7 250 18:56 12.01.2020
4447 Clouds 8 1013 93 10000 5.7 250 18:38 12.01.2020
4448 Clouds 8 1014 87 10000 7.7 240 18:19 12.01.2020
4449 Rain 8 1013 93 6000 7.2 240 17:42 12.01.2020
4450 Rain 8 1012 93 8000 7.7 220 17:21 12.01.2020
4451 Rain 8 1012 87 10000 7.7 220 16:58 12.01.2020
4452 Rain 8 1012 87 10000 7.7 220 16:39 12.01.2020
4453 Drizzle 8 1013 93 10000 9.3 220 16:20 12.01.2020
4454 Clouds 8 1012 93 8000 7.7 220 15:56 12.01.2020
4455 Clouds 7 1012 93 8000 7.7 220 15:38 12.01.2020
4456 Clouds 7 1012 93 8000 7.7 220 15:20 12.01.2020
4457 Clouds 7 1013 100 8000 8.7 220 14:42 12.01.2020
4458 Clouds 7 1014 93 10000 9.3 220 14:23 12.01.2020
4459 Drizzle 7 1013 93 3000 8.7 220 13:57 12.01.2020
4460 Drizzle 7 1013 93 3000 8.7 220 13:57 12.01.2020
4461 Drizzle 6 1013 93 3000 8.7 220 13:39 12.01.2020
4462 Clouds 6 1014 93 7000 8.7 210 13:20 12.01.2020
4463 Clouds 6 1014 93 7000 8.7 210 13:20 12.01.2020
4464 Rain 6 1014 93 2700 8.2 210 12:57 12.01.2020
4465 Drizzle 6 1014 93 3500 8.2 210 12:37 12.01.2020
4466 Rain 6 1015 93 2800 7.7 200 12:19 12.01.2020
4467 Drizzle 5 1015 93 3000 7.2 220 11:42 12.01.2020
4468 Drizzle 5 1015 93 6000 8.2 210 11:22 12.01.2020
4469 Drizzle 5 1015 93 6000 8.2 210 10:57 12.01.2020
4470 Drizzle 5 1015 93 6000 8.2 210 10:39 12.01.2020
4471 Rain 5 1016 93 3500 8.2 210 10:20 12.01.2020
4472 Drizzle 5 1015 86 3000 7.2 210 09:43 12.01.2020
4473 Drizzle 6 1015 86 3000 7.2 210 09:24 12.01.2020
4474 Clouds 6 1016 81 10000 7.7 220 08:57 12.01.2020
4475 Clouds 6 1016 81 10000 7.7 220 08:38 12.01.2020
4476 Clouds 6 1016 81 10000 6.7 200 08:19 12.01.2020
4477 Drizzle 6 1016 81 10000 6.7 220 07:38 12.01.2020
4478 Clouds 6 1017 81 10000 7.2 200 07:19 12.01.2020
4479 Clouds 6 1017 81 10000 7.2 220 06:41 12.01.2020
4480 Clouds 6 1017 75 10000 8.2 210 06:18 12.01.2020
4481 Clouds 6 1018 75 10000 7.7 210 05:20 12.01.2020
4482 Clouds 7 1018 81 10000 8.2 220 03:45 12.01.2020
4483 Clouds 7 1018 81 10000 8.2 220 02:59 12.01.2020
4484 Clouds 7 1019 81 10000 7.7 210 02:30 12.01.2020
4485 Clouds 7 1019 75 10000 8.2 220 01:42 12.01.2020
4486 Clouds 7 1020 81 10000 7.7 210 01:21 12.01.2020
4487 Drizzle 7 1020 81 10000 7.7 220 00:40 12.01.2020
4488 Clouds 7 1020 81 10000 8.2 210 00:19 12.01.2020
4489 Clouds 7 1020 75 10000 8.2 220 23:42 11.01.2020
4490 Drizzle 7 1021 81 10000 8.7 210 23:19 11.01.2020
4491 Clouds 7 1020 75 10000 8.7 220 22:57 11.01.2020
4492 Clouds 7 1020 75 10000 8.7 220 22:39 11.01.2020
4493 Clouds 7 1021 81 10000 9.3 210 22:20 11.01.2020
4494 Clouds 7 1021 75 10000 8.2 220 21:58 11.01.2020
4495 Clouds 7 1021 75 10000 8.2 220 21:39 11.01.2020
4496 Clouds 7 1022 75 10000 8.7 210 21:18 11.01.2020
4497 Clouds 7 1021 70 10000 9.3 210 20:40 11.01.2020
4498 Clouds 7 1022 75 10000 7.2 210 20:22 11.01.2020
4499 Clouds 6 1022 75 10000 9.3 210 19:58 11.01.2020
4500 Clouds 6 1022 75 10000 9.3 210 19:39 11.01.2020
4501 Clouds 7 1022 75 10000 8.7 200 19:21 11.01.2020
4502 Clouds 6 1022 75 10000 9.3 210 18:58 11.01.2020
4503 Clouds 6 1022 75 10000 9.3 210 18:38 11.01.2020
4504 Clouds 6 1023 81 10000 8.7 200 18:19 11.01.2020
4505 Clouds 6 1023 75 10000 7.7 210 17:57 11.01.2020
4506 Clouds 6 1023 75 10000 7.7 210 17:39 11.01.2020
4507 Clouds 6 1023 81 10000 8.2 200 17:19 11.01.2020
4508 Clouds 6 1024 75 10000 7.2 210 16:45 11.01.2020
4509 Clouds 6 1024 81 10000 7.2 200 16:27 11.01.2020
4510 Clouds 6 1024 75 10000 7.7 210 15:59 11.01.2020
4511 Clouds 6 1024 75 10000 7.7 210 15:41 11.01.2020
4512 Clouds 6 1024 81 10000 6.7 200 15:22 11.01.2020
4513 Clouds 6 1024 75 10000 7.7 210 14:57 11.01.2020
4514 Clouds 6 1024 75 10000 7.7 210 14:38 11.01.2020
4515 Clouds 6 1025 81 10000 7.7 200 14:20 11.01.2020
4516 Clouds 6 1025 75 10000 7.2 220 13:41 11.01.2020
4517 Clouds 6 1026 81 10000 7.7 200 13:20 11.01.2020
4518 Clouds 6 1026 80 10000 6.7 210 12:59 11.01.2020
4519 Clouds 5 1026 80 10000 6.7 210 12:41 11.01.2020
4520 Clouds 5 1026 86 10000 7.7 200 12:23 11.01.2020
4521 Clouds 5 1026 80 10000 7.2 210 11:48 11.01.2020
4522 Clouds 5 1027 86 10000 6.7 200 11:26 11.01.2020
4523 Clouds 4 1027 80 10000 6.7 210 10:55 11.01.2020
4524 Clouds 4 1027 80 10000 6.7 210 10:36 11.01.2020
4525 Clouds 4 1027 86 10000 6.2 200 10:18 11.01.2020
4526 Clouds 4 1027 80 10000 5.7 210 09:39 11.01.2020
4527 Clouds 3 1027 93 10000 5.7 200 09:20 11.01.2020
4528 Clouds 3 1027 93 10000 5.7 200 09:20 11.01.2020
4529 Clouds 3 1027 86 10000 4.6 220 08:42 11.01.2020
4530 Clouds 3 1028 86 10000 4.6 210 08:22 11.01.2020
4531 Clouds 3 1027 93 10000 4.1 220 07:44 11.01.2020
4532 Clouds 3 1028 93 10000 4.6 210 07:26 11.01.2020
4533 Clouds 3 1027 93 10000 3.6 200 06:52 11.01.2020
4534 Clouds 3 1027 93 10000 3.6 200 06:52 11.01.2020
4535 Clouds 3 1028 93 10000 2.6 210 05:50 11.01.2020
4536 Clouds 2 1029 93 10000 3.1 220 04:47 11.01.2020
4537 Clouds 2 1029 93 10000 3.6 210 04:29 11.01.2020
4538 Clouds 2 1029 100 10000 3.1 210 03:28 11.01.2020
4539 Clouds 2 1028 93 10000 1.5 230 02:40 11.01.2020
4540 Clouds 2 1028 93 10000 2.6 250 01:44 11.01.2020
4541 Clear 2 1028 88 10000 3.1 220 01:20 11.01.2020
4542 Clouds 3 1027 86 10000 2.6 260 00:44 11.01.2020
4543 Clear 3 1028 93 10000 3.6 250 00:20 11.01.2020
4544 Clouds 3 1027 86 10000 2.6 260 23:41 10.01.2020
4545 Clouds 3 1027 86 10000 2.6 260 23:41 10.01.2020
4546 Clear 3 1027 93 10000 2.6 250 23:22 10.01.2020
4547 Clouds 3 1026 80 10000 3.1 280 22:59 10.01.2020
4548 Clouds 3 1026 80 10000 3.1 280 22:40 10.01.2020
4549 Clouds 3 1027 100 10000 2.6 250 22:21 10.01.2020
4550 Clouds 4 1025 86 10000 4.1 280 21:58 10.01.2020
4551 Clouds 4 1025 86 10000 4.1 280 21:39 10.01.2020
4552 Clear 4 1026 93 10000 2.6 260 21:19 10.01.2020
4553 Clouds 4 1024 86 10000 4.1 280 20:55 10.01.2020
4554 Clouds 4 1024 86 10000 4.1 280 20:37 10.01.2020
4555 Clouds 4 1025 93 10000 3.1 250 20:19 10.01.2020
4556 Clouds 4 1023 93 10000 2.1 290 19:39 10.01.2020
4557 Clouds 5 1024 86 10000 3.6 280 19:20 10.01.2020
4558 Rain 5 1022 87 10000 3.1 310 18:55 10.01.2020
4559 Rain 5 1022 87 10000 3.1 310 18:36 10.01.2020
4560 Clouds 6 1023 81 10000 4.1 300 18:18 10.01.2020
4561 Clouds 5 1021 75 10000 5.1 330 17:55 10.01.2020
4562 Clouds 6 1021 75 10000 5.1 330 17:37 10.01.2020
4563 Clouds 6 1022 81 10000 3.1 310 17:19 10.01.2020
4564 Rain 6 1020 70 10000 5.7 330 16:41 10.01.2020
4565 Clouds 6 1021 81 10000 5.1 310 16:21 10.01.2020
4566 Clouds 7 1018 87 10000 5.1 330 15:56 10.01.2020
4567 Clouds 7 1018 87 10000 5.1 330 15:56 10.01.2020
4568 Clouds 7 1018 87 10000 5.1 330 15:37 10.01.2020
4569 Clouds 7 1018 87 10000 5.1 330 15:37 10.01.2020
4570 Clouds 7 1019 81 10000 5.1 320 15:19 10.01.2020
4571 Clouds 7 1016 87 10000 5.7 330 14:57 10.01.2020
4572 Clouds 7 1016 87 10000 5.7 330 14:39 10.01.2020
4573 Clouds 7 1016 93 10000 6.7 330 14:19 10.01.2020
4574 Clouds 7 1014 81 10000 6.2 330 13:56 10.01.2020
4575 Clouds 7 1014 81 10000 6.2 330 13:37 10.01.2020
4576 Rain 7 1016 81 10000 5.1 330 13:18 10.01.2020
4577 Clouds 7 1013 87 10000 8.2 330 12:56 10.01.2020
4578 Clouds 7 1013 87 10000 8.2 330 12:38 10.01.2020
4579 Drizzle 7 1014 100 3300 6.7 330 12:18 10.01.2020
4580 Drizzle 8 1012 93 2500 7.7 270 11:42 10.01.2020
4581 Drizzle 8 1012 93 2500 7.7 270 11:42 10.01.2020
4582 Drizzle 8 1012 93 2500 7.7 270 11:42 10.01.2020
4583 Clouds 8 1013 93 10000 4.1 270 11:22 10.01.2020
4584 Clouds 8 1011 87 10000 5.7 250 10:59 10.01.2020
4585 Clouds 8 1011 87 10000 5.7 250 10:38 10.01.2020
4586 Clouds 8 1010 87 10000 5.1 240 10:20 10.01.2020
4587 Clouds 8 1010 87 10000 4.6 250 09:48 10.01.2020
4588 Clouds 8 1011 87 10000 5.1 250 09:27 10.01.2020
4589 Drizzle 8 1009 93 10000 7.7 270 08:59 10.01.2020
4590 Drizzle 8 1009 93 10000 7.7 270 08:40 10.01.2020
4591 Clouds 8 1010 87 10000 6.2 250 08:21 10.01.2020
4592 Clouds 8 1008 87 10000 5.7 240 07:44 10.01.2020
4593 Clouds 8 1009 87 10000 5.1 240 07:23 10.01.2020
4594 Clouds 8 1008 87 10000 5.1 240 06:45 10.01.2020
4595 Clouds 8 1008 87 10000 7.7 240 06:25 10.01.2020
4596 Rain 9 1007 93 10000 6.2 230 05:46 10.01.2020
4597 Clouds 10 1006 93 9000 4.1 210 03:35 10.01.2020
4598 Rain 11 1005 87 6000 4.6 230 02:59 10.01.2020
4599 Rain 11 1005 87 6000 4.6 230 02:38 10.01.2020
4600 Clouds 12 1005 87 9000 5.7 220 01:38 10.01.2020
4601 Drizzle 12 1005 93 10000 5.7 210 01:19 10.01.2020
4602 Drizzle 12 1005 93 6000 5.1 220 00:39 10.01.2020
4603 Drizzle 12 1005 100 4000 3.1 220 23:58 09.01.2020
4604 Drizzle 12 1005 100 4000 3.1 220 23:38 09.01.2020
4605 Clouds 12 1005 93 10000 6.2 210 23:20 09.01.2020
4606 Drizzle 12 1005 100 4500 2.1 260 22:57 09.01.2020
4607 Drizzle 12 1005 100 4500 2.1 260 22:39 09.01.2020
4608 Drizzle 12 1005 93 7000 5.1 210 22:19 09.01.2020
4609 Drizzle 12 1006 93 4500 3.6 260 21:57 09.01.2020
4610 Drizzle 11 1006 93 4500 3.6 260 21:37 09.01.2020
4611 Drizzle 12 1006 93 4400 5.7 210 21:19 09.01.2020
4612 Drizzle 12 1006 93 4500 4.1 230 20:57 09.01.2020
4613 Drizzle 12 1006 93 4500 4.1 230 20:39 09.01.2020
4614 Clouds 12 1006 93 10000 6.2 210 20:19 09.01.2020
4615 Clouds 12 1006 93 10000 6.2 210 19:57 09.01.2020
4616 Clouds 12 1006 87 10000 5.1 240 19:38 09.01.2020
4617 Drizzle 12 1006 93 5000 5.1 220 19:19 09.01.2020
4618 Clouds 12 1006 87 10000 5.7 230 18:55 09.01.2020
4619 Clouds 12 1006 87 10000 5.7 230 18:36 09.01.2020
4620 Clouds 12 1006 93 10000 7.2 210 18:18 09.01.2020
4621 Clouds 12 1006 87 10000 5.7 220 17:41 09.01.2020
4622 Clouds 12 1006 93 10000 7.7 210 17:18 09.01.2020
4623 Clouds 12 1006 87 10000 5.1 230 16:56 09.01.2020
4624 Clouds 12 1006 87 10000 5.1 230 16:36 09.01.2020
4625 Clouds 12 1006 87 10000 6.7 220 16:18 09.01.2020
4626 Drizzle 12 1006 93 8000 6.2 230 15:41 09.01.2020
4627 Drizzle 12 1006 87 2500 7.2 220 15:20 09.01.2020
4628 Drizzle 12 1006 87 4500 6.7 220 14:55 09.01.2020
4629 Drizzle 12 1006 87 4500 6.7 220 14:36 09.01.2020
4630 Drizzle 12 1006 87 6000 7.7 220 14:18 09.01.2020
4631 Drizzle 12 1007 87 9000 8.2 220 13:55 09.01.2020
4632 Drizzle 12 1007 87 9000 8.2 220 13:36 09.01.2020
4633 Drizzle 12 1007 87 9000 7.7 220 13:18 09.01.2020
4634 Drizzle 12 1007 87 6000 8.2 220 12:42 09.01.2020
4635 Clouds 12 1008 93 6000 8.7 210 12:24 09.01.2020
4636 Clouds 12 1008 93 6000 8.7 210 11:59 09.01.2020
4637 Drizzle 11 1008 93 10000 7.7 210 11:41 09.01.2020
4638 Clouds 11 1008 93 10000 8.2 200 11:23 09.01.2020
4639 Clouds 11 1009 93 10000 7.2 200 10:57 09.01.2020
4640 Clouds 11 1009 93 10000 7.2 200 10:39 09.01.2020
4641 Rain 11 1009 93 7000 8.2 200 10:20 09.01.2020
4642 Mist 11 1009 100 5000 6.2 190 09:41 09.01.2020
4643 Mist 11 1009 100 5000 6.2 190 09:41 09.01.2020
4644 Mist 11 1009 100 5000 6.2 190 09:41 09.01.2020
4645 Mist 11 1010 93 4000 5.7 190 09:23 09.01.2020
4646 Mist 10 1010 93 4100 7.7 190 08:57 09.01.2020
4647 Mist 10 1010 93 4100 7.7 190 08:38 09.01.2020
4648 Mist 10 1011 100 3700 6.7 180 08:20 09.01.2020
4649 Drizzle 10 1012 93 4000 5.1 160 07:46 09.01.2020
4650 Drizzle 10 1011 100 5000 6.2 180 07:28 09.01.2020
4651 Mist 9 1014 100 4000 4.1 160 06:40 09.01.2020
4652 Mist 9 1014 100 3000 3.1 170 06:21 09.01.2020
4653 Drizzle 9 1016 100 900 2.1 170 05:51 09.01.2020
4654 Mist 9 1016 100 2700 2.6 150 05:18 09.01.2020
4655 Drizzle 8 1017 93 2000 2.1 160 04:38 09.01.2020
4656 Mist 8 1018 100 2900 1 0 03:26 09.01.2020
4657 Fog 8 1018 100 900 1.5 170 02:46 09.01.2020
4658 Mist 8 1019 100 1400 1.5 190 01:42 09.01.2020
4659 Fog 8 1020 93 7000 0.5 190 00:59 09.01.2020
4660 Fog 8 1020 93 7000 0.5 190 00:37 09.01.2020
4661 Clouds 8 1021 100 6000 2.1 190 00:19 09.01.2020
4662 Clouds 8 1020 100 10000 1 240 23:39 08.01.2020
4663 Mist 8 1021 100 4600 1.5 220 23:20 08.01.2020
4664 Clouds 8 1020 93 10000 1.5 180 22:56 08.01.2020
4665 Clouds 8 1020 93 10000 1.5 180 22:37 08.01.2020
4666 Clouds 8 1021 93 6000 1.5 210 22:18 08.01.2020
4667 Clouds 8 1021 93 10000 1 230 21:55 08.01.2020
4668 Clouds 8 1021 93 10000 1 230 21:37 08.01.2020
4669 Clouds 8 1021 93 7000 1.5 210 21:18 08.01.2020
4670 Clouds 9 1021 93 10000 1.5 230 20:41 08.01.2020
4671 Clouds 9 1022 93 8000 3.1 260 20:21 08.01.2020
4672 Clouds 9 1022 93 8000 3.1 260 20:21 08.01.2020
4673 Clouds 9 1021 93 10000 2.1 250 19:59 08.01.2020
4674 Clouds 9 1021 93 10000 2.1 250 19:38 08.01.2020
4675 Clouds 9 1021 100 9000 2.6 220 19:20 08.01.2020
4676 Clouds 9 1021 100 9000 2.6 220 18:58 08.01.2020
4677 Clouds 9 1021 93 10000 2.6 240 18:39 08.01.2020
4678 Clouds 9 1021 93 10000 2.6 240 18:39 08.01.2020
4679 Clouds 9 1021 93 10000 2.6 240 18:19 08.01.2020
4680 Clouds 10 1021 87 10000 3.1 260 17:57 08.01.2020
4681 Clouds 10 1021 87 10000 3.1 260 17:39 08.01.2020
4682 Clouds 10 1021 93 10000 2.6 260 17:20 08.01.2020
4683 Clouds 10 1021 93 10000 2.6 260 16:57 08.01.2020
4684 Clouds 10 1021 93 10000 2.6 260 16:57 08.01.2020
4685 Clouds 10 1020 87 10000 4.6 280 16:38 08.01.2020
4686 Clouds 10 1020 87 10000 3.1 270 16:19 08.01.2020
4687 Clouds 11 1019 87 10000 5.1 270 15:45 08.01.2020
4688 Clouds 11 1020 87 10000 3.6 260 15:22 08.01.2020
4689 Clouds 11 1020 87 10000 3.6 260 14:59 08.01.2020
4690 Clouds 11 1019 87 10000 7.2 270 14:40 08.01.2020
4691 Clouds 11 1019 93 10000 4.1 260 14:21 08.01.2020
4692 Clouds 11 1018 87 10000 7.7 270 13:42 08.01.2020
4693 Clouds 11 1019 93 10000 5.1 260 13:24 08.01.2020
4694 Clouds 11 1018 93 10000 5.1 250 12:59 08.01.2020
4695 Clouds 11 1018 93 10000 5.1 250 12:40 08.01.2020
4696 Clouds 11 1019 93 10000 5.1 250 12:18 08.01.2020
4697 Clouds 11 1018 93 8000 4.6 240 11:48 08.01.2020
4698 Clouds 11 1019 93 10000 5.1 240 11:20 08.01.2020
4699 Clouds 11 1018 100 7000 5.1 240 10:59 08.01.2020
4700 Clouds 11 1018 100 7000 5.1 240 10:41 08.01.2020
4701 Clouds 10 1019 93 10000 6.2 240 10:22 08.01.2020
4702 Clouds 10 1019 93 10000 6.2 240 09:58 08.01.2020
4703 Mist 10 1017 100 4000 4.1 220 09:38 08.01.2020
4704 Mist 10 1017 100 5000 4.1 220 09:18 08.01.2020
4705 Mist 10 1017 93 5000 4.6 230 08:42 08.01.2020
4706 Drizzle 10 1017 93 4400 6.7 240 08:24 08.01.2020
4707 Drizzle 10 1017 93 4400 6.7 240 07:59 08.01.2020
4708 Drizzle 10 1017 93 2700 7.7 240 07:41 08.01.2020
4709 Clouds 10 1017 100 8000 7.2 230 07:23 08.01.2020
4710 Drizzle 9 1016 93 3500 6.7 220 06:44 08.01.2020
4711 Drizzle 9 1017 93 2400 7.7 220 05:57 08.01.2020
4712 Drizzle 9 1017 100 2400 7.2 220 05:27 08.01.2020
4713 Drizzle 9 1017 87 3500 7.2 220 04:39 08.01.2020
4714 Clouds 8 1017 87 10000 8.2 210 03:32 08.01.2020
4715 Clouds 8 1016 81 10000 9.3 220 02:44 08.01.2020
4716 Clouds 8 1017 87 10000 9.8 210 02:19 08.01.2020
4717 Rain 8 1016 81 10000 8.7 210 01:39 08.01.2020
4718 Clouds 8 1017 75 10000 9.8 210 00:54 08.01.2020
4719 Drizzle 8 1018 81 10000 8.7 200 00:26 08.01.2020
4720 Rain 8 1018 81 9000 9.3 210 23:47 07.01.2020
4721 Clouds 8 1020 81 10000 7.2 210 23:22 07.01.2020
4722 Clouds 8 1019 81 10000 8.7 210 22:58 07.01.2020
4723 Clouds 8 1019 81 10000 8.7 210 22:39 07.01.2020
4724 Clouds 8 1020 81 10000 7.7 200 22:20 07.01.2020
4725 Rain 7 1020 87 9000 7.2 220 21:55 07.01.2020
4726 Rain 7 1020 87 9000 7.2 220 21:37 07.01.2020
4727 Clouds 7 1021 81 10000 7.7 210 21:19 07.01.2020
4728 Clouds 7 1021 81 10000 7.7 210 21:19 07.01.2020
4729 Clouds 7 1020 87 9000 9.3 210 20:55 07.01.2020
4730 Clouds 7 1020 87 9000 9.3 210 20:36 07.01.2020
4731 Clouds 7 1021 87 9000 7.2 200 20:18 07.01.2020
4732 Clouds 7 1021 87 9000 8.7 210 19:38 07.01.2020
4733 Clouds 7 1021 87 9000 7.7 210 19:19 07.01.2020
4734 Clouds 7 1021 87 10000 5.7 200 18:58 07.01.2020
4735 Clouds 7 1021 87 10000 5.7 200 18:40 07.01.2020
4736 Clouds 7 1022 87 7000 7.2 200 18:19 07.01.2020
4737 Clouds 7 1022 87 7000 7.2 200 17:58 07.01.2020
4738 Clouds 7 1022 87 10000 5.1 200 17:39 07.01.2020
4739 Clouds 7 1022 87 9000 5.7 200 17:21 07.01.2020
4740 Clouds 7 1022 87 9000 5.7 200 16:56 07.01.2020
4741 Clouds 7 1023 87 10000 5.7 210 16:38 07.01.2020
4742 Clouds 7 1023 87 10000 5.1 200 16:19 07.01.2020
4743 Clouds 7 1023 87 10000 5.1 200 15:58 07.01.2020
4744 Clouds 7 1023 87 10000 5.1 210 15:39 07.01.2020
4745 Clouds 7 1023 87 10000 6.7 220 15:21 07.01.2020
4746 Clouds 8 1023 87 9000 4.6 220 14:54 07.01.2020
4747 Clouds 8 1023 87 9000 4.6 220 14:36 07.01.2020
4748 Clouds 8 1023 87 9000 5.7 220 14:18 07.01.2020
4749 Mist 8 1023 93 5000 5.1 220 13:39 07.01.2020
4750 Clouds 7 1023 87 9000 5.1 220 13:19 07.01.2020
4751 Clouds 7 1023 87 10000 5.1 230 12:41 07.01.2020
4752 Clouds 7 1024 93 10000 4.6 220 12:20 07.01.2020
4753 Clouds 7 1023 93 10000 4.6 230 11:57 07.01.2020
4754 Clouds 6 1023 93 10000 4.6 230 11:38 07.01.2020
4755 Clear 6 1024 100 8000 4.1 220 11:20 07.01.2020
4756 Clouds 5 1023 93 10000 3.6 230 10:42 07.01.2020
4757 Clear 5 1023 100 6000 3.1 200 10:24 07.01.2020
4758 Clear 4 1023 100 6000 3.1 200 09:58 07.01.2020
4759 Clouds 4 1022 93 9000 3.1 240 09:38 07.01.2020
4760 Clouds 4 1022 93 8000 3.1 250 09:20 07.01.2020
4761 Clouds 4 1022 93 8000 3.1 250 08:46 07.01.2020
4762 Clear 4 1022 100 7000 4.1 250 08:26 07.01.2020
4763 Clouds 5 1021 93 8000 3.1 250 07:54 07.01.2020
4764 Mist 5 1022 93 5000 3.6 240 07:28 07.01.2020
4765 Clouds 5 1020 87 7000 4.1 250 06:54 07.01.2020
4766 Clouds 5 1021 93 7000 4.1 240 06:34 07.01.2020
4767 Clouds 6 1019 87 7000 4.1 230 05:55 07.01.2020
4768 Clouds 6 1020 93 6000 3.6 240 05:35 07.01.2020
4769 Mist 6 1019 100 5000 4.6 230 03:29 07.01.2020
4770 Clouds 5 1018 86 6000 4.6 240 02:24 07.01.2020
4771 Mist 5 1018 100 5000 5.1 220 01:57 07.01.2020
4772 Drizzle 5 1018 93 5000 4.6 220 01:34 07.01.2020
4773 Clouds 4 1017 80 10000 3.6 230 00:40 07.01.2020
4774 Clouds 5 1017 86 9000 6.2 230 00:20 07.01.2020
4775 Clouds 4 1017 86 10000 5.1 210 23:55 06.01.2020
4776 Clouds 4 1017 87 10000 4.1 210 23:36 06.01.2020
4777 Clouds 4 1017 86 10000 5.1 210 23:18 06.01.2020
4778 Clouds 4 1017 84 10000 3.6 210 22:43 06.01.2020
4779 Clouds 3 1018 80 10000 5.1 200 22:24 06.01.2020
4780 Clouds 3 1018 80 10000 5.1 200 21:58 06.01.2020
4781 Clouds 3 1018 84 10000 3.1 190 21:39 06.01.2020
4782 Clouds 3 1018 80 10000 4.6 200 21:20 06.01.2020
4783 Clouds 3 1018 80 10000 4.6 200 21:20 06.01.2020
4784 Clouds 3 1018 80 10000 4.6 200 21:20 06.01.2020
4785 Clouds 3 1018 84 10000 3.6 170 20:57 06.01.2020
4786 Clouds 3 1018 84 10000 3.6 170 20:38 06.01.2020
4787 Clouds 3 1018 84 10000 3.6 170 20:38 06.01.2020
4788 Clouds 3 1018 80 10000 4.6 180 20:20 06.01.2020
4789 Clouds 3 1018 80 10000 4.6 180 19:56 06.01.2020
4790 Clouds 3 1019 86 10000 4.6 190 19:38 06.01.2020
4791 Clouds 3 1019 80 10000 4.6 180 19:20 06.01.2020
4792 Clouds 4 1019 80 10000 4.1 180 18:48 06.01.2020
4793 Clouds 4 1019 80 10000 4.6 170 18:23 06.01.2020
4794 Clouds 4 1020 80 10000 4.1 170 17:59 06.01.2020
4795 Clouds 4 1020 80 10000 4.1 170 17:38 06.01.2020
4796 Clouds 4 1020 80 10000 4.6 170 17:18 06.01.2020
4797 Clouds 5 1021 81 10000 5.7 200 16:44 06.01.2020
4798 Clouds 5 1021 75 10000 5.1 190 16:25 06.01.2020
4799 Clouds 6 1021 75 10000 5.1 190 15:59 06.01.2020
4800 Clouds 6 1021 87 10000 4.6 200 15:39 06.01.2020
4801 Clouds 6 1022 81 10000 5.7 210 15:19 06.01.2020
4802 Drizzle 6 1022 93 9000 5.1 210 14:58 06.01.2020
4803 Drizzle 6 1022 93 9000 5.1 210 14:39 06.01.2020
4804 Clouds 6 1022 87 10000 5.1 200 14:20 06.01.2020
4805 Drizzle 6 1023 93 8000 4.1 210 13:55 06.01.2020
4806 Drizzle 6 1023 93 8000 4.1 210 13:55 06.01.2020
4807 Drizzle 6 1023 93 8000 4.1 210 13:37 06.01.2020
4808 Drizzle 6 1023 93 8000 4.6 220 13:19 06.01.2020
4809 Clouds 6 1024 93 9000 4.6 220 12:42 06.01.2020
4810 Mist 6 1024 87 5000 5.7 200 12:20 06.01.2020
4811 Clouds 6 1025 93 8000 4.6 210 11:58 06.01.2020
4812 Clouds 6 1025 93 8000 4.6 210 11:39 06.01.2020
4813 Clouds 6 1025 93 8000 4.1 210 11:20 06.01.2020
4814 Clouds 6 1025 93 8000 4.1 220 10:54 06.01.2020
4815 Clouds 6 1025 93 8000 4.1 220 10:36 06.01.2020
4816 Clouds 6 1025 93 8000 4.6 220 10:18 06.01.2020
4817 Clouds 6 1025 87 8000 4.1 210 09:37 06.01.2020
4818 Mist 6 1026 93 5000 3.6 200 09:19 06.01.2020
4819 Clouds 6 1026 87 8000 3.6 220 08:43 06.01.2020
4820 Clouds 6 1026 93 6000 4.1 210 08:25 06.01.2020
4821 Clouds 6 1026 87 10000 3.6 220 07:53 06.01.2020
4822 Mist 6 1026 93 5000 4.6 210 07:28 06.01.2020
4823 Clouds 6 1026 87 10000 4.6 230 06:45 06.01.2020
4824 Clouds 6 1027 93 6000 4.1 210 06:20 06.01.2020
4825 Clouds 6 1026 87 10000 3.6 220 05:45 06.01.2020
4826 Clouds 6 1027 93 9000 4.1 230 04:37 06.01.2020
4827 Clouds 6 1027 93 9000 4.1 240 04:18 06.01.2020
4828 Drizzle 6 1027 93 6000 4.6 220 02:46 06.01.2020
4829 Clouds 6 1028 93 10000 5.1 210 02:24 06.01.2020
4830 Clouds 6 1027 93 6000 4.1 220 01:44 06.01.2020
4831 Clouds 6 1028 93 8000 4.6 210 01:26 06.01.2020
4832 Clouds 6 1028 93 6000 4.1 220 00:42 06.01.2020
4833 Clouds 6 1029 93 10000 4.1 210 00:23 06.01.2020
4834 Drizzle 6 1028 87 5000 5.1 230 23:42 05.01.2020
4835 Drizzle 6 1028 87 5000 5.1 230 23:42 05.01.2020
4836 Clouds 6 1029 93 10000 5.1 220 23:22 05.01.2020
4837 Drizzle 6 1029 87 6000 3.6 230 22:57 05.01.2020
4838 Clouds 6 1029 93 9000 6.2 220 22:38 05.01.2020
4839 Clouds 6 1029 93 6000 6.2 210 22:20 05.01.2020
4840 Clouds 6 1029 87 10000 5.7 220 21:55 05.01.2020
4841 Clouds 6 1029 87 10000 5.7 220 21:37 05.01.2020
4842 Clouds 6 1030 93 8000 5.7 210 21:19 05.01.2020
4843 Clouds 6 1029 87 10000 4.1 220 20:55 05.01.2020
4844 Clouds 6 1029 87 10000 4.1 220 20:36 05.01.2020
4845 Clouds 6 1030 93 10000 5.1 210 20:18 05.01.2020
4846 Clouds 6 1029 87 10000 4.1 230 19:56 05.01.2020
4847 Clouds 6 1029 87 10000 4.1 230 19:37 05.01.2020
4848 Clouds 6 1030 87 10000 4.6 210 19:19 05.01.2020
4849 Clouds 6 1030 87 10000 4.1 220 18:54 05.01.2020
4850 Clouds 6 1030 87 10000 4.1 220 18:36 05.01.2020
4851 Clouds 7 1030 93 10000 5.1 210 18:18 05.01.2020
4852 Clouds 7 1030 81 10000 3.6 230 17:55 05.01.2020
4853 Clouds 7 1030 81 10000 3.6 230 17:55 05.01.2020
4854 Clouds 7 1030 81 10000 3.6 230 17:37 05.01.2020
4855 Clouds 7 1030 93 10000 4.1 210 17:18 05.01.2020
4856 Clouds 7 1030 87 10000 4.6 230 16:55 05.01.2020
4857 Clouds 7 1030 87 10000 4.6 230 16:36 05.01.2020
4858 Clouds 7 1030 87 10000 4.6 220 16:18 05.01.2020
4859 Clouds 7 1030 87 9000 4.1 230 15:36 05.01.2020
4860 Clouds 7 1030 87 9000 4.1 230 15:36 05.01.2020
4861 Clouds 7 1031 87 10000 4.6 220 15:18 05.01.2020
4862 Clouds 7 1030 93 7000 3.6 230 14:54 05.01.2020
4863 Clouds 7 1030 93 7000 3.6 230 14:36 05.01.2020
4864 Clouds 7 1031 93 10000 5.1 230 14:18 05.01.2020
4865 Mist 7 1031 93 4500 4.1 240 13:40 05.01.2020
4866 Mist 7 1031 93 4000 3.6 230 13:21 05.01.2020
4867 Clouds 7 1031 93 9000 4.6 220 12:58 05.01.2020
4868 Mist 7 1031 100 3500 3.6 220 12:39 05.01.2020
4869 Clouds 7 1032 93 6000 4.6 230 12:21 05.01.2020
4870 Clouds 7 1032 93 6000 4.6 230 12:21 05.01.2020
4871 Clouds 7 1032 93 6000 4.6 230 11:58 05.01.2020
4872 Mist 6 1032 100 3200 3.1 210 11:39 05.01.2020
4873 Mist 7 1032 100 4700 4.6 220 11:39 05.01.2020
4874 Mist 6 1032 93 4600 3.6 210 11:19 05.01.2020
4875 Mist 6 1032 93 4500 3.1 220 10:56 05.01.2020
4876 Mist 6 1032 93 4500 3.1 220 10:36 05.01.2020
4877 Mist 5 1032 100 3200 3.1 210 10:18 05.01.2020
4878 Mist 5 1032 93 4000 2.6 220 09:41 05.01.2020
4879 Mist 5 1032 100 4500 2.1 220 09:21 05.01.2020
4880 Mist 5 1032 93 4500 2.1 220 08:48 05.01.2020
4881 Mist 4 1032 100 1300 3.6 200 08:29 05.01.2020
4882 Mist 4 1032 93 4500 1.5 160 07:55 05.01.2020
4883 Mist 4 1032 93 4500 1.5 160 07:36 05.01.2020
4884 Clouds 4 1032 93 7000 2.1 220 07:18 05.01.2020
4885 Mist 3 1032 100 3700 3.1 210 05:59 05.01.2020
4886 Clouds 3 1032 100 6000 2.6 210 05:32 05.01.2020
4887 Clouds 2 1032 84 10000 1.5 230 04:43 05.01.2020
4888 Clouds 2 1032 84 10000 1.5 230 04:43 05.01.2020
4889 Clouds 2 1032 84 10000 3.1 220 04:18 05.01.2020
4890 Clouds 2 1032 84 10000 3.1 220 04:18 05.01.2020
4891 Clouds 2 1032 84 10000 3.1 220 04:18 05.01.2020
4892 Clouds 2 1032 80 10000 2.6 260 02:46 05.01.2020
4893 Mist 2 1032 100 1800 2.1 210 02:24 05.01.2020
4894 Clouds 2 1031 80 10000 3.1 260 01:48 05.01.2020
4895 Clouds 2 1031 80 10000 2.1 270 01:19 05.01.2020
4896 Clouds 2 1031 80 10000 2.1 270 00:42 05.01.2020
4897 Clear 3 1032 100 7000 3.1 250 00:23 05.01.2020
4898 Clear 3 1032 100 7000 3.1 250 23:59 04.01.2020
4899 Clouds 3 1031 80 10000 2.1 260 23:40 04.01.2020
4900 Clear 3 1031 93 9000 2.1 260 23:19 04.01.2020
4901 Clear 3 1031 93 9000 2.1 260 23:19 04.01.2020
4902 Clouds 3 1030 74 10000 3.6 270 22:40 04.01.2020
4903 Clear 3 1031 93 9000 2.6 250 22:22 04.01.2020
4904 Clouds 3 1029 74 10000 3.1 270 21:58 04.01.2020
4905 Clouds 4 1029 74 10000 3.1 270 21:40 04.01.2020
4906 Clouds 4 1030 93 10000 2.6 250 21:20 04.01.2020
4907 Clouds 4 1029 75 10000 2.6 300 20:59 04.01.2020
4908 Clouds 4 1029 75 10000 2.6 300 20:40 04.01.2020
4909 Clouds 4 1029 86 10000 2.6 280 20:21 04.01.2020
4910 Clouds 4 1028 74 10000 3.1 310 19:57 04.01.2020
4911 Clouds 4 1028 74 10000 3.1 310 19:38 04.01.2020
4912 Clouds 4 1027 74 10000 4.1 330 19:20 04.01.2020
4913 Clouds 5 1027 74 10000 4.1 330 18:56 04.01.2020
4914 Clouds 5 1027 74 10000 4.1 330 18:37 04.01.2020
4915 Clouds 5 1027 93 10000 3.1 270 18:18 04.01.2020
4916 Clouds 5 1026 70 10000 5.1 330 17:41 04.01.2020
4917 Clouds 5 1026 93 10000 3.1 300 17:23 04.01.2020
4918 Rain 6 1026 93 10000 3.1 300 16:59 04.01.2020
4919 Clouds 6 1024 81 10000 4.1 310 16:40 04.01.2020
4920 Clouds 6 1025 93 10000 4.1 300 16:21 04.01.2020
4921 Clouds 6 1023 81 10000 5.1 300 15:56 04.01.2020
4922 Clouds 6 1023 81 10000 5.1 300 15:38 04.01.2020
4923 Clouds 7 1024 87 10000 5.7 290 15:18 04.01.2020
4924 Clouds 7 1022 87 10000 6.2 310 14:42 04.01.2020
4925 Clouds 7 1022 87 10000 6.2 310 14:42 04.01.2020
4926 Clouds 8 1024 87 10000 7.2 280 14:20 04.01.2020
4927 Clouds 8 1024 87 10000 7.2 280 13:59 04.01.2020
4928 Rain 8 1022 87 10000 7.2 320 13:39 04.01.2020
4929 Rain 8 1021 87 5000 9.3 290 13:20 04.01.2020
4930 Clouds 8 1024 81 10000 7.2 280 12:59 04.01.2020
4931 Clouds 8 1021 87 10000 10.3 290 12:40 04.01.2020
4932 Clouds 8 1021 87 10000 10.3 290 12:40 04.01.2020
4933 Clouds 8 1021 81 10000 10.3 280 12:19 04.01.2020
4934 Clouds 8 1024 81 10000 6.2 270 11:57 04.01.2020
4935 Clouds 8 1021 81 10000 9.3 280 11:38 04.01.2020
4936 Clouds 8 1024 81 10000 5.7 270 11:19 04.01.2020
4937 Clouds 7 1021 87 10000 8.7 270 10:41 04.01.2020
4938 Clouds 7 1023 87 10000 6.2 260 10:22 04.01.2020
4939 Clouds 7 1020 87 10000 9.3 270 09:50 04.01.2020
4940 Clouds 7 1023 87 10000 6.7 260 09:26 04.01.2020
4941 Clouds 7 1023 87 10000 6.7 260 08:58 04.01.2020
4942 Clouds 7 1020 87 10000 8.7 260 08:39 04.01.2020
4943 Clouds 6 1023 93 10000 5.7 260 08:20 04.01.2020
4944 Clouds 6 1021 81 10000 8.2 260 07:42 04.01.2020
4945 Clouds 6 1023 87 10000 6.2 260 07:19 04.01.2020
4946 Clouds 5 1023 87 10000 5.7 260 06:33 04.01.2020
4947 Clouds 5 1023 93 10000 4.6 240 05:19 04.01.2020
4948 Clouds 4 1024 93 10000 4.6 250 04:34 04.01.2020
4949 Clouds 4 1021 86 10000 6.2 260 03:52 04.01.2020
4950 Clouds 4 1024 93 10000 4.1 240 03:18 04.01.2020
4951 Clouds 4 1024 86 10000 4.1 240 02:21 04.01.2020
4952 Clouds 4 1022 80 10000 4.6 260 01:55 04.01.2020
4953 Clouds 4 1024 93 10000 3.6 230 01:31 04.01.2020
4954 Clouds 4 1022 80 10000 4.6 260 00:46 04.01.2020
4955 Clouds 4 1024 86 10000 3.6 240 00:26 04.01.2020
4956 Clouds 4 1022 80 10000 5.7 280 23:48 03.01.2020
4957 Clouds 4 1023 93 10000 3.6 250 23:25 03.01.2020
4958 Rain 4 1021 81 10000 4.1 290 22:54 03.01.2020
4959 Rain 4 1021 81 10000 4.1 290 22:36 03.01.2020
4960 Clouds 4 1023 86 10000 3.1 260 22:18 03.01.2020
4961 Clouds 5 1020 81 10000 5.1 290 21:54 03.01.2020
4962 Clouds 5 1020 81 10000 5.1 290 21:36 03.01.2020
4963 Clouds 5 1022 86 10000 3.1 260 21:18 03.01.2020
4964 Clouds 5 1019 81 10000 5.1 300 20:43 03.01.2020
4965 Rain 5 1021 81 10000 3.1 300 20:19 03.01.2020
4966 Rain 5 1021 81 10000 3.1 300 19:59 03.01.2020
4967 Clouds 6 1018 81 10000 4.1 310 19:40 03.01.2020
4968 Rain 6 1019 75 10000 4.6 320 19:22 03.01.2020
4969 Clouds 6 1017 93 10000 4.1 310 18:46 03.01.2020
4970 Rain 6 1018 87 10000 4.6 300 18:26 03.01.2020
4971 Rain 6 1018 87 10000 4.6 300 18:26 03.01.2020
4972 Rain 6 1018 87 10000 4.6 300 17:58 03.01.2020
4973 Rain 6 1015 93 8000 4.1 330 17:39 03.01.2020
4974 Clouds 6 1016 93 10000 5.1 330 17:21 03.01.2020
4975 Rain 6 1013 93 8000 5.1 10 16:43 03.01.2020
4976 Rain 7 1014 93 5000 6.2 340 16:24 03.01.2020
4977 Rain 7 1014 93 5000 6.2 340 15:59 03.01.2020
4978 Drizzle 8 1012 100 5000 5.1 290 15:41 03.01.2020
4979 Rain 8 1012 93 8000 4.6 290 15:19 03.01.2020
4980 Drizzle 9 1011 93 5000 4.1 250 14:39 03.01.2020
4981 Rain 9 1011 100 2300 3.6 230 14:20 03.01.2020
4982 Drizzle 9 1011 93 5000 5.7 240 13:57 03.01.2020
4983 Drizzle 9 1011 93 5000 5.7 240 13:39 03.01.2020
4984 Drizzle 9 1011 93 2200 4.1 210 13:20 03.01.2020
4985 Drizzle 8 1011 100 3800 5.1 230 12:41 03.01.2020
4986 Drizzle 8 1011 93 3800 5.1 230 12:22 03.01.2020
4987 Drizzle 8 1011 93 3800 5.7 220 11:53 03.01.2020
4988 Drizzle 8 1012 93 3000 4.6 220 11:34 03.01.2020
4989 Drizzle 8 1012 93 2200 5.1 220 10:58 03.01.2020
4990 Drizzle 8 1012 93 2200 5.1 220 10:39 03.01.2020
4991 Drizzle 8 1012 93 2200 5.7 220 10:21 03.01.2020
4992 Drizzle 8 1012 93 2000 5.7 220 09:55 03.01.2020
4993 Drizzle 8 1012 93 2000 5.7 220 09:37 03.01.2020
4994 Drizzle 8 1012 93 2500 6.7 210 09:19 03.01.2020
4995 Drizzle 8 1012 100 1400 6.2 220 08:44 03.01.2020
4996 Drizzle 8 1012 93 2600 7.7 220 08:22 03.01.2020
4997 Drizzle 8 1012 93 2600 7.7 220 07:56 03.01.2020
4998 Drizzle 8 1012 93 2500 6.2 230 07:37 03.01.2020
4999 Drizzle 7 1012 93 2500 7.2 210 07:18 03.01.2020
5000 Drizzle 7 1012 93 3000 7.2 220 06:42 03.01.2020
5001 Drizzle 7 1012 93 3000 7.2 220 06:22 03.01.2020
5002 Drizzle 7 1012 93 3000 7.2 220 06:22 03.01.2020
5003 Mist 7 1013 100 3600 7.7 210 04:59 03.01.2020
5004 Clouds 7 1013 93 10000 7.7 210 03:38 03.01.2020
5005 Clouds 6 1014 87 10000 7.2 210 02:53 03.01.2020
5006 Clouds 6 1014 87 10000 7.2 210 02:53 03.01.2020
5007 Clouds 6 1015 87 10000 7.7 210 01:51 03.01.2020
5008 Clouds 6 1016 93 10000 7.2 200 01:33 03.01.2020
5009 Clouds 6 1016 93 10000 6.2 200 00:43 03.01.2020
5010 Clouds 5 1017 87 10000 6.2 190 00:24 03.01.2020
5011 Clouds 5 1017 86 7000 6.2 210 23:39 02.01.2020
5012 Clouds 5 1017 93 10000 7.2 200 23:20 02.01.2020
5013 Clouds 5 1017 93 10000 7.2 200 22:59 02.01.2020
5014 Mist 5 1017 93 4000 6.7 200 22:41 02.01.2020
5015 Clouds 5 1018 93 9000 6.7 200 22:20 02.01.2020
5016 Clouds 5 1018 93 9000 6.7 200 22:20 02.01.2020
5017 Clouds 4 1018 93 9000 6.7 200 21:57 02.01.2020
5018 Mist 4 1018 93 4000 6.7 210 21:38 02.01.2020
5019 Clouds 4 1018 93 7000 6.7 200 21:20 02.01.2020
5020 Clouds 4 1018 93 7000 6.7 200 20:56 02.01.2020
5021 Drizzle 4 1019 100 3500 5.1 200 20:38 02.01.2020
5022 Mist 4 1019 93 3300 6.7 200 20:20 02.01.2020
5023 Drizzle 3 1020 93 3500 4.6 210 19:55 02.01.2020
5024 Drizzle 3 1020 93 3500 4.6 210 19:36 02.01.2020
5025 Mist 3 1020 100 4600 5.1 190 19:18 02.01.2020
5026 Mist 3 1020 100 3000 4.6 200 18:54 02.01.2020
5027 Mist 3 1020 100 3000 4.6 200 18:36 02.01.2020
5028 Mist 3 1020 93 4000 5.1 190 18:18 02.01.2020
5029 Mist 3 1020 93 5000 5.1 190 17:55 02.01.2020
5030 Mist 2 1021 100 3000 4.6 200 17:36 02.01.2020
5031 Mist 2 1021 93 3700 5.7 190 17:18 02.01.2020
5032 Mist 2 1021 100 2500 4.6 190 16:42 02.01.2020
5033 Mist 2 1021 93 3800 5.1 190 16:21 02.01.2020
5034 Mist 2 1021 100 1200 5.7 200 15:59 02.01.2020
5035 Mist 2 1021 100 1200 5.7 200 15:41 02.01.2020
5036 Mist 2 1022 100 2800 5.1 190 15:23 02.01.2020
5037 Fog 2 1022 88 800 4.6 200 14:57 02.01.2020
5038 Fog 2 1022 88 800 4.6 200 14:37 02.01.2020
5039 Mist 2 1022 100 2700 4.6 190 14:18 02.01.2020
5040 Fog 2 1023 93 800 5.1 220 13:55 02.01.2020
5041 Fog 2 1023 93 800 5.1 220 13:36 02.01.2020
5042 Mist 1 1023 100 1500 5.1 190 12:59 02.01.2020
5043 Fog 1 1024 92 500 4.6 220 12:40 02.01.2020
5044 Fog 1 1025 100 400 5.1 220 12:20 02.01.2020
5045 Fog 1 1025 100 650 4.6 200 11:41 02.01.2020
5046 Fog 0 1025 100 700 5.1 200 11:21 02.01.2020
5047 Fog 0 1025 96 800 4.6 230 10:46 02.01.2020
5048 Mist 0 1026 96 1000 5.1 200 10:27 02.01.2020
5049 Mist 0 1026 96 1800 4.1 230 09:56 02.01.2020
5050 Mist 0 1026 96 1800 4.1 230 09:35 02.01.2020
5051 Mist 0 1026 96 2200 4.6 230 08:58 02.01.2020
5052 Mist 0 1026 96 2200 4.6 230 08:39 02.01.2020
5053 Mist 0 1026 96 1000 4.1 220 08:19 02.01.2020
5054 Mist 0 1026 96 2000 3.6 240 07:47 02.01.2020
5055 Fog 0 1026 96 750 5.1 220 07:26 02.01.2020
5056 Fog 0 1025 96 800 4.1 220 06:41 02.01.2020
5057 Mist 0 1026 96 1100 4.1 230 05:40 02.01.2020
5058 Mist 0 1026 90 1100 4.1 210 04:35 02.01.2020
5059 Fog 0 1027 90 700 3.6 220 03:44 02.01.2020
5060 Mist 0 1028 100 1100 3.6 210 02:21 02.01.2020
5061 Fog 0 1028 96 800 3.1 220 01:57 02.01.2020
5062 Mist 0 1028 100 1300 3.6 260 01:26 02.01.2020
5063 Fog 0 1029 87 800 2.6 240 00:49 02.01.2020
5064 Fog 0 1029 87 500 3.6 250 00:26 02.01.2020
5065 Fog 0 1029 87 500 3.6 250 00:26 02.01.2020
5066 Fog 0 1029 100 700 3.1 220 23:43 01.01.2020
5067 Fog 0 1029 100 700 3.1 220 23:43 01.01.2020
5068 Mist 0 1029 87 1600 5.1 210 23:23 01.01.2020
5069 Fog 0 1029 100 700 3.1 230 22:39 01.01.2020
5070 Fog 0 1029 87 900 4.6 220 22:21 01.01.2020
5071 Fog 0 1029 87 900 4.6 220 21:59 01.01.2020
5072 Mist 0 1029 100 1000 3.6 230 21:40 01.01.2020
5073 Mist 0 1029 87 1800 4.6 210 21:21 01.01.2020
5074 Mist 0 1029 87 1800 4.6 210 20:58 01.01.2020
5075 Mist 0 1029 100 1000 4.6 210 20:39 01.01.2020
5076 Fog 0 1030 79 750 4.1 200 20:20 01.01.2020
5077 Fog 0 1030 79 750 4.1 200 19:57 01.01.2020
5078 Fog 0 1030 100 800 3.1 210 19:39 01.01.2020
5079 Fog 0 1030 100 700 3.6 210 19:20 01.01.2020
5080 Mist 0 1030 79 1200 4.1 210 18:57 01.01.2020
5081 Fog -1 1030 100 400 3.6 210 18:38 01.01.2020
5082 Mist -1 1030 100 1500 3.6 210 18:20 01.01.2020
5083 Mist -1 1030 100 1500 3.6 210 17:58 01.01.2020
5084 Fog -1 1030 100 400 3.6 210 17:40 01.01.2020
5085 Mist 0 1030 81 1800 4.6 200 17:20 01.01.2020
5086 Fog 0 1030 100 300 3.1 210 16:58 01.01.2020
5087 Fog 0 1030 100 300 3.1 210 16:38 01.01.2020
5088 Fog 0 1030 100 300 3.1 210 16:38 01.01.2020
5089 Mist 0 1030 81 1800 3.6 190 16:19 01.01.2020
5090 Mist 0 1030 81 1800 3.6 190 15:57 01.01.2020
5091 Fog 0 1030 100 300 3.6 190 15:38 01.01.2020
5092 Mist 0 1030 81 2100 3.6 200 15:20 01.01.2020
5093 Mist 0 1030 81 2100 3.6 200 14:56 01.01.2020
5094 Fog 0 1031 81 400 2.6 210 14:37 01.01.2020
5095 Mist 0 1031 83 1700 3.1 180 14:19 01.01.2020
5096 Fog 0 1031 100 200 2.1 210 13:55 01.01.2020
5097 Fog 0 1031 100 200 2.1 210 13:36 01.01.2020
5098 Mist 0 1032 100 1600 3.1 190 13:18 01.01.2020
5099 Fog 0 1032 100 200 2.6 190 12:54 01.01.2020
5100 Fog 0 1032 80 650 2.6 170 12:36 01.01.2020
5101 Fog 0 1032 80 450 2.1 170 12:18 01.01.2020
5102 Fog 0 1033 92 100 2.6 190 11:41 01.01.2020
5103 Fog 0 1032 90 250 4.1 160 11:21 01.01.2020
5104 Fog 0 1032 90 250 4.1 160 11:21 01.01.2020
5105 Fog 0 1033 92 100 2.1 200 10:56 01.01.2020
5106 Fog 0 1033 92 100 2.1 200 10:38 01.01.2020
5107 Fog 0 1033 100 350 2.6 190 10:19 01.01.2020
5108 Fog 0 1033 92 100 2.1 190 09:42 01.01.2020
5109 Fog 0 1033 100 500 2.6 170 09:22 01.01.2020
5110 Fog 1 1033 100 500 2.6 170 08:57 01.01.2020
5111 Fog 0 1033 90 100 2.6 200 08:39 01.01.2020
5112 Fog 1 1033 100 450 3.1 170 08:20 01.01.2020
5113 Fog 1 1033 91 100 2.1 210 07:58 01.01.2020
5114 Fog 1 1033 91 100 2.1 210 07:40 01.01.2020
5115 Fog 0 1033 91 400 1 0 07:20 01.01.2020
5116 Fog 0 1033 91 100 2.1 230 06:40 01.01.2020
5117 Fog 0 1033 91 350 1 0 06:18 01.01.2020
5118 Fog 0 1034 100 150 2.1 230 04:36 01.01.2020
5119 Fog 0 1034 92 150 2.1 220 03:41 01.01.2020
5120 Fog 0 1034 87 350 2.1 200 03:22 01.01.2020
5121 Fog 0 1034 93 1500 0.5 0 02:54 01.01.2020
5122 Fog 1 1034 100 150 2.6 220 02:30 01.01.2020
5123 Fog 1 1034 93 10000 0.5 0 01:45 01.01.2020
5124 Fog 1 1034 93 10000 1.5 220 01:23 01.01.2020
5125 Clouds 1 1035 93 10000 1.5 200 00:56 01.01.2020
5126 Clouds 1 1035 93 10000 1.5 200 00:37 01.01.2020
5127 Fog 1 1035 87 100 1.5 210 00:18 01.01.2020
5128 Clouds 2 1035 86 10000 2.1 230 23:39 31.12.2019
5129 Fog 2 1035 86 150 1 220 23:19 31.12.2019
5130 Clouds 2 1035 93 10000 1.5 210 22:57 31.12.2019
5131 Clouds 2 1035 93 10000 1.5 210 22:38 31.12.2019
5132 Fog 2 1035 100 200 0.5 220 22:18 31.12.2019
5133 Clouds 2 1035 86 10000 1 290 21:54 31.12.2019
5134 Clouds 2 1035 86 10000 1 290 21:36 31.12.2019
5135 Clouds 2 1035 93 10000 0.5 0 21:18 31.12.2019
5136 Clouds 3 1035 93 10000 0.5 0 20:40 31.12.2019
5137 Fog 3 1035 100 250 1 220 20:21 31.12.2019
5138 Fog 3 1035 100 250 1 220 19:59 31.12.2019
5139 Clouds 3 1035 86 10000 1 0 19:40 31.12.2019
5140 Clouds 3 1034 93 10000 1.5 250 19:22 31.12.2019
5141 Clouds 4 1034 93 10000 1.5 250 18:58 31.12.2019
5142 Clouds 4 1034 93 10000 1.5 250 18:40 31.12.2019
5143 Clouds 4 1034 93 10000 1.5 250 18:20 31.12.2019
5144 Clouds 4 1034 93 10000 1 270 17:56 31.12.2019
5145 Clouds 4 1034 93 10000 1 270 17:38 31.12.2019
5146 Clouds 4 1034 93 10000 1 270 17:38 31.12.2019
5147 Clouds 5 1033 81 10000 2.6 310 17:19 31.12.2019
5148 Clouds 6 1033 81 10000 2.6 310 16:57 31.12.2019
5149 Clouds 6 1033 81 10000 2.6 310 16:38 31.12.2019
5150 Clear 6 1034 87 10000 1.5 290 16:19 31.12.2019
5151 Clouds 7 1033 75 10000 3.1 320 15:56 31.12.2019
5152 Clouds 7 1033 75 10000 3.1 320 15:38 31.12.2019
5153 Clear 8 1033 81 10000 2.6 310 15:20 31.12.2019
5154 Clear 8 1033 81 10000 2.6 310 14:58 31.12.2019
5155 Clouds 8 1033 75 10000 4.6 320 14:38 31.12.2019
5156 Clouds 8 1033 81 10000 3.1 310 14:19 31.12.2019
5157 Clouds 8 1033 70 10000 5.1 310 13:57 31.12.2019
5158 Clouds 8 1033 70 10000 5.1 310 13:39 31.12.2019
5159 Clouds 8 1033 81 10000 2.6 300 13:21 31.12.2019
5160 Clouds 8 1033 81 10000 2.6 300 12:58 31.12.2019
5161 Clouds 8 1032 75 10000 4.6 290 12:40 31.12.2019
5162 Clouds 7 1033 87 10000 2.6 290 12:20 31.12.2019
5163 Clouds 7 1032 75 10000 4.1 280 11:56 31.12.2019
5164 Clouds 7 1032 75 10000 4.1 280 11:38 31.12.2019
5165 Clouds 6 1033 100 10000 1.5 290 11:20 31.12.2019
5166 Clouds 6 1033 100 10000 1.5 290 10:57 31.12.2019
5167 Clouds 6 1032 81 10000 3.6 280 10:38 31.12.2019
5168 Clouds 5 1033 100 8000 2.1 270 10:20 31.12.2019
5169 Clouds 5 1033 100 8000 2.1 270 09:59 31.12.2019
5170 Clouds 5 1031 81 10000 3.6 280 09:39 31.12.2019
5171 Clouds 5 1030 81 10000 3.6 300 09:20 31.12.2019
5172 Clouds 5 1030 81 10000 3.6 300 08:57 31.12.2019
5173 Clouds 4 1030 81 10000 3.6 300 08:39 31.12.2019
5174 Clouds 5 1029 87 10000 3.1 300 08:19 31.12.2019
5175 Clouds 5 1029 87 10000 3.1 300 07:43 31.12.2019
5176 Clouds 5 1030 93 6000 1.5 290 07:21 31.12.2019
5177 Clouds 5 1028 87 10000 3.1 300 06:50 31.12.2019
5178 Clouds 5 1027 87 10000 3.1 300 05:58 31.12.2019
5179 Clouds 7 1028 93 8000 3.6 310 04:30 31.12.2019
5180 Clouds 7 1026 100 8000 4.1 300 03:59 31.12.2019
5181 Mist 7 1024 93 3500 3.6 280 02:56 31.12.2019
5182 Mist 7 1026 100 3500 3.1 260 02:19 31.12.2019
5183 Drizzle 7 1024 93 6000 4.6 270 01:48 31.12.2019
5184 Drizzle 7 1024 93 6000 4.6 270 01:48 31.12.2019
5185 Mist 6 1026 100 2700 2.6 260 01:28 31.12.2019
5186 Drizzle 6 1024 93 3500 5.1 270 00:47 31.12.2019
5187 Clouds 6 1025 93 9000 4.1 260 00:23 31.12.2019
5188 Clouds 6 1025 93 9000 4.1 260 00:23 31.12.2019
5189 Clouds 5 1024 87 10000 4.1 260 23:58 30.12.2019
5190 Clouds 5 1024 87 10000 4.1 260 23:38 30.12.2019
5191 Clear 5 1025 93 8000 4.1 250 23:20 30.12.2019
5192 Clouds 5 1023 86 10000 5.7 260 22:59 30.12.2019
5193 Clouds 5 1023 86 10000 5.7 260 22:40 30.12.2019
5194 Clouds 5 1023 86 10000 5.1 260 22:20 30.12.2019
5195 Clear 5 1024 86 10000 5.1 250 21:57 30.12.2019
5196 Clouds 5 1023 80 10000 4.6 260 21:39 30.12.2019
5197 Clear 5 1024 80 10000 5.7 240 21:20 30.12.2019
5198 Clear 5 1024 80 10000 5.7 240 20:58 30.12.2019
5199 Clear 5 1023 90 10000 5.1 250 20:40 30.12.2019
5200 Clear 4 1024 86 10000 5.7 230 20:20 30.12.2019
5201 Clear 4 1024 90 10000 5.7 230 19:59 30.12.2019
5202 Clear 5 1023 69 10000 5.7 230 19:39 30.12.2019
5203 Clear 5 1024 90 10000 6.7 220 19:20 30.12.2019
5204 Clear 5 1023 60 10000 4.6 240 18:59 30.12.2019
5205 Clear 5 1023 60 10000 4.6 240 18:41 30.12.2019
5206 Clear 5 1024 69 10000 5.7 220 18:21 30.12.2019
5207 Clear 5 1023 60 10000 4.1 240 17:58 30.12.2019
5208 Clear 5 1023 60 10000 4.1 240 17:40 30.12.2019
5209 Clear 6 1024 65 10000 5.7 230 17:19 30.12.2019
5210 Clear 6 1024 65 10000 5.7 230 16:59 30.12.2019
5211 Clouds 6 1023 60 10000 3.6 230 16:39 30.12.2019
5212 Clear 6 1024 56 10000 7.2 220 16:20 30.12.2019
5213 Clear 7 1024 56 10000 7.2 220 15:56 30.12.2019
5214 Clouds 7 1023 52 10000 4.6 220 15:38 30.12.2019
5215 Clear 7 1024 56 10000 6.2 210 15:19 30.12.2019
5216 Clouds 7 1024 52 10000 5.7 220 14:54 30.12.2019
5217 Clouds 7 1024 52 10000 5.7 220 14:36 30.12.2019
5218 Clouds 7 1025 52 10000 6.7 230 14:18 30.12.2019
5219 Clouds 7 1024 52 10000 5.1 230 13:41 30.12.2019
5220 Clouds 7 1026 56 10000 6.7 220 13:23 30.12.2019
5221 Clouds 7 1025 52 10000 4.1 230 12:58 30.12.2019
5222 Clouds 7 1025 52 10000 4.1 230 12:39 30.12.2019
5223 Clouds 6 1027 56 10000 7.2 220 12:19 30.12.2019
5224 Clouds 6 1026 56 10000 5.1 220 11:56 30.12.2019
5225 Clouds 5 1026 56 10000 5.1 220 11:37 30.12.2019
5226 Clouds 5 1027 60 10000 6.2 210 11:18 30.12.2019
5227 Clouds 5 1026 52 10000 5.1 230 10:42 30.12.2019
5228 Clouds 5 1026 52 10000 5.1 230 10:42 30.12.2019
5229 Clouds 5 1027 60 10000 5.7 220 10:20 30.12.2019
5230 Clouds 5 1026 55 10000 4.6 220 09:44 30.12.2019
5231 Clouds 5 1027 60 10000 6.2 210 09:22 30.12.2019
5232 Clouds 5 1026 52 10000 4.6 230 08:58 30.12.2019
5233 Clouds 5 1026 52 10000 4.6 230 08:39 30.12.2019
5234 Clouds 5 1027 60 10000 5.7 210 08:21 30.12.2019
5235 Clouds 5 1027 52 10000 4.6 230 07:53 30.12.2019
5236 Clouds 5 1028 60 10000 5.7 210 07:32 30.12.2019
5237 Clouds 5 1027 52 10000 5.7 220 06:39 30.12.2019
5238 Clouds 5 1028 55 10000 4.6 210 04:45 30.12.2019
5239 Clouds 5 1029 55 10000 4.6 220 03:52 30.12.2019
5240 Clouds 5 1029 55 10000 5.1 220 02:47 30.12.2019
5241 Clouds 5 1029 55 10000 5.1 220 02:47 30.12.2019
5242 Clouds 5 1030 60 10000 6.2 210 02:29 30.12.2019
5243 Clouds 4 1030 55 10000 5.7 220 01:47 30.12.2019
5244 Clouds 4 1030 60 10000 6.2 200 01:19 30.12.2019
5245 Clouds 4 1030 55 10000 6.2 220 00:42 30.12.2019
5246 Clouds 4 1031 60 10000 7.2 210 23:59 29.12.2019
5247 Clouds 4 1031 55 10000 5.1 220 23:39 29.12.2019
5248 Clouds 3 1031 69 10000 4.1 210 23:21 29.12.2019
5249 Clouds 3 1031 55 10000 5.1 210 22:42 29.12.2019
5250 Clouds 3 1032 64 10000 6.2 200 22:23 29.12.2019
5251 Clouds 3 1031 64 10000 5.1 220 21:58 29.12.2019
5252 Clouds 3 1031 64 10000 5.1 220 21:40 29.12.2019
5253 Clouds 3 1032 69 10000 4.6 200 21:20 29.12.2019
5254 Clouds 3 1032 69 10000 4.6 200 21:20 29.12.2019
5255 Clouds 3 1032 69 10000 4.6 200 20:57 29.12.2019
5256 Clouds 3 1032 69 10000 4.1 220 20:39 29.12.2019
5257 Clouds 3 1033 74 10000 4.1 210 20:20 29.12.2019
5258 Clouds 3 1033 74 10000 4.1 210 20:20 29.12.2019
5259 Clouds 3 1033 74 10000 4.1 210 19:59 29.12.2019
5260 Clouds 3 1032 74 10000 4.1 200 19:40 29.12.2019
5261 Clouds 3 1033 69 10000 3.6 200 19:21 29.12.2019
5262 Clouds 3 1033 80 10000 3.1 200 18:57 29.12.2019
5263 Clouds 3 1033 80 10000 3.1 200 18:38 29.12.2019
5264 Clouds 3 1033 74 10000 3.6 210 18:19 29.12.2019
5265 Clouds 3 1033 74 10000 3.6 210 17:58 29.12.2019
5266 Clouds 3 1033 80 10000 3.6 190 17:39 29.12.2019
5267 Clouds 3 1033 74 10000 4.6 190 17:20 29.12.2019
5268 Clouds 3 1034 80 10000 3.6 200 16:57 29.12.2019
5269 Clouds 3 1034 80 10000 3.6 200 16:38 29.12.2019
5270 Clouds 3 1034 80 10000 3.6 200 16:38 29.12.2019
5271 Clouds 3 1034 74 10000 4.1 210 16:20 29.12.2019
5272 Clouds 3 1034 74 10000 4.1 210 15:58 29.12.2019
5273 Clouds 3 1034 80 10000 3.1 200 15:39 29.12.2019
5274 Clouds 3 1034 74 10000 4.1 200 15:20 29.12.2019
5275 Clouds 3 1034 74 10000 4.1 200 14:58 29.12.2019
5276 Clouds 3 1034 80 10000 3.6 190 14:39 29.12.2019
5277 Clouds 3 1034 70 10000 4.1 210 14:18 29.12.2019
5278 Clouds 3 1034 70 10000 4.1 210 14:18 29.12.2019
5279 Clouds 3 1034 70 10000 4.1 210 13:58 29.12.2019
5280 Clouds 2 1034 80 10000 4.6 200 13:39 29.12.2019
5281 Clouds 2 1035 71 10000 4.6 200 13:21 29.12.2019
5282 Clouds 2 1035 71 10000 4.1 200 12:56 29.12.2019
5283 Clouds 2 1035 86 10000 4.1 210 12:37 29.12.2019
5284 Clouds 2 1036 80 10000 4.1 200 12:19 29.12.2019
5285 Clouds 1 1036 80 10000 4.6 210 11:40 29.12.2019
5286 Clouds 1 1036 86 10000 4.1 210 11:20 29.12.2019
5287 Clouds 1 1036 75 10000 3.6 190 10:56 29.12.2019
5288 Clouds 0 1036 75 10000 3.6 190 10:37 29.12.2019
5289 Clouds 0 1036 75 10000 3.6 200 10:18 29.12.2019
5290 Clouds 0 1036 75 10000 2.6 200 09:44 29.12.2019
5291 Clouds 0 1036 75 9000 3.1 200 09:26 29.12.2019
5292 Clouds 0 1037 75 10000 3.1 200 08:55 29.12.2019
5293 Clouds 0 1037 75 10000 3.1 200 08:37 29.12.2019
5294 Clouds 0 1037 76 10000 2.6 180 08:18 29.12.2019
5295 Clouds 0 1037 92 10000 3.6 200 07:43 29.12.2019
5296 Clouds 0 1037 76 10000 3.6 200 07:25 29.12.2019
5297 Clouds -1 1037 76 10000 3.6 190 06:28 29.12.2019
5298 Clouds -1 1037 86 10000 2.6 190 05:55 29.12.2019
5299 Clouds -1 1037 92 10000 3.1 190 04:59 29.12.2019
5300 Clouds -1 1037 92 10000 3.1 200 04:30 29.12.2019
5301 Clouds -1 1037 92 10000 2.6 170 03:32 29.12.2019
5302 Clouds -1 1038 80 10000 3.1 190 02:27 29.12.2019
5303 Clouds 0 1038 92 10000 2.6 180 01:47 29.12.2019
5304 Clouds 0 1038 81 10000 2.6 180 01:28 29.12.2019
5305 Clouds 0 1038 81 10000 3.1 190 00:45 29.12.2019
5306 Clouds 0 1038 81 10000 3.6 170 00:24 29.12.2019
5307 Clouds 0 1039 81 10000 2.6 190 23:55 28.12.2019
5308 Clouds 0 1039 81 10000 2.6 190 23:37 28.12.2019
5309 Clouds 0 1039 84 10000 2.1 170 23:18 28.12.2019
5310 Clouds 0 1039 84 10000 3.1 180 22:37 28.12.2019
5311 Clouds 0 1039 84 10000 3.1 170 22:18 28.12.2019
5312 Clouds 0 1039 84 10000 3.1 170 21:56 28.12.2019
5313 Clouds 0 1040 84 10000 2.1 180 21:37 28.12.2019
5314 Clouds 0 1040 100 9000 2.1 180 21:19 28.12.2019
5315 Clouds 0 1040 84 10000 3.1 170 20:54 28.12.2019
5316 Clouds 0 1040 84 10000 3.1 170 20:36 28.12.2019
5317 Clouds 0 1039 82 10000 3.1 150 20:18 28.12.2019
5318 Clouds 0 1040 82 10000 2.6 160 19:41 28.12.2019
5319 Clouds 1 1040 82 10000 2.6 150 19:23 28.12.2019
5320 Clouds 0 1040 82 10000 1.5 180 18:59 28.12.2019
5321 Clouds 0 1040 82 10000 1.5 180 18:40 28.12.2019
5322 Clouds 1 1040 82 8000 1.5 150 18:20 28.12.2019
5323 Clouds 1 1040 82 8000 1.5 150 17:59 28.12.2019
5324 Clouds 1 1040 86 10000 3.6 170 17:39 28.12.2019
5325 Clouds 1 1040 80 8000 2.6 150 17:21 28.12.2019
5326 Clouds 1 1040 86 10000 2.6 160 16:50 28.12.2019
5327 Clouds 1 1039 80 8000 3.1 150 16:27 28.12.2019
5328 Clouds 1 1039 80 8000 3.1 150 15:58 28.12.2019
5329 Clouds 1 1040 86 10000 2.6 150 15:39 28.12.2019
5330 Clouds 1 1039 86 10000 2.6 130 15:21 28.12.2019
5331 Clouds 1 1039 86 10000 2.6 130 15:21 28.12.2019
5332 Clouds 1 1041 86 10000 2.6 140 14:47 28.12.2019
5333 Clouds 1 1040 86 10000 2.1 160 14:25 28.12.2019
5334 Clouds 1 1040 86 10000 2.1 160 13:58 28.12.2019
5335 Clouds 1 1040 86 10000 2.1 150 13:39 28.12.2019
5336 Clouds 1 1040 86 10000 2.6 140 13:20 28.12.2019
5337 Clouds 1 1040 86 10000 2.6 140 13:20 28.12.2019
5338 Clouds 1 1041 86 10000 2.6 150 12:56 28.12.2019
5339 Clouds 1 1041 86 10000 2.6 150 12:37 28.12.2019
5340 Clouds 1 1040 86 10000 3.1 140 12:19 28.12.2019
5341 Clouds 0 1041 77 10000 2.1 130 11:40 28.12.2019
5342 Clouds 0 1041 82 8000 1.5 120 11:21 28.12.2019
5343 Clouds 0 1041 92 10000 2.1 120 10:55 28.12.2019
5344 Clouds 0 1041 92 10000 2.1 120 10:36 28.12.2019
5345 Clouds -1 1040 92 9000 2.1 110 10:18 28.12.2019
5346 Clouds -1 1040 92 9000 2.1 110 10:18 28.12.2019
5347 Clouds -1 1041 92 10000 2.1 90 09:45 28.12.2019
5348 Clouds -1 1040 100 10000 1.5 110 09:24 28.12.2019
5349 Clouds -1 1041 92 10000 1 110 08:58 28.12.2019
5350 Clouds -1 1041 92 10000 1 110 08:39 28.12.2019
5351 Clouds -1 1040 92 10000 1 100 08:20 28.12.2019
5352 Clouds -1 1040 92 10000 1 130 07:43 28.12.2019
5353 Clouds -1 1039 100 10000 2.1 110 07:21 28.12.2019
5354 Clouds -1 1040 92 10000 2.1 120 05:45 28.12.2019
5355 Clouds -1 1040 92 10000 0.5 100 03:48 28.12.2019
5356 Clouds -1 1039 92 10000 2.6 110 02:50 28.12.2019
5357 Clouds -1 1039 92 10000 1.5 110 02:20 28.12.2019
5358 Clouds -1 1039 81 10000 1 110 01:55 28.12.2019
5359 Clouds 0 1039 82 10000 1 0 01:23 28.12.2019
5360 Clouds 0 1039 82 10000 1 90 00:48 28.12.2019
5361 Clouds 0 1038 82 10000 2.1 100 00:30 28.12.2019
5362 Clouds 0 1038 82 10000 2.1 100 23:58 27.12.2019
5363 Clouds 1 1039 92 10000 1.5 90 23:39 27.12.2019
5364 Clouds 0 1038 81 10000 2.1 80 23:19 27.12.2019
5365 Clouds 1 1038 92 10000 4.14 128 22:56 27.12.2019
5366 Clouds 1 1038 81 10000 1.5 60 22:37 27.12.2019
5367 Clouds 1 1037 86 10000 2.6 80 22:19 27.12.2019
5368 Clouds 1 1037 80 10000 2.6 120 21:43 27.12.2019
5369 Clouds 2 1037 81 10000 3.1 80 21:25 27.12.2019
5370 Clouds 2 1037 74 10000 2.6 130 20:58 27.12.2019
5371 Clouds 2 1037 74 10000 2.6 130 20:40 27.12.2019
5372 Clouds 2 1036 85 10000 3.1 90 20:21 27.12.2019
5373 Clouds 3 1037 74 10000 3.6 120 19:41 27.12.2019
5374 Clouds 3 1036 85 10000 3.1 80 19:20 27.12.2019
5375 Clouds 3 1036 85 10000 3.1 80 18:57 27.12.2019
5376 Clouds 3 1036 80 10000 3.6 110 18:37 27.12.2019
5377 Clouds 3 1035 86 10000 3.6 50 18:19 27.12.2019
5378 Clouds 3 1036 80 10000 4.1 90 17:55 27.12.2019
5379 Clouds 3 1036 80 10000 4.1 90 17:37 27.12.2019
5380 Clouds 3 1034 85 10000 2.1 80 17:18 27.12.2019
5381 Clouds 3 1035 80 10000 3.6 90 16:44 27.12.2019
5382 Clouds 3 1034 86 10000 4.6 50 16:26 27.12.2019
5383 Clouds 3 1034 86 10000 4.6 50 15:59 27.12.2019
5384 Clouds 4 1033 86 10000 4.1 50 15:40 27.12.2019
5385 Clouds 4 1033 86 10000 3.1 50 15:20 27.12.2019
5386 Clouds 4 1033 85 10000 5.1 100 14:57 27.12.2019
5387 Clouds 4 1033 85 10000 5.1 100 14:38 27.12.2019
5388 Clouds 4 1032 93 9000 3.1 80 14:20 27.12.2019
5389 Clouds 4 1032 85 10000 5.7 80 13:48 27.12.2019
5390 Mist 4 1031 93 4300 4.1 90 13:25 27.12.2019
5391 Mist 4 1031 93 4300 4.1 90 12:58 27.12.2019
5392 Clouds 4 1032 84 10000 5.1 80 12:39 27.12.2019
5393 Clear 4 1030 93 8000 3.6 60 12:21 27.12.2019
5394 Clouds 4 1031 80 10000 4.1 80 11:44 27.12.2019
5395 Clear 3 1030 86 10000 3.6 60 11:24 27.12.2019
5396 Clouds 3 1030 86 10000 3.6 80 10:56 27.12.2019
5397 Clouds 3 1030 86 10000 3.6 80 10:38 27.12.2019
5398 Clear 2 1029 93 10000 2.6 50 10:20 27.12.2019
5399 Clouds 2 1029 86 10000 3.6 80 09:43 27.12.2019
5400 Clear 2 1028 91 10000 3.6 60 09:21 27.12.2019
5401 Clouds 2 1028 93 10000 4.1 80 08:58 27.12.2019
5402 Clouds 2 1028 93 10000 4.1 80 08:36 27.12.2019
5403 Clouds 2 1026 93 10000 3.6 60 07:52 27.12.2019
5404 Clouds 2 1025 87 10000 3.1 50 07:33 27.12.2019
5405 Clouds 2 1025 100 10000 3.1 50 06:38 27.12.2019
5406 Clouds 2 1025 93 10000 2.1 70 05:38 27.12.2019
5407 Clouds 2 1024 93 10000 2.6 80 03:47 27.12.2019
5408 Clouds 2 1024 93 10000 2.6 80 03:47 27.12.2019
5409 Clouds 3 1022 93 10000 3.1 80 02:23 27.12.2019
5410 Clouds 3 1023 93 10000 3.1 70 01:42 27.12.2019
5411 Clouds 3 1021 86 10000 2.6 70 01:20 27.12.2019
5412 Clouds 3 1023 93 10000 2.1 100 00:46 27.12.2019
5413 Clouds 3 1021 93 10000 2.6 90 00:24 27.12.2019
5414 Clouds 4 1022 93 10000 2.6 110 23:42 26.12.2019
5415 Clouds 4 1021 93 10000 2.1 90 23:24 26.12.2019
5416 Clouds 4 1022 93 10000 1.5 100 22:58 26.12.2019
5417 Clouds 4 1022 93 10000 1.5 100 22:38 26.12.2019
5418 Clouds 4 1021 93 10000 2.6 110 22:18 26.12.2019
5419 Clouds 4 1022 93 10000 1.5 90 21:39 26.12.2019
5420 Clouds 4 1021 93 10000 2.6 100 21:21 26.12.2019
5421 Clouds 4 1022 93 10000 2.1 120 20:57 26.12.2019
5422 Clouds 5 1022 93 10000 2.1 120 20:38 26.12.2019
5423 Clouds 5 1021 93 10000 2.1 120 20:19 26.12.2019
5424 Clouds 5 1023 93 10000 1.5 110 19:54 26.12.2019
5425 Clouds 5 1023 93 10000 1.5 110 19:36 26.12.2019
5426 Clouds 5 1021 93 10000 2.6 90 19:18 26.12.2019
5427 Fog 5 1023 93 10000 1 120 18:55 26.12.2019
5428 Fog 5 1023 93 10000 1 120 18:36 26.12.2019
5429 Clouds 5 1022 87 10000 1.5 130 18:18 26.12.2019
5430 Fog 5 1022 93 10000 1 140 17:41 26.12.2019
5431 Clouds 5 1022 87 10000 1 0 17:21 26.12.2019
5432 Clouds 6 1022 93 10000 1 140 16:49 26.12.2019
5433 Clouds 6 1022 87 10000 2.1 150 16:26 26.12.2019
5434 Clouds 6 1022 87 10000 1 200 15:57 26.12.2019
5435 Clouds 6 1022 87 10000 1 200 15:38 26.12.2019
5436 Clouds 6 1022 87 10000 1.5 160 15:19 26.12.2019
5437 Clouds 6 1023 87 10000 1.5 210 14:41 26.12.2019
5438 Clouds 7 1022 87 10000 2.6 170 14:23 26.12.2019
5439 Clouds 7 1022 87 10000 2.6 170 14:23 26.12.2019
5440 Clouds 7 1023 81 10000 2.1 220 13:55 26.12.2019
5441 Clouds 7 1023 81 10000 2.1 220 13:36 26.12.2019
5442 Clouds 7 1023 87 10000 2.1 180 13:18 26.12.2019
5443 Clouds 6 1023 87 10000 1.5 220 12:45 26.12.2019
5444 Clouds 6 1023 93 10000 2.1 200 12:26 26.12.2019
5445 Clouds 6 1024 93 10000 2.1 200 11:59 26.12.2019
5446 Clouds 6 1024 86 10000 0.5 0 11:40 26.12.2019
5447 Clear 5 1024 93 10000 1 0 11:22 26.12.2019
5448 Clouds 5 1024 86 10000 1.5 230 10:54 26.12.2019
5449 Clouds 5 1024 86 10000 1.5 230 10:36 26.12.2019
5450 Clouds 5 1024 100 10000 1.5 160 10:18 26.12.2019
5451 Clouds 4 1024 93 10000 1.5 240 09:42 26.12.2019
5452 Clouds 4 1024 100 10000 1 190 09:24 26.12.2019
5453 Clouds 4 1023 93 10000 1 180 08:40 26.12.2019
5454 Clouds 4 1024 100 10000 1 200 08:22 26.12.2019
5455 Clouds 4 1023 86 10000 2.1 260 07:46 26.12.2019
5456 Clouds 4 1024 100 10000 1 0 07:26 26.12.2019
5457 Clouds 4 1023 93 10000 2.1 260 06:44 26.12.2019
5458 Clouds 4 1024 100 10000 2.1 190 06:25 26.12.2019
5459 Clouds 5 1023 93 10000 2.1 240 05:43 26.12.2019
5460 Clouds 5 1023 93 10000 2.1 240 05:43 26.12.2019
5461 Clouds 5 1023 93 10000 2.6 250 04:38 26.12.2019
5462 Rain 5 1023 93 10000 2.6 250 03:46 26.12.2019
5463 Clouds 5 1023 93 10000 2.1 250 02:50 26.12.2019
5464 Clouds 5 1024 93 10000 2.6 230 02:31 26.12.2019
5465 Clouds 5 1024 93 10000 2.6 220 02:31 26.12.2019
5466 Clouds 5 1024 93 10000 2.6 260 01:45 26.12.2019
5467 Clouds 5 1024 100 10000 1 250 01:26 26.12.2019
5468 Clouds 5 1023 93 10000 2.6 250 00:48 26.12.2019
5469 Clouds 5 1024 100 10000 1.5 260 00:24 26.12.2019
5470 Clouds 5 1023 93 10000 3.1 260 23:58 25.12.2019
5471 Clouds 5 1023 93 10000 3.1 260 23:38 25.12.2019
5472 Clouds 5 1024 100 10000 2.6 250 23:20 25.12.2019
5473 Clouds 5 1024 100 10000 2.6 250 22:58 25.12.2019
5474 Clouds 5 1023 87 10000 3.1 260 22:38 25.12.2019
5475 Clear 5 1023 100 8000 2.6 250 22:19 25.12.2019
5476 Clouds 4 1022 86 10000 3.1 260 21:57 25.12.2019
5477 Clouds 5 1022 86 10000 3.1 260 21:39 25.12.2019
5478 Clouds 5 1022 86 10000 3.1 260 21:19 25.12.2019
5479 Clouds 5 1022 86 10000 3.1 260 20:54 25.12.2019
5480 Clouds 5 1022 86 10000 3.1 260 20:36 25.12.2019
5481 Clouds 5 1022 87 10000 3.1 270 20:18 25.12.2019
5482 Clouds 5 1022 87 10000 3.1 270 19:43 25.12.2019
5483 Clouds 5 1022 93 10000 1.5 280 19:23 25.12.2019
5484 Clouds 6 1021 93 10000 1 270 18:58 25.12.2019
5485 Clouds 6 1021 93 10000 1 270 18:37 25.12.2019
5486 Clouds 6 1022 93 10000 2.1 260 18:18 25.12.2019
5487 Clouds 6 1021 87 10000 2.6 280 17:41 25.12.2019
5488 Clouds 6 1022 87 10000 2.1 280 17:19 25.12.2019
5489 Clouds 6 1022 87 10000 2.1 280 16:58 25.12.2019
5490 Clear 7 1021 87 10000 2.1 290 16:37 25.12.2019
5491 Clear 7 1021 87 10000 3.1 300 16:18 25.12.2019
5492 Clouds 8 1019 75 10000 4.1 310 15:57 25.12.2019
5493 Clouds 8 1019 75 10000 4.1 310 15:39 25.12.2019
5494 Clouds 8 1019 75 10000 4.1 310 15:39 25.12.2019
5495 Clouds 8 1020 81 10000 3.6 300 15:20 25.12.2019
5496 Clouds 8 1019 81 10000 4.1 320 14:57 25.12.2019
5497 Clouds 8 1019 81 10000 4.1 320 14:39 25.12.2019
5498 Clouds 8 1019 81 10000 3.1 290 14:20 25.12.2019
5499 Clouds 8 1018 81 10000 2.6 320 13:45 25.12.2019
5500 Clouds 8 1019 81 10000 3.1 290 13:21 25.12.2019
5501 Clouds 8 1019 81 10000 3.1 290 12:58 25.12.2019
5502 Clouds 8 1017 87 10000 3.1 290 12:38 25.12.2019
5503 Clouds 7 1018 87 10000 3.6 300 12:20 25.12.2019
5504 Clouds 7 1017 93 10000 4.1 290 11:54 25.12.2019
5505 Clouds 7 1016 93 10000 3.1 280 11:36 25.12.2019
5506 Clouds 7 1017 93 10000 3.6 280 11:18 25.12.2019
5507 Clouds 6 1015 93 10000 2.6 290 10:37 25.12.2019
5508 Rain 6 1016 93 10000 3.1 270 10:19 25.12.2019
5509 Clouds 6 1014 93 7000 3.6 270 09:49 25.12.2019
5510 Clouds 6 1015 93 10000 3.1 280 09:30 25.12.2019
5511 Mist 6 1013 93 3500 3.1 270 08:47 25.12.2019
5512 Clouds 6 1013 93 10000 2.6 280 08:29 25.12.2019
5513 Fog 6 1012 93 800 2.6 270 07:50 25.12.2019
5514 Clouds 5 1013 93 10000 2.6 290 07:31 25.12.2019
5515 Mist 5 1011 100 1600 2.6 270 06:50 25.12.2019
5516 -273 0 0 0 0 0 06:22 25.12.2019
5517 Mist 6 1011 100 3200 1.5 290 05:18 25.12.2019
5518 Mist 6 1010 93 5000 1.5 240 04:39 25.12.2019
5519 Drizzle 6 1010 100 2800 1.5 240 04:20 25.12.2019
5520 Mist 6 1009 100 5000 1.5 260 03:41 25.12.2019
5521 Mist 6 1009 93 5000 2.42 311 02:53 25.12.2019
5522 Clouds 6 1009 100 7000 2.1 250 02:27 25.12.2019
5523 Clouds 6 1008 93 10000 2.6 260 01:25 25.12.2019
5524 Mist 6 1008 100 3700 1 300 00:54 25.12.2019
5525 Clouds 6 1008 93 10000 2.1 280 00:33 25.12.2019
5526 Clouds 6 1008 93 10000 2.6 290 23:58 24.12.2019
5527 Mist 6 1007 100 1000 1.5 360 23:39 24.12.2019
5528 Clouds 6 1007 87 10000 4.1 250 23:20 24.12.2019
5529 Mist 6 1006 100 1000 1 300 22:41 24.12.2019
5530 Mist 6 1006 100 1000 1 230 22:23 24.12.2019
5531 Mist 6 1005 93 4000 1 180 21:55 24.12.2019
5532 Mist 6 1005 93 4000 1 180 21:36 24.12.2019
5533 Clouds 7 1005 87 10000 4.1 260 21:18 24.12.2019
5534 Mist 7 1005 100 5000 0.5 90 20:41 24.12.2019
5535 Clouds 7 1005 87 10000 4.6 260 20:19 24.12.2019
5536 Clouds 7 1005 100 9000 1.5 80 19:46 24.12.2019
5537 Clouds 7 1004 93 10000 5.1 260 19:22 24.12.2019
5538 Clouds 7 1004 93 10000 5.1 260 18:59 24.12.2019
5539 Clouds 7 1004 100 8000 1.5 70 18:40 24.12.2019
5540 Drizzle 7 1004 93 3300 4.6 260 18:18 24.12.2019
5541 Drizzle 7 1004 100 5000 2.1 70 17:43 24.12.2019
5542 Clouds 6 1003 93 7000 2.1 240 17:22 24.12.2019
5543 Clouds 6 1003 93 7000 2.1 240 16:58 24.12.2019
5544 Drizzle 6 1003 93 3500 1.5 70 16:39 24.12.2019
5545 Drizzle 6 1003 93 2600 2.6 240 16:20 24.12.2019
5546 Drizzle 6 1003 93 2600 2.6 240 15:57 24.12.2019
5547 Clouds 6 1003 93 6000 1.5 130 15:37 24.12.2019
5548 Clouds 6 1002 93 2800 1.5 220 15:19 24.12.2019
5549 Clouds 6 1002 93 2800 1.5 220 15:19 24.12.2019
5550 Clouds 6 1002 93 2800 1.5 220 14:58 24.12.2019
5551 Mist 6 1002 100 5000 2.1 150 14:39 24.12.2019
5552 Drizzle 6 1002 100 2900 1 0 14:21 24.12.2019
5553 Drizzle 6 1002 100 2900 1 0 14:21 24.12.2019
5554 Rain 6 1004 93 5000 4.1 190 13:56 24.12.2019
5555 Rain 6 1004 93 5000 4.1 190 13:37 24.12.2019
5556 Drizzle 6 1003 100 6000 2.6 110 13:19 24.12.2019
5557 Drizzle 6 1003 100 6000 2.6 110 13:19 24.12.2019
5558 Rain 6 1004 93 4000 2.6 160 12:56 24.12.2019
5559 Rain 6 1004 93 4000 2.6 160 12:56 24.12.2019
5560 Rain 6 1004 93 4000 2.6 160 12:37 24.12.2019
5561 Rain 6 1004 93 8000 2.1 140 12:19 24.12.2019
5562 Rain 6 1004 93 8000 2.1 140 12:19 24.12.2019
5563 Rain 6 1004 93 8000 2.1 140 12:19 24.12.2019
5564 Rain 6 1005 93 4500 3.6 180 11:56 24.12.2019
5565 Rain 7 1005 93 4500 3.6 180 11:37 24.12.2019
5566 Rain 7 1005 93 4500 3.6 180 11:37 24.12.2019
5567 Rain 7 1005 93 9000 3.1 160 11:19 24.12.2019
5568 Drizzle 7 1006 87 4500 4.1 190 10:56 24.12.2019
5569 Drizzle 7 1006 87 4500 4.1 190 10:56 24.12.2019
5570 Drizzle 7 1006 87 4500 4.1 190 10:38 24.12.2019
5571 Drizzle 7 1007 87 7000 4.1 190 10:19 24.12.2019
5572 Clouds 7 1007 93 7000 4.1 200 09:55 24.12.2019
5573 Clouds 7 1007 93 7000 4.1 200 09:37 24.12.2019
5574 Clouds 7 1007 93 7000 4.6 210 09:19 24.12.2019
5575 Clouds 7 1008 93 7000 4.6 210 08:46 24.12.2019
5576 Mist 7 1008 93 5000 5.1 200 08:24 24.12.2019
5577 Clouds 6 1008 93 8000 5.7 220 07:46 24.12.2019
5578 Mist 6 1008 100 3500 4.6 200 07:27 24.12.2019
5579 Clouds 6 1008 87 10000 4.6 220 06:59 24.12.2019
5580 Clouds 6 1008 87 10000 4.6 220 06:39 24.12.2019
5581 Clouds 6 1009 93 7000 5.7 210 06:19 24.12.2019
5582 Clouds 6 1009 87 10000 5.1 220 05:46 24.12.2019
5583 Clouds 6 1009 93 10000 4.6 200 05:18 24.12.2019
5584 Clouds 6 1010 93 10000 3.6 210 03:55 24.12.2019
5585 Rain 6 1010 100 10000 4.1 210 03:33 24.12.2019
5586 Clouds 7 1010 93 10000 4.1 210 02:25 24.12.2019
5587 Clouds 7 1009 87 10000 4.6 230 01:53 24.12.2019
5588 Drizzle 7 1010 87 10000 4.1 230 01:23 24.12.2019
5589 Clouds 7 1009 87 10000 4.6 240 00:55 24.12.2019
5590 Clouds 7 1009 87 10000 4.6 240 00:37 24.12.2019
5591 Clouds 7 1010 93 10000 4.1 220 00:19 24.12.2019
5592 Clouds 7 1009 87 10000 5.1 240 23:41 23.12.2019
5593 Clouds 7 1009 93 10000 4.6 230 23:23 23.12.2019
5594 Drizzle 7 1008 87 10000 4.1 230 22:56 23.12.2019
5595 Drizzle 7 1008 87 10000 4.1 230 22:37 23.12.2019
5596 Clouds 7 1009 87 10000 5.1 220 22:19 23.12.2019
5597 Clouds 7 1008 87 10000 5.1 240 21:56 23.12.2019
5598 Clouds 7 1008 87 10000 5.1 240 21:37 23.12.2019
5599 Clouds 7 1008 87 10000 4.6 240 21:19 23.12.2019
5600 Drizzle 7 1007 87 10000 5.1 250 20:58 23.12.2019
5601 Drizzle 7 1007 87 10000 5.1 250 20:40 23.12.2019
5602 Clouds 7 1008 87 10000 4.1 240 20:19 23.12.2019
5603 Clouds 7 1008 87 10000 4.1 240 20:19 23.12.2019
5604 Clouds 7 1008 87 10000 4.1 240 20:19 23.12.2019
5605 Clouds 7 1008 87 10000 4.1 240 19:58 23.12.2019
5606 Clouds 7 1006 87 10000 4.6 250 19:39 23.12.2019
5607 Clouds 8 1007 87 10000 5.1 240 19:20 23.12.2019
5608 Clouds 8 1007 87 10000 5.1 240 18:58 23.12.2019
5609 Clouds 8 1006 87 10000 5.7 260 18:39 23.12.2019
5610 Clouds 8 1007 87 10000 4.1 240 18:20 23.12.2019
5611 Clouds 8 1005 87 10000 4.1 250 17:58 23.12.2019
5612 Clouds 8 1005 87 10000 4.1 250 17:40 23.12.2019
5613 Clouds 8 1006 87 10000 5.1 250 17:19 23.12.2019
5614 Clouds 8 1006 87 10000 5.1 250 16:57 23.12.2019
5615 Drizzle 8 1004 87 8000 3.1 240 16:39 23.12.2019
5616 Clouds 8 1005 87 10000 5.7 240 16:19 23.12.2019
5617 Clouds 8 1005 87 10000 5.7 240 15:57 23.12.2019
5618 Clouds 8 1004 81 10000 6.7 270 15:37 23.12.2019
5619 Clouds 8 1004 87 10000 5.7 260 15:19 23.12.2019
5620 Clouds 8 1002 81 10000 7.2 260 14:56 23.12.2019
5621 Clouds 8 1002 81 10000 7.2 260 14:38 23.12.2019
5622 Clouds 8 1003 87 10000 6.7 250 14:18 23.12.2019
5623 Clouds 9 1003 87 10000 6.7 250 13:56 23.12.2019
5624 Clouds 9 1002 81 10000 6.2 260 13:38 23.12.2019
5625 Clouds 8 1002 87 10000 7.2 250 13:20 23.12.2019
5626 Clouds 8 1001 87 10000 5.7 250 12:55 23.12.2019
5627 Clouds 8 1001 87 10000 5.7 250 12:36 23.12.2019
5628 Clouds 8 1002 81 10000 6.2 250 12:18 23.12.2019
5629 Clouds 8 1000 81 10000 4.1 250 11:42 23.12.2019
5630 Clouds 8 1001 87 10000 5.7 240 11:24 23.12.2019
5631 Clouds 8 999 81 10000 4.6 250 10:56 23.12.2019
5632 Clouds 8 999 81 10000 4.6 250 10:38 23.12.2019
5633 Clouds 8 1000 87 10000 4.1 240 10:20 23.12.2019
5634 Clouds 7 998 87 10000 4.1 250 09:58 23.12.2019
5635 Clouds 7 998 87 10000 4.1 250 09:39 23.12.2019
5636 Clouds 7 999 93 10000 4.6 240 09:19 23.12.2019
5637 Clouds 7 997 87 10000 4.6 240 08:55 23.12.2019
5638 Clouds 7 997 87 10000 4.6 240 08:36 23.12.2019
5639 Clouds 7 998 93 10000 4.6 240 08:18 23.12.2019
5640 Clouds 7 996 87 10000 4.1 240 07:42 23.12.2019
5641 Clouds 7 997 93 10000 4.6 240 07:19 23.12.2019
5642 Clouds 7 995 87 10000 4.6 240 06:45 23.12.2019
5643 Clouds 7 996 87 10000 4.6 240 06:23 23.12.2019
5644 Clouds 7 994 87 10000 5.7 250 05:47 23.12.2019
5645 Clouds 7 995 87 10000 4.1 250 05:18 23.12.2019
5646 Clouds 7 994 87 10000 4.6 250 04:19 23.12.2019
5647 Clouds 7 991 87 10000 6.2 260 02:48 23.12.2019
5648 Clouds 7 992 87 9000 6.7 250 02:23 23.12.2019
5649 Clouds 7 990 87 10000 8.2 270 01:53 23.12.2019
5650 Clouds 7 991 93 10000 5.1 250 01:32 23.12.2019
5651 Clouds 7 989 87 10000 7.2 270 00:55 23.12.2019
5652 Clouds 7 990 93 10000 4.6 250 00:35 23.12.2019
5653 Rain 7 990 93 10000 4.6 260 23:57 22.12.2019
5654 Rain 7 990 93 10000 4.6 260 23:57 22.12.2019
5655 Clouds 7 988 93 8000 7.2 280 23:39 22.12.2019
5656 Clouds 7 989 87 10000 5.7 260 23:20 22.12.2019
5657 Clouds 7 989 87 10000 5.7 260 22:57 22.12.2019
5658 Drizzle 8 986 93 4000 1.5 220 22:38 22.12.2019
5659 Drizzle 8 986 93 4500 1.5 220 22:19 22.12.2019
5660 Rain 8 987 93 10000 5.7 270 21:57 22.12.2019
5661 Drizzle 8 986 93 4500 1.5 220 21:39 22.12.2019
5662 Drizzle 8 985 93 4500 1 200 21:20 22.12.2019
5663 Drizzle 8 985 93 3000 1.5 160 20:56 22.12.2019
5664 Drizzle 8 985 93 3000 1.5 160 20:38 22.12.2019
5665 Mist 8 985 100 2900 2.1 190 20:18 22.12.2019
5666 Drizzle 8 985 100 5000 2.1 140 19:54 22.12.2019
5667 Drizzle 8 985 100 5000 2.1 140 19:36 22.12.2019
5668 Mist 8 984 100 5000 2.1 190 19:18 22.12.2019
5669 Drizzle 8 984 100 5000 2.1 130 18:39 22.12.2019
5670 Rain 8 983 100 6000 2.1 190 18:39 22.12.2019
5671 Drizzle 8 983 100 7000 2.6 190 18:21 22.12.2019
5672 Drizzle 8 984 93 6000 2.1 150 17:55 22.12.2019
5673 Drizzle 8 984 93 6000 2.1 150 17:37 22.12.2019
5674 Rain 8 983 100 5000 1.5 170 17:18 22.12.2019
5675 Drizzle 8 983 93 5000 2.6 130 16:56 22.12.2019
5676 Drizzle 8 983 93 5000 2.6 130 16:37 22.12.2019
5677 Rain 8 982 100 7000 2.1 150 16:19 22.12.2019
5678 Drizzle 8 983 93 10000 2.6 130 15:55 22.12.2019
5679 Drizzle 8 982 100 8000 2.6 160 15:36 22.12.2019
5680 Drizzle 8 982 100 8000 2.6 160 15:18 22.12.2019
5681 Clouds 8 983 81 10000 2.6 130 14:54 22.12.2019
5682 Clouds 8 983 81 10000 2.6 130 14:36 22.12.2019
5683 Clouds 8 982 93 10000 2.6 160 14:18 22.12.2019
5684 Clouds 8 983 81 10000 3.6 150 13:54 22.12.2019
5685 Clouds 8 983 81 10000 3.6 150 13:36 22.12.2019
5686 Drizzle 8 982 93 10000 3.6 160 13:18 22.12.2019
5687 Clouds 8 983 87 10000 3.6 150 12:54 22.12.2019
5688 Clouds 8 983 87 10000 3.6 150 12:36 22.12.2019
5689 Clouds 7 981 100 10000 2.6 130 12:18 22.12.2019
5690 Clouds 7 983 87 10000 3.6 130 11:39 22.12.2019
5691 Clouds 7 981 93 10000 3.6 150 11:20 22.12.2019
5692 Clouds 7 981 93 10000 3.6 150 10:58 22.12.2019
5693 Clouds 6 983 87 10000 3.6 110 10:40 22.12.2019
5694 Clouds 6 981 100 10000 3.1 140 10:21 22.12.2019
5695 Clouds 6 981 100 10000 3.1 140 09:58 22.12.2019
5696 Clouds 6 983 93 10000 3.1 120 09:40 22.12.2019
5697 Clouds 6 981 93 10000 2.6 120 09:21 22.12.2019
5698 Clouds 6 981 93 10000 2.6 120 08:59 22.12.2019
5699 Rain 6 982 86 10000 3.6 130 08:37 22.12.2019
5700 Clouds 6 981 93 10000 3.1 130 08:18 22.12.2019
5701 Clouds 6 981 93 10000 3.1 130 08:18 22.12.2019
5702 Clouds 6 982 86 10000 3.6 130 07:38 22.12.2019
5703 Drizzle 6 981 87 10000 3.1 120 07:19 22.12.2019
5704 Clouds 6 982 86 10000 3.6 130 06:40 22.12.2019
5705 Clouds 6 982 86 10000 4.1 130 05:53 22.12.2019
5706 Clouds 6 981 81 10000 4.1 120 05:21 22.12.2019
5707 Clouds 6 983 86 10000 3.6 110 04:29 22.12.2019
5708 Clouds 6 983 86 10000 3.6 110 03:53 22.12.2019
5709 Clouds 6 984 86 10000 3.1 130 02:40 22.12.2019
5710 Clouds 6 984 86 10000 3.1 130 02:40 22.12.2019
5711 Clouds 6 984 81 10000 3.6 150 01:47 22.12.2019
5712 Clouds 6 982 75 10000 3.6 140 01:28 22.12.2019
5713 Clouds 7 984 81 10000 3.1 140 00:47 22.12.2019
5714 Clouds 7 983 75 10000 5.1 150 00:23 22.12.2019
5715 Clouds 7 985 81 10000 3.1 150 23:56 21.12.2019
5716 Clouds 7 985 81 10000 3.1 150 23:38 21.12.2019
5717 Clouds 7 983 75 10000 4.1 140 23:19 21.12.2019
5718 Clouds 7 985 81 10000 3.1 150 22:41 21.12.2019
5719 Clouds 7 984 75 10000 4.6 150 22:19 21.12.2019
5720 Rain 7 986 87 10000 3.6 160 21:57 21.12.2019
5721 Rain 7 986 87 10000 3.6 160 21:38 21.12.2019
5722 Clouds 8 985 81 10000 4.6 170 21:20 21.12.2019
5723 Rain 8 986 81 10000 4.1 170 20:59 21.12.2019
5724 Rain 8 986 81 10000 4.1 170 20:39 21.12.2019
5725 Clouds 8 985 81 10000 4.1 170 20:21 21.12.2019
5726 Clouds 8 986 75 10000 4.6 170 19:58 21.12.2019
5727 Clouds 8 986 75 10000 4.6 170 19:40 21.12.2019
5728 Clouds 8 986 75 10000 4.6 170 19:40 21.12.2019
5729 Clouds 8 985 81 10000 5.7 180 19:19 21.12.2019
5730 Clouds 8 985 81 10000 5.7 180 19:19 21.12.2019
5731 Clouds 8 986 75 10000 3.6 160 18:55 21.12.2019
5732 Clouds 8 986 75 10000 3.6 160 18:37 21.12.2019
5733 Clouds 8 985 81 10000 4.6 160 18:19 21.12.2019
5734 Clouds 8 987 81 10000 3.1 150 17:55 21.12.2019
5735 Clouds 8 987 81 10000 3.1 150 17:36 21.12.2019
5736 Clouds 8 986 81 10000 4.6 170 17:18 21.12.2019
5737 Clouds 8 986 81 10000 4.6 170 17:18 21.12.2019
5738 Clouds 8 987 76 10000 4.6 180 16:41 21.12.2019
5739 Clouds 8 986 81 10000 5.1 180 16:19 21.12.2019
5740 Clouds 9 986 81 10000 5.1 180 15:57 21.12.2019
5741 Clouds 9 987 76 10000 5.1 180 15:39 21.12.2019
5742 Clouds 9 987 81 10000 4.6 180 15:20 21.12.2019
5743 Clouds 9 988 76 10000 5.1 170 14:57 21.12.2019
5744 Clouds 9 988 76 10000 5.1 170 14:38 21.12.2019
5745 Clouds 9 987 87 10000 5.1 180 14:20 21.12.2019
5746 Clouds 9 987 87 10000 5.1 180 13:56 21.12.2019
5747 Clouds 9 988 76 10000 4.1 180 13:38 21.12.2019
5748 Clouds 9 988 81 10000 5.7 180 13:18 21.12.2019
5749 Clouds 9 989 76 10000 4.6 190 12:55 21.12.2019
5750 Clouds 9 989 76 10000 4.6 190 12:37 21.12.2019
5751 Clouds 9 988 81 10000 5.1 180 12:18 21.12.2019
5752 Clouds 8 990 81 10000 4.1 190 11:44 21.12.2019
5753 Clouds 8 989 81 10000 6.2 180 11:26 21.12.2019
5754 Clouds 8 989 81 10000 5.1 180 10:57 21.12.2019
5755 Clouds 8 989 81 10000 6.2 180 10:57 21.12.2019
5756 Clouds 7 989 81 10000 5.1 180 10:38 21.12.2019
5757 Clouds 7 989 87 10000 5.1 180 10:20 21.12.2019
5758 Clouds 7 989 87 10000 4.6 180 09:56 21.12.2019
5759 Clouds 7 989 87 10000 4.6 180 09:37 21.12.2019
5760 Clouds 6 989 93 10000 4.6 180 09:18 21.12.2019
5761 Clouds 6 990 87 10000 3.1 190 08:44 21.12.2019
5762 Clouds 6 989 87 10000 5.1 180 08:25 21.12.2019
5763 Clouds 6 989 81 10000 3.6 200 07:46 21.12.2019
5764 Clouds 6 989 81 10000 4.1 210 07:22 21.12.2019
5765 Clouds 7 989 81 10000 4.1 210 06:46 21.12.2019
5766 Clouds 7 989 81 10000 4.6 190 06:26 21.12.2019
5767 Clouds 7 989 81 10000 3.6 210 05:55 21.12.2019
5768 Clouds 8 988 81 10000 6.2 210 04:58 21.12.2019
5769 Clouds 8 988 75 10000 6.7 210 03:59 21.12.2019
5770 Clouds 8 988 75 10000 6.7 210 03:37 21.12.2019
5771 Clouds 8 987 76 10000 7.2 200 02:19 21.12.2019
5772 Clouds 8 987 75 10000 5.1 200 01:41 21.12.2019
5773 Clouds 9 987 76 10000 7.7 200 01:23 21.12.2019
5774 Clouds 9 987 76 10000 5.7 210 00:39 21.12.2019
5775 Clouds 9 986 76 10000 6.2 200 00:19 21.12.2019
5776 Clouds 9 986 81 10000 5.7 200 23:38 20.12.2019
5777 Clouds 8 986 81 10000 6.2 190 23:20 20.12.2019
5778 Clouds 9 986 76 10000 3.6 210 22:57 20.12.2019
5779 Clouds 9 986 76 10000 3.6 210 22:36 20.12.2019
5780 Clouds 9 985 76 10000 5.1 190 22:18 20.12.2019
5781 Clouds 9 985 81 10000 5.1 230 21:41 20.12.2019
5782 Clouds 9 985 76 10000 6.7 210 21:21 20.12.2019
5783 Clouds 9 985 76 10000 6.7 210 21:21 20.12.2019
5784 Clouds 10 984 81 10000 6.2 210 20:57 20.12.2019
5785 Clouds 10 984 81 10000 6.2 210 20:38 20.12.2019
5786 Rain 10 984 76 10000 6.7 210 20:19 20.12.2019
5787 Rain 11 984 87 10000 5.7 220 19:42 20.12.2019
5788 Drizzle 11 984 81 10000 7.2 220 19:21 20.12.2019
5789 Drizzle 11 984 81 10000 7.2 220 18:58 20.12.2019
5790 Clouds 12 984 76 10000 5.7 190 18:40 20.12.2019
5791 Clouds 12 983 81 10000 6.7 200 18:21 20.12.2019
5792 Clouds 12 983 81 10000 6.7 200 17:57 20.12.2019
5793 Clouds 12 983 76 10000 4.6 170 17:39 20.12.2019
5794 Clouds 12 983 76 10000 4.6 170 17:39 20.12.2019
5795 Clouds 12 982 81 10000 6.7 180 17:20 20.12.2019
5796 Clouds 12 983 71 10000 5.7 160 16:56 20.12.2019
5797 Clouds 12 983 71 10000 5.7 160 16:38 20.12.2019
5798 Clouds 12 983 71 10000 5.7 160 16:38 20.12.2019
5799 Clouds 12 982 81 10000 8.2 170 16:19 20.12.2019
5800 Clouds 12 984 66 10000 5.7 150 15:55 20.12.2019
5801 Clouds 12 984 66 10000 5.7 150 15:37 20.12.2019
5802 Clouds 12 982 81 10000 8.7 170 15:18 20.12.2019
5803 Clouds 12 984 62 10000 5.1 150 14:42 20.12.2019
5804 Clouds 11 983 76 10000 8.7 160 14:24 20.12.2019
5805 Clouds 12 985 66 10000 5.7 150 13:57 20.12.2019
5806 Clouds 11 985 66 10000 5.7 150 13:37 20.12.2019
5807 Drizzle 11 984 71 10000 7.7 160 13:19 20.12.2019
5808 Clouds 11 986 66 10000 5.7 150 12:56 20.12.2019
5809 Clouds 11 986 66 10000 5.7 150 12:37 20.12.2019
5810 Clouds 10 985 62 10000 7.7 150 12:18 20.12.2019
5811 Clouds 10 987 66 10000 5.7 140 11:57 20.12.2019
5812 Clouds 10 987 66 10000 5.7 140 11:39 20.12.2019
5813 Clouds 10 986 62 10000 6.2 140 11:18 20.12.2019
5814 Clouds 10 989 70 10000 5.1 130 10:56 20.12.2019
5815 Clouds 10 989 70 10000 5.1 130 10:38 20.12.2019
5816 Clouds 9 987 66 10000 5.7 130 10:20 20.12.2019
5817 Clouds 9 990 75 10000 5.1 130 09:43 20.12.2019
5818 Clouds 9 988 71 10000 4.1 130 09:22 20.12.2019
5819 Clouds 9 988 71 10000 4.1 130 09:22 20.12.2019
5820 Clouds 9 991 75 10000 4.1 140 08:59 20.12.2019
5821 Clouds 9 991 75 10000 4.1 140 08:41 20.12.2019
5822 Clouds 9 989 66 10000 5.1 130 08:21 20.12.2019
5823 Clouds 9 992 81 10000 4.1 140 07:57 20.12.2019
5824 Clouds 9 992 81 10000 4.1 140 07:38 20.12.2019
5825 Clouds 8 990 76 10000 4.1 130 07:18 20.12.2019
5826 Clouds 9 993 81 10000 4.1 130 06:48 20.12.2019
5827 Clouds 9 991 76 10000 3.6 130 06:29 20.12.2019
5828 Clouds 9 994 81 10000 4.1 140 05:49 20.12.2019
5829 Clouds 9 993 76 10000 4.1 130 05:21 20.12.2019
5830 Clouds 9 997 75 10000 3.1 140 03:50 20.12.2019
5831 Clouds 9 995 76 10000 4.1 140 03:28 20.12.2019
5832 Clouds 9 998 81 10000 4.1 150 02:33 20.12.2019
5833 Rain 10 999 81 10000 3.6 150 01:36 20.12.2019
5834 Rain 10 999 81 10000 3.6 150 01:36 20.12.2019
5835 Clouds 10 1000 81 10000 3.1 140 00:59 20.12.2019
5836 Clouds 10 1000 81 10000 3.1 140 00:40 20.12.2019
5837 Clouds 10 1001 81 10000 3.1 140 23:59 19.12.2019
5838 Clouds 10 1001 81 10000 3.1 140 23:40 19.12.2019
5839 Clouds 9 1000 76 10000 5.1 170 23:22 19.12.2019
5840 Clouds 9 1002 87 10000 2.6 130 22:56 19.12.2019
5841 Clouds 9 1002 87 10000 2.6 130 22:36 19.12.2019
5842 Clouds 9 1001 76 10000 4.1 160 22:18 19.12.2019
5843 Clouds 9 1001 76 10000 4.1 160 22:18 19.12.2019
5844 Clouds 9 1003 81 10000 2.6 140 21:42 19.12.2019
5845 Clouds 9 1002 76 10000 4.1 160 21:20 19.12.2019
5846 Clouds 9 1003 81 10000 2.6 140 20:59 19.12.2019
5847 Clouds 9 1003 81 10000 2.6 140 20:38 19.12.2019
5848 Clouds 9 1003 76 10000 4.6 150 20:20 19.12.2019
5849 Clouds 9 1003 76 10000 4.6 150 20:20 19.12.2019
5850 Clouds 9 1004 81 10000 2.6 130 19:59 19.12.2019
5851 Clouds 9 1004 81 10000 2.6 130 19:40 19.12.2019
5852 Clouds 9 1003 76 10000 3.6 150 19:20 19.12.2019
5853 Clouds 10 1005 81 10000 2.6 140 19:00 19.12.2019
5854 Clouds 10 1005 81 10000 2.6 140 18:41 19.12.2019
5855 Clouds 10 1004 76 10000 4.1 140 18:21 19.12.2019
5856 Clouds 10 1005 76 10000 3.1 130 17:57 19.12.2019
5857 Clouds 10 1005 76 10000 3.1 130 17:38 19.12.2019
5858 Clouds 10 1004 76 10000 3.6 150 17:19 19.12.2019
5859 Clouds 11 1006 76 10000 3.6 140 16:57 19.12.2019
5860 Clouds 11 1006 76 10000 3.6 140 16:38 19.12.2019
5861 Clouds 11 1005 76 10000 5.1 150 16:20 19.12.2019
5862 Clouds 11 1007 66 10000 3.6 150 15:58 19.12.2019
5863 Clouds 12 1007 66 10000 3.6 150 15:39 19.12.2019
5864 Clouds 12 1006 71 10000 3.6 160 15:19 19.12.2019
5865 Clouds 13 1007 71 10000 4.1 170 14:59 19.12.2019
5866 Clouds 13 1007 71 10000 4.1 170 14:40 19.12.2019
5867 Clouds 13 1006 71 10000 4.1 150 14:19 19.12.2019
5868 Clouds 13 1008 71 10000 4.6 160 13:57 19.12.2019
5869 Clouds 12 1008 71 10000 4.6 160 13:37 19.12.2019
5870 Clouds 12 1007 76 10000 4.6 160 13:18 19.12.2019
5871 Clouds 12 1009 76 10000 4.6 170 12:55 19.12.2019
5872 Clouds 11 1009 76 10000 4.6 170 12:36 19.12.2019
5873 Clouds 11 1008 81 10000 5.1 160 12:18 19.12.2019
5874 Clouds 11 1008 81 10000 5.1 160 12:18 19.12.2019
5875 Clouds 11 1008 81 10000 5.1 160 12:18 19.12.2019
5876 Clouds 11 1008 81 10000 5.1 160 12:18 19.12.2019
5877 Clouds 11 1009 76 10000 5.7 160 11:57 19.12.2019
5878 Clouds 10 1009 76 10000 5.7 160 11:38 19.12.2019
5879 Clouds 10 1009 81 10000 4.1 170 11:18 19.12.2019
5880 Clouds 9 1010 87 10000 4.6 160 10:39 19.12.2019
5881 Clouds 8 1009 87 10000 3.6 150 10:20 19.12.2019
5882 Clouds 8 1010 87 10000 4.1 150 09:59 19.12.2019
5883 Clouds 8 1010 87 10000 4.1 150 09:38 19.12.2019
5884 Clouds 7 1009 87 10000 4.1 150 09:20 19.12.2019
5885 Clouds 7 1010 93 10000 3.6 150 08:58 19.12.2019
5886 Clouds 7 1010 93 10000 3.6 150 08:39 19.12.2019
5887 Clouds 7 1009 93 10000 4.1 150 08:19 19.12.2019
5888 Clouds 7 1011 93 10000 4.6 150 07:56 19.12.2019
5889 Clouds 7 1011 93 10000 4.6 150 07:38 19.12.2019
5890 Clouds 6 1010 87 10000 4.1 160 07:19 19.12.2019
5891 Clouds 6 1011 87 10000 3.6 140 06:49 19.12.2019
5892 Clouds 6 1010 87 10000 4.6 160 06:28 19.12.2019
5893 Clouds 6 1011 93 10000 3.6 140 05:55 19.12.2019
5894 Clouds 6 1010 93 10000 3.6 160 05:33 19.12.2019
5895 Clouds 6 1012 86 10000 3.6 140 04:48 19.12.2019
5896 Clouds 5 1013 93 10000 3.1 140 02:49 19.12.2019
5897 Clouds 5 1014 93 10000 3.6 130 01:51 19.12.2019
5898 Clouds 4 1012 86 10000 3.6 130 01:22 19.12.2019
5899 Clouds 4 1015 93 6000 3.1 130 00:40 19.12.2019
5900 Clouds 5 1014 86 10000 2.6 120 00:21 19.12.2019
5901 Mist 5 1016 93 5000 3.1 140 23:56 18.12.2019
5902 Mist 5 1016 93 5000 3.1 140 23:38 18.12.2019
5903 Clouds 5 1014 93 7000 3.1 120 23:18 18.12.2019
5904 Mist 5 1016 93 5000 2.6 140 22:55 18.12.2019
5905 Mist 5 1016 93 5000 2.6 140 22:36 18.12.2019
5906 Mist 5 1015 93 5000 2.6 130 22:18 18.12.2019
5907 Clouds 5 1017 93 7000 2.1 130 21:55 18.12.2019
5908 Clouds 5 1017 93 7000 2.1 130 21:37 18.12.2019
5909 Mist 5 1015 93 5000 2.6 130 21:18 18.12.2019
5910 Clouds 5 1017 86 7000 2.6 130 20:54 18.12.2019
5911 Clouds 5 1017 86 7000 2.6 130 20:36 18.12.2019
5912 Clear 5 1015 93 6000 3.1 140 20:18 18.12.2019
5913 Clear 5 1015 93 6000 3.1 140 19:55 18.12.2019
5914 Clouds 5 1016 87 10000 2.6 170 19:36 18.12.2019
5915 Clear 5 1015 93 7000 2.6 140 19:18 18.12.2019
5916 Clouds 5 1016 87 10000 2.6 160 18:44 18.12.2019
5917 Clear 6 1016 87 8000 2.6 140 18:25 18.12.2019
5918 Clouds 6 1016 81 10000 1.5 170 17:57 18.12.2019
5919 Clouds 6 1016 81 10000 1.5 170 17:39 18.12.2019
5920 Clear 6 1016 87 10000 2.6 160 17:19 18.12.2019
5921 Clouds 7 1016 87 9000 1.5 170 16:55 18.12.2019
5922 Clouds 7 1016 87 9000 1.5 170 16:37 18.12.2019
5923 Clouds 7 1016 87 10000 3.1 190 16:18 18.12.2019
5924 Clouds 7 1016 81 10000 3.6 230 15:55 18.12.2019
5925 Clouds 7 1016 81 10000 3.6 230 15:37 18.12.2019
5926 Clouds 7 1015 87 10000 4.1 210 15:18 18.12.2019
5927 Clouds 8 1016 87 10000 4.1 220 14:42 18.12.2019
5928 Clouds 7 1015 93 9000 4.1 210 14:22 18.12.2019
5929 Clouds 8 1015 93 9000 4.1 210 13:57 18.12.2019
5930 Clouds 8 1015 87 10000 4.6 220 13:38 18.12.2019
5931 Clouds 8 1015 93 9000 5.1 200 13:20 18.12.2019
5932 Clouds 7 1015 93 9000 5.1 200 12:58 18.12.2019
5933 Clouds 7 1014 87 10000 4.6 240 12:38 18.12.2019
5934 Clouds 7 1014 87 7000 5.7 210 12:20 18.12.2019
5935 Clouds 7 1014 87 10000 4.1 220 11:56 18.12.2019
5936 Clouds 7 1014 87 10000 4.1 220 11:38 18.12.2019
5937 Mist 7 1014 93 5000 4.1 220 11:19 18.12.2019
5938 Clouds 6 1014 93 10000 3.1 220 10:55 18.12.2019
5939 Clouds 6 1014 93 10000 3.1 220 10:37 18.12.2019
5940 Mist 6 1013 93 3200 3.6 210 10:19 18.12.2019
5941 Mist 6 1013 93 4800 4.1 210 09:50 18.12.2019
5942 Clouds 6 1013 93 7000 4.1 210 09:18 18.12.2019
5943 Clouds 6 1012 93 7000 3.6 230 08:41 18.12.2019
5944 Clouds 6 1012 93 9000 4.6 210 08:22 18.12.2019
5945 Clouds 6 1011 93 10000 4.1 220 07:55 18.12.2019
5946 Clouds 6 1011 93 10000 4.1 220 07:36 18.12.2019
5947 Clouds 6 1011 100 8000 4.1 210 07:18 18.12.2019
5948 Clouds 6 1010 87 10000 4.6 230 06:49 18.12.2019
5949 Clouds 6 1010 93 10000 3.6 210 06:22 18.12.2019
5950 Clouds 6 1009 93 10000 4.6 220 05:22 18.12.2019
5951 Clouds 6 1008 100 10000 4.6 230 03:31 18.12.2019
5952 Clouds 6 1006 87 10000 3.1 260 02:41 18.12.2019
5953 Clouds 6 1006 93 10000 3.6 230 02:23 18.12.2019
5954 Clouds 7 1004 87 10000 6.2 300 01:42 18.12.2019
5955 Rain 7 1005 93 10000 3.6 260 01:24 18.12.2019
5956 Drizzle 7 1002 93 5000 7.2 280 00:42 18.12.2019
5957 Clouds 7 1003 93 10000 5.7 300 00:24 18.12.2019
5958 Drizzle 8 1000 93 10000 4.6 230 23:58 17.12.2019
5959 Drizzle 8 1000 93 10000 4.6 230 23:39 17.12.2019
5960 Drizzle 9 1001 100 3200 5.1 280 23:20 17.12.2019
5961 Drizzle 9 1000 93 10000 5.1 240 22:56 17.12.2019
5962 Drizzle 9 1000 93 10000 5.1 240 22:38 17.12.2019
5963 Rain 10 1000 100 8000 4.6 230 22:19 17.12.2019
5964 Rain 10 1000 100 8000 4.6 230 21:57 17.12.2019
5965 Clouds 10 999 76 10000 5.1 200 21:38 17.12.2019
5966 Rain 11 999 93 9000 5.7 230 21:20 17.12.2019
5967 Rain 11 999 93 9000 5.7 230 20:58 17.12.2019
5968 Clouds 11 999 76 10000 4.1 190 20:39 17.12.2019
5969 Rain 11 999 81 10000 5.1 260 20:18 17.12.2019
5970 Clouds 12 999 76 10000 4.6 200 19:56 17.12.2019
5971 Clouds 12 999 76 10000 4.6 200 19:38 17.12.2019
5972 Clouds 12 999 76 10000 5.1 200 19:19 17.12.2019
5973 Clouds 12 999 71 10000 4.1 210 18:56 17.12.2019
5974 Clouds 12 999 71 10000 4.1 210 18:37 17.12.2019
5975 Clouds 12 999 81 10000 3.1 180 18:19 17.12.2019
5976 Clouds 12 999 81 10000 3.1 180 18:19 17.12.2019
5977 Clouds 12 999 71 10000 4.6 210 17:42 17.12.2019
5978 Clouds 12 999 76 10000 5.1 210 17:21 17.12.2019
5979 Clouds 12 999 76 10000 4.1 200 16:57 17.12.2019
5980 Clouds 12 999 76 10000 4.1 200 16:38 17.12.2019
5981 Clouds 12 998 76 10000 5.1 210 16:19 17.12.2019
5982 Clouds 12 998 76 10000 5.1 210 15:59 17.12.2019
5983 -273 0 0 0 0 0 15:38 17.12.2019
5984 Clouds 12 998 76 10000 5.7 200 15:19 17.12.2019
5985 Clouds 12 998 76 10000 4.6 200 14:56 17.12.2019
5986 Clouds 12 998 76 10000 4.6 200 14:38 17.12.2019
5987 Clouds 12 998 76 10000 5.7 200 14:19 17.12.2019
5988 Clouds 12 998 76 10000 5.7 200 14:19 17.12.2019
5989 Clouds 12 998 81 10000 4.6 200 13:56 17.12.2019
5990 Clouds 12 998 81 10000 4.6 200 13:38 17.12.2019
5991 Clouds 12 998 81 10000 4.6 200 13:19 17.12.2019
5992 Clouds 12 998 81 10000 4.6 200 13:19 17.12.2019
5993 Rain 11 999 76 10000 4.1 200 12:59 17.12.2019
5994 Rain 11 999 76 10000 4.1 200 12:38 17.12.2019
5995 Clouds 10 998 81 10000 5.1 190 12:18 17.12.2019
5996 Clouds 10 998 81 10000 5.1 190 12:18 17.12.2019
5997 Clouds 10 999 81 10000 4.1 200 11:56 17.12.2019
5998 Clouds 10 999 81 10000 4.1 200 11:37 17.12.2019
5999 Clouds 9 999 87 10000 4.6 170 11:18 17.12.2019
6000 Clouds 9 999 93 10000 3.6 180 10:57 17.12.2019
6001 Clouds 9 999 93 10000 3.6 180 10:38 17.12.2019
6002 Clouds 8 998 87 10000 4.1 180 10:19 17.12.2019
6003 Clouds 8 998 87 10000 4.1 180 10:19 17.12.2019
6004 Clouds 8 999 93 10000 2.6 170 09:55 17.12.2019
6005 Clouds 8 999 93 10000 2.6 170 09:37 17.12.2019
6006 Clouds 7 998 93 10000 3.1 170 09:18 17.12.2019
6007 Clouds 7 999 100 6000 2.6 170 08:54 17.12.2019
6008 Clouds 7 999 100 6000 2.6 170 08:36 17.12.2019
6009 Clouds 7 998 93 8000 1.5 180 08:18 17.12.2019
6010 Mist 6 998 93 3000 3.1 110 07:42 17.12.2019
6011 Mist 6 998 93 5000 2.6 130 07:22 17.12.2019
6012 Mist 6 999 93 3000 2.1 110 06:53 17.12.2019
6013 Drizzle 6 998 100 3400 2.6 110 06:32 17.12.2019
6014 Clouds 6 999 93 6000 2.6 120 05:52 17.12.2019
6015 Mist 6 999 100 1900 2.1 100 05:32 17.12.2019
6016 Mist 7 999 93 3200 3.1 80 04:19 17.12.2019
6017 Drizzle 7 1001 93 2800 2.1 70 02:27 17.12.2019
6018 Drizzle 7 1001 93 3600 2.1 90 01:34 17.12.2019
6019 Drizzle 7 1002 93 8000 1.5 130 00:56 17.12.2019
6020 Drizzle 7 1002 93 8000 1.5 130 00:36 17.12.2019
6021 Drizzle 7 1002 93 2600 2.1 100 00:18 17.12.2019
6022 Drizzle 7 1003 93 10000 1.5 150 23:40 16.12.2019
6023 Drizzle 7 1002 93 5000 1.5 120 23:19 16.12.2019
6024 Clouds 7 1003 100 10000 1.5 170 22:55 16.12.2019
6025 Clouds 7 1003 100 10000 1.5 170 22:37 16.12.2019
6026 Clouds 6 1003 93 7000 2.6 140 22:19 16.12.2019
6027 Clouds 7 1003 93 10000 2.1 190 21:54 16.12.2019
6028 Clouds 7 1003 93 10000 2.1 190 21:36 16.12.2019
6029 Clouds 7 1003 93 8000 2.1 160 21:18 16.12.2019
6030 Clouds 7 1004 93 10000 2.6 180 20:56 16.12.2019
6031 Clouds 7 1004 93 10000 2.6 180 20:37 16.12.2019
6032 Clouds 7 1003 100 10000 2.6 180 20:19 16.12.2019
6033 Clouds 7 1003 93 10000 2.6 190 19:55 16.12.2019
6034 Clouds 7 1003 93 10000 2.6 190 19:36 16.12.2019
6035 Clouds 7 1003 93 10000 3.6 180 19:18 16.12.2019
6036 Clouds 7 1003 87 10000 1.5 210 18:55 16.12.2019
6037 Clouds 7 1003 87 10000 1.5 210 18:37 16.12.2019
6038 Clouds 7 1003 87 10000 1.5 210 18:37 16.12.2019
6039 Clouds 7 1003 87 10000 4.6 190 18:19 16.12.2019
6040 Clouds 7 1003 87 10000 2.6 220 17:57 16.12.2019
6041 Clouds 8 1003 87 10000 2.6 220 17:37 16.12.2019
6042 Clouds 8 1003 87 10000 4.1 190 17:19 16.12.2019
6043 Clouds 8 1003 87 10000 4.6 200 16:55 16.12.2019
6044 Clouds 8 1003 87 10000 4.6 200 16:37 16.12.2019
6045 Clouds 8 1003 87 10000 4.6 200 16:18 16.12.2019
6046 Clouds 8 1003 87 10000 4.6 200 15:57 16.12.2019
6047 Clouds 8 1003 87 10000 4.6 200 15:37 16.12.2019
6048 Clouds 8 1003 87 10000 5.1 200 15:19 16.12.2019
6049 Clouds 8 1003 87 10000 5.7 210 14:54 16.12.2019
6050 Clouds 8 1003 87 10000 5.7 210 14:36 16.12.2019
6051 Clouds 8 1003 87 10000 4.6 190 14:18 16.12.2019
6052 Clouds 8 1003 87 10000 5.7 210 13:55 16.12.2019
6053 Clouds 8 1003 87 10000 5.7 210 13:37 16.12.2019
6054 Clouds 8 1003 87 10000 5.1 200 13:19 16.12.2019
6055 Clouds 8 1003 87 10000 5.7 220 12:54 16.12.2019
6056 Clouds 8 1003 87 10000 5.7 220 12:54 16.12.2019
6057 Clouds 8 1003 87 10000 5.7 220 12:36 16.12.2019
6058 Clouds 8 1004 87 10000 5.7 210 12:18 16.12.2019
6059 Clouds 8 1004 87 10000 5.7 210 12:18 16.12.2019
6060 Clouds 7 1004 81 10000 5.7 210 11:55 16.12.2019
6061 Clouds 7 1004 81 10000 5.7 210 11:37 16.12.2019
6062 Clouds 7 1004 87 10000 5.1 200 11:19 16.12.2019
6063 Clouds 6 1004 87 10000 5.7 210 10:40 16.12.2019
6064 Clouds 6 1004 87 10000 5.7 210 10:40 16.12.2019
6065 Clouds 6 1004 87 10000 5.7 210 10:40 16.12.2019
6066 Clouds 6 1003 93 10000 5.7 200 10:22 16.12.2019
6067 Clouds 6 1003 93 10000 5.7 200 09:59 16.12.2019
6068 Clouds 5 1003 86 10000 5.1 200 09:41 16.12.2019
6069 Clouds 5 1003 87 10000 5.7 190 09:23 16.12.2019
6070 Clouds 5 1003 86 10000 5.1 190 08:40 16.12.2019
6071 Clouds 5 1003 86 10000 5.1 190 08:40 16.12.2019
6072 Clouds 5 1002 93 10000 5.7 190 08:20 16.12.2019
6073 Clouds 5 1002 93 10000 5.7 190 08:20 16.12.2019
6074 Clouds 5 1003 86 10000 4.6 190 07:53 16.12.2019
6075 Clouds 5 1003 86 10000 4.6 180 07:31 16.12.2019
6076 Clouds 5 1002 86 10000 4.1 180 07:31 16.12.2019
6077 Clouds 5 1003 86 10000 4.6 180 06:58 16.12.2019
6078 Clouds 5 1003 86 10000 4.6 180 06:40 16.12.2019
6079 Clouds 5 1003 86 10000 4.6 180 06:20 16.12.2019
6080 Clouds 5 1003 86 10000 4.6 190 05:41 16.12.2019
6081 Clouds 5 1003 86 10000 5.1 180 05:22 16.12.2019
6082 Clouds 4 1003 86 10000 4.6 180 03:29 16.12.2019
6083 Clouds 5 1004 80 10000 5.1 210 01:52 16.12.2019
6084 Clear 5 1003 86 10000 4.6 190 01:33 16.12.2019
6085 Clouds 5 1003 86 10000 4.6 220 00:41 16.12.2019
6086 Clouds 5 1003 86 10000 6.7 200 00:21 16.12.2019
6087 Clouds 5 1003 86 10000 5.7 220 23:57 15.12.2019
6088 Clouds 5 1003 86 10000 6.2 210 23:37 15.12.2019
6089 Clear 5 1003 81 10000 7.2 210 23:19 15.12.2019
6090 Clouds 6 1002 81 10000 5.7 220 22:54 15.12.2019
6091 Clouds 6 1002 81 10000 5.7 220 22:36 15.12.2019
6092 Clear 6 1002 87 10000 7.7 220 22:18 15.12.2019
6093 Clouds 6 1001 87 10000 6.2 230 21:55 15.12.2019
6094 Clouds 6 1001 87 10000 6.2 230 21:36 15.12.2019
6095 Clouds 6 1001 87 10000 7.7 220 21:18 15.12.2019
6096 Clouds 6 1000 87 10000 6.7 230 20:54 15.12.2019
6097 Clouds 6 1000 87 10000 6.7 230 20:36 15.12.2019
6098 Clouds 6 1001 87 10000 8.2 220 20:18 15.12.2019
6099 Drizzle 7 1000 87 10000 7.7 240 19:54 15.12.2019
6100 Drizzle 7 1000 87 10000 7.7 240 19:36 15.12.2019
6101 Drizzle 7 1000 87 10000 8.7 220 19:18 15.12.2019
6102 Drizzle 7 999 87 10000 5.1 240 18:54 15.12.2019
6103 Drizzle 7 999 87 10000 5.1 240 18:36 15.12.2019
6104 Rain 7 999 87 10000 8.7 220 18:18 15.12.2019
6105 Clouds 7 998 81 10000 6.2 240 17:55 15.12.2019
6106 Clouds 7 998 81 10000 6.2 240 17:36 15.12.2019
6107 Clouds 7 998 81 10000 7.2 210 17:18 15.12.2019
6108 Clouds 7 998 81 10000 7.7 220 16:42 15.12.2019
6109 Clouds 7 997 81 10000 7.7 210 16:23 15.12.2019
6110 Clouds 7 996 65 10000 9.3 250 15:57 15.12.2019
6111 Clouds 7 996 65 10000 9.3 250 15:39 15.12.2019
6112 Drizzle 8 996 75 10000 9.8 230 15:19 15.12.2019
6113 Clouds 8 994 61 10000 11.8 260 14:56 15.12.2019
6114 Clouds 8 994 61 10000 11.8 260 14:38 15.12.2019
6115 Clouds 8 995 66 10000 10.3 240 14:19 15.12.2019
6116 Clouds 8 995 66 10000 10.3 240 13:59 15.12.2019
6117 Clouds 8 993 61 10000 12.3 250 13:39 15.12.2019
6118 Clouds 8 994 66 10000 10.8 240 13:20 15.12.2019
6119 Clouds 8 992 62 10000 10.8 240 12:57 15.12.2019
6120 Clouds 8 992 62 10000 10.8 240 12:39 15.12.2019
6121 Clouds 8 993 65 10000 11.8 240 12:21 15.12.2019
6122 Clouds 8 991 61 10000 11.3 240 11:59 15.12.2019
6123 Clouds 8 991 61 10000 11.3 240 11:38 15.12.2019
6124 Clouds 8 991 61 10000 11.3 240 11:38 15.12.2019
6125 Clouds 8 993 65 10000 11.3 240 11:38 15.12.2019
6126 Rain 8 992 61 10000 12.9 230 11:19 15.12.2019
6127 Clouds 7 990 68 10000 12.3 240 10:56 15.12.2019
6128 Clouds 7 990 68 10000 12.3 240 10:38 15.12.2019
6129 Clouds 7 990 68 10000 12.3 240 10:38 15.12.2019
6130 Rain 7 990 70 10000 10.8 230 10:19 15.12.2019
6131 Clouds 7 988 70 10000 10.8 240 09:57 15.12.2019
6132 Clouds 7 988 70 10000 10.8 240 09:37 15.12.2019
6133 Rain 7 989 75 10000 11.8 240 09:19 15.12.2019
6134 Clouds 7 987 81 10000 9.8 230 08:54 15.12.2019
6135 Clouds 7 987 81 10000 9.8 230 08:36 15.12.2019
6136 Clouds 8 987 81 10000 10.8 240 08:18 15.12.2019
6137 Clouds 7 986 87 10000 7.7 200 07:43 15.12.2019
6138 Clouds 7 986 87 10000 11.3 220 07:25 15.12.2019
6139 Rain 6 986 93 8000 7.2 180 06:26 15.12.2019
6140 Rain 5 988 86 10000 7.2 170 05:42 15.12.2019
6141 Clouds 5 987 81 10000 7.2 170 05:21 15.12.2019
6142 Clouds 4 989 86 10000 5.7 160 04:21 15.12.2019
6143 Clouds 3 993 85 10000 4.6 200 02:55 15.12.2019
6144 Clouds 3 992 86 10000 4.6 180 02:32 15.12.2019
6145 Clouds 3 993 75 10000 5.7 220 01:41 15.12.2019
6146 Clouds 4 993 80 10000 4.6 200 01:19 15.12.2019
6147 Clouds 3 994 80 10000 5.7 220 00:51 15.12.2019
6148 Clouds 4 994 72 10000 5.1 200 00:32 15.12.2019
6149 Clouds 4 993 80 10000 4.6 230 23:55 14.12.2019
6150 Clouds 4 993 80 10000 4.6 230 23:37 14.12.2019
6151 Rain 4 994 86 10000 6.2 220 23:18 14.12.2019
6152 Clouds 4 992 80 10000 5.7 230 22:56 14.12.2019
6153 Clouds 4 992 80 10000 5.7 230 22:37 14.12.2019
6154 Clouds 4 993 80 10000 6.2 230 22:18 14.12.2019
6155 Clouds 4 991 86 10000 6.7 230 21:55 14.12.2019
6156 Clouds 4 991 86 10000 6.7 230 21:36 14.12.2019
6157 Rain 4 992 86 10000 6.7 240 21:18 14.12.2019
6158 Rain 4 990 86 10000 5.7 240 20:42 14.12.2019
6159 Rain 4 991 80 10000 6.2 240 20:20 14.12.2019
6160 Rain 4 991 80 10000 6.2 240 19:59 14.12.2019
6161 Clouds 4 989 80 10000 6.7 240 19:39 14.12.2019
6162 Clouds 4 990 86 10000 7.7 250 19:21 14.12.2019
6163 Clouds 5 987 75 10000 6.2 220 18:57 14.12.2019
6164 Clouds 5 987 75 10000 6.2 220 18:38 14.12.2019
6165 Clouds 5 987 75 10000 6.2 220 18:38 14.12.2019
6166 Rain 5 989 86 9000 7.2 230 18:20 14.12.2019
6167 Clouds 5 987 75 10000 6.7 240 17:57 14.12.2019
6168 Rain 6 988 86 7000 9.3 230 17:38 14.12.2019
6169 Clouds 6 987 75 10000 6.2 220 17:20 14.12.2019
6170 Clouds 6 986 75 10000 6.2 240 16:41 14.12.2019
6171 Rain 6 987 75 10000 7.7 230 16:19 14.12.2019
6172 Clouds 6 985 75 10000 8.7 250 15:55 14.12.2019
6173 Clouds 6 985 75 10000 8.7 250 15:37 14.12.2019
6174 Clouds 6 986 70 10000 8.7 240 15:19 14.12.2019
6175 Clouds 6 985 75 10000 8.2 250 14:56 14.12.2019
6176 Clouds 6 985 75 10000 8.2 250 14:37 14.12.2019
6177 Clouds 6 986 70 10000 11.3 250 14:18 14.12.2019
6178 Clouds 6 985 75 10000 7.7 250 13:44 14.12.2019
6179 Clouds 6 983 70 10000 9.3 250 13:19 14.12.2019
6180 Clouds 6 983 75 10000 7.7 240 12:58 14.12.2019
6181 Clouds 6 983 75 10000 7.7 240 12:39 14.12.2019
6182 Rain 6 984 86 10000 9.8 250 12:20 14.12.2019
6183 Clouds 6 982 86 10000 7.2 240 11:58 14.12.2019
6184 Clouds 6 982 86 10000 7.2 240 11:39 14.12.2019
6185 Clouds 6 983 81 10000 6.7 250 11:19 14.12.2019
6186 Clouds 6 981 86 10000 6.2 230 10:57 14.12.2019
6187 Clouds 5 981 86 10000 6.2 230 10:39 14.12.2019
6188 Clouds 5 982 86 10000 7.2 240 10:20 14.12.2019
6189 Rain 5 981 93 9000 5.7 220 09:55 14.12.2019
6190 Rain 5 981 93 9000 5.7 220 09:36 14.12.2019
6191 Clouds 5 981 93 10000 6.2 220 09:18 14.12.2019
6192 Rain 5 980 86 10000 6.2 230 08:41 14.12.2019
6193 Clouds 5 980 93 10000 5.7 210 08:19 14.12.2019
6194 Rain 4 979 86 8000 6.2 230 07:43 14.12.2019
6195 Rain 5 980 86 10000 7.2 220 07:23 14.12.2019
6196 Rain 5 978 86 8000 6.2 220 06:55 14.12.2019
6197 Rain 5 978 86 8000 6.2 220 06:36 14.12.2019
6198 Clouds 5 978 86 10000 5.1 210 05:56 14.12.2019
6199 Clouds 5 979 86 10000 6.2 210 04:42 14.12.2019
6200 Rain 5 980 87 10000 5.7 200 02:31 14.12.2019
6201 Clouds 5 980 93 10000 5.7 210 01:49 14.12.2019
6202 Drizzle 5 980 93 10000 6.7 210 01:31 14.12.2019
6203 Rain 5 980 93 10000 6.2 210 00:45 14.12.2019
6204 Clouds 5 980 93 10000 6.2 200 00:27 14.12.2019
6205 Clouds 5 980 93 8000 4.6 190 23:54 13.12.2019
6206 Clouds 4 980 93 6000 3.6 190 23:36 13.12.2019
6207 Clouds 4 980 100 6000 3.6 190 23:18 13.12.2019
6208 Clouds 4 981 93 7000 3.1 170 22:40 13.12.2019
6209 Drizzle 4 981 100 3600 3.6 200 22:19 13.12.2019
6210 Clouds 4 981 93 6000 2.6 180 21:56 13.12.2019
6211 Clouds 3 981 93 6000 2.6 180 21:37 13.12.2019
6212 Mist 3 981 93 3700 3.6 190 21:19 13.12.2019
6213 Drizzle 3 981 93 7000 2.6 170 20:42 13.12.2019
6214 Drizzle 3 981 93 6000 2.6 180 20:23 13.12.2019
6215 Drizzle 3 981 93 6000 2.6 180 19:59 13.12.2019
6216 Drizzle 3 981 93 6000 2.6 180 19:41 13.12.2019
6217 Clouds 3 980 93 10000 2.6 180 19:22 13.12.2019
6218 Rain 3 980 93 10000 2.1 170 18:59 13.12.2019
6219 Rain 3 980 93 10000 2.1 170 18:41 13.12.2019
6220 Clouds 3 980 93 10000 2.6 180 18:19 13.12.2019
6221 Clouds 3 980 93 10000 2.1 180 17:57 13.12.2019
6222 Rain 3 980 93 10000 2.6 150 17:38 13.12.2019
6223 Clouds 3 979 86 10000 1.5 150 17:18 13.12.2019
6224 Clouds 3 979 84 10000 2.6 140 16:54 13.12.2019
6225 Clouds 3 979 84 10000 2.6 140 16:36 13.12.2019
6226 Clouds 3 978 86 10000 1 150 16:18 13.12.2019
6227 Rain 4 978 84 10000 3.1 120 15:38 13.12.2019
6228 Drizzle 4 977 80 10000 1 0 15:20 13.12.2019
6229 Rain 4 978 84 10000 3.6 130 14:55 13.12.2019
6230 Rain 4 978 84 10000 3.6 130 14:36 13.12.2019
6231 Clouds 4 977 80 10000 2.1 120 14:18 13.12.2019
6232 Clouds 4 977 81 10000 4.1 130 13:43 13.12.2019
6233 Clouds 4 976 80 10000 2.6 110 13:23 13.12.2019
6234 Clouds 3 976 86 10000 2.6 120 12:54 13.12.2019
6235 Clouds 3 976 86 10000 3.1 120 12:36 13.12.2019
6236 Clouds 3 976 86 10000 3.1 120 12:18 13.12.2019
6237 Snow 3 977 74 10000 5.7 130 11:43 13.12.2019
6238 Clouds 3 975 86 10000 3.6 120 11:24 13.12.2019
6239 Clouds 3 977 80 10000 5.7 130 10:56 13.12.2019
6240 Clouds 3 977 80 10000 5.7 130 10:38 13.12.2019
6241 Clouds 3 975 95 10000 4.1 110 10:19 13.12.2019
6242 Clouds 3 977 80 10000 5.7 120 09:42 13.12.2019
6243 Clouds 2 975 86 10000 4.1 120 09:21 13.12.2019
6244 Clouds 2 977 74 10000 6.2 120 08:45 13.12.2019
6245 Clouds 2 977 74 10000 5.1 130 08:27 13.12.2019
6246 Clouds 2 977 74 10000 6.7 130 07:50 13.12.2019
6247 Drizzle 2 975 93 10000 5.7 140 07:27 13.12.2019
6248 Clouds 2 978 74 10000 5.7 130 06:57 13.12.2019
6249 Clouds 2 978 74 10000 5.7 130 06:39 13.12.2019
6250 Clouds 3 978 74 10000 5.1 140 06:20 13.12.2019
6251 Clouds 3 978 74 10000 5.1 140 05:37 13.12.2019
6252 Clouds 3 976 74 10000 6.2 140 05:19 13.12.2019
6253 Clouds 3 977 77 10000 6.7 150 04:28 13.12.2019
6254 Clouds 3 982 80 10000 6.7 150 02:56 13.12.2019
6255 Clouds 3 980 77 10000 6.7 140 02:30 13.12.2019
6256 Clouds 3 984 80 10000 7.2 150 01:38 13.12.2019
6257 Clouds 3 985 80 10000 5.7 150 00:51 13.12.2019
6258 Clouds 3 984 79 10000 6.2 140 00:28 13.12.2019
6259 Clouds 3 987 80 10000 6.2 150 23:44 12.12.2019
6260 Clouds 3 985 79 10000 6.7 150 23:26 12.12.2019
6261 Clouds 3 986 80 10000 6.7 140 22:57 12.12.2019
6262 Clouds 3 987 80 10000 6.7 150 22:39 12.12.2019
6263 Clouds 3 987 80 10000 6.7 150 22:39 12.12.2019
6264 Clouds 3 987 80 10000 6.7 150 22:21 12.12.2019
6265 Clouds 3 990 80 10000 6.2 160 21:56 12.12.2019
6266 Clouds 3 990 80 10000 6.2 160 21:37 12.12.2019
6267 Clouds 3 988 80 10000 6.7 150 21:19 12.12.2019
6268 Clouds 3 989 80 10000 6.2 150 20:59 12.12.2019
6269 Clouds 3 991 80 10000 5.1 160 20:40 12.12.2019
6270 Clear 3 990 85 10000 5.7 150 20:22 12.12.2019
6271 Clouds 3 992 86 10000 5.1 160 19:59 12.12.2019
6272 Clouds 3 992 86 10000 5.1 160 19:40 12.12.2019
6273 Clouds 3 991 86 10000 5.1 150 19:21 12.12.2019
6274 Clouds 3 993 86 10000 3.6 160 18:57 12.12.2019
6275 Clouds 3 993 86 10000 3.6 160 18:57 12.12.2019
6276 Clouds 3 993 86 10000 3.6 160 18:38 12.12.2019
6277 Clouds 3 993 86 10000 4.6 150 18:20 12.12.2019
6278 Clouds 3 994 86 10000 3.1 170 17:57 12.12.2019
6279 Clouds 3 994 86 10000 3.1 170 17:38 12.12.2019
6280 Clouds 3 994 86 10000 4.6 170 17:20 12.12.2019
6281 Clouds 4 995 80 10000 3.6 190 16:57 12.12.2019
6282 Clouds 4 995 80 10000 3.6 190 16:38 12.12.2019
6283 Clouds 4 995 80 10000 5.1 170 16:20 12.12.2019
6284 Clouds 4 996 75 10000 6.2 210 15:54 12.12.2019
6285 Clouds 5 996 75 10000 6.2 210 15:36 12.12.2019
6286 Clouds 5 996 80 10000 6.2 190 15:18 12.12.2019
6287 Clouds 5 996 80 10000 5.1 200 14:38 12.12.2019
6288 Clouds 5 996 86 10000 5.7 190 14:20 12.12.2019
6289 Clouds 5 997 81 10000 4.6 220 13:58 12.12.2019
6290 Clouds 6 997 81 10000 4.6 220 13:39 12.12.2019
6291 Clouds 5 997 86 10000 5.7 200 13:21 12.12.2019
6292 Clouds 6 998 86 10000 4.6 220 12:58 12.12.2019
6293 Clouds 5 998 86 10000 4.6 220 12:40 12.12.2019
6294 Clear 5 998 86 10000 5.1 200 12:21 12.12.2019
6295 Rain 5 998 86 10000 5.1 230 11:56 12.12.2019
6296 Rain 5 998 86 10000 5.1 230 11:38 12.12.2019
6297 Clear 5 999 93 8000 4.6 210 11:19 12.12.2019
6298 Rain 5 999 86 10000 5.1 220 10:56 12.12.2019
6299 Rain 5 999 86 10000 5.1 220 10:38 12.12.2019
6300 Mist 5 999 93 5000 4.6 210 10:19 12.12.2019
6301 Clouds 5 998 86 10000 5.1 220 09:55 12.12.2019
6302 Clouds 5 998 86 10000 5.1 220 09:36 12.12.2019
6303 Clouds 5 999 100 6000 4.1 210 09:18 12.12.2019
6304 Clouds 5 999 86 8000 5.1 210 08:43 12.12.2019
6305 Clouds 5 999 93 8000 5.1 220 08:25 12.12.2019
6306 Rain 5 999 86 10000 4.6 210 07:49 12.12.2019
6307 Clouds 5 999 93 8000 6.2 220 07:26 12.12.2019
6308 Clouds 5 999 93 7000 4.1 200 06:55 12.12.2019
6309 Clouds 5 999 93 7000 4.1 200 06:35 12.12.2019
6310 Clouds 5 999 93 7000 3.6 190 05:42 12.12.2019
6311 Clouds 5 999 93 8000 3.1 190 04:54 12.12.2019
6312 Clouds 5 999 93 8000 4.1 190 04:23 12.12.2019
6313 Clouds 5 1001 86 8000 4.1 210 02:40 12.12.2019
6314 Mist 5 1000 93 5000 3.6 200 02:22 12.12.2019
6315 Mist 5 1001 93 5000 4.1 220 01:54 12.12.2019
6316 Mist 5 1001 93 4700 4.1 190 01:32 12.12.2019
6317 Mist 5 1002 93 5000 5.1 220 00:47 12.12.2019
6318 Mist 5 1001 93 3600 3.6 200 00:21 12.12.2019
6319 Clouds 5 1002 93 6000 3.6 210 23:54 11.12.2019
6320 Clouds 5 1002 93 6000 3.6 210 23:36 11.12.2019
6321 Mist 5 1002 100 2900 3.6 200 23:18 11.12.2019
6322 Clouds 5 1002 93 6000 3.1 200 22:54 11.12.2019
6323 Clouds 5 1002 93 6000 3.1 200 22:36 11.12.2019
6324 Mist 5 1002 93 3300 4.1 200 22:18 11.12.2019
6325 Clouds 5 1003 93 6000 3.6 210 21:39 11.12.2019
6326 Clouds 5 1003 93 6000 3.6 210 21:39 11.12.2019
6327 Mist 5 1002 93 3700 3.6 200 21:20 11.12.2019
6328 Clouds 5 1003 93 6000 3.1 210 20:58 11.12.2019
6329 Clouds 5 1003 93 6000 3.1 210 20:40 11.12.2019
6330 Mist 5 1003 100 5000 4.6 200 20:20 11.12.2019
6331 Clouds 5 1003 93 7000 2.6 210 19:59 11.12.2019
6332 Clouds 5 1003 93 7000 2.6 210 19:40 11.12.2019
6333 Mist 5 1003 93 5000 3.6 200 19:21 11.12.2019
6334 Clouds 5 1003 93 7000 2.1 200 18:59 11.12.2019
6335 Clouds 5 1003 93 7000 2.1 200 18:39 11.12.2019
6336 Clouds 5 1003 87 7000 3.1 190 18:19 11.12.2019
6337 Clouds 6 1004 93 10000 1.5 190 17:56 11.12.2019
6338 Clouds 6 1004 93 10000 1.5 190 17:37 11.12.2019
6339 Clouds 6 1003 93 9000 3.1 200 17:18 11.12.2019
6340 Clouds 6 1004 93 10000 2.6 180 16:55 11.12.2019
6341 Clouds 6 1004 93 10000 2.6 180 16:37 11.12.2019
6342 Clouds 6 1003 93 9000 3.1 190 16:18 11.12.2019
6343 Clouds 6 1003 87 10000 2.6 180 15:56 11.12.2019
6344 Clouds 7 1003 87 10000 2.6 180 15:37 11.12.2019
6345 Clouds 7 1004 87 9000 3.6 210 15:18 11.12.2019
6346 Clouds 7 1004 87 10000 3.6 210 14:54 11.12.2019
6347 Clouds 7 1004 87 10000 3.6 210 14:36 11.12.2019
6348 Clouds 7 1004 87 10000 3.1 210 14:18 11.12.2019
6349 Clouds 7 1005 87 10000 3.6 220 13:43 11.12.2019
6350 Clouds 7 1005 87 10000 3.6 220 13:22 11.12.2019
6351 Clouds 7 1005 93 9000 3.6 220 12:58 11.12.2019
6352 Clouds 7 1006 93 8000 3.6 210 12:39 11.12.2019
6353 Clouds 7 1006 93 8000 3.6 210 12:21 11.12.2019
6354 Clouds 7 1006 93 10000 4.6 220 11:58 11.12.2019
6355 Clouds 7 1006 93 10000 4.6 220 11:39 11.12.2019
6356 Clouds 6 1006 93 8000 4.1 210 11:19 11.12.2019
6357 Clouds 6 1006 93 10000 5.1 210 10:59 11.12.2019
6358 Clouds 6 1006 93 10000 5.1 210 10:40 11.12.2019
6359 Clouds 6 1006 100 9000 4.6 200 10:21 11.12.2019
6360 Clouds 6 1006 93 10000 4.6 210 09:56 11.12.2019
6361 Clouds 6 1006 93 10000 4.6 210 09:38 11.12.2019
6362 Clouds 6 1006 100 10000 4.6 200 09:19 11.12.2019
6363 Clouds 6 1007 93 10000 5.1 210 08:55 11.12.2019
6364 Clouds 6 1007 93 10000 5.1 210 08:36 11.12.2019
6365 Clouds 6 1006 100 10000 4.6 200 08:18 11.12.2019
6366 Clouds 6 1006 93 10000 6.2 210 07:43 11.12.2019
6367 Clouds 6 1006 100 10000 4.6 210 07:24 11.12.2019
6368 Clouds 6 1006 100 10000 4.6 210 07:24 11.12.2019
6369 Rain 6 1006 87 10000 6.2 210 06:46 11.12.2019
6370 Rain 6 1006 100 9000 3.6 230 06:25 11.12.2019
6371 Rain 6 1006 93 9000 6.2 210 05:55 11.12.2019
6372 Rain 6 1006 93 8000 6.7 210 05:35 11.12.2019
6373 Rain 6 1006 81 9000 8.7 210 04:51 11.12.2019
6374 Drizzle 6 1006 93 8000 8.2 200 03:29 11.12.2019
6375 Clouds 6 1006 65 10000 9.3 210 02:38 11.12.2019
6376 Clouds 6 1007 75 10000 9.8 190 01:22 11.12.2019
6377 Clouds 6 1007 75 10000 9.8 200 00:43 11.12.2019
6378 Clouds 6 1007 70 10000 10.8 190 00:19 11.12.2019
6379 Clouds 6 1008 60 10000 7.7 200 23:46 10.12.2019
6380 Clouds 6 1008 70 10000 10.8 190 23:26 10.12.2019
6381 Clouds 6 1009 69 10000 8.7 200 22:57 10.12.2019
6382 Clouds 6 1009 69 10000 8.7 200 22:39 10.12.2019
6383 Clouds 6 1009 70 10000 9.8 190 22:21 10.12.2019
6384 Clouds 6 1010 69 10000 9.8 190 21:54 10.12.2019
6385 Clouds 5 1010 69 10000 9.8 190 21:36 10.12.2019
6386 Rain 5 1010 70 10000 11.3 190 21:18 10.12.2019
6387 Rain 5 1011 69 10000 8.7 190 20:56 10.12.2019
6388 Rain 5 1011 69 10000 8.7 190 20:56 10.12.2019
6389 Rain 5 1011 69 10000 8.7 190 20:37 10.12.2019
6390 Drizzle 5 1011 75 10000 9.3 190 20:18 10.12.2019
6391 Drizzle 5 1012 75 10000 9.8 180 19:54 10.12.2019
6392 Drizzle 5 1012 75 10000 9.3 190 19:36 10.12.2019
6393 Drizzle 5 1012 75 10000 9.3 190 19:36 10.12.2019
6394 Drizzle 5 1012 75 10000 9.3 190 19:18 10.12.2019
6395 Clouds 5 1014 75 10000 9.3 190 18:39 10.12.2019
6396 Clouds 5 1014 75 10000 9.3 190 18:39 10.12.2019
6397 Clouds 5 1014 70 10000 7.7 190 18:20 10.12.2019
6398 Clouds 5 1015 70 10000 7.7 190 17:57 10.12.2019
6399 Clouds 5 1015 70 10000 7.7 190 17:39 10.12.2019
6400 Clouds 5 1015 75 10000 9.3 190 17:19 10.12.2019
6401 Clouds 5 1016 71 10000 6.2 190 16:43 10.12.2019
6402 Clouds 5 1016 75 10000 7.2 190 16:20 10.12.2019
6403 Clouds 5 1017 75 10000 6.2 190 15:59 10.12.2019
6404 Clouds 6 1017 75 10000 6.2 190 15:37 10.12.2019
6405 Clouds 6 1018 70 10000 7.7 190 15:18 10.12.2019
6406 Clouds 6 1019 75 10000 6.2 190 14:55 10.12.2019
6407 Clouds 6 1019 75 10000 6.2 190 14:37 10.12.2019
6408 Clouds 6 1019 70 10000 8.7 200 14:19 10.12.2019
6409 Clouds 6 1020 75 10000 5.7 210 13:56 10.12.2019
6410 Clouds 6 1020 75 10000 6.7 200 13:38 10.12.2019
6411 Clouds 6 1020 75 10000 6.7 200 13:19 10.12.2019
6412 Clouds 6 1020 75 10000 5.1 210 12:45 10.12.2019
6413 Clouds 6 1020 75 10000 5.1 210 12:45 10.12.2019
6414 Clouds 6 1021 75 10000 5.7 210 12:25 10.12.2019
6415 Clouds 5 1021 78 10000 3.6 220 11:45 10.12.2019
6416 Clouds 5 1022 86 10000 5.7 210 11:25 10.12.2019
6417 Clouds 4 1022 80 10000 2.6 210 10:58 10.12.2019
6418 Clouds 4 1022 80 10000 2.6 210 10:40 10.12.2019
6419 Clouds 3 1022 86 10000 2.6 200 10:22 10.12.2019
6420 Clouds 3 1021 75 10000 2.6 210 09:56 10.12.2019
6421 Clouds 3 1021 75 10000 2.6 210 09:56 10.12.2019
6422 Clouds 3 1021 75 10000 2.6 210 09:38 10.12.2019
6423 Clouds 3 1021 75 10000 2.6 210 09:38 10.12.2019
6424 Clouds 3 1021 75 10000 2.6 210 09:38 10.12.2019
6425 Clouds 3 1022 80 10000 3.1 190 09:20 10.12.2019
6426 Clouds 2 1021 75 10000 2.6 220 08:57 10.12.2019
6427 Clouds 2 1021 75 10000 2.6 220 08:38 10.12.2019
6428 Clouds 2 1022 68 10000 2.6 210 08:19 10.12.2019
6429 Clouds 2 1021 68 10000 2.1 230 07:44 10.12.2019
6430 Clouds 3 1021 86 10000 3.1 220 07:26 10.12.2019
6431 Clouds 3 1021 86 10000 3.1 220 07:26 10.12.2019
6432 Clouds 3 1020 68 10000 3.6 280 06:49 10.12.2019
6433 Clouds 4 1021 86 10000 2.1 240 06:24 10.12.2019
6434 Clouds 4 1020 68 10000 2.6 260 05:55 10.12.2019
6435 Clouds 4 1020 68 10000 2.6 260 05:33 10.12.2019
6436 Clouds 5 1018 80 10000 3.6 280 03:54 10.12.2019
6437 Clouds 5 1017 75 10000 4.1 290 02:57 10.12.2019
6438 Clouds 5 1017 75 10000 4.1 290 02:57 10.12.2019
6439 Clouds 5 1016 75 10000 3.6 310 01:55 10.12.2019
6440 Rain 5 1017 66 10000 3.1 280 01:27 10.12.2019
6441 Rain 5 1015 70 10000 6.7 310 00:58 10.12.2019
6442 Clouds 5 1016 70 10000 4.6 310 00:25 10.12.2019
6443 Clouds 5 1014 70 10000 7.7 340 23:57 09.12.2019
6444 Clouds 5 1014 70 10000 7.7 340 23:37 09.12.2019
6445 Rain 6 1015 66 10000 4.6 300 23:18 09.12.2019
6446 Clouds 6 1012 70 10000 7.2 320 22:55 09.12.2019
6447 Clouds 5 1012 70 10000 7.2 320 22:37 09.12.2019
6448 Clouds 5 1014 66 10000 5.7 320 22:18 09.12.2019
6449 Rain 5 1011 66 10000 6.7 310 21:55 09.12.2019
6450 Rain 5 1011 66 10000 6.7 310 21:37 09.12.2019
6451 Rain 5 1012 60 10000 7.2 320 21:18 09.12.2019
6452 Clouds 5 1009 66 10000 8.7 320 20:55 09.12.2019
6453 Clouds 5 1009 66 10000 8.7 320 20:37 09.12.2019
6454 Clouds 5 1009 66 10000 8.7 320 20:37 09.12.2019
6455 Rain 5 1011 75 10000 5.1 310 20:18 09.12.2019
6456 Clouds 6 1007 70 10000 7.2 320 19:55 09.12.2019
6457 Clouds 6 1007 70 10000 7.2 320 19:37 09.12.2019
6458 Clouds 6 1009 75 10000 4.6 330 19:18 09.12.2019
6459 Clouds 6 1006 75 10000 6.2 320 18:54 09.12.2019
6460 Clouds 6 1006 75 10000 6.2 320 18:36 09.12.2019
6461 Rain 6 1007 65 10000 6.7 320 18:18 09.12.2019
6462 Rain 7 1006 70 10000 5.7 320 17:55 09.12.2019
6463 Clouds 7 1001 70 10000 9.3 340 17:37 09.12.2019
6464 Clouds 7 1001 70 10000 9.3 340 17:18 09.12.2019
6465 Clouds 7 1001 70 10000 9.3 340 16:54 09.12.2019
6466 Clouds 7 1001 70 10000 9.3 340 16:36 09.12.2019
6467 Clouds 7 1002 70 10000 7.2 330 16:18 09.12.2019
6468 Clouds 7 999 81 10000 6.2 350 15:54 09.12.2019
6469 Clouds 7 999 81 10000 6.2 350 15:36 09.12.2019
6470 Rain 7 998 93 4000 6.7 310 15:18 09.12.2019
6471 Rain 7 997 87 10000 5.7 290 14:41 09.12.2019
6472 Clouds 7 998 87 10000 3.1 280 14:18 09.12.2019
6473 Rain 7 996 87 10000 6.2 270 13:56 09.12.2019
6474 Rain 7 996 87 10000 6.2 270 13:38 09.12.2019
6475 Clouds 7 995 81 10000 4.6 260 13:19 09.12.2019
6476 Clouds 7 994 81 10000 4.1 250 12:56 09.12.2019
6477 Clouds 7 994 81 10000 4.1 250 12:37 09.12.2019
6478 Rain 7 995 87 10000 5.1 250 12:18 09.12.2019
6479 Clouds 7 994 87 10000 3.6 230 11:55 09.12.2019
6480 Clouds 7 994 87 10000 3.6 230 11:36 09.12.2019
6481 Clouds 6 994 93 10000 3.6 220 11:18 09.12.2019
6482 Clouds 6 994 93 10000 3.6 220 11:18 09.12.2019
6483 Clouds 6 993 81 10000 4.1 230 10:39 09.12.2019
6484 Clouds 6 993 81 10000 3.6 210 10:20 09.12.2019
6485 Clouds 6 993 87 10000 4.6 220 09:56 09.12.2019
6486 Clouds 6 993 87 10000 4.6 220 09:38 09.12.2019
6487 Clouds 6 992 86 10000 5.7 220 09:20 09.12.2019
6488 Clouds 6 992 87 10000 6.2 230 08:42 09.12.2019
6489 Clouds 6 992 87 10000 6.2 220 08:24 09.12.2019
6490 Clouds 6 991 87 10000 7.7 210 07:56 09.12.2019
6491 Drizzle 6 991 87 10000 7.2 210 07:37 09.12.2019
6492 Drizzle 6 991 87 10000 7.2 210 07:19 09.12.2019
6493 Clouds 6 991 87 10000 7.2 220 06:39 09.12.2019
6494 Clouds 6 991 87 10000 7.7 210 06:21 09.12.2019
6495 Clouds 6 991 87 10000 8.2 210 05:26 09.12.2019
6496 Clouds 6 991 87 10000 8.2 210 04:31 09.12.2019
6497 Drizzle 6 992 87 10000 7.2 210 03:19 09.12.2019
6498 Drizzle 6 992 87 10000 7.2 210 03:19 09.12.2019
6499 Clouds 6 992 87 10000 7.7 220 02:19 09.12.2019
6500 Clouds 6 991 87 10000 6.7 220 01:41 09.12.2019
6501 Clouds 6 991 81 10000 6.7 230 00:45 09.12.2019
6502 Rain 6 992 87 10000 6.7 220 00:25 09.12.2019
6503 Clouds 6 991 81 10000 6.2 220 23:40 08.12.2019
6504 Clouds 6 992 87 10000 8.2 230 23:22 08.12.2019
6505 Clouds 7 992 81 10000 4.6 220 22:57 08.12.2019
6506 Clouds 7 992 81 10000 4.6 220 22:38 08.12.2019
6507 Rain 7 992 81 10000 6.2 230 22:19 08.12.2019
6508 Rain 7 992 81 10000 6.2 230 22:19 08.12.2019
6509 Clouds 7 992 81 10000 7.7 240 21:58 08.12.2019
6510 Clouds 7 992 81 10000 7.7 240 21:58 08.12.2019
6511 Clouds 7 992 81 10000 7.7 240 21:40 08.12.2019
6512 Clouds 7 993 75 10000 4.1 240 21:20 08.12.2019
6513 Clouds 7 993 75 10000 8.2 230 20:57 08.12.2019
6514 Rain 7 993 81 5000 11.3 260 20:38 08.12.2019
6515 Clouds 8 993 81 10000 9.3 220 20:20 08.12.2019
6516 Clouds 8 993 81 10000 9.3 220 20:20 08.12.2019
6517 Rain 8 993 81 10000 5.7 230 19:58 08.12.2019
6518 Rain 8 993 81 10000 5.7 230 19:40 08.12.2019
6519 Clouds 8 994 81 10000 8.2 230 19:22 08.12.2019
6520 Clouds 8 993 81 10000 7.2 240 18:55 08.12.2019
6521 Clouds 8 993 81 10000 7.2 240 18:55 08.12.2019
6522 Clouds 8 993 81 10000 7.2 240 18:37 08.12.2019
6523 Rain 8 994 81 10000 9.3 230 18:19 08.12.2019
6524 Clouds 9 993 76 10000 7.7 240 17:56 08.12.2019
6525 Clouds 8 993 76 10000 7.7 240 17:38 08.12.2019
6526 Clouds 8 993 76 10000 7.7 240 17:38 08.12.2019
6527 Rain 8 995 81 10000 7.2 240 17:19 08.12.2019
6528 Clouds 9 994 76 10000 6.7 250 16:57 08.12.2019
6529 Clouds 9 994 76 10000 6.7 250 16:39 08.12.2019
6530 Clouds 9 995 81 10000 8.2 240 16:20 08.12.2019
6531 Clouds 9 993 76 10000 8.2 250 15:55 08.12.2019
6532 Clouds 9 993 76 10000 8.2 250 15:36 08.12.2019
6533 Clouds 10 995 76 10000 7.7 240 15:18 08.12.2019
6534 Clouds 10 993 76 10000 9.3 260 14:43 08.12.2019
6535 Clouds 10 993 81 10000 7.7 250 14:24 08.12.2019
6536 Clouds 10 993 81 10000 7.7 250 14:24 08.12.2019
6537 Clouds 10 993 81 10000 8.7 250 13:59 08.12.2019
6538 Clouds 10 993 81 10000 8.7 250 13:40 08.12.2019
6539 Clouds 10 995 87 10000 7.7 250 13:21 08.12.2019
6540 Clouds 10 995 87 10000 7.7 250 13:21 08.12.2019
6541 Rain 10 992 87 6000 9.8 230 12:57 08.12.2019
6542 Rain 10 992 87 6000 9.8 230 12:38 08.12.2019
6543 Clouds 10 994 93 10000 12.3 230 12:18 08.12.2019
6544 Clouds 10 994 93 10000 12.3 230 11:57 08.12.2019
6545 Drizzle 10 993 93 7000 10.3 230 11:37 08.12.2019
6546 Drizzle 9 993 93 8000 9.3 220 11:19 08.12.2019
6547 Drizzle 9 994 93 4000 9.8 220 10:40 08.12.2019
6548 Rain 9 995 93 2900 11.8 220 10:22 08.12.2019
6549 Drizzle 9 994 87 4500 10.3 220 09:58 08.12.2019
6550 Drizzle 9 994 87 4500 10.3 220 09:39 08.12.2019
6551 Clouds 9 996 93 10000 12.9 220 09:20 08.12.2019
6552 Rain 9 995 87 9000 10.8 210 08:59 08.12.2019
6553 Rain 9 995 87 9000 10.8 210 08:41 08.12.2019
6554 Rain 8 995 87 9000 10.8 220 08:22 08.12.2019
6555 Rain 8 995 87 9000 10.8 210 07:49 08.12.2019
6556 Rain 8 998 87 8000 12.3 220 07:21 08.12.2019
6557 Clouds 9 997 76 10000 10.8 220 06:58 08.12.2019
6558 Clouds 9 997 76 10000 10.8 220 06:38 08.12.2019
6559 Clouds 9 998 76 10000 11.8 210 06:18 08.12.2019
6560 Clouds 9 1000 81 10000 12.9 210 05:22 08.12.2019
6561 Clouds 9 1001 81 10000 8.2 220 04:23 08.12.2019
6562 Clouds 9 1002 81 10000 8.7 220 03:38 08.12.2019
6563 Clouds 9 1004 81 10000 9.3 210 02:41 08.12.2019
6564 Clouds 9 1004 81 10000 8.7 210 02:19 08.12.2019
6565 Clouds 8 1005 81 10000 7.7 220 01:35 08.12.2019
6566 Clouds 8 1006 81 10000 6.7 220 00:53 08.12.2019
6567 Clouds 8 1007 81 10000 8.2 210 00:24 08.12.2019
6568 Clouds 8 1007 87 10000 6.2 220 23:59 07.12.2019
6569 Clouds 8 1007 87 10000 6.2 220 23:38 07.12.2019
6570 Clouds 8 1008 87 10000 7.7 210 23:20 07.12.2019
6571 Clouds 8 1008 87 10000 6.7 230 22:55 07.12.2019
6572 Clouds 8 1008 87 10000 6.7 230 22:37 07.12.2019
6573 Clouds 8 1009 81 10000 7.7 220 22:19 07.12.2019
6574 Clouds 8 1008 87 10000 5.7 230 21:55 07.12.2019
6575 Clouds 9 1008 87 10000 5.7 230 21:37 07.12.2019
6576 Clouds 9 1009 87 10000 5.7 230 21:18 07.12.2019
6577 Clouds 9 1009 87 10000 4.6 240 20:38 07.12.2019
6578 Clouds 9 1010 87 10000 6.7 230 20:20 07.12.2019
6579 Clouds 9 1010 87 10000 6.7 230 20:20 07.12.2019
6580 Clouds 9 1009 87 10000 5.1 250 19:58 07.12.2019
6581 Clouds 9 1009 87 10000 5.1 250 19:39 07.12.2019
6582 Clouds 9 1010 87 10000 5.7 240 19:21 07.12.2019
6583 Clouds 9 1009 87 10000 5.7 250 18:59 07.12.2019
6584 Clouds 9 1009 87 10000 5.7 250 18:40 07.12.2019
6585 Clouds 9 1010 87 10000 5.1 240 18:18 07.12.2019
6586 Clouds 9 1009 87 10000 6.2 250 17:56 07.12.2019
6587 Clouds 9 1009 87 10000 6.2 250 17:37 07.12.2019
6588 Clouds 9 1010 87 10000 4.6 250 17:19 07.12.2019
6589 Clouds 9 1008 87 10000 7.2 260 16:56 07.12.2019
6590 Clouds 9 1008 87 10000 7.2 260 16:37 07.12.2019
6591 Clouds 9 1009 87 10000 5.1 250 16:18 07.12.2019
6592 Rain 9 1008 87 10000 6.7 260 15:41 07.12.2019
6593 Rain 9 1008 87 10000 6.7 260 15:41 07.12.2019
6594 Drizzle 9 1009 93 9000 5.7 250 15:23 07.12.2019
6595 Clouds 9 1007 87 10000 9.3 260 14:57 07.12.2019
6596 Clouds 9 1007 87 10000 9.3 260 14:39 07.12.2019
6597 Clouds 9 1009 81 10000 5.7 240 14:18 07.12.2019
6598 Clouds 9 1007 87 10000 8.7 270 13:41 07.12.2019
6599 Clouds 9 1009 81 10000 6.2 250 13:21 07.12.2019
6600 Clouds 9 1007 81 10000 8.7 270 12:56 07.12.2019
6601 Clouds 9 1007 81 10000 8.7 270 12:38 07.12.2019
6602 Clouds 9 1008 81 10000 6.2 250 12:20 07.12.2019
6603 Clouds 9 1006 87 10000 10.3 270 11:57 07.12.2019
6604 Clouds 9 1006 87 10000 10.3 270 11:38 07.12.2019
6605 Clouds 9 1008 93 10000 6.2 260 11:20 07.12.2019
6606 Clouds 9 1006 87 10000 9.8 270 10:38 07.12.2019
6607 Clouds 9 1008 87 10000 6.2 250 10:19 07.12.2019
6608 Clouds 9 1005 87 10000 9.3 270 09:42 07.12.2019
6609 Clouds 9 1007 87 10000 5.7 250 09:22 07.12.2019
6610 Clouds 9 1005 87 10000 8.7 270 08:59 07.12.2019
6611 Clouds 9 1005 87 10000 8.7 270 08:39 07.12.2019
6612 Clouds 9 1006 87 10000 6.7 260 08:21 07.12.2019
6613 Clouds 9 1003 87 10000 8.7 270 07:45 07.12.2019
6614 Clouds 9 1005 87 10000 5.7 260 07:25 07.12.2019
6615 Clouds 9 1003 87 10000 9.3 270 06:50 07.12.2019
6616 Clouds 9 1004 87 10000 5.7 260 06:25 07.12.2019
6617 Clouds 9 1003 93 9000 6.7 260 05:30 07.12.2019
6618 Clouds 9 999 87 10000 7.7 270 03:59 07.12.2019
6619 Clouds 9 999 87 10000 7.7 270 03:40 07.12.2019
6620 Clouds 9 998 93 10000 5.1 250 02:21 07.12.2019
6621 Drizzle 9 998 100 7000 5.1 250 01:35 07.12.2019
6622 Drizzle 8 998 93 5000 6.7 240 00:55 07.12.2019
6623 Rain 8 999 100 6000 6.2 230 00:20 07.12.2019
6624 Drizzle 8 997 93 3500 8.7 220 23:56 06.12.2019
6625 Drizzle 8 997 93 3500 8.7 220 23:38 06.12.2019
6626 Drizzle 8 997 93 5000 7.7 220 23:18 06.12.2019
6627 Drizzle 8 997 93 5000 7.7 220 22:39 06.12.2019
6628 Drizzle 8 998 100 6000 9.8 210 22:20 06.12.2019
6629 Drizzle 8 998 93 5000 7.7 220 21:58 06.12.2019
6630 Drizzle 8 998 93 5000 7.7 220 21:39 06.12.2019
6631 Drizzle 8 998 93 5000 9.3 220 21:20 06.12.2019
6632 Drizzle 8 998 93 5000 9.3 220 20:45 06.12.2019
6633 Rain 8 999 100 4100 9.8 210 20:25 06.12.2019
6634 Rain 8 999 93 2800 9.3 210 19:59 06.12.2019
6635 Rain 8 999 93 2800 9.3 210 19:40 06.12.2019
6636 Rain 8 999 93 3500 9.8 210 19:22 06.12.2019
6637 Rain 8 999 93 3500 9.8 210 19:22 06.12.2019
6638 Rain 8 999 93 3500 9.8 210 19:22 06.12.2019
6639 Drizzle 8 999 93 4000 7.7 220 18:58 06.12.2019
6640 Drizzle 8 999 93 4000 7.7 220 18:40 06.12.2019
6641 Drizzle 8 1000 93 2700 9.3 210 18:20 06.12.2019
6642 Drizzle 7 999 93 4000 8.7 220 17:57 06.12.2019
6643 Drizzle 7 999 93 4000 8.7 220 17:39 06.12.2019
6644 Drizzle 7 1000 93 2600 9.3 210 17:21 06.12.2019
6645 Rain 7 1000 100 2700 9.3 210 16:56 06.12.2019
6646 Drizzle 7 1000 93 5000 8.2 210 16:37 06.12.2019
6647 Rain 7 1001 93 5000 9.3 210 16:18 06.12.2019
6648 Drizzle 7 1000 93 5000 9.8 210 15:41 06.12.2019
6649 Drizzle 7 1000 93 5000 9.8 210 15:41 06.12.2019
6650 Clouds 7 1001 93 4900 9.8 210 15:22 06.12.2019
6651 Drizzle 7 1001 93 4000 8.2 220 14:57 06.12.2019
6652 Drizzle 6 1001 93 4000 8.2 220 14:39 06.12.2019
6653 Rain 6 1002 93 2200 9.3 210 14:19 06.12.2019
6654 Drizzle 6 1002 93 4000 8.7 220 13:46 06.12.2019
6655 Rain 6 1003 93 2300 9.3 210 13:26 06.12.2019
6656 Mist 6 1003 93 4000 8.2 220 12:57 06.12.2019
6657 Mist 6 1003 93 4000 8.2 220 12:39 06.12.2019
6658 Drizzle 6 1004 100 2500 9.3 210 12:20 06.12.2019
6659 Drizzle 6 1004 93 3500 8.7 220 11:42 06.12.2019
6660 Drizzle 6 1005 93 3800 8.2 210 11:23 06.12.2019
6661 Mist 6 1005 93 4000 8.7 220 10:56 06.12.2019
6662 Mist 6 1005 93 4000 8.7 220 10:38 06.12.2019
6663 Rain 6 1006 93 5000 9.3 210 10:20 06.12.2019
6664 Mist 6 1005 93 5000 8.2 220 09:55 06.12.2019
6665 Mist 6 1005 93 5000 8.2 220 09:36 06.12.2019
6666 Drizzle 6 1005 93 2500 8.2 220 09:18 06.12.2019
6667 Drizzle 6 1005 93 1800 7.7 230 08:42 06.12.2019
6668 Drizzle 6 1005 93 3000 7.7 220 08:24 06.12.2019
6669 Clouds 6 1005 93 6000 8.2 230 07:42 06.12.2019
6670 Rain 6 1005 93 6000 8.7 230 07:22 06.12.2019
6671 Clouds 6 1005 93 8000 9.3 230 06:48 06.12.2019
6672 Mist 6 1007 93 4200 9.8 220 06:25 06.12.2019
6673 Rain 6 1006 93 6000 7.7 220 05:49 06.12.2019
6674 Clouds 6 1007 93 4700 10.8 220 03:50 06.12.2019
6675 Rain 6 1007 93 6000 10.3 230 01:46 06.12.2019
6676 Rain 5 1008 86 6000 9.3 220 00:56 06.12.2019
6677 Drizzle 5 1010 93 5000 10.3 210 00:24 06.12.2019
6678 Rain 5 1009 93 5000 8.7 220 23:56 05.12.2019
6679 Rain 5 1011 93 4400 9.8 210 23:21 05.12.2019
6680 Mist 5 1010 93 5000 8.7 220 22:59 05.12.2019
6681 Mist 5 1010 93 5000 8.7 220 22:39 05.12.2019
6682 Mist 5 1011 93 5000 9.3 220 22:20 05.12.2019
6683 Mist 5 1011 93 5000 9.3 220 22:20 05.12.2019
6684 Mist 5 1011 93 5000 9.3 220 22:20 05.12.2019
6685 Mist 4 1011 93 5000 8.7 210 21:58 05.12.2019
6686 Mist 4 1011 93 5000 8.7 210 21:40 05.12.2019
6687 Mist 4 1012 100 2800 8.2 210 21:22 05.12.2019
6688 Mist 4 1012 93 4000 7.2 200 20:58 05.12.2019
6689 Mist 4 1012 93 4000 7.2 200 20:40 05.12.2019
6690 Mist 4 1013 93 2900 7.7 200 20:19 05.12.2019
6691 Mist 4 1013 93 4500 7.7 210 19:44 05.12.2019
6692 Mist 4 1013 93 4500 7.7 210 19:44 05.12.2019
6693 Mist 3 1014 93 2600 7.7 200 19:26 05.12.2019
6694 Mist 3 1014 93 2600 7.7 200 18:59 05.12.2019
6695 Mist 3 1014 93 5000 6.7 210 18:39 05.12.2019
6696 Mist 3 1014 93 5000 6.7 210 18:39 05.12.2019
6697 Mist 3 1015 100 2800 6.7 200 18:21 05.12.2019
6698 Mist 3 1015 100 2800 6.7 200 18:21 05.12.2019
6699 Mist 3 1015 100 2800 6.7 200 18:21 05.12.2019
6700 Mist 3 1015 100 2800 6.7 200 17:59 05.12.2019
6701 Mist 3 1014 93 3500 6.2 210 17:38 05.12.2019
6702 Mist 3 1015 93 4100 5.7 200 17:19 05.12.2019
6703 Fog 3 1015 100 1500 6.2 210 16:55 05.12.2019
6704 Fog 3 1015 100 1500 6.2 210 16:37 05.12.2019
6705 Fog 3 1015 100 1200 6.2 210 16:19 05.12.2019
6706 Fog 3 1016 93 450 6.2 210 15:56 05.12.2019
6707 Fog 3 1016 93 450 6.2 210 15:37 05.12.2019
6708 Mist 2 1017 100 1200 5.7 200 15:18 05.12.2019
6709 Fog 2 1017 93 450 5.1 220 14:55 05.12.2019
6710 Fog 2 1017 9